<?xml version="1.0" encoding="UTF-8" standalone="no" ?>
<gpx xmlns="http://www.topografix.com/GPX/1/1" xmlns:xsi="http://www.w3.org/2001/XMLSchema-instance" xsi:schemaLocation="http://www.topografix.com/GPX/1/1 http://www.topografix.com/GPX/1/1/gpx.xsd" version="1.1" creator="VisuGPX - https://www.visugpx.com">
  <metadata>
    <name>Bar sur loup - Foulon - Cipières - Cavilore - Gourdon</name>
    <desc><![CDATA[Caro, Gaétan, Pierre & Thomas
Joli balade, traversée des tunnels un peu longues.]]></desc>
  </metadata>
  <trk>
    <name><![CDATA[Bar sur loup - Foulon - Cipières - Cavilore - Gourdon_1]]></name>
    <trkseg>
      <trkpt lat="43.70137" lon="6.98932">
        <ele>339.482666</ele>
        <time>2012-01-07T10:12:58+01:00</time>
      </trkpt>
      <trkpt lat="43.70138" lon="6.9893">
        <ele>339.002075</ele>
        <time>2012-01-07T10:12:59+01:00</time>
      </trkpt>
      <trkpt lat="43.70139" lon="6.98928">
        <ele>338.521484</ele>
        <time>2012-01-07T10:13:02+01:00</time>
      </trkpt>
      <trkpt lat="43.70137" lon="6.98926">
        <ele>337.079468</ele>
        <time>2012-01-07T10:13:05+01:00</time>
      </trkpt>
      <trkpt lat="43.70129" lon="6.98914">
        <ele>338.521484</ele>
        <time>2012-01-07T10:13:13+01:00</time>
      </trkpt>
      <trkpt lat="43.70126" lon="6.98907">
        <ele>345.731323</ele>
        <time>2012-01-07T10:13:19+01:00</time>
      </trkpt>
      <trkpt lat="43.70122" lon="6.98893">
        <ele>353.902588</ele>
        <time>2012-01-07T10:13:26+01:00</time>
      </trkpt>
      <trkpt lat="43.70111" lon="6.9887">
        <ele>347.173218</ele>
        <time>2012-01-07T10:13:31+01:00</time>
      </trkpt>
      <trkpt lat="43.70095" lon="6.98844">
        <ele>339.963379</ele>
        <time>2012-01-07T10:13:37+01:00</time>
      </trkpt>
      <trkpt lat="43.7009" lon="6.98835">
        <ele>338.521484</ele>
        <time>2012-01-07T10:13:39+01:00</time>
      </trkpt>
      <trkpt lat="43.70069" lon="6.98794">
        <ele>334.195435</ele>
        <time>2012-01-07T10:13:46+01:00</time>
      </trkpt>
      <trkpt lat="43.70037" lon="6.98754">
        <ele>334.195435</ele>
        <time>2012-01-07T10:13:54+01:00</time>
      </trkpt>
      <trkpt lat="43.70032" lon="6.98744">
        <ele>334.195435</ele>
        <time>2012-01-07T10:13:57+01:00</time>
      </trkpt>
      <trkpt lat="43.70026" lon="6.98738">
        <ele>334.676147</ele>
        <time>2012-01-07T10:13:59+01:00</time>
      </trkpt>
      <trkpt lat="43.7002" lon="6.98717">
        <ele>339.482666</ele>
        <time>2012-01-07T10:14:04+01:00</time>
      </trkpt>
      <trkpt lat="43.70005" lon="6.98686">
        <ele>339.482666</ele>
        <time>2012-01-07T10:14:11+01:00</time>
      </trkpt>
      <trkpt lat="43.70003" lon="6.98681">
        <ele>339.482666</ele>
        <time>2012-01-07T10:14:15+01:00</time>
      </trkpt>
      <trkpt lat="43.70003" lon="6.9868">
        <ele>339.002075</ele>
        <time>2012-01-07T10:14:16+01:00</time>
      </trkpt>
      <trkpt lat="43.70001" lon="6.98675">
        <ele>338.040771</ele>
        <time>2012-01-07T10:14:20+01:00</time>
      </trkpt>
      <trkpt lat="43.69993" lon="6.98661">
        <ele>336.118164</ele>
        <time>2012-01-07T10:14:28+01:00</time>
      </trkpt>
      <trkpt lat="43.69991" lon="6.98652">
        <ele>336.118164</ele>
        <time>2012-01-07T10:14:33+01:00</time>
      </trkpt>
      <trkpt lat="43.69988" lon="6.98648">
        <ele>334.676147</ele>
        <time>2012-01-07T10:14:40+01:00</time>
      </trkpt>
      <trkpt lat="43.69981" lon="6.98636">
        <ele>334.195435</ele>
        <time>2012-01-07T10:14:46+01:00</time>
      </trkpt>
      <trkpt lat="43.69979" lon="6.98624">
        <ele>335.637329</ele>
        <time>2012-01-07T10:14:52+01:00</time>
      </trkpt>
      <trkpt lat="43.69975" lon="6.98606">
        <ele>336.598877</ele>
        <time>2012-01-07T10:14:59+01:00</time>
      </trkpt>
      <trkpt lat="43.69972" lon="6.98595">
        <ele>338.521484</ele>
        <time>2012-01-07T10:15:04+01:00</time>
      </trkpt>
      <trkpt lat="43.69968" lon="6.98579">
        <ele>340.444092</ele>
        <time>2012-01-07T10:15:11+01:00</time>
      </trkpt>
      <trkpt lat="43.69962" lon="6.98564">
        <ele>341.405273</ele>
        <time>2012-01-07T10:15:17+01:00</time>
      </trkpt>
      <trkpt lat="43.69953" lon="6.98547">
        <ele>346.212036</ele>
        <time>2012-01-07T10:15:24+01:00</time>
      </trkpt>
      <trkpt lat="43.69944" lon="6.98533">
        <ele>346.212036</ele>
        <time>2012-01-07T10:15:30+01:00</time>
      </trkpt>
      <trkpt lat="43.6993" lon="6.98509">
        <ele>344.77002</ele>
        <time>2012-01-07T10:15:39+01:00</time>
      </trkpt>
      <trkpt lat="43.69915" lon="6.98487">
        <ele>345.731323</ele>
        <time>2012-01-07T10:15:47+01:00</time>
      </trkpt>
      <trkpt lat="43.69905" lon="6.98468">
        <ele>346.212036</ele>
        <time>2012-01-07T10:15:53+01:00</time>
      </trkpt>
      <trkpt lat="43.69892" lon="6.98448">
        <ele>346.212036</ele>
        <time>2012-01-07T10:16:00+01:00</time>
      </trkpt>
      <trkpt lat="43.69882" lon="6.98426">
        <ele>347.173218</ele>
        <time>2012-01-07T10:16:07+01:00</time>
      </trkpt>
      <trkpt lat="43.69885" lon="6.98413">
        <ele>347.653931</ele>
        <time>2012-01-07T10:16:11+01:00</time>
      </trkpt>
      <trkpt lat="43.69895" lon="6.98386">
        <ele>350.057251</ele>
        <time>2012-01-07T10:16:20+01:00</time>
      </trkpt>
      <trkpt lat="43.69903" lon="6.98366">
        <ele>353.902588</ele>
        <time>2012-01-07T10:16:27+01:00</time>
      </trkpt>
      <trkpt lat="43.69906" lon="6.98349">
        <ele>354.86377</ele>
        <time>2012-01-07T10:16:33+01:00</time>
      </trkpt>
      <trkpt lat="43.69905" lon="6.9833">
        <ele>355.344482</ele>
        <time>2012-01-07T10:16:41+01:00</time>
      </trkpt>
      <trkpt lat="43.69906" lon="6.98315">
        <ele>356.786377</ele>
        <time>2012-01-07T10:16:48+01:00</time>
      </trkpt>
      <trkpt lat="43.69907" lon="6.98299">
        <ele>359.189697</ele>
        <time>2012-01-07T10:16:55+01:00</time>
      </trkpt>
      <trkpt lat="43.69909" lon="6.98282">
        <ele>360.151123</ele>
        <time>2012-01-07T10:17:03+01:00</time>
      </trkpt>
      <trkpt lat="43.69914" lon="6.98266">
        <ele>363.035034</ele>
        <time>2012-01-07T10:17:11+01:00</time>
      </trkpt>
      <trkpt lat="43.69921" lon="6.98253">
        <ele>365.918945</ele>
        <time>2012-01-07T10:17:19+01:00</time>
      </trkpt>
      <trkpt lat="43.69926" lon="6.9824">
        <ele>368.322266</ele>
        <time>2012-01-07T10:17:26+01:00</time>
      </trkpt>
      <trkpt lat="43.69933" lon="6.98223">
        <ele>369.764282</ele>
        <time>2012-01-07T10:17:35+01:00</time>
      </trkpt>
      <trkpt lat="43.69941" lon="6.98217">
        <ele>370.725586</ele>
        <time>2012-01-07T10:17:41+01:00</time>
      </trkpt>
      <trkpt lat="43.69949" lon="6.98213">
        <ele>371.68689</ele>
        <time>2012-01-07T10:17:47+01:00</time>
      </trkpt>
      <trkpt lat="43.6996" lon="6.98207">
        <ele>375.532104</ele>
        <time>2012-01-07T10:17:56+01:00</time>
      </trkpt>
      <trkpt lat="43.69964" lon="6.982">
        <ele>379.377441</ele>
        <time>2012-01-07T10:18:02+01:00</time>
      </trkpt>
      <trkpt lat="43.69968" lon="6.98189">
        <ele>383.703247</ele>
        <time>2012-01-07T10:18:09+01:00</time>
      </trkpt>
      <trkpt lat="43.69977" lon="6.98176">
        <ele>384.664795</ele>
        <time>2012-01-07T10:18:18+01:00</time>
      </trkpt>
      <trkpt lat="43.69982" lon="6.98165">
        <ele>386.587402</ele>
        <time>2012-01-07T10:18:25+01:00</time>
      </trkpt>
      <trkpt lat="43.69986" lon="6.9815">
        <ele>389.951904</ele>
        <time>2012-01-07T10:18:32+01:00</time>
      </trkpt>
      <trkpt lat="43.6999" lon="6.9814">
        <ele>390.913208</ele>
        <time>2012-01-07T10:18:38+01:00</time>
      </trkpt>
      <trkpt lat="43.7" lon="6.98128">
        <ele>390.432617</ele>
        <time>2012-01-07T10:18:43+01:00</time>
      </trkpt>
      <trkpt lat="43.70011" lon="6.98118">
        <ele>392.355347</ele>
        <time>2012-01-07T10:18:50+01:00</time>
      </trkpt>
      <trkpt lat="43.70019" lon="6.98106">
        <ele>395.719849</ele>
        <time>2012-01-07T10:18:57+01:00</time>
      </trkpt>
      <trkpt lat="43.70021" lon="6.98103">
        <ele>396.200562</ele>
        <time>2012-01-07T10:18:58+01:00</time>
      </trkpt>
      <trkpt lat="43.70023" lon="6.98085">
        <ele>399.565063</ele>
        <time>2012-01-07T10:19:05+01:00</time>
      </trkpt>
      <trkpt lat="43.70025" lon="6.98064">
        <ele>404.371704</ele>
        <time>2012-01-07T10:19:13+01:00</time>
      </trkpt>
      <trkpt lat="43.70025" lon="6.98043">
        <ele>407.736328</ele>
        <time>2012-01-07T10:19:21+01:00</time>
      </trkpt>
      <trkpt lat="43.70024" lon="6.98024">
        <ele>411.100952</ele>
        <time>2012-01-07T10:19:28+01:00</time>
      </trkpt>
      <trkpt lat="43.70023" lon="6.98006">
        <ele>413.984863</ele>
        <time>2012-01-07T10:19:35+01:00</time>
      </trkpt>
      <trkpt lat="43.70021" lon="6.97987">
        <ele>418.310791</ele>
        <time>2012-01-07T10:19:43+01:00</time>
      </trkpt>
      <trkpt lat="43.7002" lon="6.9797">
        <ele>420.714111</ele>
        <time>2012-01-07T10:19:50+01:00</time>
      </trkpt>
      <trkpt lat="43.7002" lon="6.97953">
        <ele>422.156006</ele>
        <time>2012-01-07T10:19:57+01:00</time>
      </trkpt>
      <trkpt lat="43.70019" lon="6.9794">
        <ele>424.559448</ele>
        <time>2012-01-07T10:20:03+01:00</time>
      </trkpt>
      <trkpt lat="43.70018" lon="6.97924">
        <ele>426.001343</ele>
        <time>2012-01-07T10:20:10+01:00</time>
      </trkpt>
      <trkpt lat="43.70018" lon="6.97904">
        <ele>427.443359</ele>
        <time>2012-01-07T10:20:18+01:00</time>
      </trkpt>
      <trkpt lat="43.70019" lon="6.97889">
        <ele>427.443359</ele>
        <time>2012-01-07T10:20:25+01:00</time>
      </trkpt>
      <trkpt lat="43.70019" lon="6.97875">
        <ele>428.404663</ele>
        <time>2012-01-07T10:20:31+01:00</time>
      </trkpt>
      <trkpt lat="43.70019" lon="6.97865">
        <ele>428.404663</ele>
        <time>2012-01-07T10:20:36+01:00</time>
      </trkpt>
      <trkpt lat="43.7002" lon="6.97856">
        <ele>428.885376</ele>
        <time>2012-01-07T10:20:43+01:00</time>
      </trkpt>
      <trkpt lat="43.7002" lon="6.97854">
        <ele>425.040161</ele>
        <time>2012-01-07T10:20:50+01:00</time>
      </trkpt>
      <trkpt lat="43.70021" lon="6.97852">
        <ele>421.194824</ele>
        <time>2012-01-07T10:20:59+01:00</time>
      </trkpt>
      <trkpt lat="43.70022" lon="6.97853">
        <ele>417.349609</ele>
        <time>2012-01-07T10:21:12+01:00</time>
      </trkpt>
      <trkpt lat="43.70022" lon="6.97853">
        <ele>417.8302</ele>
        <time>2012-01-07T10:21:19+01:00</time>
      </trkpt>
      <trkpt lat="43.70021" lon="6.97853">
        <ele>418.791504</ele>
        <time>2012-01-07T10:21:26+01:00</time>
      </trkpt>
      <trkpt lat="43.70023" lon="6.97849">
        <ele>419.752808</ele>
        <time>2012-01-07T10:21:32+01:00</time>
      </trkpt>
      <trkpt lat="43.70024" lon="6.9784">
        <ele>420.233398</ele>
        <time>2012-01-07T10:21:39+01:00</time>
      </trkpt>
      <trkpt lat="43.70025" lon="6.97834">
        <ele>420.714111</ele>
        <time>2012-01-07T10:21:44+01:00</time>
      </trkpt>
      <trkpt lat="43.70027" lon="6.97823">
        <ele>422.156006</ele>
        <time>2012-01-07T10:21:49+01:00</time>
      </trkpt>
      <trkpt lat="43.70028" lon="6.97808">
        <ele>423.598022</ele>
        <time>2012-01-07T10:21:55+01:00</time>
      </trkpt>
      <trkpt lat="43.70028" lon="6.97798">
        <ele>424.559448</ele>
        <time>2012-01-07T10:22:00+01:00</time>
      </trkpt>
      <trkpt lat="43.7003" lon="6.97784">
        <ele>426.962769</ele>
        <time>2012-01-07T10:22:08+01:00</time>
      </trkpt>
      <trkpt lat="43.70035" lon="6.97786">
        <ele>426.001343</ele>
        <time>2012-01-07T10:22:14+01:00</time>
      </trkpt>
      <trkpt lat="43.70039" lon="6.97784">
        <ele>426.482056</ele>
        <time>2012-01-07T10:22:18+01:00</time>
      </trkpt>
      <trkpt lat="43.70041" lon="6.97773">
        <ele>427.92395</ele>
        <time>2012-01-07T10:22:23+01:00</time>
      </trkpt>
      <trkpt lat="43.70042" lon="6.97766">
        <ele>429.846558</ele>
        <time>2012-01-07T10:22:27+01:00</time>
      </trkpt>
      <trkpt lat="43.70043" lon="6.97765">
        <ele>434.65332</ele>
        <time>2012-01-07T10:22:34+01:00</time>
      </trkpt>
      <trkpt lat="43.70041" lon="6.97765">
        <ele>439.459717</ele>
        <time>2012-01-07T10:22:40+01:00</time>
      </trkpt>
      <trkpt lat="43.70044" lon="6.97767">
        <ele>441.382446</ele>
        <time>2012-01-07T10:22:49+01:00</time>
      </trkpt>
      <trkpt lat="43.70042" lon="6.97762">
        <ele>438.979126</ele>
        <time>2012-01-07T10:22:57+01:00</time>
      </trkpt>
      <trkpt lat="43.70041" lon="6.97757">
        <ele>438.498535</ele>
        <time>2012-01-07T10:23:02+01:00</time>
      </trkpt>
      <trkpt lat="43.70041" lon="6.97753">
        <ele>439.94043</ele>
        <time>2012-01-07T10:23:04+01:00</time>
      </trkpt>
      <trkpt lat="43.70041" lon="6.9775">
        <ele>439.94043</ele>
        <time>2012-01-07T10:23:11+01:00</time>
      </trkpt>
      <trkpt lat="43.70038" lon="6.97747">
        <ele>442.343872</ele>
        <time>2012-01-07T10:23:19+01:00</time>
      </trkpt>
      <trkpt lat="43.70039" lon="6.97744">
        <ele>440.901855</ele>
        <time>2012-01-07T10:23:25+01:00</time>
      </trkpt>
      <trkpt lat="43.70038" lon="6.9774">
        <ele>440.901855</ele>
        <time>2012-01-07T10:23:35+01:00</time>
      </trkpt>
      <trkpt lat="43.70038" lon="6.97739">
        <ele>440.901855</ele>
        <time>2012-01-07T10:23:39+01:00</time>
      </trkpt>
      <trkpt lat="43.70036" lon="6.9773">
        <ele>440.901855</ele>
        <time>2012-01-07T10:23:43+01:00</time>
      </trkpt>
      <trkpt lat="43.70034" lon="6.97723">
        <ele>441.382446</ele>
        <time>2012-01-07T10:23:46+01:00</time>
      </trkpt>
      <trkpt lat="43.70035" lon="6.97723">
        <ele>438.498535</ele>
        <time>2012-01-07T10:23:52+01:00</time>
      </trkpt>
      <trkpt lat="43.70035" lon="6.97724">
        <ele>438.979126</ele>
        <time>2012-01-07T10:23:59+01:00</time>
      </trkpt>
      <trkpt lat="43.70034" lon="6.97723">
        <ele>440.421265</ele>
        <time>2012-01-07T10:24:05+01:00</time>
      </trkpt>
      <trkpt lat="43.70035" lon="6.97723">
        <ele>442.343872</ele>
        <time>2012-01-07T10:24:22+01:00</time>
      </trkpt>
      <trkpt lat="43.70035" lon="6.97719">
        <ele>441.863159</ele>
        <time>2012-01-07T10:24:33+01:00</time>
      </trkpt>
      <trkpt lat="43.70034" lon="6.97697">
        <ele>441.863159</ele>
        <time>2012-01-07T10:24:41+01:00</time>
      </trkpt>
      <trkpt lat="43.70032" lon="6.97679">
        <ele>441.863159</ele>
        <time>2012-01-07T10:24:49+01:00</time>
      </trkpt>
      <trkpt lat="43.7003" lon="6.97668">
        <ele>439.94043</ele>
        <time>2012-01-07T10:24:55+01:00</time>
      </trkpt>
      <trkpt lat="43.70029" lon="6.97657">
        <ele>440.901855</ele>
        <time>2012-01-07T10:25:01+01:00</time>
      </trkpt>
      <trkpt lat="43.7003" lon="6.97652">
        <ele>440.901855</ele>
        <time>2012-01-07T10:25:04+01:00</time>
      </trkpt>
      <trkpt lat="43.7003" lon="6.97649">
        <ele>439.94043</ele>
        <time>2012-01-07T10:25:10+01:00</time>
      </trkpt>
      <trkpt lat="43.70031" lon="6.97644">
        <ele>440.421265</ele>
        <time>2012-01-07T10:25:17+01:00</time>
      </trkpt>
      <trkpt lat="43.70034" lon="6.97639">
        <ele>441.382446</ele>
        <time>2012-01-07T10:25:25+01:00</time>
      </trkpt>
      <trkpt lat="43.70036" lon="6.97632">
        <ele>441.863159</ele>
        <time>2012-01-07T10:25:34+01:00</time>
      </trkpt>
      <trkpt lat="43.70037" lon="6.97625">
        <ele>442.343872</ele>
        <time>2012-01-07T10:25:42+01:00</time>
      </trkpt>
      <trkpt lat="43.70039" lon="6.97619">
        <ele>442.824463</ele>
        <time>2012-01-07T10:25:50+01:00</time>
      </trkpt>
      <trkpt lat="43.7004" lon="6.97612">
        <ele>442.824463</ele>
        <time>2012-01-07T10:25:57+01:00</time>
      </trkpt>
      <trkpt lat="43.70042" lon="6.97603">
        <ele>441.863159</ele>
        <time>2012-01-07T10:26:05+01:00</time>
      </trkpt>
      <trkpt lat="43.70042" lon="6.97594">
        <ele>446.189087</ele>
        <time>2012-01-07T10:26:12+01:00</time>
      </trkpt>
      <trkpt lat="43.70044" lon="6.97584">
        <ele>445.227661</ele>
        <time>2012-01-07T10:26:21+01:00</time>
      </trkpt>
      <trkpt lat="43.70046" lon="6.97579">
        <ele>445.708374</ele>
        <time>2012-01-07T10:26:24+01:00</time>
      </trkpt>
      <trkpt lat="43.70047" lon="6.9757">
        <ele>449.072998</ele>
        <time>2012-01-07T10:26:32+01:00</time>
      </trkpt>
      <trkpt lat="43.70049" lon="6.97568">
        <ele>449.553711</ele>
        <time>2012-01-07T10:26:35+01:00</time>
      </trkpt>
      <trkpt lat="43.70054" lon="6.9755">
        <ele>454.360229</ele>
        <time>2012-01-07T10:26:42+01:00</time>
      </trkpt>
      <trkpt lat="43.70059" lon="6.97536">
        <ele>458.205566</ele>
        <time>2012-01-07T10:26:49+01:00</time>
      </trkpt>
      <trkpt lat="43.7006" lon="6.97522">
        <ele>458.686157</ele>
        <time>2012-01-07T10:26:56+01:00</time>
      </trkpt>
      <trkpt lat="43.7006" lon="6.97507">
        <ele>460.608765</ele>
        <time>2012-01-07T10:27:03+01:00</time>
      </trkpt>
      <trkpt lat="43.70061" lon="6.97495">
        <ele>462.050781</ele>
        <time>2012-01-07T10:27:09+01:00</time>
      </trkpt>
      <trkpt lat="43.70066" lon="6.97484">
        <ele>465.896118</ele>
        <time>2012-01-07T10:27:17+01:00</time>
      </trkpt>
      <trkpt lat="43.70069" lon="6.97478">
        <ele>467.338135</ele>
        <time>2012-01-07T10:27:22+01:00</time>
      </trkpt>
      <trkpt lat="43.7007" lon="6.97474">
        <ele>469.260742</ele>
        <time>2012-01-07T10:27:29+01:00</time>
      </trkpt>
      <trkpt lat="43.7007" lon="6.97471">
        <ele>469.260742</ele>
        <time>2012-01-07T10:27:35+01:00</time>
      </trkpt>
      <trkpt lat="43.70072" lon="6.9747">
        <ele>468.299316</ele>
        <time>2012-01-07T10:27:43+01:00</time>
      </trkpt>
      <trkpt lat="43.70075" lon="6.97466">
        <ele>469.741333</ele>
        <time>2012-01-07T10:27:49+01:00</time>
      </trkpt>
      <trkpt lat="43.70078" lon="6.97462">
        <ele>472.144653</ele>
        <time>2012-01-07T10:27:55+01:00</time>
      </trkpt>
      <trkpt lat="43.70078" lon="6.97461">
        <ele>473.106079</ele>
        <time>2012-01-07T10:28:03+01:00</time>
      </trkpt>
      <trkpt lat="43.7008" lon="6.97462">
        <ele>473.106079</ele>
        <time>2012-01-07T10:28:09+01:00</time>
      </trkpt>
      <trkpt lat="43.70085" lon="6.97468">
        <ele>473.106079</ele>
        <time>2012-01-07T10:28:13+01:00</time>
      </trkpt>
      <trkpt lat="43.7009" lon="6.97479">
        <ele>474.547974</ele>
        <time>2012-01-07T10:28:21+01:00</time>
      </trkpt>
      <trkpt lat="43.70095" lon="6.97488">
        <ele>476.951294</ele>
        <time>2012-01-07T10:28:28+01:00</time>
      </trkpt>
      <trkpt lat="43.70097" lon="6.97491">
        <ele>477.912476</ele>
        <time>2012-01-07T10:28:30+01:00</time>
      </trkpt>
      <trkpt lat="43.70103" lon="6.9749">
        <ele>480.315918</ele>
        <time>2012-01-07T10:28:36+01:00</time>
      </trkpt>
      <trkpt lat="43.70106" lon="6.97482">
        <ele>481.757812</ele>
        <time>2012-01-07T10:28:41+01:00</time>
      </trkpt>
      <trkpt lat="43.70109" lon="6.97478">
        <ele>483.68042</ele>
        <time>2012-01-07T10:28:45+01:00</time>
      </trkpt>
      <trkpt lat="43.70116" lon="6.97469">
        <ele>486.08374</ele>
        <time>2012-01-07T10:28:52+01:00</time>
      </trkpt>
      <trkpt lat="43.70123" lon="6.97459">
        <ele>488.00647</ele>
        <time>2012-01-07T10:29:00+01:00</time>
      </trkpt>
      <trkpt lat="43.70127" lon="6.97453">
        <ele>489.448364</ele>
        <time>2012-01-07T10:29:05+01:00</time>
      </trkpt>
      <trkpt lat="43.70134" lon="6.97447">
        <ele>491.851685</ele>
        <time>2012-01-07T10:29:11+01:00</time>
      </trkpt>
      <trkpt lat="43.70135" lon="6.97447">
        <ele>493.774292</ele>
        <time>2012-01-07T10:29:19+01:00</time>
      </trkpt>
      <trkpt lat="43.70133" lon="6.97443">
        <ele>492.812988</ele>
        <time>2012-01-07T10:29:35+01:00</time>
      </trkpt>
      <trkpt lat="43.70133" lon="6.97443">
        <ele>494.255005</ele>
        <time>2012-01-07T10:29:40+01:00</time>
      </trkpt>
      <trkpt lat="43.70134" lon="6.97443">
        <ele>498.100342</ele>
        <time>2012-01-07T10:29:49+01:00</time>
      </trkpt>
      <trkpt lat="43.70128" lon="6.9744">
        <ele>507.713501</ele>
        <time>2012-01-07T10:30:02+01:00</time>
      </trkpt>
      <trkpt lat="43.70129" lon="6.97438">
        <ele>509.636108</ele>
        <time>2012-01-07T10:30:06+01:00</time>
      </trkpt>
      <trkpt lat="43.70137" lon="6.97428">
        <ele>508.194092</ele>
        <time>2012-01-07T10:30:13+01:00</time>
      </trkpt>
      <trkpt lat="43.70139" lon="6.97416">
        <ele>506.752075</ele>
        <time>2012-01-07T10:30:19+01:00</time>
      </trkpt>
      <trkpt lat="43.7014" lon="6.9741">
        <ele>506.271484</ele>
        <time>2012-01-07T10:30:22+01:00</time>
      </trkpt>
      <trkpt lat="43.70146" lon="6.97396">
        <ele>505.310181</ele>
        <time>2012-01-07T10:30:30+01:00</time>
      </trkpt>
      <trkpt lat="43.70151" lon="6.97384">
        <ele>505.790894</ele>
        <time>2012-01-07T10:30:37+01:00</time>
      </trkpt>
      <trkpt lat="43.70157" lon="6.97379">
        <ele>507.232788</ele>
        <time>2012-01-07T10:30:42+01:00</time>
      </trkpt>
      <trkpt lat="43.70157" lon="6.97383">
        <ele>507.232788</ele>
        <time>2012-01-07T10:30:47+01:00</time>
      </trkpt>
      <trkpt lat="43.70157" lon="6.97384">
        <ele>508.194092</ele>
        <time>2012-01-07T10:30:53+01:00</time>
      </trkpt>
      <trkpt lat="43.70157" lon="6.97383">
        <ele>508.674683</ele>
        <time>2012-01-07T10:31:02+01:00</time>
      </trkpt>
      <trkpt lat="43.70156" lon="6.97384">
        <ele>509.155396</ele>
        <time>2012-01-07T10:31:08+01:00</time>
      </trkpt>
      <trkpt lat="43.70155" lon="6.97388">
        <ele>509.636108</ele>
        <time>2012-01-07T10:31:11+01:00</time>
      </trkpt>
      <trkpt lat="43.70155" lon="6.97396">
        <ele>507.713501</ele>
        <time>2012-01-07T10:31:18+01:00</time>
      </trkpt>
      <trkpt lat="43.70154" lon="6.97402">
        <ele>507.232788</ele>
        <time>2012-01-07T10:31:25+01:00</time>
      </trkpt>
      <trkpt lat="43.70155" lon="6.97409">
        <ele>506.752075</ele>
        <time>2012-01-07T10:31:39+01:00</time>
      </trkpt>
      <trkpt lat="43.70156" lon="6.97424">
        <ele>506.271484</ele>
        <time>2012-01-07T10:31:45+01:00</time>
      </trkpt>
      <trkpt lat="43.70157" lon="6.97436">
        <ele>505.310181</ele>
        <time>2012-01-07T10:31:48+01:00</time>
      </trkpt>
      <trkpt lat="43.70152" lon="6.97447">
        <ele>506.271484</ele>
        <time>2012-01-07T10:31:52+01:00</time>
      </trkpt>
      <trkpt lat="43.70146" lon="6.97459">
        <ele>506.752075</ele>
        <time>2012-01-07T10:31:58+01:00</time>
      </trkpt>
      <trkpt lat="43.70143" lon="6.97477">
        <ele>506.271484</ele>
        <time>2012-01-07T10:32:03+01:00</time>
      </trkpt>
      <trkpt lat="43.7014" lon="6.97501">
        <ele>506.752075</ele>
        <time>2012-01-07T10:32:09+01:00</time>
      </trkpt>
      <trkpt lat="43.70137" lon="6.97517">
        <ele>507.232788</ele>
        <time>2012-01-07T10:32:14+01:00</time>
      </trkpt>
      <trkpt lat="43.70136" lon="6.9753">
        <ele>507.232788</ele>
        <time>2012-01-07T10:32:18+01:00</time>
      </trkpt>
      <trkpt lat="43.70137" lon="6.97533">
        <ele>508.194092</ele>
        <time>2012-01-07T10:32:24+01:00</time>
      </trkpt>
      <trkpt lat="43.70137" lon="6.97534">
        <ele>508.674683</ele>
        <time>2012-01-07T10:32:26+01:00</time>
      </trkpt>
      <trkpt lat="43.70139" lon="6.97551">
        <ele>508.194092</ele>
        <time>2012-01-07T10:32:32+01:00</time>
      </trkpt>
      <trkpt lat="43.70141" lon="6.97565">
        <ele>507.713501</ele>
        <time>2012-01-07T10:32:38+01:00</time>
      </trkpt>
      <trkpt lat="43.70143" lon="6.97577">
        <ele>507.713501</ele>
        <time>2012-01-07T10:32:44+01:00</time>
      </trkpt>
      <trkpt lat="43.70146" lon="6.97598">
        <ele>507.713501</ele>
        <time>2012-01-07T10:32:49+01:00</time>
      </trkpt>
      <trkpt lat="43.70157" lon="6.97625">
        <ele>504.829468</ele>
        <time>2012-01-07T10:32:55+01:00</time>
      </trkpt>
      <trkpt lat="43.70169" lon="6.97647">
        <ele>503.868164</ele>
        <time>2012-01-07T10:33:00+01:00</time>
      </trkpt>
      <trkpt lat="43.70174" lon="6.9768">
        <ele>503.868164</ele>
        <time>2012-01-07T10:33:07+01:00</time>
      </trkpt>
      <trkpt lat="43.70175" lon="6.97685">
        <ele>505.790894</ele>
        <time>2012-01-07T10:33:10+01:00</time>
      </trkpt>
      <trkpt lat="43.70177" lon="6.97704">
        <ele>506.271484</ele>
        <time>2012-01-07T10:33:17+01:00</time>
      </trkpt>
      <trkpt lat="43.70179" lon="6.97715">
        <ele>506.752075</ele>
        <time>2012-01-07T10:33:22+01:00</time>
      </trkpt>
      <trkpt lat="43.7018" lon="6.97718">
        <ele>508.674683</ele>
        <time>2012-01-07T10:33:27+01:00</time>
      </trkpt>
      <trkpt lat="43.70181" lon="6.9772">
        <ele>509.155396</ele>
        <time>2012-01-07T10:33:32+01:00</time>
      </trkpt>
      <trkpt lat="43.70181" lon="6.97722">
        <ele>510.116699</ele>
        <time>2012-01-07T10:33:38+01:00</time>
      </trkpt>
      <trkpt lat="43.70181" lon="6.97723">
        <ele>511.078003</ele>
        <time>2012-01-07T10:33:47+01:00</time>
      </trkpt>
      <trkpt lat="43.70181" lon="6.97726">
        <ele>511.558716</ele>
        <time>2012-01-07T10:33:54+01:00</time>
      </trkpt>
      <trkpt lat="43.70183" lon="6.97737">
        <ele>511.558716</ele>
        <time>2012-01-07T10:33:59+01:00</time>
      </trkpt>
      <trkpt lat="43.70191" lon="6.97749">
        <ele>511.558716</ele>
        <time>2012-01-07T10:34:04+01:00</time>
      </trkpt>
      <trkpt lat="43.70198" lon="6.97771">
        <ele>511.558716</ele>
        <time>2012-01-07T10:34:09+01:00</time>
      </trkpt>
      <trkpt lat="43.70198" lon="6.97798">
        <ele>512.039429</ele>
        <time>2012-01-07T10:34:15+01:00</time>
      </trkpt>
      <trkpt lat="43.70202" lon="6.97814">
        <ele>511.558716</ele>
        <time>2012-01-07T10:34:19+01:00</time>
      </trkpt>
      <trkpt lat="43.70203" lon="6.97832">
        <ele>512.039429</ele>
        <time>2012-01-07T10:34:23+01:00</time>
      </trkpt>
      <trkpt lat="43.70201" lon="6.97856">
        <ele>513.481445</ele>
        <time>2012-01-07T10:34:29+01:00</time>
      </trkpt>
      <trkpt lat="43.70201" lon="6.97858">
        <ele>513.481445</ele>
        <time>2012-01-07T10:34:30+01:00</time>
      </trkpt>
      <trkpt lat="43.702" lon="6.97863">
        <ele>513.000732</ele>
        <time>2012-01-07T10:34:38+01:00</time>
      </trkpt>
      <trkpt lat="43.70199" lon="6.97876">
        <ele>512.52002</ele>
        <time>2012-01-07T10:34:44+01:00</time>
      </trkpt>
      <trkpt lat="43.70199" lon="6.9789">
        <ele>512.039429</ele>
        <time>2012-01-07T10:34:51+01:00</time>
      </trkpt>
      <trkpt lat="43.70198" lon="6.9789">
        <ele>512.039429</ele>
        <time>2012-01-07T10:35:02+01:00</time>
      </trkpt>
      <trkpt lat="43.70198" lon="6.9789">
        <ele>513.962036</ele>
        <time>2012-01-07T10:35:16+01:00</time>
      </trkpt>
      <trkpt lat="43.70198" lon="6.9789">
        <ele>513.962036</ele>
        <time>2012-01-07T10:35:22+01:00</time>
      </trkpt>
      <trkpt lat="43.70199" lon="6.9789">
        <ele>513.481445</ele>
        <time>2012-01-07T10:35:28+01:00</time>
      </trkpt>
      <trkpt lat="43.70198" lon="6.9789">
        <ele>512.52002</ele>
        <time>2012-01-07T10:35:34+01:00</time>
      </trkpt>
      <trkpt lat="43.70197" lon="6.97893">
        <ele>511.078003</ele>
        <time>2012-01-07T10:35:37+01:00</time>
      </trkpt>
      <trkpt lat="43.70198" lon="6.97892">
        <ele>509.636108</ele>
        <time>2012-01-07T10:35:47+01:00</time>
      </trkpt>
      <trkpt lat="43.70198" lon="6.97891">
        <ele>509.155396</ele>
        <time>2012-01-07T10:35:55+01:00</time>
      </trkpt>
      <trkpt lat="43.70198" lon="6.97891">
        <ele>508.674683</ele>
        <time>2012-01-07T10:36:00+01:00</time>
      </trkpt>
      <trkpt lat="43.70198" lon="6.9789">
        <ele>508.194092</ele>
        <time>2012-01-07T10:36:10+01:00</time>
      </trkpt>
      <trkpt lat="43.70199" lon="6.97891">
        <ele>507.232788</ele>
        <time>2012-01-07T10:36:20+01:00</time>
      </trkpt>
      <trkpt lat="43.702" lon="6.9789">
        <ele>507.232788</ele>
        <time>2012-01-07T10:36:39+01:00</time>
      </trkpt>
      <trkpt lat="43.702" lon="6.9789">
        <ele>507.713501</ele>
        <time>2012-01-07T10:36:44+01:00</time>
      </trkpt>
      <trkpt lat="43.70199" lon="6.9789">
        <ele>508.194092</ele>
        <time>2012-01-07T10:36:53+01:00</time>
      </trkpt>
      <trkpt lat="43.70199" lon="6.97889">
        <ele>509.155396</ele>
        <time>2012-01-07T10:36:58+01:00</time>
      </trkpt>
      <trkpt lat="43.70199" lon="6.97892">
        <ele>509.155396</ele>
        <time>2012-01-07T10:37:08+01:00</time>
      </trkpt>
      <trkpt lat="43.70199" lon="6.97892">
        <ele>509.155396</ele>
        <time>2012-01-07T10:37:15+01:00</time>
      </trkpt>
      <trkpt lat="43.702" lon="6.97892">
        <ele>508.194092</ele>
        <time>2012-01-07T10:37:35+01:00</time>
      </trkpt>
      <trkpt lat="43.702" lon="6.979">
        <ele>508.674683</ele>
        <time>2012-01-07T10:37:40+01:00</time>
      </trkpt>
      <trkpt lat="43.702" lon="6.97917">
        <ele>507.713501</ele>
        <time>2012-01-07T10:37:46+01:00</time>
      </trkpt>
      <trkpt lat="43.70201" lon="6.97941">
        <ele>507.713501</ele>
        <time>2012-01-07T10:37:53+01:00</time>
      </trkpt>
      <trkpt lat="43.70202" lon="6.97965">
        <ele>508.674683</ele>
        <time>2012-01-07T10:38:00+01:00</time>
      </trkpt>
      <trkpt lat="43.70203" lon="6.9798">
        <ele>508.674683</ele>
        <time>2012-01-07T10:38:07+01:00</time>
      </trkpt>
      <trkpt lat="43.70204" lon="6.97983">
        <ele>508.674683</ele>
        <time>2012-01-07T10:38:11+01:00</time>
      </trkpt>
      <trkpt lat="43.70203" lon="6.97984">
        <ele>508.674683</ele>
        <time>2012-01-07T10:38:20+01:00</time>
      </trkpt>
      <trkpt lat="43.70204" lon="6.97983">
        <ele>507.713501</ele>
        <time>2012-01-07T10:38:30+01:00</time>
      </trkpt>
      <trkpt lat="43.70204" lon="6.97987">
        <ele>507.713501</ele>
        <time>2012-01-07T10:38:37+01:00</time>
      </trkpt>
      <trkpt lat="43.70212" lon="6.98">
        <ele>507.232788</ele>
        <time>2012-01-07T10:38:43+01:00</time>
      </trkpt>
      <trkpt lat="43.70216" lon="6.98003">
        <ele>506.752075</ele>
        <time>2012-01-07T10:38:47+01:00</time>
      </trkpt>
      <trkpt lat="43.70222" lon="6.98006">
        <ele>505.310181</ele>
        <time>2012-01-07T10:38:51+01:00</time>
      </trkpt>
      <trkpt lat="43.70228" lon="6.98018">
        <ele>504.348877</ele>
        <time>2012-01-07T10:38:55+01:00</time>
      </trkpt>
      <trkpt lat="43.70233" lon="6.98038">
        <ele>503.387451</ele>
        <time>2012-01-07T10:39:00+01:00</time>
      </trkpt>
      <trkpt lat="43.70236" lon="6.98056">
        <ele>503.868164</ele>
        <time>2012-01-07T10:39:04+01:00</time>
      </trkpt>
      <trkpt lat="43.70236" lon="6.98067">
        <ele>504.829468</ele>
        <time>2012-01-07T10:39:08+01:00</time>
      </trkpt>
      <trkpt lat="43.70235" lon="6.98068">
        <ele>506.271484</ele>
        <time>2012-01-07T10:39:16+01:00</time>
      </trkpt>
      <trkpt lat="43.70233" lon="6.98073">
        <ele>510.59729</ele>
        <time>2012-01-07T10:39:28+01:00</time>
      </trkpt>
      <trkpt lat="43.70234" lon="6.98075">
        <ele>511.078003</ele>
        <time>2012-01-07T10:39:32+01:00</time>
      </trkpt>
      <trkpt lat="43.70235" lon="6.98087">
        <ele>511.078003</ele>
        <time>2012-01-07T10:39:37+01:00</time>
      </trkpt>
      <trkpt lat="43.70241" lon="6.98108">
        <ele>509.636108</ele>
        <time>2012-01-07T10:39:42+01:00</time>
      </trkpt>
      <trkpt lat="43.70247" lon="6.98142">
        <ele>508.674683</ele>
        <time>2012-01-07T10:39:48+01:00</time>
      </trkpt>
      <trkpt lat="43.70247" lon="6.98155">
        <ele>508.674683</ele>
        <time>2012-01-07T10:39:50+01:00</time>
      </trkpt>
      <trkpt lat="43.70247" lon="6.98211">
        <ele>508.194092</ele>
        <time>2012-01-07T10:39:58+01:00</time>
      </trkpt>
      <trkpt lat="43.70247" lon="6.98237">
        <ele>507.232788</ele>
        <time>2012-01-07T10:40:02+01:00</time>
      </trkpt>
      <trkpt lat="43.70256" lon="6.98274">
        <ele>506.752075</ele>
        <time>2012-01-07T10:40:08+01:00</time>
      </trkpt>
      <trkpt lat="43.70258" lon="6.98279">
        <ele>507.232788</ele>
        <time>2012-01-07T10:40:12+01:00</time>
      </trkpt>
      <trkpt lat="43.70257" lon="6.98283">
        <ele>508.674683</ele>
        <time>2012-01-07T10:40:16+01:00</time>
      </trkpt>
      <trkpt lat="43.70257" lon="6.98284">
        <ele>508.674683</ele>
        <time>2012-01-07T10:40:22+01:00</time>
      </trkpt>
      <trkpt lat="43.70256" lon="6.98285">
        <ele>507.713501</ele>
        <time>2012-01-07T10:40:24+01:00</time>
      </trkpt>
      <trkpt lat="43.70247" lon="6.98301">
        <ele>506.271484</ele>
        <time>2012-01-07T10:40:32+01:00</time>
      </trkpt>
      <trkpt lat="43.70244" lon="6.98318">
        <ele>506.271484</ele>
        <time>2012-01-07T10:40:40+01:00</time>
      </trkpt>
      <trkpt lat="43.70244" lon="6.9832">
        <ele>507.232788</ele>
        <time>2012-01-07T10:40:44+01:00</time>
      </trkpt>
      <trkpt lat="43.70241" lon="6.98327">
        <ele>509.155396</ele>
        <time>2012-01-07T10:40:52+01:00</time>
      </trkpt>
      <trkpt lat="43.70241" lon="6.9834">
        <ele>509.155396</ele>
        <time>2012-01-07T10:40:57+01:00</time>
      </trkpt>
      <trkpt lat="43.70241" lon="6.98349">
        <ele>509.636108</ele>
        <time>2012-01-07T10:41:04+01:00</time>
      </trkpt>
      <trkpt lat="43.70241" lon="6.98363">
        <ele>509.155396</ele>
        <time>2012-01-07T10:41:08+01:00</time>
      </trkpt>
      <trkpt lat="43.70242" lon="6.9837">
        <ele>509.155396</ele>
        <time>2012-01-07T10:41:12+01:00</time>
      </trkpt>
      <trkpt lat="43.70245" lon="6.98376">
        <ele>507.713501</ele>
        <time>2012-01-07T10:41:18+01:00</time>
      </trkpt>
      <trkpt lat="43.70249" lon="6.98382">
        <ele>506.752075</ele>
        <time>2012-01-07T10:41:24+01:00</time>
      </trkpt>
      <trkpt lat="43.70256" lon="6.9839">
        <ele>505.790894</ele>
        <time>2012-01-07T10:41:29+01:00</time>
      </trkpt>
      <trkpt lat="43.70263" lon="6.98399">
        <ele>505.790894</ele>
        <time>2012-01-07T10:41:33+01:00</time>
      </trkpt>
      <trkpt lat="43.70272" lon="6.98411">
        <ele>505.790894</ele>
        <time>2012-01-07T10:41:38+01:00</time>
      </trkpt>
      <trkpt lat="43.70288" lon="6.98409">
        <ele>505.310181</ele>
        <time>2012-01-07T10:41:43+01:00</time>
      </trkpt>
      <trkpt lat="43.70323" lon="6.98385">
        <ele>503.868164</ele>
        <time>2012-01-07T10:41:52+01:00</time>
      </trkpt>
      <trkpt lat="43.70335" lon="6.98378">
        <ele>502.906738</ele>
        <time>2012-01-07T10:41:56+01:00</time>
      </trkpt>
      <trkpt lat="43.70347" lon="6.98371">
        <ele>503.387451</ele>
        <time>2012-01-07T10:42:02+01:00</time>
      </trkpt>
      <trkpt lat="43.70361" lon="6.98367">
        <ele>503.868164</ele>
        <time>2012-01-07T10:42:08+01:00</time>
      </trkpt>
      <trkpt lat="43.70375" lon="6.98368">
        <ele>504.348877</ele>
        <time>2012-01-07T10:42:14+01:00</time>
      </trkpt>
      <trkpt lat="43.70384" lon="6.98369">
        <ele>504.348877</ele>
        <time>2012-01-07T10:42:18+01:00</time>
      </trkpt>
      <trkpt lat="43.70386" lon="6.9837">
        <ele>504.348877</ele>
        <time>2012-01-07T10:42:22+01:00</time>
      </trkpt>
      <trkpt lat="43.70388" lon="6.9837">
        <ele>504.348877</ele>
        <time>2012-01-07T10:42:29+01:00</time>
      </trkpt>
      <trkpt lat="43.70391" lon="6.98369">
        <ele>504.829468</ele>
        <time>2012-01-07T10:42:37+01:00</time>
      </trkpt>
      <trkpt lat="43.70394" lon="6.98369">
        <ele>504.829468</ele>
        <time>2012-01-07T10:42:44+01:00</time>
      </trkpt>
      <trkpt lat="43.70395" lon="6.98369">
        <ele>505.310181</ele>
        <time>2012-01-07T10:42:46+01:00</time>
      </trkpt>
      <trkpt lat="43.70409" lon="6.98369">
        <ele>504.829468</ele>
        <time>2012-01-07T10:42:54+01:00</time>
      </trkpt>
      <trkpt lat="43.70411" lon="6.98369">
        <ele>504.829468</ele>
        <time>2012-01-07T10:42:55+01:00</time>
      </trkpt>
      <trkpt lat="43.70418" lon="6.9836">
        <ele>504.829468</ele>
        <time>2012-01-07T10:43:02+01:00</time>
      </trkpt>
      <trkpt lat="43.70422" lon="6.98357">
        <ele>503.387451</ele>
        <time>2012-01-07T10:43:10+01:00</time>
      </trkpt>
      <trkpt lat="43.70507" lon="6.98354">
        <ele>502.426147</ele>
        <time>2012-01-07T10:45:36+01:00</time>
      </trkpt>
      <trkpt lat="43.70505" lon="6.98346">
        <ele>502.906738</ele>
        <time>2012-01-07T10:45:40+01:00</time>
      </trkpt>
      <trkpt lat="43.70502" lon="6.98349">
        <ele>503.868164</ele>
        <time>2012-01-07T10:46:09+01:00</time>
      </trkpt>
      <trkpt lat="43.70499" lon="6.9835">
        <ele>502.426147</ele>
        <time>2012-01-07T10:46:36+01:00</time>
      </trkpt>
      <trkpt lat="43.70503" lon="6.98349">
        <ele>504.829468</ele>
        <time>2012-01-07T10:47:09+01:00</time>
      </trkpt>
      <trkpt lat="43.70502" lon="6.98351">
        <ele>506.271484</ele>
        <time>2012-01-07T10:47:29+01:00</time>
      </trkpt>
      <trkpt lat="43.70508" lon="6.98353">
        <ele>506.271484</ele>
        <time>2012-01-07T10:47:55+01:00</time>
      </trkpt>
      <trkpt lat="43.70514" lon="6.98355">
        <ele>508.674683</ele>
        <time>2012-01-07T10:48:02+01:00</time>
      </trkpt>
      <trkpt lat="43.70626" lon="6.98287">
        <ele>496.658325</ele>
        <time>2012-01-07T10:49:38+01:00</time>
      </trkpt>
      <trkpt lat="43.70627" lon="6.98281">
        <ele>495.696899</ele>
        <time>2012-01-07T10:49:39+01:00</time>
      </trkpt>
      <trkpt lat="43.70638" lon="6.98275">
        <ele>500.50354</ele>
        <time>2012-01-07T10:49:45+01:00</time>
      </trkpt>
      <trkpt lat="43.70643" lon="6.98274">
        <ele>505.790894</ele>
        <time>2012-01-07T10:49:57+01:00</time>
      </trkpt>
      <trkpt lat="43.70646" lon="6.98263">
        <ele>502.906738</ele>
        <time>2012-01-07T10:50:02+01:00</time>
      </trkpt>
      <trkpt lat="43.70646" lon="6.9826">
        <ele>503.387451</ele>
        <time>2012-01-07T10:50:10+01:00</time>
      </trkpt>
      <trkpt lat="43.70651" lon="6.98248">
        <ele>502.906738</ele>
        <time>2012-01-07T10:50:17+01:00</time>
      </trkpt>
      <trkpt lat="43.70658" lon="6.98226">
        <ele>501.945557</ele>
        <time>2012-01-07T10:50:23+01:00</time>
      </trkpt>
      <trkpt lat="43.70667" lon="6.98198">
        <ele>501.464844</ele>
        <time>2012-01-07T10:50:30+01:00</time>
      </trkpt>
      <trkpt lat="43.70685" lon="6.98178">
        <ele>500.984131</ele>
        <time>2012-01-07T10:50:36+01:00</time>
      </trkpt>
      <trkpt lat="43.70695" lon="6.98169">
        <ele>500.984131</ele>
        <time>2012-01-07T10:50:40+01:00</time>
      </trkpt>
      <trkpt lat="43.7071" lon="6.98154">
        <ele>500.984131</ele>
        <time>2012-01-07T10:50:45+01:00</time>
      </trkpt>
      <trkpt lat="43.70726" lon="6.98135">
        <ele>500.022949</ele>
        <time>2012-01-07T10:50:50+01:00</time>
      </trkpt>
      <trkpt lat="43.70742" lon="6.98117">
        <ele>500.022949</ele>
        <time>2012-01-07T10:50:55+01:00</time>
      </trkpt>
      <trkpt lat="43.7076" lon="6.98096">
        <ele>499.542236</ele>
        <time>2012-01-07T10:51:01+01:00</time>
      </trkpt>
      <trkpt lat="43.70777" lon="6.98082">
        <ele>500.022949</ele>
        <time>2012-01-07T10:51:06+01:00</time>
      </trkpt>
      <trkpt lat="43.70793" lon="6.98067">
        <ele>500.022949</ele>
        <time>2012-01-07T10:51:11+01:00</time>
      </trkpt>
      <trkpt lat="43.70813" lon="6.98044">
        <ele>499.542236</ele>
        <time>2012-01-07T10:51:17+01:00</time>
      </trkpt>
      <trkpt lat="43.70824" lon="6.98029">
        <ele>499.542236</ele>
        <time>2012-01-07T10:51:21+01:00</time>
      </trkpt>
      <trkpt lat="43.70841" lon="6.98013">
        <ele>499.542236</ele>
        <time>2012-01-07T10:51:28+01:00</time>
      </trkpt>
      <trkpt lat="43.70856" lon="6.98">
        <ele>499.061523</ele>
        <time>2012-01-07T10:51:33+01:00</time>
      </trkpt>
      <trkpt lat="43.70875" lon="6.97981">
        <ele>497.619629</ele>
        <time>2012-01-07T10:51:39+01:00</time>
      </trkpt>
      <trkpt lat="43.70893" lon="6.97966">
        <ele>497.619629</ele>
        <time>2012-01-07T10:51:44+01:00</time>
      </trkpt>
      <trkpt lat="43.70905" lon="6.97954">
        <ele>497.138916</ele>
        <time>2012-01-07T10:51:48+01:00</time>
      </trkpt>
      <trkpt lat="43.70919" lon="6.9794">
        <ele>496.177734</ele>
        <time>2012-01-07T10:51:52+01:00</time>
      </trkpt>
      <trkpt lat="43.70926" lon="6.97932">
        <ele>496.177734</ele>
        <time>2012-01-07T10:51:54+01:00</time>
      </trkpt>
      <trkpt lat="43.70932" lon="6.97925">
        <ele>496.658325</ele>
        <time>2012-01-07T10:51:56+01:00</time>
      </trkpt>
      <trkpt lat="43.70957" lon="6.97898">
        <ele>499.061523</ele>
        <time>2012-01-07T10:52:04+01:00</time>
      </trkpt>
      <trkpt lat="43.70976" lon="6.97869">
        <ele>500.984131</ele>
        <time>2012-01-07T10:52:11+01:00</time>
      </trkpt>
      <trkpt lat="43.7099" lon="6.97846">
        <ele>500.984131</ele>
        <time>2012-01-07T10:52:17+01:00</time>
      </trkpt>
      <trkpt lat="43.7101" lon="6.97828">
        <ele>502.906738</ele>
        <time>2012-01-07T10:52:24+01:00</time>
      </trkpt>
      <trkpt lat="43.71021" lon="6.97826">
        <ele>502.906738</ele>
        <time>2012-01-07T10:52:29+01:00</time>
      </trkpt>
      <trkpt lat="43.71033" lon="6.97822">
        <ele>502.906738</ele>
        <time>2012-01-07T10:52:34+01:00</time>
      </trkpt>
      <trkpt lat="43.71045" lon="6.97809">
        <ele>502.906738</ele>
        <time>2012-01-07T10:52:39+01:00</time>
      </trkpt>
      <trkpt lat="43.71057" lon="6.97786">
        <ele>502.426147</ele>
        <time>2012-01-07T10:52:45+01:00</time>
      </trkpt>
      <trkpt lat="43.7107" lon="6.97762">
        <ele>502.426147</ele>
        <time>2012-01-07T10:52:51+01:00</time>
      </trkpt>
      <trkpt lat="43.71076" lon="6.97747">
        <ele>501.464844</ele>
        <time>2012-01-07T10:52:56+01:00</time>
      </trkpt>
      <trkpt lat="43.71076" lon="6.97741">
        <ele>497.138916</ele>
        <time>2012-01-07T10:53:03+01:00</time>
      </trkpt>
      <trkpt lat="43.71077" lon="6.9774">
        <ele>496.658325</ele>
        <time>2012-01-07T10:53:04+01:00</time>
      </trkpt>
      <trkpt lat="43.71081" lon="6.97732">
        <ele>496.177734</ele>
        <time>2012-01-07T10:53:09+01:00</time>
      </trkpt>
      <trkpt lat="43.71084" lon="6.97729">
        <ele>502.426147</ele>
        <time>2012-01-07T10:53:17+01:00</time>
      </trkpt>
      <trkpt lat="43.71087" lon="6.97725">
        <ele>506.271484</ele>
        <time>2012-01-07T10:53:21+01:00</time>
      </trkpt>
      <trkpt lat="43.71093" lon="6.97722">
        <ele>509.155396</ele>
        <time>2012-01-07T10:53:28+01:00</time>
      </trkpt>
      <trkpt lat="43.71098" lon="6.97724">
        <ele>516.845947</ele>
        <time>2012-01-07T10:53:57+01:00</time>
      </trkpt>
      <trkpt lat="43.711" lon="6.97721">
        <ele>516.365234</ele>
        <time>2012-01-07T10:54:03+01:00</time>
      </trkpt>
      <trkpt lat="43.71101" lon="6.9772">
        <ele>516.365234</ele>
        <time>2012-01-07T10:54:04+01:00</time>
      </trkpt>
      <trkpt lat="43.71103" lon="6.97714">
        <ele>514.92334</ele>
        <time>2012-01-07T10:54:10+01:00</time>
      </trkpt>
      <trkpt lat="43.71108" lon="6.97707">
        <ele>514.442627</ele>
        <time>2012-01-07T10:54:13+01:00</time>
      </trkpt>
      <trkpt lat="43.71114" lon="6.97693">
        <ele>513.481445</ele>
        <time>2012-01-07T10:54:18+01:00</time>
      </trkpt>
      <trkpt lat="43.71116" lon="6.9769">
        <ele>513.481445</ele>
        <time>2012-01-07T10:54:24+01:00</time>
      </trkpt>
      <trkpt lat="43.71119" lon="6.97686">
        <ele>512.52002</ele>
        <time>2012-01-07T10:54:30+01:00</time>
      </trkpt>
      <trkpt lat="43.71153" lon="6.97664">
        <ele>507.713501</ele>
        <time>2012-01-07T10:55:22+01:00</time>
      </trkpt>
      <trkpt lat="43.71159" lon="6.97659">
        <ele>510.116699</ele>
        <time>2012-01-07T10:55:28+01:00</time>
      </trkpt>
      <trkpt lat="43.71162" lon="6.97672">
        <ele>522.133179</ele>
        <time>2012-01-07T10:55:35+01:00</time>
      </trkpt>
      <trkpt lat="43.71182" lon="6.97716">
        <ele>532.227051</ele>
        <time>2012-01-07T10:56:02+01:00</time>
      </trkpt>
      <trkpt lat="43.71191" lon="6.97685">
        <ele>519.249268</ele>
        <time>2012-01-07T10:56:06+01:00</time>
      </trkpt>
      <trkpt lat="43.71188" lon="6.97683">
        <ele>515.404053</ele>
        <time>2012-01-07T10:56:08+01:00</time>
      </trkpt>
      <trkpt lat="43.71186" lon="6.9768">
        <ele>513.481445</ele>
        <time>2012-01-07T10:56:10+01:00</time>
      </trkpt>
      <trkpt lat="43.71184" lon="6.97671">
        <ele>509.636108</ele>
        <time>2012-01-07T10:56:19+01:00</time>
      </trkpt>
      <trkpt lat="43.71193" lon="6.97664">
        <ele>508.194092</ele>
        <time>2012-01-07T10:56:24+01:00</time>
      </trkpt>
      <trkpt lat="43.7121" lon="6.97654">
        <ele>507.713501</ele>
        <time>2012-01-07T10:56:30+01:00</time>
      </trkpt>
      <trkpt lat="43.71212" lon="6.97653">
        <ele>507.232788</ele>
        <time>2012-01-07T10:56:31+01:00</time>
      </trkpt>
      <trkpt lat="43.71218" lon="6.97653">
        <ele>506.752075</ele>
        <time>2012-01-07T10:56:33+01:00</time>
      </trkpt>
      <trkpt lat="43.7124" lon="6.97675">
        <ele>505.790894</ele>
        <time>2012-01-07T10:56:41+01:00</time>
      </trkpt>
      <trkpt lat="43.71252" lon="6.97693">
        <ele>504.829468</ele>
        <time>2012-01-07T10:56:46+01:00</time>
      </trkpt>
      <trkpt lat="43.71266" lon="6.977">
        <ele>504.829468</ele>
        <time>2012-01-07T10:56:51+01:00</time>
      </trkpt>
      <trkpt lat="43.71279" lon="6.97698">
        <ele>505.310181</ele>
        <time>2012-01-07T10:56:56+01:00</time>
      </trkpt>
      <trkpt lat="43.71289" lon="6.97685">
        <ele>505.790894</ele>
        <time>2012-01-07T10:57:02+01:00</time>
      </trkpt>
      <trkpt lat="43.71299" lon="6.97672">
        <ele>507.713501</ele>
        <time>2012-01-07T10:57:08+01:00</time>
      </trkpt>
      <trkpt lat="43.713" lon="6.97673">
        <ele>509.636108</ele>
        <time>2012-01-07T10:57:13+01:00</time>
      </trkpt>
      <trkpt lat="43.713" lon="6.9768">
        <ele>509.636108</ele>
        <time>2012-01-07T10:57:19+01:00</time>
      </trkpt>
      <trkpt lat="43.713" lon="6.97701">
        <ele>509.155396</ele>
        <time>2012-01-07T10:57:29+01:00</time>
      </trkpt>
      <trkpt lat="43.71374" lon="6.976">
        <ele>508.194092</ele>
        <time>2012-01-07T10:58:57+01:00</time>
      </trkpt>
      <trkpt lat="43.71373" lon="6.97596">
        <ele>510.116699</ele>
        <time>2012-01-07T10:59:02+01:00</time>
      </trkpt>
      <trkpt lat="43.71389" lon="6.97575">
        <ele>514.442627</ele>
        <time>2012-01-07T10:59:10+01:00</time>
      </trkpt>
      <trkpt lat="43.71392" lon="6.97569">
        <ele>513.962036</ele>
        <time>2012-01-07T10:59:14+01:00</time>
      </trkpt>
      <trkpt lat="43.71395" lon="6.97566">
        <ele>513.000732</ele>
        <time>2012-01-07T10:59:26+01:00</time>
      </trkpt>
      <trkpt lat="43.714" lon="6.97566">
        <ele>511.078003</ele>
        <time>2012-01-07T10:59:31+01:00</time>
      </trkpt>
      <trkpt lat="43.71405" lon="6.97566">
        <ele>509.636108</ele>
        <time>2012-01-07T10:59:36+01:00</time>
      </trkpt>
      <trkpt lat="43.71408" lon="6.97568">
        <ele>512.52002</ele>
        <time>2012-01-07T11:00:38+01:00</time>
      </trkpt>
      <trkpt lat="43.71419" lon="6.9757">
        <ele>511.558716</ele>
        <time>2012-01-07T11:00:45+01:00</time>
      </trkpt>
      <trkpt lat="43.71423" lon="6.97576">
        <ele>511.078003</ele>
        <time>2012-01-07T11:00:52+01:00</time>
      </trkpt>
      <trkpt lat="43.71455" lon="6.9756">
        <ele>511.078003</ele>
        <time>2012-01-07T11:01:20+01:00</time>
      </trkpt>
      <trkpt lat="43.71455" lon="6.97558">
        <ele>505.790894</ele>
        <time>2012-01-07T11:01:24+01:00</time>
      </trkpt>
      <trkpt lat="43.71463" lon="6.97547">
        <ele>504.829468</ele>
        <time>2012-01-07T11:01:30+01:00</time>
      </trkpt>
      <trkpt lat="43.71465" lon="6.97546">
        <ele>504.829468</ele>
        <time>2012-01-07T11:01:31+01:00</time>
      </trkpt>
      <trkpt lat="43.71468" lon="6.97541">
        <ele>500.50354</ele>
        <time>2012-01-07T11:01:37+01:00</time>
      </trkpt>
      <trkpt lat="43.71473" lon="6.97538">
        <ele>501.464844</ele>
        <time>2012-01-07T11:01:44+01:00</time>
      </trkpt>
      <trkpt lat="43.71485" lon="6.97529">
        <ele>500.984131</ele>
        <time>2012-01-07T11:01:51+01:00</time>
      </trkpt>
      <trkpt lat="43.71489" lon="6.97527">
        <ele>503.868164</ele>
        <time>2012-01-07T11:01:54+01:00</time>
      </trkpt>
      <trkpt lat="43.71501" lon="6.97531">
        <ele>505.310181</ele>
        <time>2012-01-07T11:02:01+01:00</time>
      </trkpt>
      <trkpt lat="43.71513" lon="6.97534">
        <ele>506.271484</ele>
        <time>2012-01-07T11:02:08+01:00</time>
      </trkpt>
      <trkpt lat="43.71533" lon="6.97532">
        <ele>506.271484</ele>
        <time>2012-01-07T11:02:16+01:00</time>
      </trkpt>
      <trkpt lat="43.71538" lon="6.9753">
        <ele>506.752075</ele>
        <time>2012-01-07T11:02:20+01:00</time>
      </trkpt>
      <trkpt lat="43.71542" lon="6.97529">
        <ele>505.790894</ele>
        <time>2012-01-07T11:02:25+01:00</time>
      </trkpt>
      <trkpt lat="43.71547" lon="6.97528">
        <ele>505.310181</ele>
        <time>2012-01-07T11:02:32+01:00</time>
      </trkpt>
      <trkpt lat="43.71551" lon="6.97528">
        <ele>505.310181</ele>
        <time>2012-01-07T11:02:38+01:00</time>
      </trkpt>
      <trkpt lat="43.71556" lon="6.97528">
        <ele>505.310181</ele>
        <time>2012-01-07T11:02:42+01:00</time>
      </trkpt>
      <trkpt lat="43.71573" lon="6.97524">
        <ele>504.829468</ele>
        <time>2012-01-07T11:02:48+01:00</time>
      </trkpt>
      <trkpt lat="43.71594" lon="6.97519">
        <ele>505.790894</ele>
        <time>2012-01-07T11:02:55+01:00</time>
      </trkpt>
      <trkpt lat="43.71606" lon="6.97519">
        <ele>506.752075</ele>
        <time>2012-01-07T11:02:59+01:00</time>
      </trkpt>
      <trkpt lat="43.71618" lon="6.97519">
        <ele>508.194092</ele>
        <time>2012-01-07T11:03:04+01:00</time>
      </trkpt>
      <trkpt lat="43.71631" lon="6.97516">
        <ele>509.636108</ele>
        <time>2012-01-07T11:03:10+01:00</time>
      </trkpt>
      <trkpt lat="43.71641" lon="6.9752">
        <ele>509.155396</ele>
        <time>2012-01-07T11:03:14+01:00</time>
      </trkpt>
      <trkpt lat="43.71646" lon="6.9752">
        <ele>508.194092</ele>
        <time>2012-01-07T11:03:19+01:00</time>
      </trkpt>
      <trkpt lat="43.7165" lon="6.97519">
        <ele>507.232788</ele>
        <time>2012-01-07T11:03:26+01:00</time>
      </trkpt>
      <trkpt lat="43.71651" lon="6.9752">
        <ele>508.194092</ele>
        <time>2012-01-07T11:03:29+01:00</time>
      </trkpt>
      <trkpt lat="43.71664" lon="6.97521">
        <ele>508.194092</ele>
        <time>2012-01-07T11:03:35+01:00</time>
      </trkpt>
      <trkpt lat="43.71681" lon="6.9752">
        <ele>508.674683</ele>
        <time>2012-01-07T11:03:40+01:00</time>
      </trkpt>
      <trkpt lat="43.71715" lon="6.97527">
        <ele>507.232788</ele>
        <time>2012-01-07T11:03:49+01:00</time>
      </trkpt>
      <trkpt lat="43.71724" lon="6.97536">
        <ele>517.807251</ele>
        <time>2012-01-07T11:03:55+01:00</time>
      </trkpt>
      <trkpt lat="43.71725" lon="6.97538">
        <ele>520.210571</ele>
        <time>2012-01-07T11:03:56+01:00</time>
      </trkpt>
      <trkpt lat="43.71729" lon="6.97534">
        <ele>516.365234</ele>
        <time>2012-01-07T11:04:02+01:00</time>
      </trkpt>
      <trkpt lat="43.71732" lon="6.97527">
        <ele>513.000732</ele>
        <time>2012-01-07T11:04:09+01:00</time>
      </trkpt>
      <trkpt lat="43.71736" lon="6.97518">
        <ele>510.116699</ele>
        <time>2012-01-07T11:04:16+01:00</time>
      </trkpt>
      <trkpt lat="43.71739" lon="6.97515">
        <ele>512.039429</ele>
        <time>2012-01-07T11:04:25+01:00</time>
      </trkpt>
      <trkpt lat="43.71741" lon="6.97513">
        <ele>516.845947</ele>
        <time>2012-01-07T11:04:30+01:00</time>
      </trkpt>
      <trkpt lat="43.71743" lon="6.97511">
        <ele>520.210571</ele>
        <time>2012-01-07T11:04:35+01:00</time>
      </trkpt>
      <trkpt lat="43.71745" lon="6.97508">
        <ele>522.133179</ele>
        <time>2012-01-07T11:04:38+01:00</time>
      </trkpt>
      <trkpt lat="43.71756" lon="6.97502">
        <ele>528.381836</ele>
        <time>2012-01-07T11:04:45+01:00</time>
      </trkpt>
      <trkpt lat="43.71768" lon="6.97499">
        <ele>538.475708</ele>
        <time>2012-01-07T11:04:52+01:00</time>
      </trkpt>
      <trkpt lat="43.7177" lon="6.97503">
        <ele>549.050049</ele>
        <time>2012-01-07T11:04:57+01:00</time>
      </trkpt>
      <trkpt lat="43.71773" lon="6.97508">
        <ele>561.06665</ele>
        <time>2012-01-07T11:05:03+01:00</time>
      </trkpt>
      <trkpt lat="43.71775" lon="6.97512">
        <ele>557.702148</ele>
        <time>2012-01-07T11:05:08+01:00</time>
      </trkpt>
      <trkpt lat="43.71776" lon="6.97513">
        <ele>561.06665</ele>
        <time>2012-01-07T11:05:14+01:00</time>
      </trkpt>
      <trkpt lat="43.71775" lon="6.97513">
        <ele>562.028076</ele>
        <time>2012-01-07T11:05:25+01:00</time>
      </trkpt>
      <trkpt lat="43.71776" lon="6.97509">
        <ele>556.740723</ele>
        <time>2012-01-07T11:05:31+01:00</time>
      </trkpt>
      <trkpt lat="43.71779" lon="6.97507">
        <ele>549.530762</ele>
        <time>2012-01-07T11:05:37+01:00</time>
      </trkpt>
      <trkpt lat="43.7178" lon="6.97502">
        <ele>542.320923</ele>
        <time>2012-01-07T11:05:51+01:00</time>
      </trkpt>
      <trkpt lat="43.71782" lon="6.97501">
        <ele>547.608154</ele>
        <time>2012-01-07T11:06:09+01:00</time>
      </trkpt>
      <trkpt lat="43.71782" lon="6.97506">
        <ele>556.740723</ele>
        <time>2012-01-07T11:06:24+01:00</time>
      </trkpt>
      <trkpt lat="43.71783" lon="6.97502">
        <ele>550.011475</ele>
        <time>2012-01-07T11:06:32+01:00</time>
      </trkpt>
      <trkpt lat="43.71784" lon="6.97497">
        <ele>538.956299</ele>
        <time>2012-01-07T11:06:40+01:00</time>
      </trkpt>
      <trkpt lat="43.71785" lon="6.97485">
        <ele>518.768555</ele>
        <time>2012-01-07T11:06:55+01:00</time>
      </trkpt>
      <trkpt lat="43.71787" lon="6.97482">
        <ele>514.92334</ele>
        <time>2012-01-07T11:07:05+01:00</time>
      </trkpt>
      <trkpt lat="43.71785" lon="6.97486">
        <ele>519.729858</ele>
        <time>2012-01-07T11:07:08+01:00</time>
      </trkpt>
      <trkpt lat="43.71782" lon="6.97492">
        <ele>528.862549</ele>
        <time>2012-01-07T11:07:11+01:00</time>
      </trkpt>
      <trkpt lat="43.71782" lon="6.97495">
        <ele>532.707764</ele>
        <time>2012-01-07T11:07:13+01:00</time>
      </trkpt>
      <trkpt lat="43.71781" lon="6.97499">
        <ele>538.956299</ele>
        <time>2012-01-07T11:07:17+01:00</time>
      </trkpt>
      <trkpt lat="43.71783" lon="6.97491">
        <ele>527.42041</ele>
        <time>2012-01-07T11:07:27+01:00</time>
      </trkpt>
      <trkpt lat="43.71783" lon="6.97498">
        <ele>534.630371</ele>
        <time>2012-01-07T11:07:35+01:00</time>
      </trkpt>
      <trkpt lat="43.71785" lon="6.97509">
        <ele>545.204834</ele>
        <time>2012-01-07T11:07:43+01:00</time>
      </trkpt>
      <trkpt lat="43.71788" lon="6.97512">
        <ele>537.514282</ele>
        <time>2012-01-07T11:07:49+01:00</time>
      </trkpt>
      <trkpt lat="43.71788" lon="6.97509">
        <ele>533.188354</ele>
        <time>2012-01-07T11:07:50+01:00</time>
      </trkpt>
      <trkpt lat="43.71787" lon="6.97503">
        <ele>524.536499</ele>
        <time>2012-01-07T11:07:53+01:00</time>
      </trkpt>
      <trkpt lat="43.71786" lon="6.97499">
        <ele>520.691284</ele>
        <time>2012-01-07T11:07:55+01:00</time>
      </trkpt>
      <trkpt lat="43.71783" lon="6.97492">
        <ele>513.481445</ele>
        <time>2012-01-07T11:08:05+01:00</time>
      </trkpt>
      <trkpt lat="43.71781" lon="6.97495">
        <ele>509.636108</ele>
        <time>2012-01-07T11:08:10+01:00</time>
      </trkpt>
      <trkpt lat="43.7178" lon="6.97497">
        <ele>504.829468</ele>
        <time>2012-01-07T11:08:17+01:00</time>
      </trkpt>
      <trkpt lat="43.71777" lon="6.97515">
        <ele>495.696899</ele>
        <time>2012-01-07T11:08:26+01:00</time>
      </trkpt>
      <trkpt lat="43.71779" lon="6.97532">
        <ele>494.735596</ele>
        <time>2012-01-07T11:08:32+01:00</time>
      </trkpt>
      <trkpt lat="43.71781" lon="6.97571">
        <ele>507.713501</ele>
        <time>2012-01-07T11:08:38+01:00</time>
      </trkpt>
      <trkpt lat="43.71779" lon="6.97588">
        <ele>512.039429</ele>
        <time>2012-01-07T11:08:41+01:00</time>
      </trkpt>
      <trkpt lat="43.71775" lon="6.97609">
        <ele>515.404053</ele>
        <time>2012-01-07T11:08:46+01:00</time>
      </trkpt>
      <trkpt lat="43.71763" lon="6.97636">
        <ele>506.271484</ele>
        <time>2012-01-07T11:08:55+01:00</time>
      </trkpt>
      <trkpt lat="43.7175" lon="6.97656">
        <ele>501.464844</ele>
        <time>2012-01-07T11:09:03+01:00</time>
      </trkpt>
      <trkpt lat="43.71737" lon="6.97672">
        <ele>499.542236</ele>
        <time>2012-01-07T11:09:10+01:00</time>
      </trkpt>
      <trkpt lat="43.71717" lon="6.97697">
        <ele>498.100342</ele>
        <time>2012-01-07T11:09:18+01:00</time>
      </trkpt>
      <trkpt lat="43.71714" lon="6.97703">
        <ele>502.906738</ele>
        <time>2012-01-07T11:09:22+01:00</time>
      </trkpt>
      <trkpt lat="43.717" lon="6.97744">
        <ele>504.829468</ele>
        <time>2012-01-07T11:09:34+01:00</time>
      </trkpt>
      <trkpt lat="43.7168" lon="6.97812">
        <ele>507.232788</ele>
        <time>2012-01-07T11:09:53+01:00</time>
      </trkpt>
      <trkpt lat="43.71683" lon="6.97789">
        <ele>509.155396</ele>
        <time>2012-01-07T11:09:57+01:00</time>
      </trkpt>
      <trkpt lat="43.71684" lon="6.97812">
        <ele>498.580933</ele>
        <time>2012-01-07T11:10:16+01:00</time>
      </trkpt>
      <trkpt lat="43.7168" lon="6.97818">
        <ele>506.271484</ele>
        <time>2012-01-07T11:10:24+01:00</time>
      </trkpt>
      <trkpt lat="43.71681" lon="6.9782">
        <ele>508.674683</ele>
        <time>2012-01-07T11:10:26+01:00</time>
      </trkpt>
      <trkpt lat="43.71683" lon="6.97821">
        <ele>506.752075</ele>
        <time>2012-01-07T11:10:31+01:00</time>
      </trkpt>
      <trkpt lat="43.71684" lon="6.97822">
        <ele>506.271484</ele>
        <time>2012-01-07T11:10:32+01:00</time>
      </trkpt>
      <trkpt lat="43.71691" lon="6.97829">
        <ele>506.752075</ele>
        <time>2012-01-07T11:10:39+01:00</time>
      </trkpt>
      <trkpt lat="43.71694" lon="6.97832">
        <ele>508.674683</ele>
        <time>2012-01-07T11:10:44+01:00</time>
      </trkpt>
      <trkpt lat="43.71697" lon="6.97835">
        <ele>510.116699</ele>
        <time>2012-01-07T11:10:50+01:00</time>
      </trkpt>
      <trkpt lat="43.71697" lon="6.97836">
        <ele>510.59729</ele>
        <time>2012-01-07T11:10:58+01:00</time>
      </trkpt>
      <trkpt lat="43.71696" lon="6.97837">
        <ele>512.52002</ele>
        <time>2012-01-07T11:11:10+01:00</time>
      </trkpt>
      <trkpt lat="43.71696" lon="6.97837">
        <ele>515.404053</ele>
        <time>2012-01-07T11:11:25+01:00</time>
      </trkpt>
      <trkpt lat="43.71696" lon="6.97837">
        <ele>515.404053</ele>
        <time>2012-01-07T11:11:29+01:00</time>
      </trkpt>
      <trkpt lat="43.71696" lon="6.97837">
        <ele>514.92334</ele>
        <time>2012-01-07T11:11:39+01:00</time>
      </trkpt>
      <trkpt lat="43.71697" lon="6.97836">
        <ele>514.442627</ele>
        <time>2012-01-07T11:11:56+01:00</time>
      </trkpt>
      <trkpt lat="43.71698" lon="6.97837">
        <ele>515.884644</ele>
        <time>2012-01-07T11:12:09+01:00</time>
      </trkpt>
      <trkpt lat="43.717" lon="6.97843">
        <ele>514.442627</ele>
        <time>2012-01-07T11:12:14+01:00</time>
      </trkpt>
      <trkpt lat="43.71701" lon="6.97847">
        <ele>514.442627</ele>
        <time>2012-01-07T11:12:17+01:00</time>
      </trkpt>
      <trkpt lat="43.71703" lon="6.97854">
        <ele>514.442627</ele>
        <time>2012-01-07T11:12:22+01:00</time>
      </trkpt>
      <trkpt lat="43.71705" lon="6.97859">
        <ele>513.962036</ele>
        <time>2012-01-07T11:12:28+01:00</time>
      </trkpt>
      <trkpt lat="43.71708" lon="6.97868">
        <ele>511.558716</ele>
        <time>2012-01-07T11:12:35+01:00</time>
      </trkpt>
      <trkpt lat="43.71706" lon="6.97871">
        <ele>511.558716</ele>
        <time>2012-01-07T11:12:39+01:00</time>
      </trkpt>
      <trkpt lat="43.71702" lon="6.97891">
        <ele>510.59729</ele>
        <time>2012-01-07T11:12:46+01:00</time>
      </trkpt>
      <trkpt lat="43.71703" lon="6.97894">
        <ele>510.116699</ele>
        <time>2012-01-07T11:12:47+01:00</time>
      </trkpt>
      <trkpt lat="43.71695" lon="6.97914">
        <ele>510.116699</ele>
        <time>2012-01-07T11:12:53+01:00</time>
      </trkpt>
      <trkpt lat="43.71693" lon="6.97923">
        <ele>510.59729</ele>
        <time>2012-01-07T11:12:57+01:00</time>
      </trkpt>
      <trkpt lat="43.71693" lon="6.97929">
        <ele>510.116699</ele>
        <time>2012-01-07T11:13:00+01:00</time>
      </trkpt>
      <trkpt lat="43.7169" lon="6.97941">
        <ele>507.713501</ele>
        <time>2012-01-07T11:13:05+01:00</time>
      </trkpt>
      <trkpt lat="43.71688" lon="6.9795">
        <ele>507.232788</ele>
        <time>2012-01-07T11:13:09+01:00</time>
      </trkpt>
      <trkpt lat="43.71686" lon="6.97965">
        <ele>507.713501</ele>
        <time>2012-01-07T11:13:15+01:00</time>
      </trkpt>
      <trkpt lat="43.71684" lon="6.97974">
        <ele>506.271484</ele>
        <time>2012-01-07T11:13:21+01:00</time>
      </trkpt>
      <trkpt lat="43.71688" lon="6.97968">
        <ele>498.100342</ele>
        <time>2012-01-07T11:13:24+01:00</time>
      </trkpt>
      <trkpt lat="43.71685" lon="6.9797">
        <ele>496.658325</ele>
        <time>2012-01-07T11:13:26+01:00</time>
      </trkpt>
      <trkpt lat="43.71682" lon="6.97985">
        <ele>501.464844</ele>
        <time>2012-01-07T11:13:30+01:00</time>
      </trkpt>
      <trkpt lat="43.71681" lon="6.97989">
        <ele>504.348877</ele>
        <time>2012-01-07T11:13:36+01:00</time>
      </trkpt>
      <trkpt lat="43.71681" lon="6.97993">
        <ele>504.829468</ele>
        <time>2012-01-07T11:13:40+01:00</time>
      </trkpt>
      <trkpt lat="43.71681" lon="6.97994">
        <ele>505.790894</ele>
        <time>2012-01-07T11:13:46+01:00</time>
      </trkpt>
      <trkpt lat="43.71681" lon="6.98001">
        <ele>506.271484</ele>
        <time>2012-01-07T11:13:53+01:00</time>
      </trkpt>
      <trkpt lat="43.7168" lon="6.98024">
        <ele>504.829468</ele>
        <time>2012-01-07T11:14:01+01:00</time>
      </trkpt>
      <trkpt lat="43.71682" lon="6.9804">
        <ele>505.310181</ele>
        <time>2012-01-07T11:14:06+01:00</time>
      </trkpt>
      <trkpt lat="43.71688" lon="6.98069">
        <ele>505.790894</ele>
        <time>2012-01-07T11:14:14+01:00</time>
      </trkpt>
      <trkpt lat="43.71692" lon="6.98082">
        <ele>504.348877</ele>
        <time>2012-01-07T11:14:18+01:00</time>
      </trkpt>
      <trkpt lat="43.71701" lon="6.98106">
        <ele>502.906738</ele>
        <time>2012-01-07T11:14:24+01:00</time>
      </trkpt>
      <trkpt lat="43.71711" lon="6.98132">
        <ele>503.387451</ele>
        <time>2012-01-07T11:14:31+01:00</time>
      </trkpt>
      <trkpt lat="43.71717" lon="6.98151">
        <ele>504.348877</ele>
        <time>2012-01-07T11:14:36+01:00</time>
      </trkpt>
      <trkpt lat="43.71723" lon="6.98167">
        <ele>505.310181</ele>
        <time>2012-01-07T11:14:42+01:00</time>
      </trkpt>
      <trkpt lat="43.71723" lon="6.98168">
        <ele>506.752075</ele>
        <time>2012-01-07T11:14:51+01:00</time>
      </trkpt>
      <trkpt lat="43.71726" lon="6.98175">
        <ele>508.674683</ele>
        <time>2012-01-07T11:15:06+01:00</time>
      </trkpt>
      <trkpt lat="43.71735" lon="6.98199">
        <ele>507.713501</ele>
        <time>2012-01-07T11:15:13+01:00</time>
      </trkpt>
      <trkpt lat="43.71748" lon="6.98227">
        <ele>504.348877</ele>
        <time>2012-01-07T11:15:19+01:00</time>
      </trkpt>
      <trkpt lat="43.7175" lon="6.98232">
        <ele>505.790894</ele>
        <time>2012-01-07T11:15:25+01:00</time>
      </trkpt>
      <trkpt lat="43.71757" lon="6.98238">
        <ele>506.271484</ele>
        <time>2012-01-07T11:15:31+01:00</time>
      </trkpt>
      <trkpt lat="43.71761" lon="6.98242">
        <ele>506.752075</ele>
        <time>2012-01-07T11:15:36+01:00</time>
      </trkpt>
      <trkpt lat="43.71773" lon="6.98252">
        <ele>506.752075</ele>
        <time>2012-01-07T11:15:41+01:00</time>
      </trkpt>
      <trkpt lat="43.71779" lon="6.98257">
        <ele>506.271484</ele>
        <time>2012-01-07T11:15:45+01:00</time>
      </trkpt>
      <trkpt lat="43.71782" lon="6.9826">
        <ele>506.271484</ele>
        <time>2012-01-07T11:15:52+01:00</time>
      </trkpt>
      <trkpt lat="43.71796" lon="6.98273">
        <ele>506.752075</ele>
        <time>2012-01-07T11:15:58+01:00</time>
      </trkpt>
      <trkpt lat="43.71812" lon="6.98287">
        <ele>507.713501</ele>
        <time>2012-01-07T11:16:04+01:00</time>
      </trkpt>
      <trkpt lat="43.71814" lon="6.98289">
        <ele>507.713501</ele>
        <time>2012-01-07T11:16:06+01:00</time>
      </trkpt>
      <trkpt lat="43.7182" lon="6.98294">
        <ele>508.674683</ele>
        <time>2012-01-07T11:16:11+01:00</time>
      </trkpt>
      <trkpt lat="43.71822" lon="6.98295">
        <ele>509.155396</ele>
        <time>2012-01-07T11:16:16+01:00</time>
      </trkpt>
      <trkpt lat="43.71822" lon="6.98296">
        <ele>509.155396</ele>
        <time>2012-01-07T11:16:19+01:00</time>
      </trkpt>
      <trkpt lat="43.7183" lon="6.98303">
        <ele>509.636108</ele>
        <time>2012-01-07T11:16:26+01:00</time>
      </trkpt>
      <trkpt lat="43.71834" lon="6.98307">
        <ele>510.116699</ele>
        <time>2012-01-07T11:16:42+01:00</time>
      </trkpt>
      <trkpt lat="43.71849" lon="6.98317">
        <ele>509.155396</ele>
        <time>2012-01-07T11:16:48+01:00</time>
      </trkpt>
      <trkpt lat="43.71865" lon="6.98318">
        <ele>508.194092</ele>
        <time>2012-01-07T11:16:53+01:00</time>
      </trkpt>
      <trkpt lat="43.71894" lon="6.98319">
        <ele>508.194092</ele>
        <time>2012-01-07T11:17:00+01:00</time>
      </trkpt>
      <trkpt lat="43.71905" lon="6.98319">
        <ele>507.232788</ele>
        <time>2012-01-07T11:17:03+01:00</time>
      </trkpt>
      <trkpt lat="43.71908" lon="6.98318">
        <ele>507.232788</ele>
        <time>2012-01-07T11:17:08+01:00</time>
      </trkpt>
      <trkpt lat="43.71914" lon="6.98317">
        <ele>507.713501</ele>
        <time>2012-01-07T11:17:14+01:00</time>
      </trkpt>
      <trkpt lat="43.71916" lon="6.98318">
        <ele>508.674683</ele>
        <time>2012-01-07T11:17:20+01:00</time>
      </trkpt>
      <trkpt lat="43.71986" lon="6.98257">
        <ele>509.155396</ele>
        <time>2012-01-07T11:18:05+01:00</time>
      </trkpt>
      <trkpt lat="43.71973" lon="6.98301">
        <ele>516.365234</ele>
        <time>2012-01-07T11:18:10+01:00</time>
      </trkpt>
      <trkpt lat="43.71971" lon="6.98301">
        <ele>517.32666</ele>
        <time>2012-01-07T11:18:14+01:00</time>
      </trkpt>
      <trkpt lat="43.71978" lon="6.98297">
        <ele>517.32666</ele>
        <time>2012-01-07T11:18:19+01:00</time>
      </trkpt>
      <trkpt lat="43.7198" lon="6.98296">
        <ele>517.32666</ele>
        <time>2012-01-07T11:18:21+01:00</time>
      </trkpt>
      <trkpt lat="43.71981" lon="6.98297">
        <ele>518.287842</ele>
        <time>2012-01-07T11:18:26+01:00</time>
      </trkpt>
      <trkpt lat="43.71982" lon="6.98301">
        <ele>517.32666</ele>
        <time>2012-01-07T11:18:32+01:00</time>
      </trkpt>
      <trkpt lat="43.71983" lon="6.98303">
        <ele>517.32666</ele>
        <time>2012-01-07T11:18:33+01:00</time>
      </trkpt>
      <trkpt lat="43.71985" lon="6.98308">
        <ele>515.404053</ele>
        <time>2012-01-07T11:18:36+01:00</time>
      </trkpt>
      <trkpt lat="43.71987" lon="6.98309">
        <ele>511.078003</ele>
        <time>2012-01-07T11:18:43+01:00</time>
      </trkpt>
      <trkpt lat="43.71993" lon="6.98331">
        <ele>509.636108</ele>
        <time>2012-01-07T11:18:51+01:00</time>
      </trkpt>
      <trkpt lat="43.71995" lon="6.98342">
        <ele>510.116699</ele>
        <time>2012-01-07T11:18:55+01:00</time>
      </trkpt>
      <trkpt lat="43.71995" lon="6.98348">
        <ele>509.636108</ele>
        <time>2012-01-07T11:19:02+01:00</time>
      </trkpt>
      <trkpt lat="43.71996" lon="6.98355">
        <ele>510.116699</ele>
        <time>2012-01-07T11:19:06+01:00</time>
      </trkpt>
      <trkpt lat="43.71998" lon="6.98366">
        <ele>510.59729</ele>
        <time>2012-01-07T11:19:10+01:00</time>
      </trkpt>
      <trkpt lat="43.72002" lon="6.98371">
        <ele>510.59729</ele>
        <time>2012-01-07T11:19:12+01:00</time>
      </trkpt>
      <trkpt lat="43.72011" lon="6.98376">
        <ele>511.078003</ele>
        <time>2012-01-07T11:19:18+01:00</time>
      </trkpt>
      <trkpt lat="43.72011" lon="6.98374">
        <ele>512.039429</ele>
        <time>2012-01-07T11:19:22+01:00</time>
      </trkpt>
      <trkpt lat="43.72033" lon="6.98391">
        <ele>511.558716</ele>
        <time>2012-01-07T11:19:29+01:00</time>
      </trkpt>
      <trkpt lat="43.72038" lon="6.98386">
        <ele>510.59729</ele>
        <time>2012-01-07T11:19:33+01:00</time>
      </trkpt>
      <trkpt lat="43.72049" lon="6.9838">
        <ele>508.194092</ele>
        <time>2012-01-07T11:19:38+01:00</time>
      </trkpt>
      <trkpt lat="43.72055" lon="6.98381">
        <ele>508.194092</ele>
        <time>2012-01-07T11:19:40+01:00</time>
      </trkpt>
      <trkpt lat="43.72074" lon="6.98386">
        <ele>506.752075</ele>
        <time>2012-01-07T11:19:46+01:00</time>
      </trkpt>
      <trkpt lat="43.72095" lon="6.98395">
        <ele>505.310181</ele>
        <time>2012-01-07T11:19:52+01:00</time>
      </trkpt>
      <trkpt lat="43.72107" lon="6.98401">
        <ele>505.790894</ele>
        <time>2012-01-07T11:19:56+01:00</time>
      </trkpt>
      <trkpt lat="43.72108" lon="6.98404">
        <ele>509.155396</ele>
        <time>2012-01-07T11:19:59+01:00</time>
      </trkpt>
      <trkpt lat="43.72108" lon="6.98407">
        <ele>513.000732</ele>
        <time>2012-01-07T11:20:01+01:00</time>
      </trkpt>
      <trkpt lat="43.72115" lon="6.98414">
        <ele>516.845947</ele>
        <time>2012-01-07T11:20:08+01:00</time>
      </trkpt>
      <trkpt lat="43.72122" lon="6.98414">
        <ele>513.962036</ele>
        <time>2012-01-07T11:20:13+01:00</time>
      </trkpt>
      <trkpt lat="43.72123" lon="6.98414">
        <ele>512.52002</ele>
        <time>2012-01-07T11:20:15+01:00</time>
      </trkpt>
      <trkpt lat="43.72134" lon="6.98425">
        <ele>509.636108</ele>
        <time>2012-01-07T11:20:23+01:00</time>
      </trkpt>
      <trkpt lat="43.72134" lon="6.98426">
        <ele>508.674683</ele>
        <time>2012-01-07T11:20:32+01:00</time>
      </trkpt>
      <trkpt lat="43.72135" lon="6.98432">
        <ele>510.59729</ele>
        <time>2012-01-07T11:20:41+01:00</time>
      </trkpt>
      <trkpt lat="43.72135" lon="6.98432">
        <ele>511.078003</ele>
        <time>2012-01-07T11:20:49+01:00</time>
      </trkpt>
      <trkpt lat="43.72136" lon="6.98436">
        <ele>512.52002</ele>
        <time>2012-01-07T11:20:57+01:00</time>
      </trkpt>
      <trkpt lat="43.72136" lon="6.98438">
        <ele>512.039429</ele>
        <time>2012-01-07T11:21:05+01:00</time>
      </trkpt>
      <trkpt lat="43.72133" lon="6.98446">
        <ele>513.000732</ele>
        <time>2012-01-07T11:21:10+01:00</time>
      </trkpt>
      <trkpt lat="43.7213" lon="6.98451">
        <ele>516.365234</ele>
        <time>2012-01-07T11:21:17+01:00</time>
      </trkpt>
      <trkpt lat="43.72133" lon="6.98455">
        <ele>514.442627</ele>
        <time>2012-01-07T11:21:23+01:00</time>
      </trkpt>
      <trkpt lat="43.72136" lon="6.98457">
        <ele>513.000732</ele>
        <time>2012-01-07T11:21:28+01:00</time>
      </trkpt>
      <trkpt lat="43.72146" lon="6.98466">
        <ele>512.039429</ele>
        <time>2012-01-07T11:21:34+01:00</time>
      </trkpt>
      <trkpt lat="43.72159" lon="6.98479">
        <ele>513.000732</ele>
        <time>2012-01-07T11:21:39+01:00</time>
      </trkpt>
      <trkpt lat="43.72169" lon="6.9849">
        <ele>511.558716</ele>
        <time>2012-01-07T11:21:43+01:00</time>
      </trkpt>
      <trkpt lat="43.72175" lon="6.98487">
        <ele>512.52002</ele>
        <time>2012-01-07T11:21:46+01:00</time>
      </trkpt>
      <trkpt lat="43.72177" lon="6.9848">
        <ele>513.481445</ele>
        <time>2012-01-07T11:21:51+01:00</time>
      </trkpt>
      <trkpt lat="43.72179" lon="6.98476">
        <ele>515.884644</ele>
        <time>2012-01-07T11:21:57+01:00</time>
      </trkpt>
      <trkpt lat="43.72182" lon="6.98473">
        <ele>516.365234</ele>
        <time>2012-01-07T11:22:02+01:00</time>
      </trkpt>
      <trkpt lat="43.72186" lon="6.98458">
        <ele>518.287842</ele>
        <time>2012-01-07T11:22:07+01:00</time>
      </trkpt>
      <trkpt lat="43.7219" lon="6.98453">
        <ele>516.365234</ele>
        <time>2012-01-07T11:22:10+01:00</time>
      </trkpt>
      <trkpt lat="43.72195" lon="6.98452">
        <ele>515.404053</ele>
        <time>2012-01-07T11:22:12+01:00</time>
      </trkpt>
      <trkpt lat="43.7221" lon="6.9846">
        <ele>513.962036</ele>
        <time>2012-01-07T11:22:18+01:00</time>
      </trkpt>
      <trkpt lat="43.72211" lon="6.98463">
        <ele>512.52002</ele>
        <time>2012-01-07T11:22:19+01:00</time>
      </trkpt>
      <trkpt lat="43.72215" lon="6.98486">
        <ele>510.116699</ele>
        <time>2012-01-07T11:22:25+01:00</time>
      </trkpt>
      <trkpt lat="43.72216" lon="6.9849">
        <ele>515.404053</ele>
        <time>2012-01-07T11:22:34+01:00</time>
      </trkpt>
      <trkpt lat="43.72215" lon="6.9849">
        <ele>513.000732</ele>
        <time>2012-01-07T11:22:53+01:00</time>
      </trkpt>
      <trkpt lat="43.72216" lon="6.98488">
        <ele>508.194092</ele>
        <time>2012-01-07T11:23:00+01:00</time>
      </trkpt>
      <trkpt lat="43.72216" lon="6.98491">
        <ele>509.155396</ele>
        <time>2012-01-07T11:23:11+01:00</time>
      </trkpt>
      <trkpt lat="43.72218" lon="6.98491">
        <ele>506.752075</ele>
        <time>2012-01-07T11:23:17+01:00</time>
      </trkpt>
      <trkpt lat="43.72222" lon="6.98493">
        <ele>504.829468</ele>
        <time>2012-01-07T11:23:21+01:00</time>
      </trkpt>
      <trkpt lat="43.7223" lon="6.98509">
        <ele>503.868164</ele>
        <time>2012-01-07T11:23:27+01:00</time>
      </trkpt>
      <trkpt lat="43.72231" lon="6.98509">
        <ele>502.426147</ele>
        <time>2012-01-07T11:23:33+01:00</time>
      </trkpt>
      <trkpt lat="43.72233" lon="6.98516">
        <ele>501.945557</ele>
        <time>2012-01-07T11:23:37+01:00</time>
      </trkpt>
      <trkpt lat="43.72237" lon="6.98523">
        <ele>501.945557</ele>
        <time>2012-01-07T11:23:41+01:00</time>
      </trkpt>
      <trkpt lat="43.72241" lon="6.98534">
        <ele>502.906738</ele>
        <time>2012-01-07T11:23:45+01:00</time>
      </trkpt>
      <trkpt lat="43.72247" lon="6.98553">
        <ele>505.310181</ele>
        <time>2012-01-07T11:23:50+01:00</time>
      </trkpt>
      <trkpt lat="43.72247" lon="6.98556">
        <ele>506.752075</ele>
        <time>2012-01-07T11:23:54+01:00</time>
      </trkpt>
      <trkpt lat="43.72248" lon="6.98561">
        <ele>507.232788</ele>
        <time>2012-01-07T11:24:03+01:00</time>
      </trkpt>
      <trkpt lat="43.7225" lon="6.98553">
        <ele>513.000732</ele>
        <time>2012-01-07T11:24:10+01:00</time>
      </trkpt>
      <trkpt lat="43.72258" lon="6.98653">
        <ele>536.553101</ele>
        <time>2012-01-07T11:26:18+01:00</time>
      </trkpt>
      <trkpt lat="43.72259" lon="6.98648">
        <ele>525.017212</ele>
        <time>2012-01-07T11:26:21+01:00</time>
      </trkpt>
      <trkpt lat="43.7226" lon="6.98653">
        <ele>525.497803</ele>
        <time>2012-01-07T11:26:23+01:00</time>
      </trkpt>
      <trkpt lat="43.7226" lon="6.98655">
        <ele>523.094604</ele>
        <time>2012-01-07T11:26:28+01:00</time>
      </trkpt>
      <trkpt lat="43.72361" lon="6.98735">
        <ele>546.646851</ele>
        <time>2012-01-07T11:28:21+01:00</time>
      </trkpt>
      <trkpt lat="43.7236" lon="6.98726">
        <ele>524.536499</ele>
        <time>2012-01-07T11:28:26+01:00</time>
      </trkpt>
      <trkpt lat="43.72357" lon="6.98726">
        <ele>522.613892</ele>
        <time>2012-01-07T11:28:33+01:00</time>
      </trkpt>
      <trkpt lat="43.72359" lon="6.98728">
        <ele>521.171997</ele>
        <time>2012-01-07T11:28:44+01:00</time>
      </trkpt>
      <trkpt lat="43.72358" lon="6.98723">
        <ele>522.613892</ele>
        <time>2012-01-07T11:29:02+01:00</time>
      </trkpt>
      <trkpt lat="43.72361" lon="6.98724">
        <ele>537.033691</ele>
        <time>2012-01-07T11:29:14+01:00</time>
      </trkpt>
      <trkpt lat="43.72357" lon="6.98724">
        <ele>530.785156</ele>
        <time>2012-01-07T11:29:20+01:00</time>
      </trkpt>
      <trkpt lat="43.72353" lon="6.98722">
        <ele>526.459106</ele>
        <time>2012-01-07T11:29:24+01:00</time>
      </trkpt>
      <trkpt lat="43.72356" lon="6.98724">
        <ele>512.52002</ele>
        <time>2012-01-07T11:30:20+01:00</time>
      </trkpt>
      <trkpt lat="43.72356" lon="6.98725">
        <ele>514.92334</ele>
        <time>2012-01-07T11:30:25+01:00</time>
      </trkpt>
      <trkpt lat="43.72356" lon="6.98723">
        <ele>513.481445</ele>
        <time>2012-01-07T11:30:32+01:00</time>
      </trkpt>
      <trkpt lat="43.72354" lon="6.98728">
        <ele>519.249268</ele>
        <time>2012-01-07T11:31:01+01:00</time>
      </trkpt>
      <trkpt lat="43.72352" lon="6.98728">
        <ele>519.249268</ele>
        <time>2012-01-07T11:31:11+01:00</time>
      </trkpt>
      <trkpt lat="43.72354" lon="6.98727">
        <ele>519.249268</ele>
        <time>2012-01-07T11:31:20+01:00</time>
      </trkpt>
      <trkpt lat="43.72356" lon="6.98725">
        <ele>512.039429</ele>
        <time>2012-01-07T11:31:36+01:00</time>
      </trkpt>
      <trkpt lat="43.72355" lon="6.98724">
        <ele>510.116699</ele>
        <time>2012-01-07T11:31:49+01:00</time>
      </trkpt>
      <trkpt lat="43.72356" lon="6.98722">
        <ele>508.674683</ele>
        <time>2012-01-07T11:31:56+01:00</time>
      </trkpt>
      <trkpt lat="43.72359" lon="6.98721">
        <ele>508.194092</ele>
        <time>2012-01-07T11:31:58+01:00</time>
      </trkpt>
      <trkpt lat="43.72369" lon="6.98717">
        <ele>509.636108</ele>
        <time>2012-01-07T11:32:05+01:00</time>
      </trkpt>
      <trkpt lat="43.72375" lon="6.98718">
        <ele>508.674683</ele>
        <time>2012-01-07T11:32:11+01:00</time>
      </trkpt>
      <trkpt lat="43.72377" lon="6.98718">
        <ele>508.194092</ele>
        <time>2012-01-07T11:32:17+01:00</time>
      </trkpt>
      <trkpt lat="43.72384" lon="6.98727">
        <ele>507.232788</ele>
        <time>2012-01-07T11:32:26+01:00</time>
      </trkpt>
      <trkpt lat="43.7239" lon="6.98733">
        <ele>504.348877</ele>
        <time>2012-01-07T11:32:33+01:00</time>
      </trkpt>
      <trkpt lat="43.72392" lon="6.98735">
        <ele>503.868164</ele>
        <time>2012-01-07T11:32:37+01:00</time>
      </trkpt>
      <trkpt lat="43.72394" lon="6.98736">
        <ele>503.387451</ele>
        <time>2012-01-07T11:32:38+01:00</time>
      </trkpt>
      <trkpt lat="43.72399" lon="6.98756">
        <ele>501.464844</ele>
        <time>2012-01-07T11:32:44+01:00</time>
      </trkpt>
      <trkpt lat="43.72401" lon="6.98771">
        <ele>502.426147</ele>
        <time>2012-01-07T11:32:49+01:00</time>
      </trkpt>
      <trkpt lat="43.72406" lon="6.98784">
        <ele>501.945557</ele>
        <time>2012-01-07T11:32:55+01:00</time>
      </trkpt>
      <trkpt lat="43.72417" lon="6.98796">
        <ele>502.426147</ele>
        <time>2012-01-07T11:33:00+01:00</time>
      </trkpt>
      <trkpt lat="43.72432" lon="6.98811">
        <ele>504.348877</ele>
        <time>2012-01-07T11:33:06+01:00</time>
      </trkpt>
      <trkpt lat="43.72431" lon="6.98823">
        <ele>506.271484</ele>
        <time>2012-01-07T11:33:11+01:00</time>
      </trkpt>
      <trkpt lat="43.7243" lon="6.98825">
        <ele>506.752075</ele>
        <time>2012-01-07T11:33:12+01:00</time>
      </trkpt>
      <trkpt lat="43.72428" lon="6.98835">
        <ele>508.194092</ele>
        <time>2012-01-07T11:33:17+01:00</time>
      </trkpt>
      <trkpt lat="43.72425" lon="6.98849">
        <ele>508.194092</ele>
        <time>2012-01-07T11:33:22+01:00</time>
      </trkpt>
      <trkpt lat="43.72414" lon="6.98865">
        <ele>506.271484</ele>
        <time>2012-01-07T11:33:28+01:00</time>
      </trkpt>
      <trkpt lat="43.72406" lon="6.98876">
        <ele>506.271484</ele>
        <time>2012-01-07T11:33:33+01:00</time>
      </trkpt>
      <trkpt lat="43.72402" lon="6.98892">
        <ele>504.829468</ele>
        <time>2012-01-07T11:33:39+01:00</time>
      </trkpt>
      <trkpt lat="43.72401" lon="6.98904">
        <ele>504.348877</ele>
        <time>2012-01-07T11:33:44+01:00</time>
      </trkpt>
      <trkpt lat="43.72407" lon="6.98915">
        <ele>505.790894</ele>
        <time>2012-01-07T11:33:52+01:00</time>
      </trkpt>
      <trkpt lat="43.72518" lon="6.99021">
        <ele>518.287842</ele>
        <time>2012-01-07T11:37:16+01:00</time>
      </trkpt>
      <trkpt lat="43.72514" lon="6.99037">
        <ele>513.000732</ele>
        <time>2012-01-07T11:37:20+01:00</time>
      </trkpt>
      <trkpt lat="43.72586" lon="6.99044">
        <ele>537.033691</ele>
        <time>2012-01-07T11:38:33+01:00</time>
      </trkpt>
      <trkpt lat="43.72582" lon="6.99044">
        <ele>523.575195</ele>
        <time>2012-01-07T11:38:36+01:00</time>
      </trkpt>
      <trkpt lat="43.72582" lon="6.99049">
        <ele>520.691284</ele>
        <time>2012-01-07T11:38:42+01:00</time>
      </trkpt>
      <trkpt lat="43.72582" lon="6.99051">
        <ele>520.210571</ele>
        <time>2012-01-07T11:38:46+01:00</time>
      </trkpt>
      <trkpt lat="43.72583" lon="6.99044">
        <ele>509.636108</ele>
        <time>2012-01-07T11:38:54+01:00</time>
      </trkpt>
      <trkpt lat="43.72584" lon="6.99044">
        <ele>508.674683</ele>
        <time>2012-01-07T11:38:56+01:00</time>
      </trkpt>
      <trkpt lat="43.72591" lon="6.99059">
        <ele>509.155396</ele>
        <time>2012-01-07T11:39:01+01:00</time>
      </trkpt>
      <trkpt lat="43.72593" lon="6.99063">
        <ele>509.155396</ele>
        <time>2012-01-07T11:39:02+01:00</time>
      </trkpt>
      <trkpt lat="43.72605" lon="6.99069">
        <ele>506.271484</ele>
        <time>2012-01-07T11:39:08+01:00</time>
      </trkpt>
      <trkpt lat="43.7261" lon="6.99069">
        <ele>504.348877</ele>
        <time>2012-01-07T11:39:15+01:00</time>
      </trkpt>
      <trkpt lat="43.72654" lon="6.99119">
        <ele>503.868164</ele>
        <time>2012-01-07T11:39:52+01:00</time>
      </trkpt>
      <trkpt lat="43.72661" lon="6.99124">
        <ele>505.310181</ele>
        <time>2012-01-07T11:39:54+01:00</time>
      </trkpt>
      <trkpt lat="43.72678" lon="6.99124">
        <ele>502.906738</ele>
        <time>2012-01-07T11:40:02+01:00</time>
      </trkpt>
      <trkpt lat="43.72686" lon="6.99136">
        <ele>506.752075</ele>
        <time>2012-01-07T11:40:07+01:00</time>
      </trkpt>
      <trkpt lat="43.72687" lon="6.99138">
        <ele>504.829468</ele>
        <time>2012-01-07T11:40:11+01:00</time>
      </trkpt>
      <trkpt lat="43.7269" lon="6.99135">
        <ele>501.464844</ele>
        <time>2012-01-07T11:40:17+01:00</time>
      </trkpt>
      <trkpt lat="43.72773" lon="6.99206">
        <ele>513.962036</ele>
        <time>2012-01-07T11:41:25+01:00</time>
      </trkpt>
      <trkpt lat="43.7278" lon="6.99212">
        <ele>519.729858</ele>
        <time>2012-01-07T11:41:29+01:00</time>
      </trkpt>
      <trkpt lat="43.728" lon="6.99219">
        <ele>523.575195</ele>
        <time>2012-01-07T11:41:40+01:00</time>
      </trkpt>
      <trkpt lat="43.72801" lon="6.9923">
        <ele>514.92334</ele>
        <time>2012-01-07T11:41:44+01:00</time>
      </trkpt>
      <trkpt lat="43.72809" lon="6.99237">
        <ele>507.713501</ele>
        <time>2012-01-07T11:41:50+01:00</time>
      </trkpt>
      <trkpt lat="43.72818" lon="6.99243">
        <ele>507.232788</ele>
        <time>2012-01-07T11:41:54+01:00</time>
      </trkpt>
      <trkpt lat="43.72832" lon="6.99251">
        <ele>507.232788</ele>
        <time>2012-01-07T11:41:59+01:00</time>
      </trkpt>
      <trkpt lat="43.72842" lon="6.9926">
        <ele>507.232788</ele>
        <time>2012-01-07T11:42:04+01:00</time>
      </trkpt>
      <trkpt lat="43.72853" lon="6.99271">
        <ele>508.194092</ele>
        <time>2012-01-07T11:42:10+01:00</time>
      </trkpt>
      <trkpt lat="43.72853" lon="6.99271">
        <ele>508.674683</ele>
        <time>2012-01-07T11:42:15+01:00</time>
      </trkpt>
      <trkpt lat="43.72852" lon="6.99269">
        <ele>509.636108</ele>
        <time>2012-01-07T11:42:25+01:00</time>
      </trkpt>
      <trkpt lat="43.72846" lon="6.99263">
        <ele>508.194092</ele>
        <time>2012-01-07T11:42:32+01:00</time>
      </trkpt>
      <trkpt lat="43.72847" lon="6.99262">
        <ele>507.232788</ele>
        <time>2012-01-07T11:42:37+01:00</time>
      </trkpt>
      <trkpt lat="43.72846" lon="6.9926">
        <ele>507.232788</ele>
        <time>2012-01-07T11:42:42+01:00</time>
      </trkpt>
      <trkpt lat="43.72849" lon="6.99259">
        <ele>505.310181</ele>
        <time>2012-01-07T11:43:04+01:00</time>
      </trkpt>
      <trkpt lat="43.72852" lon="6.99262">
        <ele>504.829468</ele>
        <time>2012-01-07T11:43:09+01:00</time>
      </trkpt>
      <trkpt lat="43.72854" lon="6.99266">
        <ele>505.310181</ele>
        <time>2012-01-07T11:43:15+01:00</time>
      </trkpt>
      <trkpt lat="43.72854" lon="6.99267">
        <ele>507.232788</ele>
        <time>2012-01-07T11:43:21+01:00</time>
      </trkpt>
      <trkpt lat="43.72858" lon="6.99274">
        <ele>507.713501</ele>
        <time>2012-01-07T11:43:26+01:00</time>
      </trkpt>
      <trkpt lat="43.72864" lon="6.99288">
        <ele>507.713501</ele>
        <time>2012-01-07T11:43:31+01:00</time>
      </trkpt>
      <trkpt lat="43.72868" lon="6.99301">
        <ele>508.194092</ele>
        <time>2012-01-07T11:43:35+01:00</time>
      </trkpt>
      <trkpt lat="43.72875" lon="6.99306">
        <ele>508.674683</ele>
        <time>2012-01-07T11:43:42+01:00</time>
      </trkpt>
      <trkpt lat="43.72881" lon="6.99308">
        <ele>508.194092</ele>
        <time>2012-01-07T11:43:45+01:00</time>
      </trkpt>
      <trkpt lat="43.72887" lon="6.99308">
        <ele>509.155396</ele>
        <time>2012-01-07T11:43:47+01:00</time>
      </trkpt>
      <trkpt lat="43.72908" lon="6.9931">
        <ele>511.078003</ele>
        <time>2012-01-07T11:43:54+01:00</time>
      </trkpt>
      <trkpt lat="43.72922" lon="6.99317">
        <ele>512.52002</ele>
        <time>2012-01-07T11:43:59+01:00</time>
      </trkpt>
      <trkpt lat="43.72923" lon="6.99317">
        <ele>512.039429</ele>
        <time>2012-01-07T11:44:00+01:00</time>
      </trkpt>
      <trkpt lat="43.72956" lon="6.99309">
        <ele>514.92334</ele>
        <time>2012-01-07T11:44:12+01:00</time>
      </trkpt>
      <trkpt lat="43.72965" lon="6.993">
        <ele>513.000732</ele>
        <time>2012-01-07T11:44:17+01:00</time>
      </trkpt>
      <trkpt lat="43.72966" lon="6.99299">
        <ele>512.039429</ele>
        <time>2012-01-07T11:44:18+01:00</time>
      </trkpt>
      <trkpt lat="43.72979" lon="6.99291">
        <ele>516.365234</ele>
        <time>2012-01-07T11:44:24+01:00</time>
      </trkpt>
      <trkpt lat="43.72981" lon="6.99288">
        <ele>517.807251</ele>
        <time>2012-01-07T11:44:25+01:00</time>
      </trkpt>
      <trkpt lat="43.72993" lon="6.99269">
        <ele>523.575195</ele>
        <time>2012-01-07T11:44:32+01:00</time>
      </trkpt>
      <trkpt lat="43.73005" lon="6.99261">
        <ele>522.133179</ele>
        <time>2012-01-07T11:44:38+01:00</time>
      </trkpt>
      <trkpt lat="43.7301" lon="6.99267">
        <ele>526.459106</ele>
        <time>2012-01-07T11:44:42+01:00</time>
      </trkpt>
      <trkpt lat="43.73012" lon="6.9927">
        <ele>526.459106</ele>
        <time>2012-01-07T11:44:44+01:00</time>
      </trkpt>
      <trkpt lat="43.73015" lon="6.99285">
        <ele>530.785156</ele>
        <time>2012-01-07T11:44:49+01:00</time>
      </trkpt>
      <trkpt lat="43.73022" lon="6.99304">
        <ele>524.055786</ele>
        <time>2012-01-07T11:44:57+01:00</time>
      </trkpt>
      <trkpt lat="43.73027" lon="6.99311">
        <ele>518.768555</ele>
        <time>2012-01-07T11:45:01+01:00</time>
      </trkpt>
      <trkpt lat="43.73037" lon="6.99319">
        <ele>514.92334</ele>
        <time>2012-01-07T11:45:07+01:00</time>
      </trkpt>
      <trkpt lat="43.73044" lon="6.99335">
        <ele>513.000732</ele>
        <time>2012-01-07T11:45:13+01:00</time>
      </trkpt>
      <trkpt lat="43.73045" lon="6.99339">
        <ele>510.59729</ele>
        <time>2012-01-07T11:45:17+01:00</time>
      </trkpt>
      <trkpt lat="43.73045" lon="6.9934">
        <ele>511.558716</ele>
        <time>2012-01-07T11:45:26+01:00</time>
      </trkpt>
      <trkpt lat="43.73045" lon="6.99342">
        <ele>511.558716</ele>
        <time>2012-01-07T11:45:31+01:00</time>
      </trkpt>
      <trkpt lat="43.73045" lon="6.99348">
        <ele>511.078003</ele>
        <time>2012-01-07T11:45:35+01:00</time>
      </trkpt>
      <trkpt lat="43.73048" lon="6.99351">
        <ele>511.078003</ele>
        <time>2012-01-07T11:45:41+01:00</time>
      </trkpt>
      <trkpt lat="43.73048" lon="6.99351">
        <ele>512.52002</ele>
        <time>2012-01-07T11:46:01+01:00</time>
      </trkpt>
      <trkpt lat="43.73048" lon="6.99353">
        <ele>514.442627</ele>
        <time>2012-01-07T11:46:09+01:00</time>
      </trkpt>
      <trkpt lat="43.73047" lon="6.99354">
        <ele>515.884644</ele>
        <time>2012-01-07T11:46:26+01:00</time>
      </trkpt>
      <trkpt lat="43.73047" lon="6.99359">
        <ele>515.884644</ele>
        <time>2012-01-07T11:46:31+01:00</time>
      </trkpt>
      <trkpt lat="43.73063" lon="6.99364">
        <ele>510.59729</ele>
        <time>2012-01-07T11:46:41+01:00</time>
      </trkpt>
      <trkpt lat="43.73091" lon="6.99394">
        <ele>512.52002</ele>
        <time>2012-01-07T11:46:52+01:00</time>
      </trkpt>
      <trkpt lat="43.73099" lon="6.99393">
        <ele>511.078003</ele>
        <time>2012-01-07T11:46:55+01:00</time>
      </trkpt>
      <trkpt lat="43.73113" lon="6.99407">
        <ele>510.116699</ele>
        <time>2012-01-07T11:47:02+01:00</time>
      </trkpt>
      <trkpt lat="43.73128" lon="6.99415">
        <ele>509.155396</ele>
        <time>2012-01-07T11:47:08+01:00</time>
      </trkpt>
      <trkpt lat="43.73141" lon="6.99427">
        <ele>508.674683</ele>
        <time>2012-01-07T11:47:13+01:00</time>
      </trkpt>
      <trkpt lat="43.7316" lon="6.99452">
        <ele>508.674683</ele>
        <time>2012-01-07T11:47:19+01:00</time>
      </trkpt>
      <trkpt lat="43.73165" lon="6.9946">
        <ele>509.155396</ele>
        <time>2012-01-07T11:47:21+01:00</time>
      </trkpt>
      <trkpt lat="43.73167" lon="6.99463">
        <ele>509.155396</ele>
        <time>2012-01-07T11:47:27+01:00</time>
      </trkpt>
      <trkpt lat="43.7317" lon="6.99464">
        <ele>510.59729</ele>
        <time>2012-01-07T11:47:32+01:00</time>
      </trkpt>
      <trkpt lat="43.73172" lon="6.99467">
        <ele>510.59729</ele>
        <time>2012-01-07T11:47:38+01:00</time>
      </trkpt>
      <trkpt lat="43.73172" lon="6.99467">
        <ele>510.59729</ele>
        <time>2012-01-07T11:47:50+01:00</time>
      </trkpt>
      <trkpt lat="43.73171" lon="6.99466">
        <ele>510.59729</ele>
        <time>2012-01-07T11:48:10+01:00</time>
      </trkpt>
      <trkpt lat="43.73172" lon="6.99465">
        <ele>508.674683</ele>
        <time>2012-01-07T11:48:15+01:00</time>
      </trkpt>
      <trkpt lat="43.73171" lon="6.99465">
        <ele>509.155396</ele>
        <time>2012-01-07T11:48:21+01:00</time>
      </trkpt>
      <trkpt lat="43.73171" lon="6.99466">
        <ele>510.116699</ele>
        <time>2012-01-07T11:48:27+01:00</time>
      </trkpt>
      <trkpt lat="43.73171" lon="6.99466">
        <ele>510.116699</ele>
        <time>2012-01-07T11:48:40+01:00</time>
      </trkpt>
      <trkpt lat="43.73173" lon="6.99471">
        <ele>510.116699</ele>
        <time>2012-01-07T11:48:46+01:00</time>
      </trkpt>
      <trkpt lat="43.73177" lon="6.99482">
        <ele>510.116699</ele>
        <time>2012-01-07T11:48:50+01:00</time>
      </trkpt>
      <trkpt lat="43.73187" lon="6.99479">
        <ele>510.59729</ele>
        <time>2012-01-07T11:48:55+01:00</time>
      </trkpt>
      <trkpt lat="43.732" lon="6.99479">
        <ele>511.078003</ele>
        <time>2012-01-07T11:49:00+01:00</time>
      </trkpt>
      <trkpt lat="43.73221" lon="6.99483">
        <ele>510.116699</ele>
        <time>2012-01-07T11:49:07+01:00</time>
      </trkpt>
      <trkpt lat="43.73238" lon="6.99494">
        <ele>510.116699</ele>
        <time>2012-01-07T11:49:12+01:00</time>
      </trkpt>
      <trkpt lat="43.73252" lon="6.9951">
        <ele>510.116699</ele>
        <time>2012-01-07T11:49:17+01:00</time>
      </trkpt>
      <trkpt lat="43.7326" lon="6.99528">
        <ele>510.116699</ele>
        <time>2012-01-07T11:49:21+01:00</time>
      </trkpt>
      <trkpt lat="43.73262" lon="6.99547">
        <ele>510.59729</ele>
        <time>2012-01-07T11:49:25+01:00</time>
      </trkpt>
      <trkpt lat="43.73273" lon="6.99557">
        <ele>510.59729</ele>
        <time>2012-01-07T11:49:30+01:00</time>
      </trkpt>
      <trkpt lat="43.73282" lon="6.99563">
        <ele>511.078003</ele>
        <time>2012-01-07T11:49:34+01:00</time>
      </trkpt>
      <trkpt lat="43.73295" lon="6.99556">
        <ele>511.078003</ele>
        <time>2012-01-07T11:49:39+01:00</time>
      </trkpt>
      <trkpt lat="43.73305" lon="6.99542">
        <ele>511.078003</ele>
        <time>2012-01-07T11:49:44+01:00</time>
      </trkpt>
      <trkpt lat="43.73316" lon="6.99541">
        <ele>512.039429</ele>
        <time>2012-01-07T11:49:48+01:00</time>
      </trkpt>
      <trkpt lat="43.73337" lon="6.99546">
        <ele>512.52002</ele>
        <time>2012-01-07T11:49:54+01:00</time>
      </trkpt>
      <trkpt lat="43.73361" lon="6.99557">
        <ele>514.442627</ele>
        <time>2012-01-07T11:50:01+01:00</time>
      </trkpt>
      <trkpt lat="43.73377" lon="6.9957">
        <ele>514.442627</ele>
        <time>2012-01-07T11:50:07+01:00</time>
      </trkpt>
      <trkpt lat="43.73394" lon="6.99579">
        <ele>515.404053</ele>
        <time>2012-01-07T11:50:13+01:00</time>
      </trkpt>
      <trkpt lat="43.73413" lon="6.99577">
        <ele>516.845947</ele>
        <time>2012-01-07T11:50:19+01:00</time>
      </trkpt>
      <trkpt lat="43.73428" lon="6.99582">
        <ele>519.249268</ele>
        <time>2012-01-07T11:50:24+01:00</time>
      </trkpt>
      <trkpt lat="43.73434" lon="6.99588">
        <ele>522.613892</ele>
        <time>2012-01-07T11:50:28+01:00</time>
      </trkpt>
      <trkpt lat="43.73433" lon="6.99589">
        <ele>524.055786</ele>
        <time>2012-01-07T11:50:29+01:00</time>
      </trkpt>
      <trkpt lat="43.73431" lon="6.99592">
        <ele>523.094604</ele>
        <time>2012-01-07T11:50:35+01:00</time>
      </trkpt>
      <trkpt lat="43.73434" lon="6.99594">
        <ele>520.691284</ele>
        <time>2012-01-07T11:50:40+01:00</time>
      </trkpt>
      <trkpt lat="43.73436" lon="6.996">
        <ele>523.575195</ele>
        <time>2012-01-07T11:50:48+01:00</time>
      </trkpt>
      <trkpt lat="43.73446" lon="6.99599">
        <ele>520.691284</ele>
        <time>2012-01-07T11:50:56+01:00</time>
      </trkpt>
      <trkpt lat="43.73516" lon="6.99598">
        <ele>483.68042</ele>
        <time>2012-01-07T11:52:03+01:00</time>
      </trkpt>
      <trkpt lat="43.73523" lon="6.99584">
        <ele>517.807251</ele>
        <time>2012-01-07T11:52:08+01:00</time>
      </trkpt>
      <trkpt lat="43.73532" lon="6.99613">
        <ele>519.249268</ele>
        <time>2012-01-07T11:52:26+01:00</time>
      </trkpt>
      <trkpt lat="43.73534" lon="6.99613">
        <ele>525.497803</ele>
        <time>2012-01-07T11:52:33+01:00</time>
      </trkpt>
      <trkpt lat="43.73689" lon="6.99713">
        <ele>466.857422</ele>
        <time>2012-01-07T11:55:05+01:00</time>
      </trkpt>
      <trkpt lat="43.73694" lon="6.99692">
        <ele>474.067261</ele>
        <time>2012-01-07T11:55:08+01:00</time>
      </trkpt>
      <trkpt lat="43.73698" lon="6.99674">
        <ele>499.542236</ele>
        <time>2012-01-07T11:55:14+01:00</time>
      </trkpt>
      <trkpt lat="43.737" lon="6.99676">
        <ele>501.464844</ele>
        <time>2012-01-07T11:55:24+01:00</time>
      </trkpt>
      <trkpt lat="43.7371" lon="6.99684">
        <ele>503.868164</ele>
        <time>2012-01-07T11:55:29+01:00</time>
      </trkpt>
      <trkpt lat="43.73725" lon="6.99685">
        <ele>505.310181</ele>
        <time>2012-01-07T11:55:38+01:00</time>
      </trkpt>
      <trkpt lat="43.73793" lon="6.99689">
        <ele>503.868164</ele>
        <time>2012-01-07T11:56:32+01:00</time>
      </trkpt>
      <trkpt lat="43.73796" lon="6.99701">
        <ele>509.155396</ele>
        <time>2012-01-07T11:56:34+01:00</time>
      </trkpt>
      <trkpt lat="43.73808" lon="6.99703">
        <ele>505.310181</ele>
        <time>2012-01-07T11:56:40+01:00</time>
      </trkpt>
      <trkpt lat="43.73814" lon="6.99712">
        <ele>504.348877</ele>
        <time>2012-01-07T11:56:43+01:00</time>
      </trkpt>
      <trkpt lat="43.73825" lon="6.99719">
        <ele>504.829468</ele>
        <time>2012-01-07T11:56:47+01:00</time>
      </trkpt>
      <trkpt lat="43.73831" lon="6.99724">
        <ele>505.790894</ele>
        <time>2012-01-07T11:56:49+01:00</time>
      </trkpt>
      <trkpt lat="43.73837" lon="6.99734">
        <ele>506.752075</ele>
        <time>2012-01-07T11:56:54+01:00</time>
      </trkpt>
      <trkpt lat="43.73839" lon="6.99741">
        <ele>507.232788</ele>
        <time>2012-01-07T11:57:14+01:00</time>
      </trkpt>
      <trkpt lat="43.73906" lon="6.99808">
        <ele>516.365234</ele>
        <time>2012-01-07T11:58:29+01:00</time>
      </trkpt>
      <trkpt lat="43.7391" lon="6.99815">
        <ele>510.59729</ele>
        <time>2012-01-07T11:58:32+01:00</time>
      </trkpt>
      <trkpt lat="43.7392" lon="6.99823">
        <ele>511.558716</ele>
        <time>2012-01-07T11:58:39+01:00</time>
      </trkpt>
      <trkpt lat="43.73921" lon="6.99824">
        <ele>511.078003</ele>
        <time>2012-01-07T11:58:40+01:00</time>
      </trkpt>
      <trkpt lat="43.73923" lon="6.99847">
        <ele>511.078003</ele>
        <time>2012-01-07T11:58:46+01:00</time>
      </trkpt>
      <trkpt lat="43.7405" lon="6.99847">
        <ele>517.32666</ele>
        <time>2012-01-07T12:00:31+01:00</time>
      </trkpt>
      <trkpt lat="43.74049" lon="6.99852">
        <ele>520.210571</ele>
        <time>2012-01-07T12:00:34+01:00</time>
      </trkpt>
      <trkpt lat="43.74046" lon="6.99853">
        <ele>519.729858</ele>
        <time>2012-01-07T12:00:45+01:00</time>
      </trkpt>
      <trkpt lat="43.74048" lon="6.9985">
        <ele>512.52002</ele>
        <time>2012-01-07T12:01:16+01:00</time>
      </trkpt>
      <trkpt lat="43.74048" lon="6.99845">
        <ele>519.729858</ele>
        <time>2012-01-07T12:01:44+01:00</time>
      </trkpt>
      <trkpt lat="43.74059" lon="6.9984">
        <ele>519.729858</ele>
        <time>2012-01-07T12:01:49+01:00</time>
      </trkpt>
      <trkpt lat="43.74071" lon="6.99836">
        <ele>521.652588</ele>
        <time>2012-01-07T12:01:55+01:00</time>
      </trkpt>
      <trkpt lat="43.74094" lon="6.99839">
        <ele>522.613892</ele>
        <time>2012-01-07T12:02:20+01:00</time>
      </trkpt>
      <trkpt lat="43.74102" lon="6.9984">
        <ele>527.901001</ele>
        <time>2012-01-07T12:02:23+01:00</time>
      </trkpt>
      <trkpt lat="43.74116" lon="6.99833">
        <ele>518.768555</ele>
        <time>2012-01-07T12:02:28+01:00</time>
      </trkpt>
      <trkpt lat="43.74117" lon="6.99829">
        <ele>517.32666</ele>
        <time>2012-01-07T12:02:35+01:00</time>
      </trkpt>
      <trkpt lat="43.74161" lon="6.99807">
        <ele>504.829468</ele>
        <time>2012-01-07T12:03:05+01:00</time>
      </trkpt>
      <trkpt lat="43.74172" lon="6.99813">
        <ele>516.365234</ele>
        <time>2012-01-07T12:03:09+01:00</time>
      </trkpt>
      <trkpt lat="43.74181" lon="6.99813">
        <ele>517.32666</ele>
        <time>2012-01-07T12:03:12+01:00</time>
      </trkpt>
      <trkpt lat="43.74203" lon="6.99801">
        <ele>512.039429</ele>
        <time>2012-01-07T12:03:19+01:00</time>
      </trkpt>
      <trkpt lat="43.74226" lon="6.99781">
        <ele>510.59729</ele>
        <time>2012-01-07T12:03:26+01:00</time>
      </trkpt>
      <trkpt lat="43.74241" lon="6.99777">
        <ele>510.116699</ele>
        <time>2012-01-07T12:03:31+01:00</time>
      </trkpt>
      <trkpt lat="43.74258" lon="6.99777">
        <ele>509.636108</ele>
        <time>2012-01-07T12:03:36+01:00</time>
      </trkpt>
      <trkpt lat="43.74278" lon="6.99774">
        <ele>508.674683</ele>
        <time>2012-01-07T12:03:42+01:00</time>
      </trkpt>
      <trkpt lat="43.74299" lon="6.99763">
        <ele>507.713501</ele>
        <time>2012-01-07T12:03:48+01:00</time>
      </trkpt>
      <trkpt lat="43.74308" lon="6.99756">
        <ele>506.752075</ele>
        <time>2012-01-07T12:03:51+01:00</time>
      </trkpt>
      <trkpt lat="43.74313" lon="6.99744">
        <ele>505.310181</ele>
        <time>2012-01-07T12:03:57+01:00</time>
      </trkpt>
      <trkpt lat="43.74312" lon="6.9974">
        <ele>504.348877</ele>
        <time>2012-01-07T12:04:07+01:00</time>
      </trkpt>
      <trkpt lat="43.74312" lon="6.9974">
        <ele>506.752075</ele>
        <time>2012-01-07T12:04:14+01:00</time>
      </trkpt>
      <trkpt lat="43.74313" lon="6.99738">
        <ele>512.52002</ele>
        <time>2012-01-07T12:04:27+01:00</time>
      </trkpt>
      <trkpt lat="43.74313" lon="6.99739">
        <ele>512.039429</ele>
        <time>2012-01-07T12:04:36+01:00</time>
      </trkpt>
      <trkpt lat="43.74313" lon="6.99741">
        <ele>511.078003</ele>
        <time>2012-01-07T12:04:42+01:00</time>
      </trkpt>
      <trkpt lat="43.74313" lon="6.9974">
        <ele>511.078003</ele>
        <time>2012-01-07T12:04:49+01:00</time>
      </trkpt>
      <trkpt lat="43.74314" lon="6.99742">
        <ele>511.558716</ele>
        <time>2012-01-07T12:04:55+01:00</time>
      </trkpt>
      <trkpt lat="43.74313" lon="6.99744">
        <ele>518.287842</ele>
        <time>2012-01-07T12:05:16+01:00</time>
      </trkpt>
      <trkpt lat="43.74313" lon="6.99745">
        <ele>518.768555</ele>
        <time>2012-01-07T12:05:28+01:00</time>
      </trkpt>
      <trkpt lat="43.74314" lon="6.99745">
        <ele>517.32666</ele>
        <time>2012-01-07T12:05:38+01:00</time>
      </trkpt>
      <trkpt lat="43.74315" lon="6.99745">
        <ele>515.404053</ele>
        <time>2012-01-07T12:05:55+01:00</time>
      </trkpt>
      <trkpt lat="43.74315" lon="6.99744">
        <ele>515.884644</ele>
        <time>2012-01-07T12:06:03+01:00</time>
      </trkpt>
      <trkpt lat="43.74314" lon="6.99743">
        <ele>518.768555</ele>
        <time>2012-01-07T12:06:12+01:00</time>
      </trkpt>
      <trkpt lat="43.74315" lon="6.99742">
        <ele>518.768555</ele>
        <time>2012-01-07T12:06:25+01:00</time>
      </trkpt>
      <trkpt lat="43.74315" lon="6.99742">
        <ele>519.249268</ele>
        <time>2012-01-07T12:06:30+01:00</time>
      </trkpt>
      <trkpt lat="43.74315" lon="6.99742">
        <ele>519.249268</ele>
        <time>2012-01-07T12:06:39+01:00</time>
      </trkpt>
      <trkpt lat="43.74315" lon="6.99741">
        <ele>515.404053</ele>
        <time>2012-01-07T12:06:58+01:00</time>
      </trkpt>
      <trkpt lat="43.74316" lon="6.9974">
        <ele>515.884644</ele>
        <time>2012-01-07T12:07:04+01:00</time>
      </trkpt>
      <trkpt lat="43.74315" lon="6.99743">
        <ele>516.365234</ele>
        <time>2012-01-07T12:08:53+01:00</time>
      </trkpt>
      <trkpt lat="43.74316" lon="6.99741">
        <ele>515.404053</ele>
        <time>2012-01-07T12:09:00+01:00</time>
      </trkpt>
      <trkpt lat="43.74322" lon="6.99747">
        <ele>522.613892</ele>
        <time>2012-01-07T12:09:27+01:00</time>
      </trkpt>
      <trkpt lat="43.74324" lon="6.99748">
        <ele>523.094604</ele>
        <time>2012-01-07T12:09:42+01:00</time>
      </trkpt>
      <trkpt lat="43.74322" lon="6.99746">
        <ele>521.171997</ele>
        <time>2012-01-07T12:09:53+01:00</time>
      </trkpt>
      <trkpt lat="43.74325" lon="6.99736">
        <ele>516.845947</ele>
        <time>2012-01-07T12:10:02+01:00</time>
      </trkpt>
      <trkpt lat="43.74332" lon="6.99721">
        <ele>515.404053</ele>
        <time>2012-01-07T12:10:06+01:00</time>
      </trkpt>
      <trkpt lat="43.74342" lon="6.99707">
        <ele>514.442627</ele>
        <time>2012-01-07T12:10:10+01:00</time>
      </trkpt>
      <trkpt lat="43.74359" lon="6.99687">
        <ele>513.481445</ele>
        <time>2012-01-07T12:10:16+01:00</time>
      </trkpt>
      <trkpt lat="43.7437" lon="6.99675">
        <ele>513.481445</ele>
        <time>2012-01-07T12:10:19+01:00</time>
      </trkpt>
      <trkpt lat="43.74381" lon="6.99663">
        <ele>513.481445</ele>
        <time>2012-01-07T12:10:22+01:00</time>
      </trkpt>
      <trkpt lat="43.74389" lon="6.99649">
        <ele>510.59729</ele>
        <time>2012-01-07T12:10:25+01:00</time>
      </trkpt>
      <trkpt lat="43.74397" lon="6.99626">
        <ele>509.636108</ele>
        <time>2012-01-07T12:10:30+01:00</time>
      </trkpt>
      <trkpt lat="43.74407" lon="6.99606">
        <ele>508.674683</ele>
        <time>2012-01-07T12:10:35+01:00</time>
      </trkpt>
      <trkpt lat="43.74408" lon="6.99583">
        <ele>508.194092</ele>
        <time>2012-01-07T12:10:39+01:00</time>
      </trkpt>
      <trkpt lat="43.74411" lon="6.99551">
        <ele>506.752075</ele>
        <time>2012-01-07T12:10:43+01:00</time>
      </trkpt>
      <trkpt lat="43.74412" lon="6.99538">
        <ele>507.713501</ele>
        <time>2012-01-07T12:10:45+01:00</time>
      </trkpt>
      <trkpt lat="43.74414" lon="6.99533">
        <ele>509.636108</ele>
        <time>2012-01-07T12:10:50+01:00</time>
      </trkpt>
      <trkpt lat="43.74415" lon="6.99531">
        <ele>510.59729</ele>
        <time>2012-01-07T12:10:56+01:00</time>
      </trkpt>
      <trkpt lat="43.74416" lon="6.99531">
        <ele>510.59729</ele>
        <time>2012-01-07T12:10:59+01:00</time>
      </trkpt>
      <trkpt lat="43.74418" lon="6.99536">
        <ele>511.078003</ele>
        <time>2012-01-07T12:11:04+01:00</time>
      </trkpt>
      <trkpt lat="43.74421" lon="6.99531">
        <ele>512.039429</ele>
        <time>2012-01-07T12:11:10+01:00</time>
      </trkpt>
      <trkpt lat="43.74423" lon="6.99527">
        <ele>514.442627</ele>
        <time>2012-01-07T12:11:16+01:00</time>
      </trkpt>
      <trkpt lat="43.74423" lon="6.99525">
        <ele>515.884644</ele>
        <time>2012-01-07T12:11:21+01:00</time>
      </trkpt>
      <trkpt lat="43.74424" lon="6.99526">
        <ele>517.807251</ele>
        <time>2012-01-07T12:11:27+01:00</time>
      </trkpt>
      <trkpt lat="43.74425" lon="6.99526">
        <ele>519.249268</ele>
        <time>2012-01-07T12:11:36+01:00</time>
      </trkpt>
      <trkpt lat="43.74424" lon="6.99527">
        <ele>519.249268</ele>
        <time>2012-01-07T12:11:44+01:00</time>
      </trkpt>
      <trkpt lat="43.74425" lon="6.99527">
        <ele>522.133179</ele>
        <time>2012-01-07T12:11:53+01:00</time>
      </trkpt>
      <trkpt lat="43.74425" lon="6.99527">
        <ele>521.652588</ele>
        <time>2012-01-07T12:12:00+01:00</time>
      </trkpt>
      <trkpt lat="43.74426" lon="6.99527">
        <ele>521.652588</ele>
        <time>2012-01-07T12:12:06+01:00</time>
      </trkpt>
      <trkpt lat="43.74429" lon="6.99525">
        <ele>525.497803</ele>
        <time>2012-01-07T12:12:16+01:00</time>
      </trkpt>
      <trkpt lat="43.74441" lon="6.99511">
        <ele>525.017212</ele>
        <time>2012-01-07T12:12:21+01:00</time>
      </trkpt>
      <trkpt lat="43.7446" lon="6.99496">
        <ele>523.575195</ele>
        <time>2012-01-07T12:12:26+01:00</time>
      </trkpt>
      <trkpt lat="43.74464" lon="6.99493">
        <ele>523.094604</ele>
        <time>2012-01-07T12:12:27+01:00</time>
      </trkpt>
      <trkpt lat="43.74476" lon="6.99469">
        <ele>519.249268</ele>
        <time>2012-01-07T12:12:32+01:00</time>
      </trkpt>
      <trkpt lat="43.74479" lon="6.99456">
        <ele>517.32666</ele>
        <time>2012-01-07T12:12:34+01:00</time>
      </trkpt>
      <trkpt lat="43.74486" lon="6.99439">
        <ele>515.884644</ele>
        <time>2012-01-07T12:12:37+01:00</time>
      </trkpt>
      <trkpt lat="43.74498" lon="6.99424">
        <ele>513.481445</ele>
        <time>2012-01-07T12:12:41+01:00</time>
      </trkpt>
      <trkpt lat="43.7452" lon="6.99414">
        <ele>515.884644</ele>
        <time>2012-01-07T12:12:46+01:00</time>
      </trkpt>
      <trkpt lat="43.7453" lon="6.99405">
        <ele>517.807251</ele>
        <time>2012-01-07T12:12:50+01:00</time>
      </trkpt>
      <trkpt lat="43.74535" lon="6.994">
        <ele>515.884644</ele>
        <time>2012-01-07T12:12:55+01:00</time>
      </trkpt>
      <trkpt lat="43.74541" lon="6.99395">
        <ele>514.92334</ele>
        <time>2012-01-07T12:13:06+01:00</time>
      </trkpt>
      <trkpt lat="43.74542" lon="6.99394">
        <ele>513.962036</ele>
        <time>2012-01-07T12:13:07+01:00</time>
      </trkpt>
      <trkpt lat="43.7455" lon="6.99393">
        <ele>513.481445</ele>
        <time>2012-01-07T12:13:12+01:00</time>
      </trkpt>
      <trkpt lat="43.74554" lon="6.99397">
        <ele>513.481445</ele>
        <time>2012-01-07T12:13:19+01:00</time>
      </trkpt>
      <trkpt lat="43.74556" lon="6.994">
        <ele>512.52002</ele>
        <time>2012-01-07T12:13:25+01:00</time>
      </trkpt>
      <trkpt lat="43.7456" lon="6.9941">
        <ele>511.078003</ele>
        <time>2012-01-07T12:13:30+01:00</time>
      </trkpt>
      <trkpt lat="43.74561" lon="6.99411">
        <ele>511.558716</ele>
        <time>2012-01-07T12:13:31+01:00</time>
      </trkpt>
      <trkpt lat="43.74565" lon="6.99415">
        <ele>512.039429</ele>
        <time>2012-01-07T12:13:38+01:00</time>
      </trkpt>
      <trkpt lat="43.74568" lon="6.99416">
        <ele>511.558716</ele>
        <time>2012-01-07T12:13:43+01:00</time>
      </trkpt>
      <trkpt lat="43.74573" lon="6.99417">
        <ele>510.59729</ele>
        <time>2012-01-07T12:13:48+01:00</time>
      </trkpt>
      <trkpt lat="43.74587" lon="6.9942">
        <ele>510.59729</ele>
        <time>2012-01-07T12:13:54+01:00</time>
      </trkpt>
      <trkpt lat="43.74601" lon="6.99434">
        <ele>508.674683</ele>
        <time>2012-01-07T12:13:59+01:00</time>
      </trkpt>
      <trkpt lat="43.7461" lon="6.99444">
        <ele>508.674683</ele>
        <time>2012-01-07T12:14:02+01:00</time>
      </trkpt>
      <trkpt lat="43.74624" lon="6.99441">
        <ele>509.636108</ele>
        <time>2012-01-07T12:14:07+01:00</time>
      </trkpt>
      <trkpt lat="43.74635" lon="6.99435">
        <ele>509.155396</ele>
        <time>2012-01-07T12:14:10+01:00</time>
      </trkpt>
      <trkpt lat="43.74649" lon="6.99429">
        <ele>509.155396</ele>
        <time>2012-01-07T12:14:14+01:00</time>
      </trkpt>
      <trkpt lat="43.74671" lon="6.99416">
        <ele>510.59729</ele>
        <time>2012-01-07T12:14:20+01:00</time>
      </trkpt>
      <trkpt lat="43.74677" lon="6.99409">
        <ele>511.078003</ele>
        <time>2012-01-07T12:14:22+01:00</time>
      </trkpt>
      <trkpt lat="43.74682" lon="6.99392">
        <ele>509.636108</ele>
        <time>2012-01-07T12:14:27+01:00</time>
      </trkpt>
      <trkpt lat="43.74682" lon="6.99389">
        <ele>509.636108</ele>
        <time>2012-01-07T12:14:30+01:00</time>
      </trkpt>
      <trkpt lat="43.74683" lon="6.99384">
        <ele>513.000732</ele>
        <time>2012-01-07T12:14:37+01:00</time>
      </trkpt>
      <trkpt lat="43.74683" lon="6.99382">
        <ele>513.000732</ele>
        <time>2012-01-07T12:14:42+01:00</time>
      </trkpt>
      <trkpt lat="43.74682" lon="6.99379">
        <ele>512.039429</ele>
        <time>2012-01-07T12:14:54+01:00</time>
      </trkpt>
      <trkpt lat="43.74682" lon="6.99373">
        <ele>516.365234</ele>
        <time>2012-01-07T12:15:07+01:00</time>
      </trkpt>
      <trkpt lat="43.74682" lon="6.99353">
        <ele>513.962036</ele>
        <time>2012-01-07T12:15:12+01:00</time>
      </trkpt>
      <trkpt lat="43.74684" lon="6.99341">
        <ele>512.52002</ele>
        <time>2012-01-07T12:15:16+01:00</time>
      </trkpt>
      <trkpt lat="43.74694" lon="6.9933">
        <ele>509.155396</ele>
        <time>2012-01-07T12:15:21+01:00</time>
      </trkpt>
      <trkpt lat="43.74697" lon="6.99328">
        <ele>508.674683</ele>
        <time>2012-01-07T12:15:22+01:00</time>
      </trkpt>
      <trkpt lat="43.7471" lon="6.99321">
        <ele>507.232788</ele>
        <time>2012-01-07T12:15:27+01:00</time>
      </trkpt>
      <trkpt lat="43.74723" lon="6.99313">
        <ele>506.752075</ele>
        <time>2012-01-07T12:15:32+01:00</time>
      </trkpt>
      <trkpt lat="43.74726" lon="6.9931">
        <ele>505.790894</ele>
        <time>2012-01-07T12:15:36+01:00</time>
      </trkpt>
      <trkpt lat="43.7473" lon="6.99308">
        <ele>503.387451</ele>
        <time>2012-01-07T12:15:42+01:00</time>
      </trkpt>
      <trkpt lat="43.74737" lon="6.99305">
        <ele>503.387451</ele>
        <time>2012-01-07T12:15:47+01:00</time>
      </trkpt>
      <trkpt lat="43.74748" lon="6.99302">
        <ele>503.387451</ele>
        <time>2012-01-07T12:15:51+01:00</time>
      </trkpt>
      <trkpt lat="43.74762" lon="6.99306">
        <ele>503.387451</ele>
        <time>2012-01-07T12:15:55+01:00</time>
      </trkpt>
      <trkpt lat="43.74783" lon="6.99315">
        <ele>504.348877</ele>
        <time>2012-01-07T12:16:00+01:00</time>
      </trkpt>
      <trkpt lat="43.74786" lon="6.99316">
        <ele>504.348877</ele>
        <time>2012-01-07T12:16:01+01:00</time>
      </trkpt>
      <trkpt lat="43.74805" lon="6.99312">
        <ele>505.790894</ele>
        <time>2012-01-07T12:16:08+01:00</time>
      </trkpt>
      <trkpt lat="43.7482" lon="6.99306">
        <ele>508.194092</ele>
        <time>2012-01-07T12:16:13+01:00</time>
      </trkpt>
      <trkpt lat="43.74833" lon="6.99295">
        <ele>509.636108</ele>
        <time>2012-01-07T12:16:17+01:00</time>
      </trkpt>
      <trkpt lat="43.7486" lon="6.99271">
        <ele>507.232788</ele>
        <time>2012-01-07T12:16:25+01:00</time>
      </trkpt>
      <trkpt lat="43.74878" lon="6.99275">
        <ele>507.713501</ele>
        <time>2012-01-07T12:16:30+01:00</time>
      </trkpt>
      <trkpt lat="43.74901" lon="6.99283">
        <ele>507.232788</ele>
        <time>2012-01-07T12:16:36+01:00</time>
      </trkpt>
      <trkpt lat="43.74908" lon="6.99278">
        <ele>509.155396</ele>
        <time>2012-01-07T12:16:42+01:00</time>
      </trkpt>
      <trkpt lat="43.74908" lon="6.9928">
        <ele>511.558716</ele>
        <time>2012-01-07T12:16:47+01:00</time>
      </trkpt>
      <trkpt lat="43.74909" lon="6.99279">
        <ele>515.404053</ele>
        <time>2012-01-07T12:17:01+01:00</time>
      </trkpt>
      <trkpt lat="43.74913" lon="6.99274">
        <ele>514.442627</ele>
        <time>2012-01-07T12:17:06+01:00</time>
      </trkpt>
      <trkpt lat="43.74926" lon="6.99261">
        <ele>513.962036</ele>
        <time>2012-01-07T12:17:11+01:00</time>
      </trkpt>
      <trkpt lat="43.74941" lon="6.99239">
        <ele>513.481445</ele>
        <time>2012-01-07T12:17:17+01:00</time>
      </trkpt>
      <trkpt lat="43.74948" lon="6.9923">
        <ele>513.962036</ele>
        <time>2012-01-07T12:17:20+01:00</time>
      </trkpt>
      <trkpt lat="43.74969" lon="6.99229">
        <ele>513.000732</ele>
        <time>2012-01-07T12:17:26+01:00</time>
      </trkpt>
      <trkpt lat="43.74977" lon="6.99229">
        <ele>513.000732</ele>
        <time>2012-01-07T12:17:28+01:00</time>
      </trkpt>
      <trkpt lat="43.74999" lon="6.99212">
        <ele>513.481445</ele>
        <time>2012-01-07T12:17:34+01:00</time>
      </trkpt>
      <trkpt lat="43.75011" lon="6.99203">
        <ele>513.962036</ele>
        <time>2012-01-07T12:17:37+01:00</time>
      </trkpt>
      <trkpt lat="43.75023" lon="6.99186">
        <ele>513.481445</ele>
        <time>2012-01-07T12:17:41+01:00</time>
      </trkpt>
      <trkpt lat="43.75035" lon="6.99181">
        <ele>513.481445</ele>
        <time>2012-01-07T12:17:45+01:00</time>
      </trkpt>
      <trkpt lat="43.75048" lon="6.99183">
        <ele>513.481445</ele>
        <time>2012-01-07T12:17:48+01:00</time>
      </trkpt>
      <trkpt lat="43.7506" lon="6.99189">
        <ele>513.000732</ele>
        <time>2012-01-07T12:17:52+01:00</time>
      </trkpt>
      <trkpt lat="43.75069" lon="6.99194">
        <ele>512.52002</ele>
        <time>2012-01-07T12:17:57+01:00</time>
      </trkpt>
      <trkpt lat="43.75085" lon="6.99193">
        <ele>512.039429</ele>
        <time>2012-01-07T12:18:03+01:00</time>
      </trkpt>
      <trkpt lat="43.75098" lon="6.99192">
        <ele>511.078003</ele>
        <time>2012-01-07T12:18:08+01:00</time>
      </trkpt>
      <trkpt lat="43.751" lon="6.99192">
        <ele>512.52002</ele>
        <time>2012-01-07T12:18:09+01:00</time>
      </trkpt>
      <trkpt lat="43.75104" lon="6.99186">
        <ele>513.962036</ele>
        <time>2012-01-07T12:18:15+01:00</time>
      </trkpt>
      <trkpt lat="43.75105" lon="6.99188">
        <ele>516.845947</ele>
        <time>2012-01-07T12:18:23+01:00</time>
      </trkpt>
      <trkpt lat="43.75105" lon="6.99182">
        <ele>518.287842</ele>
        <time>2012-01-07T12:18:45+01:00</time>
      </trkpt>
      <trkpt lat="43.75105" lon="6.99182">
        <ele>516.845947</ele>
        <time>2012-01-07T12:18:53+01:00</time>
      </trkpt>
      <trkpt lat="43.75105" lon="6.99185">
        <ele>515.884644</ele>
        <time>2012-01-07T12:19:21+01:00</time>
      </trkpt>
      <trkpt lat="43.75107" lon="6.99182">
        <ele>513.000732</ele>
        <time>2012-01-07T12:19:29+01:00</time>
      </trkpt>
      <trkpt lat="43.75108" lon="6.99177">
        <ele>512.039429</ele>
        <time>2012-01-07T12:19:32+01:00</time>
      </trkpt>
      <trkpt lat="43.75113" lon="6.99159">
        <ele>510.116699</ele>
        <time>2012-01-07T12:19:37+01:00</time>
      </trkpt>
      <trkpt lat="43.75125" lon="6.99141">
        <ele>507.713501</ele>
        <time>2012-01-07T12:19:43+01:00</time>
      </trkpt>
      <trkpt lat="43.75139" lon="6.99124">
        <ele>506.752075</ele>
        <time>2012-01-07T12:19:47+01:00</time>
      </trkpt>
      <trkpt lat="43.7515" lon="6.99115">
        <ele>507.713501</ele>
        <time>2012-01-07T12:19:50+01:00</time>
      </trkpt>
      <trkpt lat="43.75165" lon="6.99116">
        <ele>506.752075</ele>
        <time>2012-01-07T12:19:54+01:00</time>
      </trkpt>
      <trkpt lat="43.75182" lon="6.99107">
        <ele>508.194092</ele>
        <time>2012-01-07T12:19:58+01:00</time>
      </trkpt>
      <trkpt lat="43.75195" lon="6.99089">
        <ele>510.116699</ele>
        <time>2012-01-07T12:20:02+01:00</time>
      </trkpt>
      <trkpt lat="43.7521" lon="6.99082">
        <ele>510.116699</ele>
        <time>2012-01-07T12:20:06+01:00</time>
      </trkpt>
      <trkpt lat="43.7522" lon="6.9908">
        <ele>510.116699</ele>
        <time>2012-01-07T12:20:08+01:00</time>
      </trkpt>
      <trkpt lat="43.75233" lon="6.99072">
        <ele>511.078003</ele>
        <time>2012-01-07T12:20:12+01:00</time>
      </trkpt>
      <trkpt lat="43.75236" lon="6.99068">
        <ele>510.59729</ele>
        <time>2012-01-07T12:20:13+01:00</time>
      </trkpt>
      <trkpt lat="43.75258" lon="6.99048">
        <ele>509.155396</ele>
        <time>2012-01-07T12:20:18+01:00</time>
      </trkpt>
      <trkpt lat="43.75262" lon="6.99043">
        <ele>508.674683</ele>
        <time>2012-01-07T12:20:19+01:00</time>
      </trkpt>
      <trkpt lat="43.75286" lon="6.99029">
        <ele>508.194092</ele>
        <time>2012-01-07T12:20:24+01:00</time>
      </trkpt>
      <trkpt lat="43.75299" lon="6.99015">
        <ele>508.194092</ele>
        <time>2012-01-07T12:20:27+01:00</time>
      </trkpt>
      <trkpt lat="43.75323" lon="6.98998">
        <ele>507.713501</ele>
        <time>2012-01-07T12:20:32+01:00</time>
      </trkpt>
      <trkpt lat="43.75341" lon="6.98992">
        <ele>506.752075</ele>
        <time>2012-01-07T12:20:36+01:00</time>
      </trkpt>
      <trkpt lat="43.75359" lon="6.9898">
        <ele>507.232788</ele>
        <time>2012-01-07T12:20:40+01:00</time>
      </trkpt>
      <trkpt lat="43.75383" lon="6.98957">
        <ele>510.59729</ele>
        <time>2012-01-07T12:20:46+01:00</time>
      </trkpt>
      <trkpt lat="43.75385" lon="6.98955">
        <ele>511.078003</ele>
        <time>2012-01-07T12:20:47+01:00</time>
      </trkpt>
      <trkpt lat="43.75385" lon="6.98948">
        <ele>513.000732</ele>
        <time>2012-01-07T12:20:51+01:00</time>
      </trkpt>
      <trkpt lat="43.7538" lon="6.98954">
        <ele>514.92334</ele>
        <time>2012-01-07T12:20:55+01:00</time>
      </trkpt>
      <trkpt lat="43.75379" lon="6.98956">
        <ele>515.404053</ele>
        <time>2012-01-07T12:20:56+01:00</time>
      </trkpt>
      <trkpt lat="43.75377" lon="6.98958">
        <ele>516.365234</ele>
        <time>2012-01-07T12:21:04+01:00</time>
      </trkpt>
      <trkpt lat="43.75375" lon="6.98956">
        <ele>517.807251</ele>
        <time>2012-01-07T12:21:12+01:00</time>
      </trkpt>
      <trkpt lat="43.75371" lon="6.98958">
        <ele>518.287842</ele>
        <time>2012-01-07T12:21:17+01:00</time>
      </trkpt>
      <trkpt lat="43.75365" lon="6.98962">
        <ele>518.768555</ele>
        <time>2012-01-07T12:21:21+01:00</time>
      </trkpt>
      <trkpt lat="43.75354" lon="6.98971">
        <ele>519.249268</ele>
        <time>2012-01-07T12:21:28+01:00</time>
      </trkpt>
      <trkpt lat="43.75342" lon="6.98978">
        <ele>520.210571</ele>
        <time>2012-01-07T12:21:34+01:00</time>
      </trkpt>
      <trkpt lat="43.75327" lon="6.98982">
        <ele>521.652588</ele>
        <time>2012-01-07T12:21:40+01:00</time>
      </trkpt>
      <trkpt lat="43.75312" lon="6.98983">
        <ele>523.094604</ele>
        <time>2012-01-07T12:21:46+01:00</time>
      </trkpt>
      <trkpt lat="43.75291" lon="6.98993">
        <ele>523.575195</ele>
        <time>2012-01-07T12:21:54+01:00</time>
      </trkpt>
      <trkpt lat="43.75275" lon="6.99005">
        <ele>525.017212</ele>
        <time>2012-01-07T12:22:01+01:00</time>
      </trkpt>
      <trkpt lat="43.75256" lon="6.9902">
        <ele>525.978394</ele>
        <time>2012-01-07T12:22:09+01:00</time>
      </trkpt>
      <trkpt lat="43.75236" lon="6.99032">
        <ele>527.42041</ele>
        <time>2012-01-07T12:22:17+01:00</time>
      </trkpt>
      <trkpt lat="43.75218" lon="6.99043">
        <ele>528.862549</ele>
        <time>2012-01-07T12:22:24+01:00</time>
      </trkpt>
      <trkpt lat="43.75203" lon="6.99045">
        <ele>530.304443</ele>
        <time>2012-01-07T12:22:30+01:00</time>
      </trkpt>
      <trkpt lat="43.75184" lon="6.99044">
        <ele>531.746338</ele>
        <time>2012-01-07T12:22:37+01:00</time>
      </trkpt>
      <trkpt lat="43.75169" lon="6.99043">
        <ele>532.227051</ele>
        <time>2012-01-07T12:22:43+01:00</time>
      </trkpt>
      <trkpt lat="43.75154" lon="6.99041">
        <ele>533.668945</ele>
        <time>2012-01-07T12:22:49+01:00</time>
      </trkpt>
      <trkpt lat="43.75133" lon="6.99044">
        <ele>535.110962</ele>
        <time>2012-01-07T12:22:56+01:00</time>
      </trkpt>
      <trkpt lat="43.75116" lon="6.99063">
        <ele>536.072388</ele>
        <time>2012-01-07T12:23:03+01:00</time>
      </trkpt>
      <trkpt lat="43.75097" lon="6.99085">
        <ele>538.475708</ele>
        <time>2012-01-07T12:23:11+01:00</time>
      </trkpt>
      <trkpt lat="43.75084" lon="6.99099">
        <ele>537.514282</ele>
        <time>2012-01-07T12:23:17+01:00</time>
      </trkpt>
      <trkpt lat="43.7507" lon="6.99113">
        <ele>537.033691</ele>
        <time>2012-01-07T12:23:23+01:00</time>
      </trkpt>
      <trkpt lat="43.75053" lon="6.9912">
        <ele>537.994995</ele>
        <time>2012-01-07T12:23:30+01:00</time>
      </trkpt>
      <trkpt lat="43.75032" lon="6.99117">
        <ele>538.475708</ele>
        <time>2012-01-07T12:23:38+01:00</time>
      </trkpt>
      <trkpt lat="43.75017" lon="6.99114">
        <ele>540.398315</ele>
        <time>2012-01-07T12:23:44+01:00</time>
      </trkpt>
      <trkpt lat="43.75001" lon="6.9911">
        <ele>542.801514</ele>
        <time>2012-01-07T12:23:51+01:00</time>
      </trkpt>
      <trkpt lat="43.74989" lon="6.99105">
        <ele>543.282104</ele>
        <time>2012-01-07T12:23:57+01:00</time>
      </trkpt>
      <trkpt lat="43.74976" lon="6.99098">
        <ele>544.243652</ele>
        <time>2012-01-07T12:24:03+01:00</time>
      </trkpt>
      <trkpt lat="43.74957" lon="6.99085">
        <ele>546.16626</ele>
        <time>2012-01-07T12:24:10+01:00</time>
      </trkpt>
      <trkpt lat="43.74944" lon="6.99071">
        <ele>547.127441</ele>
        <time>2012-01-07T12:24:16+01:00</time>
      </trkpt>
      <trkpt lat="43.74931" lon="6.99053">
        <ele>547.127441</ele>
        <time>2012-01-07T12:24:22+01:00</time>
      </trkpt>
      <trkpt lat="43.7491" lon="6.9904">
        <ele>548.569336</ele>
        <time>2012-01-07T12:24:29+01:00</time>
      </trkpt>
      <trkpt lat="43.74897" lon="6.99037">
        <ele>550.011475</ele>
        <time>2012-01-07T12:24:34+01:00</time>
      </trkpt>
      <trkpt lat="43.74894" lon="6.99037">
        <ele>549.530762</ele>
        <time>2012-01-07T12:24:37+01:00</time>
      </trkpt>
      <trkpt lat="43.74891" lon="6.99036">
        <ele>550.492188</ele>
        <time>2012-01-07T12:24:43+01:00</time>
      </trkpt>
      <trkpt lat="43.7489" lon="6.99036">
        <ele>551.453369</ele>
        <time>2012-01-07T12:24:52+01:00</time>
      </trkpt>
      <trkpt lat="43.74891" lon="6.99037">
        <ele>551.934082</ele>
        <time>2012-01-07T12:24:57+01:00</time>
      </trkpt>
      <trkpt lat="43.7489" lon="6.99037">
        <ele>550.011475</ele>
        <time>2012-01-07T12:25:09+01:00</time>
      </trkpt>
      <trkpt lat="43.7489" lon="6.99037">
        <ele>548.088867</ele>
        <time>2012-01-07T12:25:18+01:00</time>
      </trkpt>
      <trkpt lat="43.7489" lon="6.99037">
        <ele>547.127441</ele>
        <time>2012-01-07T12:25:23+01:00</time>
      </trkpt>
      <trkpt lat="43.74891" lon="6.99036">
        <ele>546.16626</ele>
        <time>2012-01-07T12:25:29+01:00</time>
      </trkpt>
      <trkpt lat="43.74891" lon="6.99036">
        <ele>546.646851</ele>
        <time>2012-01-07T12:25:36+01:00</time>
      </trkpt>
      <trkpt lat="43.74888" lon="6.99038">
        <ele>548.088867</ele>
        <time>2012-01-07T12:25:44+01:00</time>
      </trkpt>
      <trkpt lat="43.7488" lon="6.99041">
        <ele>549.050049</ele>
        <time>2012-01-07T12:25:49+01:00</time>
      </trkpt>
      <trkpt lat="43.74876" lon="6.99043">
        <ele>549.530762</ele>
        <time>2012-01-07T12:25:53+01:00</time>
      </trkpt>
      <trkpt lat="43.74873" lon="6.99048">
        <ele>553.856689</ele>
        <time>2012-01-07T12:26:00+01:00</time>
      </trkpt>
      <trkpt lat="43.74871" lon="6.9905">
        <ele>554.337402</ele>
        <time>2012-01-07T12:26:05+01:00</time>
      </trkpt>
      <trkpt lat="43.7487" lon="6.99049">
        <ele>553.856689</ele>
        <time>2012-01-07T12:26:13+01:00</time>
      </trkpt>
      <trkpt lat="43.74872" lon="6.99047">
        <ele>552.895264</ele>
        <time>2012-01-07T12:26:16+01:00</time>
      </trkpt>
      <trkpt lat="43.74883" lon="6.99041">
        <ele>553.375977</ele>
        <time>2012-01-07T12:26:20+01:00</time>
      </trkpt>
      <trkpt lat="43.74891" lon="6.99038">
        <ele>553.375977</ele>
        <time>2012-01-07T12:26:23+01:00</time>
      </trkpt>
      <trkpt lat="43.74892" lon="6.99038">
        <ele>553.856689</ele>
        <time>2012-01-07T12:26:27+01:00</time>
      </trkpt>
      <trkpt lat="43.74891" lon="6.99038">
        <ele>553.856689</ele>
        <time>2012-01-07T12:26:28+01:00</time>
      </trkpt>
      <trkpt lat="43.74878" lon="6.99044">
        <ele>553.856689</ele>
        <time>2012-01-07T12:26:33+01:00</time>
      </trkpt>
      <trkpt lat="43.74869" lon="6.99048">
        <ele>553.856689</ele>
        <time>2012-01-07T12:26:38+01:00</time>
      </trkpt>
      <trkpt lat="43.7486" lon="6.99054">
        <ele>553.856689</ele>
        <time>2012-01-07T12:26:43+01:00</time>
      </trkpt>
      <trkpt lat="43.74839" lon="6.99068">
        <ele>554.337402</ele>
        <time>2012-01-07T12:26:52+01:00</time>
      </trkpt>
      <trkpt lat="43.74825" lon="6.99083">
        <ele>555.298584</ele>
        <time>2012-01-07T12:26:58+01:00</time>
      </trkpt>
      <trkpt lat="43.74811" lon="6.99101">
        <ele>556.740723</ele>
        <time>2012-01-07T12:27:04+01:00</time>
      </trkpt>
      <trkpt lat="43.74791" lon="6.99128">
        <ele>560.105225</ele>
        <time>2012-01-07T12:27:13+01:00</time>
      </trkpt>
      <trkpt lat="43.74776" lon="6.99142">
        <ele>560.585938</ele>
        <time>2012-01-07T12:27:19+01:00</time>
      </trkpt>
      <trkpt lat="43.74761" lon="6.99156">
        <ele>561.06665</ele>
        <time>2012-01-07T12:27:25+01:00</time>
      </trkpt>
      <trkpt lat="43.74742" lon="6.99168">
        <ele>561.547363</ele>
        <time>2012-01-07T12:27:31+01:00</time>
      </trkpt>
      <trkpt lat="43.74717" lon="6.99175">
        <ele>562.028076</ele>
        <time>2012-01-07T12:27:38+01:00</time>
      </trkpt>
      <trkpt lat="43.74686" lon="6.99179">
        <ele>564.431152</ele>
        <time>2012-01-07T12:27:46+01:00</time>
      </trkpt>
      <trkpt lat="43.74656" lon="6.99177">
        <ele>567.315186</ele>
        <time>2012-01-07T12:27:54+01:00</time>
      </trkpt>
      <trkpt lat="43.74628" lon="6.99166">
        <ele>569.718506</ele>
        <time>2012-01-07T12:28:02+01:00</time>
      </trkpt>
      <trkpt lat="43.74603" lon="6.99149">
        <ele>570.679688</ele>
        <time>2012-01-07T12:28:10+01:00</time>
      </trkpt>
      <trkpt lat="43.74588" lon="6.99135">
        <ele>572.121826</ele>
        <time>2012-01-07T12:28:16+01:00</time>
      </trkpt>
      <trkpt lat="43.7458" lon="6.99127">
        <ele>572.121826</ele>
        <time>2012-01-07T12:28:20+01:00</time>
      </trkpt>
      <trkpt lat="43.74583" lon="6.9912">
        <ele>572.121826</ele>
        <time>2012-01-07T12:28:24+01:00</time>
      </trkpt>
      <trkpt lat="43.746" lon="6.99129">
        <ele>571.1604</ele>
        <time>2012-01-07T12:28:31+01:00</time>
      </trkpt>
      <trkpt lat="43.74627" lon="6.99149">
        <ele>571.1604</ele>
        <time>2012-01-07T12:28:39+01:00</time>
      </trkpt>
      <trkpt lat="43.74661" lon="6.99165">
        <ele>571.1604</ele>
        <time>2012-01-07T12:28:47+01:00</time>
      </trkpt>
      <trkpt lat="43.7468" lon="6.99168">
        <ele>570.679688</ele>
        <time>2012-01-07T12:28:51+01:00</time>
      </trkpt>
      <trkpt lat="43.74724" lon="6.99158">
        <ele>570.198975</ele>
        <time>2012-01-07T12:29:00+01:00</time>
      </trkpt>
      <trkpt lat="43.74735" lon="6.99154">
        <ele>570.198975</ele>
        <time>2012-01-07T12:29:02+01:00</time>
      </trkpt>
      <trkpt lat="43.74758" lon="6.99134">
        <ele>570.198975</ele>
        <time>2012-01-07T12:29:07+01:00</time>
      </trkpt>
      <trkpt lat="43.74773" lon="6.99103">
        <ele>571.640869</ele>
        <time>2012-01-07T12:29:12+01:00</time>
      </trkpt>
      <trkpt lat="43.74784" lon="6.99056">
        <ele>571.640869</ele>
        <time>2012-01-07T12:29:18+01:00</time>
      </trkpt>
      <trkpt lat="43.7479" lon="6.9902">
        <ele>572.121826</ele>
        <time>2012-01-07T12:29:22+01:00</time>
      </trkpt>
      <trkpt lat="43.74806" lon="6.98993">
        <ele>572.121826</ele>
        <time>2012-01-07T12:29:26+01:00</time>
      </trkpt>
      <trkpt lat="43.74817" lon="6.98986">
        <ele>571.1604</ele>
        <time>2012-01-07T12:29:28+01:00</time>
      </trkpt>
      <trkpt lat="43.74839" lon="6.98976">
        <ele>571.640869</ele>
        <time>2012-01-07T12:29:33+01:00</time>
      </trkpt>
      <trkpt lat="43.74843" lon="6.98974">
        <ele>572.121826</ele>
        <time>2012-01-07T12:29:35+01:00</time>
      </trkpt>
      <trkpt lat="43.74845" lon="6.98974">
        <ele>572.121826</ele>
        <time>2012-01-07T12:29:42+01:00</time>
      </trkpt>
      <trkpt lat="43.74842" lon="6.98976">
        <ele>571.640869</ele>
        <time>2012-01-07T12:29:47+01:00</time>
      </trkpt>
      <trkpt lat="43.74843" lon="6.98974">
        <ele>570.679688</ele>
        <time>2012-01-07T12:29:53+01:00</time>
      </trkpt>
      <trkpt lat="43.74843" lon="6.98974">
        <ele>569.718506</ele>
        <time>2012-01-07T12:29:58+01:00</time>
      </trkpt>
      <trkpt lat="43.74845" lon="6.98972">
        <ele>569.237793</ele>
        <time>2012-01-07T12:30:13+01:00</time>
      </trkpt>
      <trkpt lat="43.74847" lon="6.98968">
        <ele>567.795654</ele>
        <time>2012-01-07T12:30:40+01:00</time>
      </trkpt>
      <trkpt lat="43.74851" lon="6.98963">
        <ele>567.795654</ele>
        <time>2012-01-07T12:30:45+01:00</time>
      </trkpt>
      <trkpt lat="43.74859" lon="6.98957">
        <ele>568.75708</ele>
        <time>2012-01-07T12:30:50+01:00</time>
      </trkpt>
      <trkpt lat="43.74862" lon="6.98955">
        <ele>569.718506</ele>
        <time>2012-01-07T12:30:55+01:00</time>
      </trkpt>
      <trkpt lat="43.74863" lon="6.98955">
        <ele>569.718506</ele>
        <time>2012-01-07T12:30:57+01:00</time>
      </trkpt>
      <trkpt lat="43.74869" lon="6.98953">
        <ele>569.237793</ele>
        <time>2012-01-07T12:31:01+01:00</time>
      </trkpt>
      <trkpt lat="43.74889" lon="6.98951">
        <ele>568.75708</ele>
        <time>2012-01-07T12:31:07+01:00</time>
      </trkpt>
      <trkpt lat="43.74917" lon="6.98964">
        <ele>568.276367</ele>
        <time>2012-01-07T12:31:13+01:00</time>
      </trkpt>
      <trkpt lat="43.74931" lon="6.98975">
        <ele>568.276367</ele>
        <time>2012-01-07T12:31:16+01:00</time>
      </trkpt>
      <trkpt lat="43.74958" lon="6.99009">
        <ele>568.276367</ele>
        <time>2012-01-07T12:31:22+01:00</time>
      </trkpt>
      <trkpt lat="43.74963" lon="6.99015">
        <ele>568.276367</ele>
        <time>2012-01-07T12:31:23+01:00</time>
      </trkpt>
      <trkpt lat="43.74987" lon="6.99029">
        <ele>568.276367</ele>
        <time>2012-01-07T12:31:27+01:00</time>
      </trkpt>
      <trkpt lat="43.75005" lon="6.99019">
        <ele>567.795654</ele>
        <time>2012-01-07T12:31:30+01:00</time>
      </trkpt>
      <trkpt lat="43.7503" lon="6.99009">
        <ele>567.315186</ele>
        <time>2012-01-07T12:31:34+01:00</time>
      </trkpt>
      <trkpt lat="43.7506" lon="6.99">
        <ele>567.795654</ele>
        <time>2012-01-07T12:31:39+01:00</time>
      </trkpt>
      <trkpt lat="43.75071" lon="6.98979">
        <ele>567.315186</ele>
        <time>2012-01-07T12:31:42+01:00</time>
      </trkpt>
      <trkpt lat="43.75076" lon="6.98964">
        <ele>567.315186</ele>
        <time>2012-01-07T12:31:44+01:00</time>
      </trkpt>
      <trkpt lat="43.75091" lon="6.98942">
        <ele>568.276367</ele>
        <time>2012-01-07T12:31:48+01:00</time>
      </trkpt>
      <trkpt lat="43.75109" lon="6.98931">
        <ele>569.237793</ele>
        <time>2012-01-07T12:31:52+01:00</time>
      </trkpt>
      <trkpt lat="43.75134" lon="6.98929">
        <ele>570.198975</ele>
        <time>2012-01-07T12:31:57+01:00</time>
      </trkpt>
      <trkpt lat="43.7516" lon="6.98928">
        <ele>571.1604</ele>
        <time>2012-01-07T12:32:02+01:00</time>
      </trkpt>
      <trkpt lat="43.75171" lon="6.98928">
        <ele>571.1604</ele>
        <time>2012-01-07T12:32:04+01:00</time>
      </trkpt>
      <trkpt lat="43.75201" lon="6.98927">
        <ele>572.121826</ele>
        <time>2012-01-07T12:32:09+01:00</time>
      </trkpt>
      <trkpt lat="43.75228" lon="6.98908">
        <ele>572.121826</ele>
        <time>2012-01-07T12:32:14+01:00</time>
      </trkpt>
      <trkpt lat="43.75243" lon="6.98892">
        <ele>572.121826</ele>
        <time>2012-01-07T12:32:17+01:00</time>
      </trkpt>
      <trkpt lat="43.7528" lon="6.98865">
        <ele>573.083252</ele>
        <time>2012-01-07T12:32:24+01:00</time>
      </trkpt>
      <trkpt lat="43.7529" lon="6.98857">
        <ele>573.083252</ele>
        <time>2012-01-07T12:32:26+01:00</time>
      </trkpt>
      <trkpt lat="43.75309" lon="6.98838">
        <ele>573.563965</ele>
        <time>2012-01-07T12:32:30+01:00</time>
      </trkpt>
      <trkpt lat="43.75335" lon="6.98822">
        <ele>573.563965</ele>
        <time>2012-01-07T12:32:35+01:00</time>
      </trkpt>
      <trkpt lat="43.75373" lon="6.9882">
        <ele>574.044434</ele>
        <time>2012-01-07T12:32:41+01:00</time>
      </trkpt>
      <trkpt lat="43.75413" lon="6.98803">
        <ele>574.525146</ele>
        <time>2012-01-07T12:32:48+01:00</time>
      </trkpt>
      <trkpt lat="43.75426" lon="6.98799">
        <ele>574.044434</ele>
        <time>2012-01-07T12:32:50+01:00</time>
      </trkpt>
      <trkpt lat="43.75445" lon="6.98798">
        <ele>574.044434</ele>
        <time>2012-01-07T12:32:53+01:00</time>
      </trkpt>
      <trkpt lat="43.75463" lon="6.98801">
        <ele>574.044434</ele>
        <time>2012-01-07T12:32:56+01:00</time>
      </trkpt>
      <trkpt lat="43.75482" lon="6.988">
        <ele>573.563965</ele>
        <time>2012-01-07T12:32:59+01:00</time>
      </trkpt>
      <trkpt lat="43.75512" lon="6.98813">
        <ele>574.044434</ele>
        <time>2012-01-07T12:33:04+01:00</time>
      </trkpt>
      <trkpt lat="43.75517" lon="6.98816">
        <ele>573.563965</ele>
        <time>2012-01-07T12:33:05+01:00</time>
      </trkpt>
      <trkpt lat="43.75537" lon="6.98817">
        <ele>574.525146</ele>
        <time>2012-01-07T12:33:09+01:00</time>
      </trkpt>
      <trkpt lat="43.75544" lon="6.98809">
        <ele>575.005859</ele>
        <time>2012-01-07T12:33:11+01:00</time>
      </trkpt>
      <trkpt lat="43.7555" lon="6.988">
        <ele>575.967041</ele>
        <time>2012-01-07T12:33:13+01:00</time>
      </trkpt>
      <trkpt lat="43.7557" lon="6.98788">
        <ele>576.447754</ele>
        <time>2012-01-07T12:33:18+01:00</time>
      </trkpt>
      <trkpt lat="43.75593" lon="6.98776">
        <ele>577.40918</ele>
        <time>2012-01-07T12:33:24+01:00</time>
      </trkpt>
      <trkpt lat="43.75609" lon="6.98777">
        <ele>577.889648</ele>
        <time>2012-01-07T12:33:28+01:00</time>
      </trkpt>
      <trkpt lat="43.75616" lon="6.98785">
        <ele>578.851074</ele>
        <time>2012-01-07T12:33:30+01:00</time>
      </trkpt>
      <trkpt lat="43.75621" lon="6.98794">
        <ele>579.331543</ele>
        <time>2012-01-07T12:33:32+01:00</time>
      </trkpt>
      <trkpt lat="43.75626" lon="6.98809">
        <ele>580.773682</ele>
        <time>2012-01-07T12:33:35+01:00</time>
      </trkpt>
      <trkpt lat="43.75642" lon="6.98832">
        <ele>582.696289</ele>
        <time>2012-01-07T12:33:41+01:00</time>
      </trkpt>
      <trkpt lat="43.75665" lon="6.98837">
        <ele>584.138184</ele>
        <time>2012-01-07T12:33:47+01:00</time>
      </trkpt>
      <trkpt lat="43.75682" lon="6.98827">
        <ele>585.099609</ele>
        <time>2012-01-07T12:33:52+01:00</time>
      </trkpt>
      <trkpt lat="43.75707" lon="6.98817">
        <ele>585.580078</ele>
        <time>2012-01-07T12:33:59+01:00</time>
      </trkpt>
      <trkpt lat="43.75735" lon="6.98821">
        <ele>587.502686</ele>
        <time>2012-01-07T12:34:07+01:00</time>
      </trkpt>
      <trkpt lat="43.75763" lon="6.98825">
        <ele>589.90625</ele>
        <time>2012-01-07T12:34:15+01:00</time>
      </trkpt>
      <trkpt lat="43.75791" lon="6.98828">
        <ele>591.348145</ele>
        <time>2012-01-07T12:34:23+01:00</time>
      </trkpt>
      <trkpt lat="43.75816" lon="6.98826">
        <ele>593.270752</ele>
        <time>2012-01-07T12:34:30+01:00</time>
      </trkpt>
      <trkpt lat="43.75833" lon="6.98812">
        <ele>595.674072</ele>
        <time>2012-01-07T12:34:36+01:00</time>
      </trkpt>
      <trkpt lat="43.7586" lon="6.98785">
        <ele>598.077393</ele>
        <time>2012-01-07T12:34:46+01:00</time>
      </trkpt>
      <trkpt lat="43.75879" lon="6.98785">
        <ele>600.480713</ele>
        <time>2012-01-07T12:34:52+01:00</time>
      </trkpt>
      <trkpt lat="43.75909" lon="6.98792">
        <ele>601.922607</ele>
        <time>2012-01-07T12:35:01+01:00</time>
      </trkpt>
      <trkpt lat="43.75936" lon="6.98796">
        <ele>603.364502</ele>
        <time>2012-01-07T12:35:09+01:00</time>
      </trkpt>
      <trkpt lat="43.75959" lon="6.98792">
        <ele>604.326172</ele>
        <time>2012-01-07T12:35:16+01:00</time>
      </trkpt>
      <trkpt lat="43.7597" lon="6.98775">
        <ele>603.845215</ele>
        <time>2012-01-07T12:35:21+01:00</time>
      </trkpt>
      <trkpt lat="43.75977" lon="6.98753">
        <ele>603.845215</ele>
        <time>2012-01-07T12:35:27+01:00</time>
      </trkpt>
      <trkpt lat="43.75987" lon="6.98725">
        <ele>605.287354</ele>
        <time>2012-01-07T12:35:35+01:00</time>
      </trkpt>
      <trkpt lat="43.75996" lon="6.98694">
        <ele>608.651855</ele>
        <time>2012-01-07T12:35:44+01:00</time>
      </trkpt>
      <trkpt lat="43.76" lon="6.98666">
        <ele>611.055176</ele>
        <time>2012-01-07T12:35:52+01:00</time>
      </trkpt>
      <trkpt lat="43.76001" lon="6.98647">
        <ele>612.977783</ele>
        <time>2012-01-07T12:35:58+01:00</time>
      </trkpt>
      <trkpt lat="43.76006" lon="6.98624">
        <ele>618.264893</ele>
        <time>2012-01-07T12:36:05+01:00</time>
      </trkpt>
      <trkpt lat="43.76013" lon="6.98598">
        <ele>620.187744</ele>
        <time>2012-01-07T12:36:12+01:00</time>
      </trkpt>
      <trkpt lat="43.76019" lon="6.98586">
        <ele>621.629639</ele>
        <time>2012-01-07T12:36:16+01:00</time>
      </trkpt>
      <trkpt lat="43.7603" lon="6.98564">
        <ele>624.513672</ele>
        <time>2012-01-07T12:36:23+01:00</time>
      </trkpt>
      <trkpt lat="43.76041" lon="6.98546">
        <ele>627.878174</ele>
        <time>2012-01-07T12:36:29+01:00</time>
      </trkpt>
      <trkpt lat="43.76048" lon="6.98528">
        <ele>625.474854</ele>
        <time>2012-01-07T12:36:35+01:00</time>
      </trkpt>
      <trkpt lat="43.76059" lon="6.98508">
        <ele>623.55249</ele>
        <time>2012-01-07T12:36:43+01:00</time>
      </trkpt>
      <trkpt lat="43.76073" lon="6.98498">
        <ele>624.032959</ele>
        <time>2012-01-07T12:36:50+01:00</time>
      </trkpt>
      <trkpt lat="43.7609" lon="6.98493">
        <ele>626.436279</ele>
        <time>2012-01-07T12:36:57+01:00</time>
      </trkpt>
      <trkpt lat="43.76103" lon="6.98484">
        <ele>628.358887</ele>
        <time>2012-01-07T12:37:03+01:00</time>
      </trkpt>
      <trkpt lat="43.76119" lon="6.98451">
        <ele>628.8396</ele>
        <time>2012-01-07T12:37:13+01:00</time>
      </trkpt>
      <trkpt lat="43.76137" lon="6.98427">
        <ele>628.358887</ele>
        <time>2012-01-07T12:37:21+01:00</time>
      </trkpt>
      <trkpt lat="43.76159" lon="6.98407">
        <ele>629.320068</ele>
        <time>2012-01-07T12:37:30+01:00</time>
      </trkpt>
      <trkpt lat="43.76176" lon="6.98406">
        <ele>633.645996</ele>
        <time>2012-01-07T12:37:36+01:00</time>
      </trkpt>
      <trkpt lat="43.76198" lon="6.98414">
        <ele>636.049561</ele>
        <time>2012-01-07T12:37:44+01:00</time>
      </trkpt>
      <trkpt lat="43.76211" lon="6.98426">
        <ele>637.010742</ele>
        <time>2012-01-07T12:37:50+01:00</time>
      </trkpt>
      <trkpt lat="43.76227" lon="6.98431">
        <ele>637.972168</ele>
        <time>2012-01-07T12:37:56+01:00</time>
      </trkpt>
      <trkpt lat="43.76242" lon="6.9842">
        <ele>639.414062</ele>
        <time>2012-01-07T12:38:02+01:00</time>
      </trkpt>
      <trkpt lat="43.7626" lon="6.98394">
        <ele>640.375488</ele>
        <time>2012-01-07T12:38:11+01:00</time>
      </trkpt>
      <trkpt lat="43.76282" lon="6.98366">
        <ele>640.855957</ele>
        <time>2012-01-07T12:38:21+01:00</time>
      </trkpt>
      <trkpt lat="43.76299" lon="6.98347">
        <ele>641.817383</ele>
        <time>2012-01-07T12:38:29+01:00</time>
      </trkpt>
      <trkpt lat="43.76317" lon="6.98339">
        <ele>644.220703</ele>
        <time>2012-01-07T12:38:36+01:00</time>
      </trkpt>
      <trkpt lat="43.76334" lon="6.9834">
        <ele>646.624023</ele>
        <time>2012-01-07T12:38:43+01:00</time>
      </trkpt>
      <trkpt lat="43.76353" lon="6.98339">
        <ele>648.065918</ele>
        <time>2012-01-07T12:38:50+01:00</time>
      </trkpt>
      <trkpt lat="43.76366" lon="6.98329">
        <ele>649.0271</ele>
        <time>2012-01-07T12:38:55+01:00</time>
      </trkpt>
      <trkpt lat="43.76386" lon="6.9831">
        <ele>649.988525</ele>
        <time>2012-01-07T12:39:04+01:00</time>
      </trkpt>
      <trkpt lat="43.76407" lon="6.98294">
        <ele>651.43042</ele>
        <time>2012-01-07T12:39:12+01:00</time>
      </trkpt>
      <trkpt lat="43.76418" lon="6.98277">
        <ele>650.469238</ele>
        <time>2012-01-07T12:39:17+01:00</time>
      </trkpt>
      <trkpt lat="43.76427" lon="6.98255">
        <ele>651.43042</ele>
        <time>2012-01-07T12:39:23+01:00</time>
      </trkpt>
      <trkpt lat="43.76436" lon="6.98242">
        <ele>652.391846</ele>
        <time>2012-01-07T12:39:27+01:00</time>
      </trkpt>
      <trkpt lat="43.76458" lon="6.98215">
        <ele>654.795166</ele>
        <time>2012-01-07T12:39:36+01:00</time>
      </trkpt>
      <trkpt lat="43.76475" lon="6.98188">
        <ele>656.717773</ele>
        <time>2012-01-07T12:39:44+01:00</time>
      </trkpt>
      <trkpt lat="43.76484" lon="6.98177">
        <ele>657.198486</ele>
        <time>2012-01-07T12:39:49+01:00</time>
      </trkpt>
      <trkpt lat="43.76498" lon="6.98163">
        <ele>657.679199</ele>
        <time>2012-01-07T12:39:55+01:00</time>
      </trkpt>
      <trkpt lat="43.76517" lon="6.98139">
        <ele>657.679199</ele>
        <time>2012-01-07T12:40:03+01:00</time>
      </trkpt>
      <trkpt lat="43.76536" lon="6.98117">
        <ele>659.121094</ele>
        <time>2012-01-07T12:40:11+01:00</time>
      </trkpt>
      <trkpt lat="43.76553" lon="6.98096">
        <ele>660.082275</ele>
        <time>2012-01-07T12:40:18+01:00</time>
      </trkpt>
      <trkpt lat="43.76568" lon="6.98079">
        <ele>661.524414</ele>
        <time>2012-01-07T12:40:24+01:00</time>
      </trkpt>
      <trkpt lat="43.76584" lon="6.98061">
        <ele>663.92749</ele>
        <time>2012-01-07T12:40:31+01:00</time>
      </trkpt>
      <trkpt lat="43.76606" lon="6.98037">
        <ele>667.292236</ele>
        <time>2012-01-07T12:40:40+01:00</time>
      </trkpt>
      <trkpt lat="43.76624" lon="6.98012">
        <ele>669.215088</ele>
        <time>2012-01-07T12:40:48+01:00</time>
      </trkpt>
      <trkpt lat="43.76641" lon="6.97987">
        <ele>669.215088</ele>
        <time>2012-01-07T12:40:56+01:00</time>
      </trkpt>
      <trkpt lat="43.76657" lon="6.97964">
        <ele>669.695801</ele>
        <time>2012-01-07T12:41:03+01:00</time>
      </trkpt>
      <trkpt lat="43.76675" lon="6.97939">
        <ele>669.695801</ele>
        <time>2012-01-07T12:41:11+01:00</time>
      </trkpt>
      <trkpt lat="43.76693" lon="6.9791">
        <ele>670.17627</ele>
        <time>2012-01-07T12:41:20+01:00</time>
      </trkpt>
      <trkpt lat="43.76701" lon="6.97885">
        <ele>672.57959</ele>
        <time>2012-01-07T12:41:26+01:00</time>
      </trkpt>
      <trkpt lat="43.76716" lon="6.97848">
        <ele>675.463379</ele>
        <time>2012-01-07T12:41:36+01:00</time>
      </trkpt>
      <trkpt lat="43.76731" lon="6.97832">
        <ele>677.38623</ele>
        <time>2012-01-07T12:41:42+01:00</time>
      </trkpt>
      <trkpt lat="43.76754" lon="6.97821">
        <ele>679.308594</ele>
        <time>2012-01-07T12:41:50+01:00</time>
      </trkpt>
      <trkpt lat="43.76782" lon="6.9781">
        <ele>681.231445</ele>
        <time>2012-01-07T12:41:59+01:00</time>
      </trkpt>
      <trkpt lat="43.76799" lon="6.97799">
        <ele>681.231445</ele>
        <time>2012-01-07T12:42:05+01:00</time>
      </trkpt>
      <trkpt lat="43.76809" lon="6.97777">
        <ele>680.750732</ele>
        <time>2012-01-07T12:42:11+01:00</time>
      </trkpt>
      <trkpt lat="43.76815" lon="6.97749">
        <ele>680.27002</ele>
        <time>2012-01-07T12:42:18+01:00</time>
      </trkpt>
      <trkpt lat="43.76829" lon="6.97716">
        <ele>682.67334</ele>
        <time>2012-01-07T12:42:27+01:00</time>
      </trkpt>
      <trkpt lat="43.76835" lon="6.97695">
        <ele>684.115479</ele>
        <time>2012-01-07T12:42:33+01:00</time>
      </trkpt>
      <trkpt lat="43.76834" lon="6.97668">
        <ele>685.076904</ele>
        <time>2012-01-07T12:42:40+01:00</time>
      </trkpt>
      <trkpt lat="43.76831" lon="6.97636">
        <ele>686.518799</ele>
        <time>2012-01-07T12:42:49+01:00</time>
      </trkpt>
      <trkpt lat="43.76832" lon="6.97613">
        <ele>686.999268</ele>
        <time>2012-01-07T12:42:55+01:00</time>
      </trkpt>
      <trkpt lat="43.76837" lon="6.97583">
        <ele>688.441406</ele>
        <time>2012-01-07T12:43:03+01:00</time>
      </trkpt>
      <trkpt lat="43.76833" lon="6.97561">
        <ele>689.883301</ele>
        <time>2012-01-07T12:43:09+01:00</time>
      </trkpt>
      <trkpt lat="43.76822" lon="6.97539">
        <ele>692.286621</ele>
        <time>2012-01-07T12:43:16+01:00</time>
      </trkpt>
      <trkpt lat="43.76805" lon="6.97516">
        <ele>695.17041</ele>
        <time>2012-01-07T12:43:24+01:00</time>
      </trkpt>
      <trkpt lat="43.76802" lon="6.97497">
        <ele>697.093018</ele>
        <time>2012-01-07T12:43:29+01:00</time>
      </trkpt>
      <trkpt lat="43.7681" lon="6.97491">
        <ele>697.57373</ele>
        <time>2012-01-07T12:43:33+01:00</time>
      </trkpt>
      <trkpt lat="43.76812" lon="6.97489">
        <ele>698.054443</ele>
        <time>2012-01-07T12:43:37+01:00</time>
      </trkpt>
      <trkpt lat="43.76811" lon="6.97487">
        <ele>700.458008</ele>
        <time>2012-01-07T12:43:46+01:00</time>
      </trkpt>
      <trkpt lat="43.76812" lon="6.97488">
        <ele>702.861084</ele>
        <time>2012-01-07T12:44:31+01:00</time>
      </trkpt>
      <trkpt lat="43.76812" lon="6.97489">
        <ele>701.419189</ele>
        <time>2012-01-07T12:44:38+01:00</time>
      </trkpt>
      <trkpt lat="43.76812" lon="6.97488">
        <ele>701.419189</ele>
        <time>2012-01-07T12:44:47+01:00</time>
      </trkpt>
      <trkpt lat="43.76816" lon="6.97486">
        <ele>702.380371</ele>
        <time>2012-01-07T12:44:50+01:00</time>
      </trkpt>
      <trkpt lat="43.76836" lon="6.97487">
        <ele>704.783691</ele>
        <time>2012-01-07T12:44:56+01:00</time>
      </trkpt>
      <trkpt lat="43.76863" lon="6.97491">
        <ele>707.187012</ele>
        <time>2012-01-07T12:45:02+01:00</time>
      </trkpt>
      <trkpt lat="43.76877" lon="6.97492">
        <ele>708.628906</ele>
        <time>2012-01-07T12:45:05+01:00</time>
      </trkpt>
      <trkpt lat="43.76899" lon="6.97486">
        <ele>710.070801</ele>
        <time>2012-01-07T12:45:10+01:00</time>
      </trkpt>
      <trkpt lat="43.76919" lon="6.97468">
        <ele>710.551514</ele>
        <time>2012-01-07T12:45:15+01:00</time>
      </trkpt>
      <trkpt lat="43.76926" lon="6.97456">
        <ele>710.551514</ele>
        <time>2012-01-07T12:45:17+01:00</time>
      </trkpt>
      <trkpt lat="43.76948" lon="6.97409">
        <ele>710.070801</ele>
        <time>2012-01-07T12:45:24+01:00</time>
      </trkpt>
      <trkpt lat="43.76971" lon="6.97356">
        <ele>710.070801</ele>
        <time>2012-01-07T12:45:31+01:00</time>
      </trkpt>
      <trkpt lat="43.76977" lon="6.97312">
        <ele>710.551514</ele>
        <time>2012-01-07T12:45:36+01:00</time>
      </trkpt>
      <trkpt lat="43.76977" lon="6.97295">
        <ele>710.070801</ele>
        <time>2012-01-07T12:45:38+01:00</time>
      </trkpt>
      <trkpt lat="43.76986" lon="6.97261">
        <ele>710.551514</ele>
        <time>2012-01-07T12:45:42+01:00</time>
      </trkpt>
      <trkpt lat="43.77019" lon="6.97196">
        <ele>712.954834</ele>
        <time>2012-01-07T12:45:51+01:00</time>
      </trkpt>
      <trkpt lat="43.77048" lon="6.97142">
        <ele>714.396729</ele>
        <time>2012-01-07T12:45:59+01:00</time>
      </trkpt>
      <trkpt lat="43.77067" lon="6.9708">
        <ele>715.838867</ele>
        <time>2012-01-07T12:46:07+01:00</time>
      </trkpt>
      <trkpt lat="43.77069" lon="6.97072">
        <ele>715.838867</ele>
        <time>2012-01-07T12:46:08+01:00</time>
      </trkpt>
      <trkpt lat="43.77064" lon="6.97031">
        <ele>715.838867</ele>
        <time>2012-01-07T12:46:13+01:00</time>
      </trkpt>
      <trkpt lat="43.77056" lon="6.97019">
        <ele>716.31958</ele>
        <time>2012-01-07T12:46:15+01:00</time>
      </trkpt>
      <trkpt lat="43.77046" lon="6.97008">
        <ele>716.31958</ele>
        <time>2012-01-07T12:46:17+01:00</time>
      </trkpt>
      <trkpt lat="43.77034" lon="6.96979">
        <ele>716.800293</ele>
        <time>2012-01-07T12:46:21+01:00</time>
      </trkpt>
      <trkpt lat="43.77034" lon="6.96971">
        <ele>716.800293</ele>
        <time>2012-01-07T12:46:22+01:00</time>
      </trkpt>
      <trkpt lat="43.7704" lon="6.96928">
        <ele>717.281006</ele>
        <time>2012-01-07T12:46:27+01:00</time>
      </trkpt>
      <trkpt lat="43.77055" lon="6.96903">
        <ele>718.7229</ele>
        <time>2012-01-07T12:46:31+01:00</time>
      </trkpt>
      <trkpt lat="43.77064" lon="6.96894">
        <ele>719.203613</ele>
        <time>2012-01-07T12:46:33+01:00</time>
      </trkpt>
      <trkpt lat="43.77075" lon="6.96878">
        <ele>720.164795</ele>
        <time>2012-01-07T12:46:37+01:00</time>
      </trkpt>
      <trkpt lat="43.7708" lon="6.96869">
        <ele>720.645508</ele>
        <time>2012-01-07T12:46:39+01:00</time>
      </trkpt>
      <trkpt lat="43.7709" lon="6.96834">
        <ele>721.126221</ele>
        <time>2012-01-07T12:46:47+01:00</time>
      </trkpt>
      <trkpt lat="43.77092" lon="6.96804">
        <ele>721.126221</ele>
        <time>2012-01-07T12:46:53+01:00</time>
      </trkpt>
      <trkpt lat="43.77084" lon="6.96774">
        <ele>721.126221</ele>
        <time>2012-01-07T12:46:59+01:00</time>
      </trkpt>
      <trkpt lat="43.77078" lon="6.96753">
        <ele>721.126221</ele>
        <time>2012-01-07T12:47:03+01:00</time>
      </trkpt>
      <trkpt lat="43.77085" lon="6.96732">
        <ele>722.087402</ele>
        <time>2012-01-07T12:47:07+01:00</time>
      </trkpt>
      <trkpt lat="43.77093" lon="6.96728">
        <ele>722.568115</ele>
        <time>2012-01-07T12:47:09+01:00</time>
      </trkpt>
      <trkpt lat="43.77105" lon="6.96724">
        <ele>723.529541</ele>
        <time>2012-01-07T12:47:12+01:00</time>
      </trkpt>
      <trkpt lat="43.7712" lon="6.96708">
        <ele>724.490723</ele>
        <time>2012-01-07T12:47:17+01:00</time>
      </trkpt>
      <trkpt lat="43.77137" lon="6.96662">
        <ele>725.451904</ele>
        <time>2012-01-07T12:47:26+01:00</time>
      </trkpt>
      <trkpt lat="43.77148" lon="6.96624">
        <ele>725.451904</ele>
        <time>2012-01-07T12:47:33+01:00</time>
      </trkpt>
      <trkpt lat="43.77144" lon="6.96584">
        <ele>725.451904</ele>
        <time>2012-01-07T12:47:40+01:00</time>
      </trkpt>
      <trkpt lat="43.77124" lon="6.9655">
        <ele>724.971436</ele>
        <time>2012-01-07T12:47:47+01:00</time>
      </trkpt>
      <trkpt lat="43.77117" lon="6.96526">
        <ele>724.971436</ele>
        <time>2012-01-07T12:47:51+01:00</time>
      </trkpt>
      <trkpt lat="43.77117" lon="6.9652">
        <ele>725.451904</ele>
        <time>2012-01-07T12:47:52+01:00</time>
      </trkpt>
      <trkpt lat="43.77119" lon="6.96495">
        <ele>725.932617</ele>
        <time>2012-01-07T12:47:56+01:00</time>
      </trkpt>
      <trkpt lat="43.77116" lon="6.96472">
        <ele>726.894043</ele>
        <time>2012-01-07T12:48:00+01:00</time>
      </trkpt>
      <trkpt lat="43.771" lon="6.96432">
        <ele>727.374756</ele>
        <time>2012-01-07T12:48:08+01:00</time>
      </trkpt>
      <trkpt lat="43.77093" lon="6.96419">
        <ele>727.374756</ele>
        <time>2012-01-07T12:48:11+01:00</time>
      </trkpt>
      <trkpt lat="43.77092" lon="6.96393">
        <ele>728.81665</ele>
        <time>2012-01-07T12:48:16+01:00</time>
      </trkpt>
      <trkpt lat="43.77103" lon="6.96376">
        <ele>729.297119</ele>
        <time>2012-01-07T12:48:20+01:00</time>
      </trkpt>
      <trkpt lat="43.77104" lon="6.96369">
        <ele>729.297119</ele>
        <time>2012-01-07T12:48:22+01:00</time>
      </trkpt>
      <trkpt lat="43.77091" lon="6.96361">
        <ele>728.81665</ele>
        <time>2012-01-07T12:48:25+01:00</time>
      </trkpt>
      <trkpt lat="43.77076" lon="6.9634">
        <ele>727.374756</ele>
        <time>2012-01-07T12:48:29+01:00</time>
      </trkpt>
      <trkpt lat="43.77074" lon="6.96334">
        <ele>727.374756</ele>
        <time>2012-01-07T12:48:30+01:00</time>
      </trkpt>
      <trkpt lat="43.77072" lon="6.96318">
        <ele>726.894043</ele>
        <time>2012-01-07T12:48:33+01:00</time>
      </trkpt>
      <trkpt lat="43.77066" lon="6.96283">
        <ele>727.855225</ele>
        <time>2012-01-07T12:48:41+01:00</time>
      </trkpt>
      <trkpt lat="43.77061" lon="6.96255">
        <ele>731.219971</ele>
        <time>2012-01-07T12:48:48+01:00</time>
      </trkpt>
      <trkpt lat="43.77058" lon="6.96239">
        <ele>732.181396</ele>
        <time>2012-01-07T12:48:52+01:00</time>
      </trkpt>
      <trkpt lat="43.77053" lon="6.96214">
        <ele>734.584717</ele>
        <time>2012-01-07T12:49:00+01:00</time>
      </trkpt>
      <trkpt lat="43.77048" lon="6.96205">
        <ele>735.545898</ele>
        <time>2012-01-07T12:49:05+01:00</time>
      </trkpt>
      <trkpt lat="43.77041" lon="6.96209">
        <ele>737.468506</ele>
        <time>2012-01-07T12:49:11+01:00</time>
      </trkpt>
      <trkpt lat="43.7704" lon="6.9622">
        <ele>739.391113</ele>
        <time>2012-01-07T12:49:15+01:00</time>
      </trkpt>
      <trkpt lat="43.77038" lon="6.96228">
        <ele>740.352539</ele>
        <time>2012-01-07T12:49:18+01:00</time>
      </trkpt>
      <trkpt lat="43.77033" lon="6.96244">
        <ele>742.755859</ele>
        <time>2012-01-07T12:49:25+01:00</time>
      </trkpt>
      <trkpt lat="43.77029" lon="6.96256">
        <ele>743.717041</ele>
        <time>2012-01-07T12:49:31+01:00</time>
      </trkpt>
      <trkpt lat="43.77026" lon="6.96275">
        <ele>745.639648</ele>
        <time>2012-01-07T12:49:39+01:00</time>
      </trkpt>
      <trkpt lat="43.77022" lon="6.96291">
        <ele>747.081543</ele>
        <time>2012-01-07T12:49:46+01:00</time>
      </trkpt>
      <trkpt lat="43.77018" lon="6.96309">
        <ele>748.043213</ele>
        <time>2012-01-07T12:49:53+01:00</time>
      </trkpt>
      <trkpt lat="43.77013" lon="6.9633">
        <ele>749.96582</ele>
        <time>2012-01-07T12:50:02+01:00</time>
      </trkpt>
      <trkpt lat="43.77006" lon="6.96344">
        <ele>751.888428</ele>
        <time>2012-01-07T12:50:09+01:00</time>
      </trkpt>
      <trkpt lat="43.76997" lon="6.96346">
        <ele>753.330322</ele>
        <time>2012-01-07T12:50:14+01:00</time>
      </trkpt>
      <trkpt lat="43.7699" lon="6.96339">
        <ele>754.291748</ele>
        <time>2012-01-07T12:50:19+01:00</time>
      </trkpt>
      <trkpt lat="43.76979" lon="6.96328">
        <ele>755.25293</ele>
        <time>2012-01-07T12:50:26+01:00</time>
      </trkpt>
      <trkpt lat="43.76966" lon="6.9632">
        <ele>756.214111</ele>
        <time>2012-01-07T12:50:34+01:00</time>
      </trkpt>
      <trkpt lat="43.7695" lon="6.96321">
        <ele>756.214111</ele>
        <time>2012-01-07T12:50:42+01:00</time>
      </trkpt>
      <trkpt lat="43.76942" lon="6.96324">
        <ele>756.214111</ele>
        <time>2012-01-07T12:50:47+01:00</time>
      </trkpt>
      <trkpt lat="43.76935" lon="6.96337">
        <ele>756.214111</ele>
        <time>2012-01-07T12:50:54+01:00</time>
      </trkpt>
      <trkpt lat="43.76932" lon="6.9635">
        <ele>758.136963</ele>
        <time>2012-01-07T12:51:00+01:00</time>
      </trkpt>
      <trkpt lat="43.76928" lon="6.96361">
        <ele>759.578857</ele>
        <time>2012-01-07T12:51:06+01:00</time>
      </trkpt>
      <trkpt lat="43.76922" lon="6.96374">
        <ele>761.020752</ele>
        <time>2012-01-07T12:51:13+01:00</time>
      </trkpt>
      <trkpt lat="43.76916" lon="6.96386">
        <ele>762.462646</ele>
        <time>2012-01-07T12:51:19+01:00</time>
      </trkpt>
      <trkpt lat="43.7691" lon="6.96401">
        <ele>763.904541</ele>
        <time>2012-01-07T12:51:26+01:00</time>
      </trkpt>
      <trkpt lat="43.76906" lon="6.96422">
        <ele>765.346924</ele>
        <time>2012-01-07T12:51:34+01:00</time>
      </trkpt>
      <trkpt lat="43.76902" lon="6.96447">
        <ele>767.75</ele>
        <time>2012-01-07T12:51:43+01:00</time>
      </trkpt>
      <trkpt lat="43.76899" lon="6.96468">
        <ele>768.711426</ele>
        <time>2012-01-07T12:51:50+01:00</time>
      </trkpt>
      <trkpt lat="43.76893" lon="6.96492">
        <ele>770.15332</ele>
        <time>2012-01-07T12:51:58+01:00</time>
      </trkpt>
      <trkpt lat="43.76889" lon="6.96511">
        <ele>771.595215</ele>
        <time>2012-01-07T12:52:04+01:00</time>
      </trkpt>
      <trkpt lat="43.76885" lon="6.96538">
        <ele>772.556641</ele>
        <time>2012-01-07T12:52:12+01:00</time>
      </trkpt>
      <trkpt lat="43.7688" lon="6.96568">
        <ele>774.959961</ele>
        <time>2012-01-07T12:52:21+01:00</time>
      </trkpt>
      <trkpt lat="43.76871" lon="6.9659">
        <ele>775.921143</ele>
        <time>2012-01-07T12:52:29+01:00</time>
      </trkpt>
      <trkpt lat="43.76857" lon="6.96603">
        <ele>776.882568</ele>
        <time>2012-01-07T12:52:36+01:00</time>
      </trkpt>
      <trkpt lat="43.76845" lon="6.96614">
        <ele>777.84375</ele>
        <time>2012-01-07T12:52:42+01:00</time>
      </trkpt>
      <trkpt lat="43.76841" lon="6.96628">
        <ele>777.363281</ele>
        <time>2012-01-07T12:52:48+01:00</time>
      </trkpt>
      <trkpt lat="43.76842" lon="6.96642">
        <ele>777.84375</ele>
        <time>2012-01-07T12:52:53+01:00</time>
      </trkpt>
      <trkpt lat="43.76845" lon="6.96669">
        <ele>780.728027</ele>
        <time>2012-01-07T12:53:01+01:00</time>
      </trkpt>
      <trkpt lat="43.76842" lon="6.96686">
        <ele>781.689209</ele>
        <time>2012-01-07T12:53:07+01:00</time>
      </trkpt>
      <trkpt lat="43.76836" lon="6.96706">
        <ele>782.650635</ele>
        <time>2012-01-07T12:53:14+01:00</time>
      </trkpt>
      <trkpt lat="43.76826" lon="6.96736">
        <ele>785.053955</ele>
        <time>2012-01-07T12:53:25+01:00</time>
      </trkpt>
      <trkpt lat="43.76819" lon="6.96754">
        <ele>786.49585</ele>
        <time>2012-01-07T12:53:32+01:00</time>
      </trkpt>
      <trkpt lat="43.7681" lon="6.96776">
        <ele>788.418457</ele>
        <time>2012-01-07T12:53:41+01:00</time>
      </trkpt>
      <trkpt lat="43.76804" lon="6.96795">
        <ele>789.860352</ele>
        <time>2012-01-07T12:53:48+01:00</time>
      </trkpt>
      <trkpt lat="43.76796" lon="6.96816">
        <ele>791.782959</ele>
        <time>2012-01-07T12:53:56+01:00</time>
      </trkpt>
      <trkpt lat="43.76792" lon="6.96832">
        <ele>793.224854</ele>
        <time>2012-01-07T12:54:02+01:00</time>
      </trkpt>
      <trkpt lat="43.76783" lon="6.96861">
        <ele>795.628174</ele>
        <time>2012-01-07T12:54:12+01:00</time>
      </trkpt>
      <trkpt lat="43.76774" lon="6.96882">
        <ele>797.551025</ele>
        <time>2012-01-07T12:54:20+01:00</time>
      </trkpt>
      <trkpt lat="43.76766" lon="6.96902">
        <ele>799.473633</ele>
        <time>2012-01-07T12:54:28+01:00</time>
      </trkpt>
      <trkpt lat="43.76755" lon="6.96925">
        <ele>801.876953</ele>
        <time>2012-01-07T12:54:37+01:00</time>
      </trkpt>
      <trkpt lat="43.76744" lon="6.96946">
        <ele>804.760742</ele>
        <time>2012-01-07T12:54:46+01:00</time>
      </trkpt>
      <trkpt lat="43.76732" lon="6.96961">
        <ele>806.68335</ele>
        <time>2012-01-07T12:54:54+01:00</time>
      </trkpt>
      <trkpt lat="43.76717" lon="6.9697">
        <ele>809.08667</ele>
        <time>2012-01-07T12:55:02+01:00</time>
      </trkpt>
      <trkpt lat="43.76702" lon="6.96971">
        <ele>811.009277</ele>
        <time>2012-01-07T12:55:09+01:00</time>
      </trkpt>
      <trkpt lat="43.76685" lon="6.96963">
        <ele>812.451416</ele>
        <time>2012-01-07T12:55:17+01:00</time>
      </trkpt>
      <trkpt lat="43.76667" lon="6.96952">
        <ele>813.893311</ele>
        <time>2012-01-07T12:55:25+01:00</time>
      </trkpt>
      <trkpt lat="43.76648" lon="6.96938">
        <ele>815.335449</ele>
        <time>2012-01-07T12:55:34+01:00</time>
      </trkpt>
      <trkpt lat="43.76642" lon="6.96937">
        <ele>815.335449</ele>
        <time>2012-01-07T12:55:37+01:00</time>
      </trkpt>
      <trkpt lat="43.76635" lon="6.96951">
        <ele>816.777344</ele>
        <time>2012-01-07T12:55:43+01:00</time>
      </trkpt>
      <trkpt lat="43.7663" lon="6.96972">
        <ele>819.180664</ele>
        <time>2012-01-07T12:55:51+01:00</time>
      </trkpt>
      <trkpt lat="43.76626" lon="6.96993">
        <ele>821.58374</ele>
        <time>2012-01-07T12:55:58+01:00</time>
      </trkpt>
      <trkpt lat="43.76618" lon="6.97016">
        <ele>823.506592</ele>
        <time>2012-01-07T12:56:06+01:00</time>
      </trkpt>
      <trkpt lat="43.76612" lon="6.97033">
        <ele>824.467773</ele>
        <time>2012-01-07T12:56:13+01:00</time>
      </trkpt>
      <trkpt lat="43.76603" lon="6.97051">
        <ele>825.909668</ele>
        <time>2012-01-07T12:56:20+01:00</time>
      </trkpt>
      <trkpt lat="43.76591" lon="6.97077">
        <ele>827.351807</ele>
        <time>2012-01-07T12:56:29+01:00</time>
      </trkpt>
      <trkpt lat="43.76583" lon="6.97088">
        <ele>827.351807</ele>
        <time>2012-01-07T12:56:35+01:00</time>
      </trkpt>
      <trkpt lat="43.76581" lon="6.97089">
        <ele>827.832275</ele>
        <time>2012-01-07T12:56:41+01:00</time>
      </trkpt>
      <trkpt lat="43.76581" lon="6.97089">
        <ele>828.313232</ele>
        <time>2012-01-07T12:56:47+01:00</time>
      </trkpt>
      <trkpt lat="43.76582" lon="6.97088">
        <ele>828.313232</ele>
        <time>2012-01-07T12:56:52+01:00</time>
      </trkpt>
      <trkpt lat="43.76583" lon="6.97088">
        <ele>829.274414</ele>
        <time>2012-01-07T12:57:03+01:00</time>
      </trkpt>
      <trkpt lat="43.76583" lon="6.97088">
        <ele>828.793945</ele>
        <time>2012-01-07T12:57:09+01:00</time>
      </trkpt>
      <trkpt lat="43.76583" lon="6.97088">
        <ele>829.274414</ele>
        <time>2012-01-07T12:57:17+01:00</time>
      </trkpt>
      <trkpt lat="43.76583" lon="6.97088">
        <ele>829.755127</ele>
        <time>2012-01-07T12:57:22+01:00</time>
      </trkpt>
      <trkpt lat="43.76584" lon="6.97088">
        <ele>830.23584</ele>
        <time>2012-01-07T12:57:26+01:00</time>
      </trkpt>
      <trkpt lat="43.76585" lon="6.97088">
        <ele>830.716553</ele>
        <time>2012-01-07T12:57:33+01:00</time>
      </trkpt>
      <trkpt lat="43.76585" lon="6.97089">
        <ele>830.716553</ele>
        <time>2012-01-07T12:57:43+01:00</time>
      </trkpt>
      <trkpt lat="43.76585" lon="6.97089">
        <ele>830.716553</ele>
        <time>2012-01-07T12:57:49+01:00</time>
      </trkpt>
      <trkpt lat="43.76584" lon="6.97091">
        <ele>830.23584</ele>
        <time>2012-01-07T12:58:02+01:00</time>
      </trkpt>
      <trkpt lat="43.76583" lon="6.97091">
        <ele>829.755127</ele>
        <time>2012-01-07T12:58:09+01:00</time>
      </trkpt>
      <trkpt lat="43.76583" lon="6.9709">
        <ele>829.274414</ele>
        <time>2012-01-07T12:58:17+01:00</time>
      </trkpt>
      <trkpt lat="43.76584" lon="6.97089">
        <ele>829.274414</ele>
        <time>2012-01-07T12:58:25+01:00</time>
      </trkpt>
      <trkpt lat="43.76583" lon="6.9709">
        <ele>829.274414</ele>
        <time>2012-01-07T12:58:32+01:00</time>
      </trkpt>
      <trkpt lat="43.76584" lon="6.97089">
        <ele>829.274414</ele>
        <time>2012-01-07T12:58:43+01:00</time>
      </trkpt>
      <trkpt lat="43.76584" lon="6.97091">
        <ele>830.23584</ele>
        <time>2012-01-07T12:58:55+01:00</time>
      </trkpt>
      <trkpt lat="43.76583" lon="6.97091">
        <ele>830.716553</ele>
        <time>2012-01-07T12:59:00+01:00</time>
      </trkpt>
      <trkpt lat="43.76584" lon="6.97091">
        <ele>831.677734</ele>
        <time>2012-01-07T12:59:28+01:00</time>
      </trkpt>
      <trkpt lat="43.76584" lon="6.97091">
        <ele>831.677734</ele>
        <time>2012-01-07T12:59:40+01:00</time>
      </trkpt>
      <trkpt lat="43.76582" lon="6.97092">
        <ele>831.677734</ele>
        <time>2012-01-07T12:59:42+01:00</time>
      </trkpt>
      <trkpt lat="43.76572" lon="6.97097">
        <ele>831.677734</ele>
        <time>2012-01-07T12:59:49+01:00</time>
      </trkpt>
      <trkpt lat="43.76555" lon="6.97106">
        <ele>831.197266</ele>
        <time>2012-01-07T12:59:57+01:00</time>
      </trkpt>
      <trkpt lat="43.76536" lon="6.9712">
        <ele>831.197266</ele>
        <time>2012-01-07T13:00:05+01:00</time>
      </trkpt>
      <trkpt lat="43.76511" lon="6.97136">
        <ele>831.677734</ele>
        <time>2012-01-07T13:00:15+01:00</time>
      </trkpt>
      <trkpt lat="43.76488" lon="6.97144">
        <ele>831.677734</ele>
        <time>2012-01-07T13:00:23+01:00</time>
      </trkpt>
      <trkpt lat="43.76461" lon="6.97159">
        <ele>831.197266</ele>
        <time>2012-01-07T13:00:31+01:00</time>
      </trkpt>
      <trkpt lat="43.76436" lon="6.97175">
        <ele>830.716553</ele>
        <time>2012-01-07T13:00:39+01:00</time>
      </trkpt>
      <trkpt lat="43.76412" lon="6.9719">
        <ele>832.158447</ele>
        <time>2012-01-07T13:00:47+01:00</time>
      </trkpt>
      <trkpt lat="43.76394" lon="6.97202">
        <ele>833.119629</ele>
        <time>2012-01-07T13:00:54+01:00</time>
      </trkpt>
      <trkpt lat="43.76379" lon="6.97205">
        <ele>835.04248</ele>
        <time>2012-01-07T13:01:00+01:00</time>
      </trkpt>
      <trkpt lat="43.76362" lon="6.97206">
        <ele>836.484375</ele>
        <time>2012-01-07T13:01:07+01:00</time>
      </trkpt>
      <trkpt lat="43.76343" lon="6.97202">
        <ele>837.92627</ele>
        <time>2012-01-07T13:01:15+01:00</time>
      </trkpt>
      <trkpt lat="43.76321" lon="6.97191">
        <ele>839.848877</ele>
        <time>2012-01-07T13:01:25+01:00</time>
      </trkpt>
      <trkpt lat="43.76306" lon="6.97184">
        <ele>841.290771</ele>
        <time>2012-01-07T13:01:33+01:00</time>
      </trkpt>
      <trkpt lat="43.76302" lon="6.97194">
        <ele>842.73291</ele>
        <time>2012-01-07T13:01:38+01:00</time>
      </trkpt>
      <trkpt lat="43.76299" lon="6.97212">
        <ele>845.13623</ele>
        <time>2012-01-07T13:01:45+01:00</time>
      </trkpt>
      <trkpt lat="43.76288" lon="6.97226">
        <ele>847.058838</ele>
        <time>2012-01-07T13:01:53+01:00</time>
      </trkpt>
      <trkpt lat="43.76281" lon="6.97238">
        <ele>848.981445</ele>
        <time>2012-01-07T13:02:00+01:00</time>
      </trkpt>
      <trkpt lat="43.76276" lon="6.97251">
        <ele>850.423584</ele>
        <time>2012-01-07T13:02:07+01:00</time>
      </trkpt>
      <trkpt lat="43.76268" lon="6.97266">
        <ele>852.345947</ele>
        <time>2012-01-07T13:02:16+01:00</time>
      </trkpt>
      <trkpt lat="43.76258" lon="6.97282">
        <ele>854.749268</ele>
        <time>2012-01-07T13:02:26+01:00</time>
      </trkpt>
      <trkpt lat="43.7625" lon="6.97292">
        <ele>855.710693</ele>
        <time>2012-01-07T13:02:33+01:00</time>
      </trkpt>
      <trkpt lat="43.76242" lon="6.97299">
        <ele>858.114014</ele>
        <time>2012-01-07T13:02:40+01:00</time>
      </trkpt>
      <trkpt lat="43.76233" lon="6.97306">
        <ele>859.555908</ele>
        <time>2012-01-07T13:02:47+01:00</time>
      </trkpt>
      <trkpt lat="43.76222" lon="6.97313">
        <ele>861.47876</ele>
        <time>2012-01-07T13:02:55+01:00</time>
      </trkpt>
      <trkpt lat="43.76213" lon="6.9732">
        <ele>863.401367</ele>
        <time>2012-01-07T13:03:02+01:00</time>
      </trkpt>
      <trkpt lat="43.76202" lon="6.97328">
        <ele>865.804688</ele>
        <time>2012-01-07T13:03:10+01:00</time>
      </trkpt>
      <trkpt lat="43.76192" lon="6.97335">
        <ele>867.246582</ele>
        <time>2012-01-07T13:03:18+01:00</time>
      </trkpt>
      <trkpt lat="43.76189" lon="6.97336">
        <ele>867.727051</ele>
        <time>2012-01-07T13:03:20+01:00</time>
      </trkpt>
      <trkpt lat="43.76176" lon="6.97343">
        <ele>869.169189</ele>
        <time>2012-01-07T13:03:29+01:00</time>
      </trkpt>
      <trkpt lat="43.76172" lon="6.97344">
        <ele>870.130371</ele>
        <time>2012-01-07T13:03:32+01:00</time>
      </trkpt>
      <trkpt lat="43.76166" lon="6.97342">
        <ele>871.572266</ele>
        <time>2012-01-07T13:03:36+01:00</time>
      </trkpt>
      <trkpt lat="43.76157" lon="6.97327">
        <ele>873.975586</ele>
        <time>2012-01-07T13:03:45+01:00</time>
      </trkpt>
      <trkpt lat="43.7615" lon="6.9731">
        <ele>875.898193</ele>
        <time>2012-01-07T13:03:53+01:00</time>
      </trkpt>
      <trkpt lat="43.76146" lon="6.97302">
        <ele>877.340576</ele>
        <time>2012-01-07T13:03:58+01:00</time>
      </trkpt>
      <trkpt lat="43.76143" lon="6.97297">
        <ele>878.301758</ele>
        <time>2012-01-07T13:04:01+01:00</time>
      </trkpt>
      <trkpt lat="43.76134" lon="6.97288">
        <ele>879.743652</ele>
        <time>2012-01-07T13:04:08+01:00</time>
      </trkpt>
      <trkpt lat="43.76123" lon="6.97282">
        <ele>882.146973</ele>
        <time>2012-01-07T13:04:16+01:00</time>
      </trkpt>
      <trkpt lat="43.76113" lon="6.97283">
        <ele>883.108154</ele>
        <time>2012-01-07T13:04:22+01:00</time>
      </trkpt>
      <trkpt lat="43.76111" lon="6.97283">
        <ele>883.588867</ele>
        <time>2012-01-07T13:04:23+01:00</time>
      </trkpt>
      <trkpt lat="43.76101" lon="6.97284">
        <ele>883.588867</ele>
        <time>2012-01-07T13:04:29+01:00</time>
      </trkpt>
      <trkpt lat="43.76091" lon="6.9728">
        <ele>885.031006</ele>
        <time>2012-01-07T13:04:35+01:00</time>
      </trkpt>
      <trkpt lat="43.76084" lon="6.97268">
        <ele>885.511475</ele>
        <time>2012-01-07T13:04:41+01:00</time>
      </trkpt>
      <trkpt lat="43.76077" lon="6.97256">
        <ele>885.992188</ele>
        <time>2012-01-07T13:04:49+01:00</time>
      </trkpt>
      <trkpt lat="43.76074" lon="6.97254">
        <ele>885.992188</ele>
        <time>2012-01-07T13:04:54+01:00</time>
      </trkpt>
      <trkpt lat="43.76074" lon="6.97255">
        <ele>885.992188</ele>
        <time>2012-01-07T13:05:02+01:00</time>
      </trkpt>
      <trkpt lat="43.76072" lon="6.97255">
        <ele>885.992188</ele>
        <time>2012-01-07T13:05:15+01:00</time>
      </trkpt>
      <trkpt lat="43.76069" lon="6.97254">
        <ele>888.876221</ele>
        <time>2012-01-07T13:05:38+01:00</time>
      </trkpt>
      <trkpt lat="43.7607" lon="6.97254">
        <ele>888.395508</ele>
        <time>2012-01-07T13:05:46+01:00</time>
      </trkpt>
      <trkpt lat="43.76071" lon="6.97255">
        <ele>890.318115</ele>
        <time>2012-01-07T13:06:21+01:00</time>
      </trkpt>
      <trkpt lat="43.76071" lon="6.97255">
        <ele>892.72168</ele>
        <time>2012-01-07T13:06:48+01:00</time>
      </trkpt>
      <trkpt lat="43.76072" lon="6.97256">
        <ele>894.163574</ele>
        <time>2012-01-07T13:07:06+01:00</time>
      </trkpt>
      <trkpt lat="43.76072" lon="6.97256">
        <ele>895.124756</ele>
        <time>2012-01-07T13:07:20+01:00</time>
      </trkpt>
      <trkpt lat="43.76071" lon="6.97256">
        <ele>895.605469</ele>
        <time>2012-01-07T13:07:30+01:00</time>
      </trkpt>
      <trkpt lat="43.76068" lon="6.97256">
        <ele>894.644043</ele>
        <time>2012-01-07T13:07:38+01:00</time>
      </trkpt>
      <trkpt lat="43.76063" lon="6.97254">
        <ele>893.202148</ele>
        <time>2012-01-07T13:07:43+01:00</time>
      </trkpt>
      <trkpt lat="43.7606" lon="6.97253">
        <ele>892.72168</ele>
        <time>2012-01-07T13:07:45+01:00</time>
      </trkpt>
      <trkpt lat="43.76052" lon="6.97249">
        <ele>891.76001</ele>
        <time>2012-01-07T13:07:51+01:00</time>
      </trkpt>
      <trkpt lat="43.76037" lon="6.97242">
        <ele>891.76001</ele>
        <time>2012-01-07T13:07:59+01:00</time>
      </trkpt>
      <trkpt lat="43.7603" lon="6.97237">
        <ele>893.202148</ele>
        <time>2012-01-07T13:08:03+01:00</time>
      </trkpt>
      <trkpt lat="43.76022" lon="6.97224">
        <ele>894.163574</ele>
        <time>2012-01-07T13:08:10+01:00</time>
      </trkpt>
      <trkpt lat="43.7602" lon="6.97214">
        <ele>895.605469</ele>
        <time>2012-01-07T13:08:14+01:00</time>
      </trkpt>
      <trkpt lat="43.76019" lon="6.97195">
        <ele>896.566895</ele>
        <time>2012-01-07T13:08:22+01:00</time>
      </trkpt>
      <trkpt lat="43.76013" lon="6.97176">
        <ele>898.008789</ele>
        <time>2012-01-07T13:08:30+01:00</time>
      </trkpt>
      <trkpt lat="43.76009" lon="6.97163">
        <ele>899.450684</ele>
        <time>2012-01-07T13:08:36+01:00</time>
      </trkpt>
      <trkpt lat="43.75999" lon="6.9716">
        <ele>900.412109</ele>
        <time>2012-01-07T13:08:42+01:00</time>
      </trkpt>
      <trkpt lat="43.7599" lon="6.97179">
        <ele>901.373291</ele>
        <time>2012-01-07T13:08:50+01:00</time>
      </trkpt>
      <trkpt lat="43.75983" lon="6.97193">
        <ele>902.815186</ele>
        <time>2012-01-07T13:08:57+01:00</time>
      </trkpt>
      <trkpt lat="43.75975" lon="6.97208">
        <ele>905.218506</ele>
        <time>2012-01-07T13:09:05+01:00</time>
      </trkpt>
      <trkpt lat="43.75968" lon="6.97226">
        <ele>907.141113</ele>
        <time>2012-01-07T13:09:14+01:00</time>
      </trkpt>
      <trkpt lat="43.75961" lon="6.97245">
        <ele>909.063965</ele>
        <time>2012-01-07T13:09:23+01:00</time>
      </trkpt>
      <trkpt lat="43.75957" lon="6.97259">
        <ele>910.025146</ele>
        <time>2012-01-07T13:09:30+01:00</time>
      </trkpt>
      <trkpt lat="43.75953" lon="6.97272">
        <ele>910.986572</ele>
        <time>2012-01-07T13:09:37+01:00</time>
      </trkpt>
      <trkpt lat="43.75947" lon="6.97286">
        <ele>912.90918</ele>
        <time>2012-01-07T13:09:44+01:00</time>
      </trkpt>
      <trkpt lat="43.75943" lon="6.97299">
        <ele>913.870361</ele>
        <time>2012-01-07T13:09:51+01:00</time>
      </trkpt>
      <trkpt lat="43.75938" lon="6.97312">
        <ele>915.793213</ele>
        <time>2012-01-07T13:09:58+01:00</time>
      </trkpt>
      <trkpt lat="43.75933" lon="6.97325">
        <ele>916.754395</ele>
        <time>2012-01-07T13:10:05+01:00</time>
      </trkpt>
      <trkpt lat="43.75929" lon="6.97332">
        <ele>918.196289</ele>
        <time>2012-01-07T13:10:10+01:00</time>
      </trkpt>
      <trkpt lat="43.75926" lon="6.97341">
        <ele>919.638428</ele>
        <time>2012-01-07T13:10:16+01:00</time>
      </trkpt>
      <trkpt lat="43.75922" lon="6.97353">
        <ele>920.599609</ele>
        <time>2012-01-07T13:10:22+01:00</time>
      </trkpt>
      <trkpt lat="43.75918" lon="6.97369">
        <ele>923.00293</ele>
        <time>2012-01-07T13:10:30+01:00</time>
      </trkpt>
      <trkpt lat="43.75913" lon="6.97384">
        <ele>924.925781</ele>
        <time>2012-01-07T13:10:37+01:00</time>
      </trkpt>
      <trkpt lat="43.75909" lon="6.97396">
        <ele>926.367676</ele>
        <time>2012-01-07T13:10:43+01:00</time>
      </trkpt>
      <trkpt lat="43.75905" lon="6.97409">
        <ele>927.329102</ele>
        <time>2012-01-07T13:10:49+01:00</time>
      </trkpt>
      <trkpt lat="43.75902" lon="6.97425">
        <ele>930.212891</ele>
        <time>2012-01-07T13:10:56+01:00</time>
      </trkpt>
      <trkpt lat="43.75898" lon="6.97438">
        <ele>933.09668</ele>
        <time>2012-01-07T13:11:02+01:00</time>
      </trkpt>
      <trkpt lat="43.75896" lon="6.9744">
        <ele>933.09668</ele>
        <time>2012-01-07T13:11:04+01:00</time>
      </trkpt>
      <trkpt lat="43.75892" lon="6.97434">
        <ele>934.538818</ele>
        <time>2012-01-07T13:11:09+01:00</time>
      </trkpt>
      <trkpt lat="43.75886" lon="6.97414">
        <ele>936.941895</ele>
        <time>2012-01-07T13:11:19+01:00</time>
      </trkpt>
      <trkpt lat="43.75876" lon="6.97406">
        <ele>938.384033</ele>
        <time>2012-01-07T13:11:26+01:00</time>
      </trkpt>
      <trkpt lat="43.75875" lon="6.97406">
        <ele>938.384033</ele>
        <time>2012-01-07T13:11:27+01:00</time>
      </trkpt>
      <trkpt lat="43.75872" lon="6.97408">
        <ele>938.864746</ele>
        <time>2012-01-07T13:11:32+01:00</time>
      </trkpt>
      <trkpt lat="43.75872" lon="6.97409">
        <ele>940.787354</ele>
        <time>2012-01-07T13:11:38+01:00</time>
      </trkpt>
      <trkpt lat="43.7587" lon="6.97409">
        <ele>939.825928</ele>
        <time>2012-01-07T13:11:46+01:00</time>
      </trkpt>
      <trkpt lat="43.75868" lon="6.97409">
        <ele>939.825928</ele>
        <time>2012-01-07T13:11:48+01:00</time>
      </trkpt>
      <trkpt lat="43.75855" lon="6.9741">
        <ele>938.384033</ele>
        <time>2012-01-07T13:11:55+01:00</time>
      </trkpt>
      <trkpt lat="43.75845" lon="6.97413">
        <ele>937.422607</ele>
        <time>2012-01-07T13:12:01+01:00</time>
      </trkpt>
      <trkpt lat="43.75844" lon="6.97413">
        <ele>937.422607</ele>
        <time>2012-01-07T13:12:07+01:00</time>
      </trkpt>
      <trkpt lat="43.75842" lon="6.97413">
        <ele>938.864746</ele>
        <time>2012-01-07T13:12:28+01:00</time>
      </trkpt>
      <trkpt lat="43.7583" lon="6.97415">
        <ele>940.306885</ele>
        <time>2012-01-07T13:12:33+01:00</time>
      </trkpt>
      <trkpt lat="43.75808" lon="6.97419">
        <ele>940.787354</ele>
        <time>2012-01-07T13:12:39+01:00</time>
      </trkpt>
      <trkpt lat="43.75792" lon="6.97427">
        <ele>942.229492</ele>
        <time>2012-01-07T13:12:45+01:00</time>
      </trkpt>
      <trkpt lat="43.75778" lon="6.97431">
        <ele>942.710205</ele>
        <time>2012-01-07T13:12:51+01:00</time>
      </trkpt>
      <trkpt lat="43.75762" lon="6.97432">
        <ele>943.671387</ele>
        <time>2012-01-07T13:12:57+01:00</time>
      </trkpt>
      <trkpt lat="43.75743" lon="6.97427">
        <ele>945.113281</ele>
        <time>2012-01-07T13:13:03+01:00</time>
      </trkpt>
      <trkpt lat="43.75734" lon="6.97426">
        <ele>945.593994</ele>
        <time>2012-01-07T13:13:08+01:00</time>
      </trkpt>
      <trkpt lat="43.75725" lon="6.97421">
        <ele>946.55542</ele>
        <time>2012-01-07T13:13:13+01:00</time>
      </trkpt>
      <trkpt lat="43.7571" lon="6.97402">
        <ele>948.958496</ele>
        <time>2012-01-07T13:13:23+01:00</time>
      </trkpt>
      <trkpt lat="43.75699" lon="6.97389">
        <ele>950.400635</ele>
        <time>2012-01-07T13:13:30+01:00</time>
      </trkpt>
      <trkpt lat="43.75687" lon="6.97373">
        <ele>951.842529</ele>
        <time>2012-01-07T13:13:39+01:00</time>
      </trkpt>
      <trkpt lat="43.7568" lon="6.97367">
        <ele>952.322998</ele>
        <time>2012-01-07T13:13:45+01:00</time>
      </trkpt>
      <trkpt lat="43.75674" lon="6.9736">
        <ele>952.322998</ele>
        <time>2012-01-07T13:13:49+01:00</time>
      </trkpt>
      <trkpt lat="43.75672" lon="6.97358">
        <ele>951.842529</ele>
        <time>2012-01-07T13:13:55+01:00</time>
      </trkpt>
      <trkpt lat="43.75675" lon="6.97361">
        <ele>950.400635</ele>
        <time>2012-01-07T13:14:09+01:00</time>
      </trkpt>
      <trkpt lat="43.75674" lon="6.97361">
        <ele>951.842529</ele>
        <time>2012-01-07T13:14:15+01:00</time>
      </trkpt>
      <trkpt lat="43.75675" lon="6.97362">
        <ele>952.322998</ele>
        <time>2012-01-07T13:14:21+01:00</time>
      </trkpt>
      <trkpt lat="43.75673" lon="6.97362">
        <ele>953.284424</ele>
        <time>2012-01-07T13:14:28+01:00</time>
      </trkpt>
      <trkpt lat="43.75673" lon="6.97363">
        <ele>952.322998</ele>
        <time>2012-01-07T13:14:36+01:00</time>
      </trkpt>
      <trkpt lat="43.75672" lon="6.97365">
        <ele>953.765137</ele>
        <time>2012-01-07T13:14:44+01:00</time>
      </trkpt>
      <trkpt lat="43.75672" lon="6.97366">
        <ele>953.284424</ele>
        <time>2012-01-07T13:14:54+01:00</time>
      </trkpt>
      <trkpt lat="43.75671" lon="6.97367">
        <ele>955.687744</ele>
        <time>2012-01-07T13:15:00+01:00</time>
      </trkpt>
      <trkpt lat="43.75671" lon="6.97368">
        <ele>956.168457</ele>
        <time>2012-01-07T13:15:06+01:00</time>
      </trkpt>
      <trkpt lat="43.75671" lon="6.97367">
        <ele>956.64917</ele>
        <time>2012-01-07T13:15:13+01:00</time>
      </trkpt>
      <trkpt lat="43.75672" lon="6.97365">
        <ele>955.687744</ele>
        <time>2012-01-07T13:15:23+01:00</time>
      </trkpt>
      <trkpt lat="43.75673" lon="6.97364">
        <ele>955.207031</ele>
        <time>2012-01-07T13:15:31+01:00</time>
      </trkpt>
      <trkpt lat="43.75673" lon="6.97365">
        <ele>954.726318</ele>
        <time>2012-01-07T13:15:37+01:00</time>
      </trkpt>
      <trkpt lat="43.75673" lon="6.97365">
        <ele>954.24585</ele>
        <time>2012-01-07T13:15:47+01:00</time>
      </trkpt>
      <trkpt lat="43.75673" lon="6.97364">
        <ele>954.24585</ele>
        <time>2012-01-07T13:15:58+01:00</time>
      </trkpt>
      <trkpt lat="43.75673" lon="6.97364">
        <ele>954.24585</ele>
        <time>2012-01-07T13:16:06+01:00</time>
      </trkpt>
      <trkpt lat="43.75672" lon="6.97363">
        <ele>953.765137</ele>
        <time>2012-01-07T13:16:21+01:00</time>
      </trkpt>
      <trkpt lat="43.75671" lon="6.97362">
        <ele>954.24585</ele>
        <time>2012-01-07T13:16:32+01:00</time>
      </trkpt>
      <trkpt lat="43.7567" lon="6.97365">
        <ele>954.726318</ele>
        <time>2012-01-07T13:16:36+01:00</time>
      </trkpt>
      <trkpt lat="43.75668" lon="6.97364">
        <ele>954.726318</ele>
        <time>2012-01-07T13:16:40+01:00</time>
      </trkpt>
      <trkpt lat="43.7567" lon="6.97364">
        <ele>951.361816</ele>
        <time>2012-01-07T13:16:56+01:00</time>
      </trkpt>
      <trkpt lat="43.75672" lon="6.97361">
        <ele>950.400635</ele>
        <time>2012-01-07T13:17:01+01:00</time>
      </trkpt>
      <trkpt lat="43.75673" lon="6.97361">
        <ele>950.400635</ele>
        <time>2012-01-07T13:17:07+01:00</time>
      </trkpt>
      <trkpt lat="43.75674" lon="6.97361">
        <ele>949.919922</ele>
        <time>2012-01-07T13:17:14+01:00</time>
      </trkpt>
      <trkpt lat="43.75674" lon="6.97362">
        <ele>951.842529</ele>
        <time>2012-01-07T13:17:29+01:00</time>
      </trkpt>
      <trkpt lat="43.75674" lon="6.97364">
        <ele>952.803711</ele>
        <time>2012-01-07T13:17:41+01:00</time>
      </trkpt>
      <trkpt lat="43.75673" lon="6.97365">
        <ele>951.842529</ele>
        <time>2012-01-07T13:17:55+01:00</time>
      </trkpt>
      <trkpt lat="43.75671" lon="6.97365">
        <ele>952.803711</ele>
        <time>2012-01-07T13:18:01+01:00</time>
      </trkpt>
      <trkpt lat="43.7567" lon="6.97361">
        <ele>954.24585</ele>
        <time>2012-01-07T13:18:15+01:00</time>
      </trkpt>
      <trkpt lat="43.75669" lon="6.97363">
        <ele>957.129883</ele>
        <time>2012-01-07T13:18:41+01:00</time>
      </trkpt>
      <trkpt lat="43.7567" lon="6.97363">
        <ele>952.322998</ele>
        <time>2012-01-07T13:19:11+01:00</time>
      </trkpt>
      <trkpt lat="43.7567" lon="6.97362">
        <ele>950.881104</ele>
        <time>2012-01-07T13:19:30+01:00</time>
      </trkpt>
      <trkpt lat="43.75672" lon="6.97362">
        <ele>951.842529</ele>
        <time>2012-01-07T13:19:42+01:00</time>
      </trkpt>
      <trkpt lat="43.75672" lon="6.97361">
        <ele>951.842529</ele>
        <time>2012-01-07T13:19:56+01:00</time>
      </trkpt>
      <trkpt lat="43.75672" lon="6.97361">
        <ele>953.765137</ele>
        <time>2012-01-07T13:20:12+01:00</time>
      </trkpt>
      <trkpt lat="43.75671" lon="6.97361">
        <ele>955.207031</ele>
        <time>2012-01-07T13:20:17+01:00</time>
      </trkpt>
      <trkpt lat="43.75672" lon="6.9736">
        <ele>954.726318</ele>
        <time>2012-01-07T13:20:26+01:00</time>
      </trkpt>
      <trkpt lat="43.75672" lon="6.9736">
        <ele>954.24585</ele>
        <time>2012-01-07T13:20:40+01:00</time>
      </trkpt>
      <trkpt lat="43.75671" lon="6.97361">
        <ele>953.765137</ele>
        <time>2012-01-07T13:20:49+01:00</time>
      </trkpt>
      <trkpt lat="43.7567" lon="6.97363">
        <ele>955.207031</ele>
        <time>2012-01-07T13:21:25+01:00</time>
      </trkpt>
      <trkpt lat="43.7567" lon="6.97363">
        <ele>954.726318</ele>
        <time>2012-01-07T13:21:36+01:00</time>
      </trkpt>
      <trkpt lat="43.75671" lon="6.97363">
        <ele>954.726318</ele>
        <time>2012-01-07T13:21:50+01:00</time>
      </trkpt>
      <trkpt lat="43.75674" lon="6.97361">
        <ele>958.091309</ele>
        <time>2012-01-07T13:22:12+01:00</time>
      </trkpt>
      <trkpt lat="43.75674" lon="6.9736">
        <ele>957.610596</ele>
        <time>2012-01-07T13:22:26+01:00</time>
      </trkpt>
      <trkpt lat="43.75676" lon="6.97358">
        <ele>957.610596</ele>
        <time>2012-01-07T13:22:32+01:00</time>
      </trkpt>
      <trkpt lat="43.75676" lon="6.97358">
        <ele>958.091309</ele>
        <time>2012-01-07T13:22:37+01:00</time>
      </trkpt>
      <trkpt lat="43.75676" lon="6.9736">
        <ele>955.687744</ele>
        <time>2012-01-07T13:22:57+01:00</time>
      </trkpt>
      <trkpt lat="43.75675" lon="6.9736">
        <ele>956.168457</ele>
        <time>2012-01-07T13:23:16+01:00</time>
      </trkpt>
      <trkpt lat="43.75673" lon="6.9736">
        <ele>954.726318</ele>
        <time>2012-01-07T13:23:27+01:00</time>
      </trkpt>
      <trkpt lat="43.75672" lon="6.97361">
        <ele>953.765137</ele>
        <time>2012-01-07T13:23:32+01:00</time>
      </trkpt>
      <trkpt lat="43.7567" lon="6.9736">
        <ele>952.322998</ele>
        <time>2012-01-07T13:23:44+01:00</time>
      </trkpt>
      <trkpt lat="43.75656" lon="6.97345">
        <ele>951.361816</ele>
        <time>2012-01-07T13:23:51+01:00</time>
      </trkpt>
      <trkpt lat="43.75644" lon="6.97325">
        <ele>950.881104</ele>
        <time>2012-01-07T13:23:58+01:00</time>
      </trkpt>
      <trkpt lat="43.7563" lon="6.97305">
        <ele>950.881104</ele>
        <time>2012-01-07T13:24:04+01:00</time>
      </trkpt>
      <trkpt lat="43.75612" lon="6.97282">
        <ele>950.881104</ele>
        <time>2012-01-07T13:24:10+01:00</time>
      </trkpt>
      <trkpt lat="43.75601" lon="6.97267">
        <ele>951.361816</ele>
        <time>2012-01-07T13:24:14+01:00</time>
      </trkpt>
      <trkpt lat="43.75584" lon="6.97225">
        <ele>950.881104</ele>
        <time>2012-01-07T13:24:23+01:00</time>
      </trkpt>
      <trkpt lat="43.75575" lon="6.97203">
        <ele>950.881104</ele>
        <time>2012-01-07T13:24:28+01:00</time>
      </trkpt>
      <trkpt lat="43.75563" lon="6.97193">
        <ele>950.400635</ele>
        <time>2012-01-07T13:24:34+01:00</time>
      </trkpt>
      <trkpt lat="43.75549" lon="6.97192">
        <ele>950.400635</ele>
        <time>2012-01-07T13:24:39+01:00</time>
      </trkpt>
      <trkpt lat="43.75527" lon="6.97194">
        <ele>949.439209</ele>
        <time>2012-01-07T13:24:46+01:00</time>
      </trkpt>
      <trkpt lat="43.75502" lon="6.97196">
        <ele>949.919922</ele>
        <time>2012-01-07T13:24:54+01:00</time>
      </trkpt>
      <trkpt lat="43.75484" lon="6.97201">
        <ele>950.400635</ele>
        <time>2012-01-07T13:25:00+01:00</time>
      </trkpt>
      <trkpt lat="43.75465" lon="6.97204">
        <ele>950.881104</ele>
        <time>2012-01-07T13:25:06+01:00</time>
      </trkpt>
      <trkpt lat="43.7544" lon="6.97208">
        <ele>951.842529</ele>
        <time>2012-01-07T13:25:13+01:00</time>
      </trkpt>
      <trkpt lat="43.75416" lon="6.97211">
        <ele>951.842529</ele>
        <time>2012-01-07T13:25:20+01:00</time>
      </trkpt>
      <trkpt lat="43.75402" lon="6.97209">
        <ele>951.842529</ele>
        <time>2012-01-07T13:25:25+01:00</time>
      </trkpt>
      <trkpt lat="43.75398" lon="6.97209">
        <ele>951.842529</ele>
        <time>2012-01-07T13:25:27+01:00</time>
      </trkpt>
      <trkpt lat="43.75392" lon="6.97212">
        <ele>951.842529</ele>
        <time>2012-01-07T13:25:31+01:00</time>
      </trkpt>
      <trkpt lat="43.75384" lon="6.97221">
        <ele>950.881104</ele>
        <time>2012-01-07T13:25:37+01:00</time>
      </trkpt>
      <trkpt lat="43.75374" lon="6.97234">
        <ele>948.958496</ele>
        <time>2012-01-07T13:25:41+01:00</time>
      </trkpt>
      <trkpt lat="43.75356" lon="6.97249">
        <ele>947.035889</ele>
        <time>2012-01-07T13:25:46+01:00</time>
      </trkpt>
      <trkpt lat="43.75337" lon="6.97258">
        <ele>945.593994</ele>
        <time>2012-01-07T13:25:51+01:00</time>
      </trkpt>
      <trkpt lat="43.75312" lon="6.97265">
        <ele>946.074707</ele>
        <time>2012-01-07T13:25:58+01:00</time>
      </trkpt>
      <trkpt lat="43.75279" lon="6.97261">
        <ele>947.516602</ele>
        <time>2012-01-07T13:26:05+01:00</time>
      </trkpt>
      <trkpt lat="43.75254" lon="6.97263">
        <ele>947.516602</ele>
        <time>2012-01-07T13:26:11+01:00</time>
      </trkpt>
      <trkpt lat="43.75227" lon="6.97264">
        <ele>946.074707</ele>
        <time>2012-01-07T13:26:19+01:00</time>
      </trkpt>
      <trkpt lat="43.75208" lon="6.97265">
        <ele>947.516602</ele>
        <time>2012-01-07T13:26:25+01:00</time>
      </trkpt>
      <trkpt lat="43.75196" lon="6.97265">
        <ele>947.516602</ele>
        <time>2012-01-07T13:26:29+01:00</time>
      </trkpt>
      <trkpt lat="43.75173" lon="6.97267">
        <ele>947.997314</ele>
        <time>2012-01-07T13:26:35+01:00</time>
      </trkpt>
      <trkpt lat="43.75156" lon="6.97271">
        <ele>947.997314</ele>
        <time>2012-01-07T13:26:40+01:00</time>
      </trkpt>
      <trkpt lat="43.75133" lon="6.97273">
        <ele>947.997314</ele>
        <time>2012-01-07T13:26:47+01:00</time>
      </trkpt>
      <trkpt lat="43.75111" lon="6.97278">
        <ele>948.958496</ele>
        <time>2012-01-07T13:26:54+01:00</time>
      </trkpt>
      <trkpt lat="43.75096" lon="6.97276">
        <ele>949.439209</ele>
        <time>2012-01-07T13:27:00+01:00</time>
      </trkpt>
      <trkpt lat="43.75086" lon="6.97272">
        <ele>950.881104</ele>
        <time>2012-01-07T13:27:04+01:00</time>
      </trkpt>
      <trkpt lat="43.7507" lon="6.9727">
        <ele>951.361816</ele>
        <time>2012-01-07T13:27:10+01:00</time>
      </trkpt>
      <trkpt lat="43.75052" lon="6.97272">
        <ele>951.361816</ele>
        <time>2012-01-07T13:27:16+01:00</time>
      </trkpt>
      <trkpt lat="43.75026" lon="6.97274">
        <ele>950.400635</ele>
        <time>2012-01-07T13:27:25+01:00</time>
      </trkpt>
      <trkpt lat="43.75011" lon="6.97275">
        <ele>951.842529</ele>
        <time>2012-01-07T13:27:31+01:00</time>
      </trkpt>
      <trkpt lat="43.74998" lon="6.97274">
        <ele>953.765137</ele>
        <time>2012-01-07T13:27:37+01:00</time>
      </trkpt>
      <trkpt lat="43.74982" lon="6.97274">
        <ele>955.207031</ele>
        <time>2012-01-07T13:27:44+01:00</time>
      </trkpt>
      <trkpt lat="43.74959" lon="6.97275">
        <ele>955.207031</ele>
        <time>2012-01-07T13:27:52+01:00</time>
      </trkpt>
      <trkpt lat="43.74941" lon="6.97276">
        <ele>956.168457</ele>
        <time>2012-01-07T13:27:59+01:00</time>
      </trkpt>
      <trkpt lat="43.74927" lon="6.97276">
        <ele>956.168457</ele>
        <time>2012-01-07T13:28:06+01:00</time>
      </trkpt>
      <trkpt lat="43.74911" lon="6.97277">
        <ele>956.64917</ele>
        <time>2012-01-07T13:28:13+01:00</time>
      </trkpt>
      <trkpt lat="43.74885" lon="6.97277">
        <ele>959.533203</ele>
        <time>2012-01-07T13:28:22+01:00</time>
      </trkpt>
      <trkpt lat="43.74871" lon="6.97277">
        <ele>959.05249</ele>
        <time>2012-01-07T13:28:28+01:00</time>
      </trkpt>
      <trkpt lat="43.74853" lon="6.97285">
        <ele>959.05249</ele>
        <time>2012-01-07T13:28:36+01:00</time>
      </trkpt>
      <trkpt lat="43.74835" lon="6.97298">
        <ele>960.975098</ele>
        <time>2012-01-07T13:28:44+01:00</time>
      </trkpt>
      <trkpt lat="43.74824" lon="6.97305">
        <ele>962.897705</ele>
        <time>2012-01-07T13:28:49+01:00</time>
      </trkpt>
      <trkpt lat="43.74812" lon="6.97318">
        <ele>964.820312</ele>
        <time>2012-01-07T13:28:55+01:00</time>
      </trkpt>
      <trkpt lat="43.74801" lon="6.97331">
        <ele>966.262207</ele>
        <time>2012-01-07T13:29:02+01:00</time>
      </trkpt>
      <trkpt lat="43.74791" lon="6.97343">
        <ele>967.223633</ele>
        <time>2012-01-07T13:29:09+01:00</time>
      </trkpt>
      <trkpt lat="43.74783" lon="6.97354">
        <ele>967.704102</ele>
        <time>2012-01-07T13:29:15+01:00</time>
      </trkpt>
      <trkpt lat="43.74772" lon="6.97365">
        <ele>969.14624</ele>
        <time>2012-01-07T13:29:22+01:00</time>
      </trkpt>
      <trkpt lat="43.74761" lon="6.97379">
        <ele>970.107422</ele>
        <time>2012-01-07T13:29:30+01:00</time>
      </trkpt>
      <trkpt lat="43.74751" lon="6.97388">
        <ele>971.068848</ele>
        <time>2012-01-07T13:29:37+01:00</time>
      </trkpt>
      <trkpt lat="43.74741" lon="6.97398">
        <ele>972.030273</ele>
        <time>2012-01-07T13:29:43+01:00</time>
      </trkpt>
      <trkpt lat="43.74733" lon="6.97406">
        <ele>972.030273</ele>
        <time>2012-01-07T13:29:49+01:00</time>
      </trkpt>
      <trkpt lat="43.74725" lon="6.97415">
        <ele>972.030273</ele>
        <time>2012-01-07T13:29:56+01:00</time>
      </trkpt>
      <trkpt lat="43.74716" lon="6.97422">
        <ele>973.472412</ele>
        <time>2012-01-07T13:30:03+01:00</time>
      </trkpt>
      <trkpt lat="43.74708" lon="6.97425">
        <ele>974.914307</ele>
        <time>2012-01-07T13:30:08+01:00</time>
      </trkpt>
      <trkpt lat="43.74694" lon="6.97431">
        <ele>975.875488</ele>
        <time>2012-01-07T13:30:16+01:00</time>
      </trkpt>
      <trkpt lat="43.74684" lon="6.97438">
        <ele>977.317627</ele>
        <time>2012-01-07T13:30:22+01:00</time>
      </trkpt>
      <trkpt lat="43.74672" lon="6.97444">
        <ele>978.759521</ele>
        <time>2012-01-07T13:30:30+01:00</time>
      </trkpt>
      <trkpt lat="43.74665" lon="6.9745">
        <ele>980.201416</ele>
        <time>2012-01-07T13:30:35+01:00</time>
      </trkpt>
      <trkpt lat="43.74659" lon="6.97459">
        <ele>982.124023</ele>
        <time>2012-01-07T13:30:41+01:00</time>
      </trkpt>
      <trkpt lat="43.74657" lon="6.97461">
        <ele>983.085205</ele>
        <time>2012-01-07T13:30:44+01:00</time>
      </trkpt>
      <trkpt lat="43.74655" lon="6.97463">
        <ele>983.565918</ele>
        <time>2012-01-07T13:30:51+01:00</time>
      </trkpt>
      <trkpt lat="43.7465" lon="6.97471">
        <ele>982.604736</ele>
        <time>2012-01-07T13:30:58+01:00</time>
      </trkpt>
      <trkpt lat="43.74647" lon="6.97475">
        <ele>983.565918</ele>
        <time>2012-01-07T13:31:05+01:00</time>
      </trkpt>
      <trkpt lat="43.74646" lon="6.97478">
        <ele>985.008057</ele>
        <time>2012-01-07T13:31:27+01:00</time>
      </trkpt>
      <trkpt lat="43.74647" lon="6.97479">
        <ele>984.527344</ele>
        <time>2012-01-07T13:31:39+01:00</time>
      </trkpt>
      <trkpt lat="43.74646" lon="6.97478">
        <ele>985.488525</ele>
        <time>2012-01-07T13:31:58+01:00</time>
      </trkpt>
      <trkpt lat="43.74641" lon="6.97483">
        <ele>985.969238</ele>
        <time>2012-01-07T13:32:04+01:00</time>
      </trkpt>
      <trkpt lat="43.74632" lon="6.97494">
        <ele>985.488525</ele>
        <time>2012-01-07T13:32:12+01:00</time>
      </trkpt>
      <trkpt lat="43.74624" lon="6.97505">
        <ele>985.969238</ele>
        <time>2012-01-07T13:32:19+01:00</time>
      </trkpt>
      <trkpt lat="43.74616" lon="6.97518">
        <ele>986.93042</ele>
        <time>2012-01-07T13:32:25+01:00</time>
      </trkpt>
      <trkpt lat="43.74611" lon="6.97526">
        <ele>988.372803</ele>
        <time>2012-01-07T13:32:30+01:00</time>
      </trkpt>
      <trkpt lat="43.74605" lon="6.97542">
        <ele>989.333984</ele>
        <time>2012-01-07T13:32:38+01:00</time>
      </trkpt>
      <trkpt lat="43.74598" lon="6.9756">
        <ele>990.775879</ele>
        <time>2012-01-07T13:32:47+01:00</time>
      </trkpt>
      <trkpt lat="43.74589" lon="6.97574">
        <ele>991.256592</ele>
        <time>2012-01-07T13:32:54+01:00</time>
      </trkpt>
      <trkpt lat="43.74582" lon="6.97584">
        <ele>992.69873</ele>
        <time>2012-01-07T13:33:00+01:00</time>
      </trkpt>
      <trkpt lat="43.74573" lon="6.97594">
        <ele>994.621094</ele>
        <time>2012-01-07T13:33:08+01:00</time>
      </trkpt>
      <trkpt lat="43.74566" lon="6.97602">
        <ele>996.543945</ele>
        <time>2012-01-07T13:33:15+01:00</time>
      </trkpt>
      <trkpt lat="43.74556" lon="6.97611">
        <ele>997.98584</ele>
        <time>2012-01-07T13:33:23+01:00</time>
      </trkpt>
      <trkpt lat="43.74549" lon="6.97618">
        <ele>999.908447</ele>
        <time>2012-01-07T13:33:29+01:00</time>
      </trkpt>
      <trkpt lat="43.74542" lon="6.97627">
        <ele>1002.79224</ele>
        <time>2012-01-07T13:33:36+01:00</time>
      </trkpt>
      <trkpt lat="43.74536" lon="6.97638">
        <ele>1004.23462</ele>
        <time>2012-01-07T13:33:43+01:00</time>
      </trkpt>
      <trkpt lat="43.74532" lon="6.97647">
        <ele>1005.1958</ele>
        <time>2012-01-07T13:33:49+01:00</time>
      </trkpt>
      <trkpt lat="43.74533" lon="6.97659">
        <ele>1005.67651</ele>
        <time>2012-01-07T13:33:56+01:00</time>
      </trkpt>
      <trkpt lat="43.74533" lon="6.9767">
        <ele>1005.67651</ele>
        <time>2012-01-07T13:34:02+01:00</time>
      </trkpt>
      <trkpt lat="43.7453" lon="6.97682">
        <ele>1007.11841</ele>
        <time>2012-01-07T13:34:08+01:00</time>
      </trkpt>
      <trkpt lat="43.74531" lon="6.97695">
        <ele>1008.07983</ele>
        <time>2012-01-07T13:34:14+01:00</time>
      </trkpt>
      <trkpt lat="43.74529" lon="6.9771">
        <ele>1009.04102</ele>
        <time>2012-01-07T13:34:21+01:00</time>
      </trkpt>
      <trkpt lat="43.74527" lon="6.97725">
        <ele>1010.0022</ele>
        <time>2012-01-07T13:34:28+01:00</time>
      </trkpt>
      <trkpt lat="43.74524" lon="6.97739">
        <ele>1011.44434</ele>
        <time>2012-01-07T13:34:36+01:00</time>
      </trkpt>
      <trkpt lat="43.74521" lon="6.9775">
        <ele>1012.40552</ele>
        <time>2012-01-07T13:34:42+01:00</time>
      </trkpt>
      <trkpt lat="43.74518" lon="6.97761">
        <ele>1013.36694</ele>
        <time>2012-01-07T13:34:48+01:00</time>
      </trkpt>
      <trkpt lat="43.74514" lon="6.97768">
        <ele>1014.32812</ele>
        <time>2012-01-07T13:34:53+01:00</time>
      </trkpt>
      <trkpt lat="43.74508" lon="6.97777">
        <ele>1015.77026</ele>
        <time>2012-01-07T13:35:00+01:00</time>
      </trkpt>
      <trkpt lat="43.74506" lon="6.97779">
        <ele>1015.77026</ele>
        <time>2012-01-07T13:35:02+01:00</time>
      </trkpt>
      <trkpt lat="43.74501" lon="6.97788">
        <ele>1017.21216</ele>
        <time>2012-01-07T13:35:08+01:00</time>
      </trkpt>
      <trkpt lat="43.74494" lon="6.97798">
        <ele>1018.65405</ele>
        <time>2012-01-07T13:35:16+01:00</time>
      </trkpt>
      <trkpt lat="43.74486" lon="6.97809">
        <ele>1021.05762</ele>
        <time>2012-01-07T13:35:24+01:00</time>
      </trkpt>
      <trkpt lat="43.74484" lon="6.97811">
        <ele>1021.05762</ele>
        <time>2012-01-07T13:35:26+01:00</time>
      </trkpt>
      <trkpt lat="43.7448" lon="6.97813">
        <ele>1022.49951</ele>
        <time>2012-01-07T13:35:31+01:00</time>
      </trkpt>
      <trkpt lat="43.74476" lon="6.9781">
        <ele>1023.46094</ele>
        <time>2012-01-07T13:35:35+01:00</time>
      </trkpt>
      <trkpt lat="43.74475" lon="6.97807">
        <ele>1023.94141</ele>
        <time>2012-01-07T13:35:37+01:00</time>
      </trkpt>
      <trkpt lat="43.74477" lon="6.97797">
        <ele>1024.42212</ele>
        <time>2012-01-07T13:35:44+01:00</time>
      </trkpt>
      <trkpt lat="43.74477" lon="6.97789">
        <ele>1025.3833</ele>
        <time>2012-01-07T13:35:50+01:00</time>
      </trkpt>
      <trkpt lat="43.74477" lon="6.97787">
        <ele>1025.3833</ele>
        <time>2012-01-07T13:35:51+01:00</time>
      </trkpt>
      <trkpt lat="43.74474" lon="6.97777">
        <ele>1026.34473</ele>
        <time>2012-01-07T13:35:57+01:00</time>
      </trkpt>
      <trkpt lat="43.74473" lon="6.97768">
        <ele>1026.82544</ele>
        <time>2012-01-07T13:36:03+01:00</time>
      </trkpt>
      <trkpt lat="43.74472" lon="6.97758">
        <ele>1027.30615</ele>
        <time>2012-01-07T13:36:08+01:00</time>
      </trkpt>
      <trkpt lat="43.7447" lon="6.97748">
        <ele>1027.78662</ele>
        <time>2012-01-07T13:36:14+01:00</time>
      </trkpt>
      <trkpt lat="43.74467" lon="6.97735">
        <ele>1029.22852</ele>
        <time>2012-01-07T13:36:22+01:00</time>
      </trkpt>
      <trkpt lat="43.74466" lon="6.97724">
        <ele>1030.18994</ele>
        <time>2012-01-07T13:36:28+01:00</time>
      </trkpt>
      <trkpt lat="43.74459" lon="6.97721">
        <ele>1032.59326</ele>
        <time>2012-01-07T13:36:34+01:00</time>
      </trkpt>
      <trkpt lat="43.74456" lon="6.97723">
        <ele>1033.07373</ele>
        <time>2012-01-07T13:36:36+01:00</time>
      </trkpt>
      <trkpt lat="43.74449" lon="6.97732">
        <ele>1035.47705</ele>
        <time>2012-01-07T13:36:43+01:00</time>
      </trkpt>
      <trkpt lat="43.74446" lon="6.9774">
        <ele>1036.43872</ele>
        <time>2012-01-07T13:36:48+01:00</time>
      </trkpt>
      <trkpt lat="43.74445" lon="6.97742">
        <ele>1037.3999</ele>
        <time>2012-01-07T13:36:50+01:00</time>
      </trkpt>
      <trkpt lat="43.74444" lon="6.97742">
        <ele>1037.88062</ele>
        <time>2012-01-07T13:37:01+01:00</time>
      </trkpt>
      <trkpt lat="43.74443" lon="6.97744">
        <ele>1038.84204</ele>
        <time>2012-01-07T13:37:09+01:00</time>
      </trkpt>
      <trkpt lat="43.74443" lon="6.97742">
        <ele>1041.72583</ele>
        <time>2012-01-07T13:37:33+01:00</time>
      </trkpt>
      <trkpt lat="43.74442" lon="6.97745">
        <ele>1042.68726</ele>
        <time>2012-01-07T13:37:40+01:00</time>
      </trkpt>
      <trkpt lat="43.74443" lon="6.97743">
        <ele>1040.7644</ele>
        <time>2012-01-07T13:37:50+01:00</time>
      </trkpt>
      <trkpt lat="43.74444" lon="6.97742">
        <ele>1039.32251</ele>
        <time>2012-01-07T13:38:04+01:00</time>
      </trkpt>
      <trkpt lat="43.74443" lon="6.97745">
        <ele>1040.7644</ele>
        <time>2012-01-07T13:38:25+01:00</time>
      </trkpt>
      <trkpt lat="43.74441" lon="6.97745">
        <ele>1039.80322</ele>
        <time>2012-01-07T13:38:56+01:00</time>
      </trkpt>
      <trkpt lat="43.74441" lon="6.97745">
        <ele>1039.32251</ele>
        <time>2012-01-07T13:39:08+01:00</time>
      </trkpt>
      <trkpt lat="43.7444" lon="6.97746">
        <ele>1041.24512</ele>
        <time>2012-01-07T13:39:23+01:00</time>
      </trkpt>
      <trkpt lat="43.74439" lon="6.97749">
        <ele>1041.72583</ele>
        <time>2012-01-07T13:39:26+01:00</time>
      </trkpt>
      <trkpt lat="43.74431" lon="6.97763">
        <ele>1042.68726</ele>
        <time>2012-01-07T13:39:34+01:00</time>
      </trkpt>
      <trkpt lat="43.74422" lon="6.97777">
        <ele>1043.16772</ele>
        <time>2012-01-07T13:39:41+01:00</time>
      </trkpt>
      <trkpt lat="43.74419" lon="6.97786">
        <ele>1043.64844</ele>
        <time>2012-01-07T13:39:46+01:00</time>
      </trkpt>
      <trkpt lat="43.74414" lon="6.97799">
        <ele>1045.09033</ele>
        <time>2012-01-07T13:39:52+01:00</time>
      </trkpt>
      <trkpt lat="43.74409" lon="6.97812">
        <ele>1046.05176</ele>
        <time>2012-01-07T13:39:59+01:00</time>
      </trkpt>
      <trkpt lat="43.74406" lon="6.97823">
        <ele>1047.49365</ele>
        <time>2012-01-07T13:40:05+01:00</time>
      </trkpt>
      <trkpt lat="43.74401" lon="6.97838">
        <ele>1048.93555</ele>
        <time>2012-01-07T13:40:12+01:00</time>
      </trkpt>
      <trkpt lat="43.74396" lon="6.97851">
        <ele>1050.85815</ele>
        <time>2012-01-07T13:40:18+01:00</time>
      </trkpt>
      <trkpt lat="43.74392" lon="6.97862">
        <ele>1051.81958</ele>
        <time>2012-01-07T13:40:25+01:00</time>
      </trkpt>
      <trkpt lat="43.74383" lon="6.97877">
        <ele>1054.22314</ele>
        <time>2012-01-07T13:40:31+01:00</time>
      </trkpt>
      <trkpt lat="43.74378" lon="6.9789">
        <ele>1057.10693</ele>
        <time>2012-01-07T13:40:36+01:00</time>
      </trkpt>
      <trkpt lat="43.74369" lon="6.97906">
        <ele>1060.47144</ele>
        <time>2012-01-07T13:40:43+01:00</time>
      </trkpt>
      <trkpt lat="43.74364" lon="6.97917">
        <ele>1062.87476</ele>
        <time>2012-01-07T13:40:48+01:00</time>
      </trkpt>
      <trkpt lat="43.74355" lon="6.97918">
        <ele>1062.39404</ele>
        <time>2012-01-07T13:40:53+01:00</time>
      </trkpt>
      <trkpt lat="43.74353" lon="6.97917">
        <ele>1062.39404</ele>
        <time>2012-01-07T13:40:54+01:00</time>
      </trkpt>
      <trkpt lat="43.74339" lon="6.97908">
        <ele>1061.43286</ele>
        <time>2012-01-07T13:41:01+01:00</time>
      </trkpt>
      <trkpt lat="43.74329" lon="6.97909">
        <ele>1057.10693</ele>
        <time>2012-01-07T13:41:07+01:00</time>
      </trkpt>
      <trkpt lat="43.74324" lon="6.97908">
        <ele>1057.10693</ele>
        <time>2012-01-07T13:41:11+01:00</time>
      </trkpt>
      <trkpt lat="43.74318" lon="6.97907">
        <ele>1056.62622</ele>
        <time>2012-01-07T13:41:16+01:00</time>
      </trkpt>
      <trkpt lat="43.74316" lon="6.97904">
        <ele>1057.58765</ele>
        <time>2012-01-07T13:41:18+01:00</time>
      </trkpt>
      <trkpt lat="43.74311" lon="6.97887">
        <ele>1058.54883</ele>
        <time>2012-01-07T13:41:26+01:00</time>
      </trkpt>
      <trkpt lat="43.74311" lon="6.97884">
        <ele>1058.54883</ele>
        <time>2012-01-07T13:41:27+01:00</time>
      </trkpt>
      <trkpt lat="43.74304" lon="6.97867">
        <ele>1060.95215</ele>
        <time>2012-01-07T13:41:35+01:00</time>
      </trkpt>
      <trkpt lat="43.74296" lon="6.97849">
        <ele>1060.95215</ele>
        <time>2012-01-07T13:41:43+01:00</time>
      </trkpt>
      <trkpt lat="43.74287" lon="6.97839">
        <ele>1062.87476</ele>
        <time>2012-01-07T13:41:49+01:00</time>
      </trkpt>
      <trkpt lat="43.74276" lon="6.97836">
        <ele>1063.83594</ele>
        <time>2012-01-07T13:41:54+01:00</time>
      </trkpt>
      <trkpt lat="43.74264" lon="6.97832">
        <ele>1064.31665</ele>
        <time>2012-01-07T13:41:59+01:00</time>
      </trkpt>
      <trkpt lat="43.74249" lon="6.97824">
        <ele>1063.35547</ele>
        <time>2012-01-07T13:42:06+01:00</time>
      </trkpt>
      <trkpt lat="43.74242" lon="6.9781">
        <ele>1063.35547</ele>
        <time>2012-01-07T13:42:11+01:00</time>
      </trkpt>
      <trkpt lat="43.7423" lon="6.97796">
        <ele>1064.31665</ele>
        <time>2012-01-07T13:42:18+01:00</time>
      </trkpt>
      <trkpt lat="43.7422" lon="6.97786">
        <ele>1064.79736</ele>
        <time>2012-01-07T13:42:23+01:00</time>
      </trkpt>
      <trkpt lat="43.74209" lon="6.97774">
        <ele>1066.23926</ele>
        <time>2012-01-07T13:42:29+01:00</time>
      </trkpt>
      <trkpt lat="43.74205" lon="6.97771">
        <ele>1067.20068</ele>
        <time>2012-01-07T13:42:32+01:00</time>
      </trkpt>
      <trkpt lat="43.74196" lon="6.97778">
        <ele>1068.16211</ele>
        <time>2012-01-07T13:42:38+01:00</time>
      </trkpt>
      <trkpt lat="43.74186" lon="6.97793">
        <ele>1069.60425</ele>
        <time>2012-01-07T13:42:44+01:00</time>
      </trkpt>
      <trkpt lat="43.74184" lon="6.97795">
        <ele>1070.08472</ele>
        <time>2012-01-07T13:42:45+01:00</time>
      </trkpt>
      <trkpt lat="43.74169" lon="6.97795">
        <ele>1072.48804</ele>
        <time>2012-01-07T13:42:51+01:00</time>
      </trkpt>
      <trkpt lat="43.74155" lon="6.97787">
        <ele>1072.00732</ele>
        <time>2012-01-07T13:42:57+01:00</time>
      </trkpt>
      <trkpt lat="43.74138" lon="6.9777">
        <ele>1071.52661</ele>
        <time>2012-01-07T13:43:05+01:00</time>
      </trkpt>
      <trkpt lat="43.74131" lon="6.97752">
        <ele>1070.56543</ele>
        <time>2012-01-07T13:43:11+01:00</time>
      </trkpt>
      <trkpt lat="43.74125" lon="6.9773">
        <ele>1070.56543</ele>
        <time>2012-01-07T13:43:17+01:00</time>
      </trkpt>
      <trkpt lat="43.7412" lon="6.97713">
        <ele>1070.56543</ele>
        <time>2012-01-07T13:43:22+01:00</time>
      </trkpt>
      <trkpt lat="43.74109" lon="6.977">
        <ele>1069.60425</ele>
        <time>2012-01-07T13:43:27+01:00</time>
      </trkpt>
      <trkpt lat="43.74101" lon="6.97696">
        <ele>1069.60425</ele>
        <time>2012-01-07T13:43:30+01:00</time>
      </trkpt>
      <trkpt lat="43.741" lon="6.97695">
        <ele>1069.60425</ele>
        <time>2012-01-07T13:43:37+01:00</time>
      </trkpt>
      <trkpt lat="43.74101" lon="6.97695">
        <ele>1069.60425</ele>
        <time>2012-01-07T13:43:43+01:00</time>
      </trkpt>
      <trkpt lat="43.74101" lon="6.97693">
        <ele>1069.12354</ele>
        <time>2012-01-07T13:43:47+01:00</time>
      </trkpt>
      <trkpt lat="43.741" lon="6.97693">
        <ele>1069.12354</ele>
        <time>2012-01-07T13:43:54+01:00</time>
      </trkpt>
      <trkpt lat="43.74099" lon="6.97693">
        <ele>1069.12354</ele>
        <time>2012-01-07T13:44:00+01:00</time>
      </trkpt>
      <trkpt lat="43.74099" lon="6.97693">
        <ele>1069.12354</ele>
        <time>2012-01-07T13:44:06+01:00</time>
      </trkpt>
      <trkpt lat="43.741" lon="6.97694">
        <ele>1069.60425</ele>
        <time>2012-01-07T13:44:11+01:00</time>
      </trkpt>
      <trkpt lat="43.741" lon="6.97694">
        <ele>1070.08472</ele>
        <time>2012-01-07T13:44:16+01:00</time>
      </trkpt>
      <trkpt lat="43.741" lon="6.97695">
        <ele>1070.08472</ele>
        <time>2012-01-07T13:44:24+01:00</time>
      </trkpt>
      <trkpt lat="43.741" lon="6.97696">
        <ele>1069.60425</ele>
        <time>2012-01-07T13:44:29+01:00</time>
      </trkpt>
      <trkpt lat="43.74101" lon="6.97697">
        <ele>1069.60425</ele>
        <time>2012-01-07T13:44:35+01:00</time>
      </trkpt>
      <trkpt lat="43.741" lon="6.97696">
        <ele>1071.04614</ele>
        <time>2012-01-07T13:44:41+01:00</time>
      </trkpt>
      <trkpt lat="43.741" lon="6.97695">
        <ele>1071.04614</ele>
        <time>2012-01-07T13:44:46+01:00</time>
      </trkpt>
      <trkpt lat="43.741" lon="6.97696">
        <ele>1071.04614</ele>
        <time>2012-01-07T13:44:51+01:00</time>
      </trkpt>
      <trkpt lat="43.741" lon="6.97697">
        <ele>1072.00732</ele>
        <time>2012-01-07T13:44:57+01:00</time>
      </trkpt>
      <trkpt lat="43.741" lon="6.97697">
        <ele>1070.56543</ele>
        <time>2012-01-07T13:45:03+01:00</time>
      </trkpt>
      <trkpt lat="43.741" lon="6.97698">
        <ele>1071.04614</ele>
        <time>2012-01-07T13:45:10+01:00</time>
      </trkpt>
      <trkpt lat="43.74097" lon="6.97695">
        <ele>1071.04614</ele>
        <time>2012-01-07T13:45:16+01:00</time>
      </trkpt>
      <trkpt lat="43.74096" lon="6.97693">
        <ele>1071.52661</ele>
        <time>2012-01-07T13:45:21+01:00</time>
      </trkpt>
      <trkpt lat="43.74095" lon="6.97692">
        <ele>1072.96875</ele>
        <time>2012-01-07T13:45:41+01:00</time>
      </trkpt>
      <trkpt lat="43.74094" lon="6.97693">
        <ele>1072.96875</ele>
        <time>2012-01-07T13:45:48+01:00</time>
      </trkpt>
      <trkpt lat="43.74095" lon="6.97693">
        <ele>1073.92993</ele>
        <time>2012-01-07T13:46:19+01:00</time>
      </trkpt>
      <trkpt lat="43.74096" lon="6.97695">
        <ele>1073.92993</ele>
        <time>2012-01-07T13:46:31+01:00</time>
      </trkpt>
      <trkpt lat="43.741" lon="6.97697">
        <ele>1073.44946</ele>
        <time>2012-01-07T13:46:38+01:00</time>
      </trkpt>
      <trkpt lat="43.74101" lon="6.97697">
        <ele>1073.44946</ele>
        <time>2012-01-07T13:46:42+01:00</time>
      </trkpt>
      <trkpt lat="43.74102" lon="6.97697">
        <ele>1073.44946</ele>
        <time>2012-01-07T13:46:56+01:00</time>
      </trkpt>
      <trkpt lat="43.74098" lon="6.97696">
        <ele>1071.52661</ele>
        <time>2012-01-07T13:47:02+01:00</time>
      </trkpt>
      <trkpt lat="43.74095" lon="6.97692">
        <ele>1071.04614</ele>
        <time>2012-01-07T13:47:07+01:00</time>
      </trkpt>
      <trkpt lat="43.74096" lon="6.97691">
        <ele>1070.56543</ele>
        <time>2012-01-07T13:47:16+01:00</time>
      </trkpt>
      <trkpt lat="43.74098" lon="6.97694">
        <ele>1069.12354</ele>
        <time>2012-01-07T13:47:21+01:00</time>
      </trkpt>
      <trkpt lat="43.74099" lon="6.97694">
        <ele>1069.12354</ele>
        <time>2012-01-07T13:47:28+01:00</time>
      </trkpt>
      <trkpt lat="43.74099" lon="6.97695">
        <ele>1070.08472</ele>
        <time>2012-01-07T13:47:38+01:00</time>
      </trkpt>
      <trkpt lat="43.74098" lon="6.97695">
        <ele>1070.56543</ele>
        <time>2012-01-07T13:47:51+01:00</time>
      </trkpt>
      <trkpt lat="43.74098" lon="6.97695">
        <ele>1070.08472</ele>
        <time>2012-01-07T13:47:59+01:00</time>
      </trkpt>
      <trkpt lat="43.74098" lon="6.97696">
        <ele>1070.08472</ele>
        <time>2012-01-07T13:48:08+01:00</time>
      </trkpt>
      <trkpt lat="43.74099" lon="6.97695">
        <ele>1069.12354</ele>
        <time>2012-01-07T13:48:12+01:00</time>
      </trkpt>
      <trkpt lat="43.74098" lon="6.97695">
        <ele>1069.12354</ele>
        <time>2012-01-07T13:48:19+01:00</time>
      </trkpt>
      <trkpt lat="43.74099" lon="6.97696">
        <ele>1070.56543</ele>
        <time>2012-01-07T13:48:25+01:00</time>
      </trkpt>
      <trkpt lat="43.74099" lon="6.97696">
        <ele>1070.56543</ele>
        <time>2012-01-07T13:48:29+01:00</time>
      </trkpt>
      <trkpt lat="43.74099" lon="6.97696">
        <ele>1071.04614</ele>
        <time>2012-01-07T13:48:37+01:00</time>
      </trkpt>
      <trkpt lat="43.74102" lon="6.97697">
        <ele>1070.56543</ele>
        <time>2012-01-07T13:48:46+01:00</time>
      </trkpt>
      <trkpt lat="43.74105" lon="6.97696">
        <ele>1070.08472</ele>
        <time>2012-01-07T13:48:49+01:00</time>
      </trkpt>
      <trkpt lat="43.74109" lon="6.97695">
        <ele>1070.08472</ele>
        <time>2012-01-07T13:48:57+01:00</time>
      </trkpt>
      <trkpt lat="43.74109" lon="6.97695">
        <ele>1072.48804</ele>
        <time>2012-01-07T13:49:24+01:00</time>
      </trkpt>
      <trkpt lat="43.74106" lon="6.97696">
        <ele>1072.96875</ele>
        <time>2012-01-07T13:49:43+01:00</time>
      </trkpt>
      <trkpt lat="43.74101" lon="6.97696">
        <ele>1072.48804</ele>
        <time>2012-01-07T13:49:49+01:00</time>
      </trkpt>
      <trkpt lat="43.741" lon="6.97697">
        <ele>1072.00732</ele>
        <time>2012-01-07T13:50:03+01:00</time>
      </trkpt>
      <trkpt lat="43.741" lon="6.97696">
        <ele>1071.52661</ele>
        <time>2012-01-07T13:50:13+01:00</time>
      </trkpt>
      <trkpt lat="43.74099" lon="6.97697">
        <ele>1071.52661</ele>
        <time>2012-01-07T13:50:17+01:00</time>
      </trkpt>
      <trkpt lat="43.74099" lon="6.97697">
        <ele>1071.52661</ele>
        <time>2012-01-07T13:50:21+01:00</time>
      </trkpt>
      <trkpt lat="43.741" lon="6.97696">
        <ele>1072.00732</ele>
        <time>2012-01-07T13:50:33+01:00</time>
      </trkpt>
      <trkpt lat="43.741" lon="6.97696">
        <ele>1072.00732</ele>
        <time>2012-01-07T13:50:44+01:00</time>
      </trkpt>
      <trkpt lat="43.741" lon="6.97696">
        <ele>1072.00732</ele>
        <time>2012-01-07T13:50:54+01:00</time>
      </trkpt>
      <trkpt lat="43.74099" lon="6.97695">
        <ele>1072.00732</ele>
        <time>2012-01-07T13:51:00+01:00</time>
      </trkpt>
      <trkpt lat="43.741" lon="6.97695">
        <ele>1072.00732</ele>
        <time>2012-01-07T13:51:19+01:00</time>
      </trkpt>
      <trkpt lat="43.74099" lon="6.97695">
        <ele>1071.52661</ele>
        <time>2012-01-07T13:51:23+01:00</time>
      </trkpt>
      <trkpt lat="43.74099" lon="6.97695">
        <ele>1071.52661</ele>
        <time>2012-01-07T13:51:35+01:00</time>
      </trkpt>
      <trkpt lat="43.74099" lon="6.97695">
        <ele>1071.52661</ele>
        <time>2012-01-07T13:51:52+01:00</time>
      </trkpt>
      <trkpt lat="43.74095" lon="6.97692">
        <ele>1071.52661</ele>
        <time>2012-01-07T13:52:01+01:00</time>
      </trkpt>
      <trkpt lat="43.74091" lon="6.9769">
        <ele>1071.04614</ele>
        <time>2012-01-07T13:52:04+01:00</time>
      </trkpt>
      <trkpt lat="43.74081" lon="6.97681">
        <ele>1070.56543</ele>
        <time>2012-01-07T13:52:09+01:00</time>
      </trkpt>
      <trkpt lat="43.74082" lon="6.97681">
        <ele>1069.60425</ele>
        <time>2012-01-07T13:52:14+01:00</time>
      </trkpt>
      <trkpt lat="43.7408" lon="6.97679">
        <ele>1069.60425</ele>
        <time>2012-01-07T13:52:19+01:00</time>
      </trkpt>
      <trkpt lat="43.7408" lon="6.97678">
        <ele>1069.60425</ele>
        <time>2012-01-07T13:52:20+01:00</time>
      </trkpt>
      <trkpt lat="43.74072" lon="6.97663">
        <ele>1069.12354</ele>
        <time>2012-01-07T13:52:26+01:00</time>
      </trkpt>
      <trkpt lat="43.74057" lon="6.97639">
        <ele>1067.20068</ele>
        <time>2012-01-07T13:52:32+01:00</time>
      </trkpt>
      <trkpt lat="43.74038" lon="6.97613">
        <ele>1065.27808</ele>
        <time>2012-01-07T13:52:38+01:00</time>
      </trkpt>
      <trkpt lat="43.74032" lon="6.97603">
        <ele>1065.27808</ele>
        <time>2012-01-07T13:52:40+01:00</time>
      </trkpt>
      <trkpt lat="43.7402" lon="6.97584">
        <ele>1064.79736</ele>
        <time>2012-01-07T13:52:44+01:00</time>
      </trkpt>
      <trkpt lat="43.74014" lon="6.97569">
        <ele>1064.31665</ele>
        <time>2012-01-07T13:52:47+01:00</time>
      </trkpt>
      <trkpt lat="43.74002" lon="6.97532">
        <ele>1061.91357</ele>
        <time>2012-01-07T13:52:55+01:00</time>
      </trkpt>
      <trkpt lat="43.73996" lon="6.97514">
        <ele>1060.47144</ele>
        <time>2012-01-07T13:53:00+01:00</time>
      </trkpt>
      <trkpt lat="43.73995" lon="6.97514">
        <ele>1060.47144</ele>
        <time>2012-01-07T13:53:07+01:00</time>
      </trkpt>
      <trkpt lat="43.73995" lon="6.97513">
        <ele>1061.43286</ele>
        <time>2012-01-07T13:53:18+01:00</time>
      </trkpt>
      <trkpt lat="43.73995" lon="6.97512">
        <ele>1060.95215</ele>
        <time>2012-01-07T13:53:32+01:00</time>
      </trkpt>
      <trkpt lat="43.73995" lon="6.97512">
        <ele>1060.95215</ele>
        <time>2012-01-07T13:53:39+01:00</time>
      </trkpt>
      <trkpt lat="43.73994" lon="6.97512">
        <ele>1060.47144</ele>
        <time>2012-01-07T13:53:59+01:00</time>
      </trkpt>
      <trkpt lat="43.73993" lon="6.97512">
        <ele>1060.95215</ele>
        <time>2012-01-07T13:54:07+01:00</time>
      </trkpt>
      <trkpt lat="43.73993" lon="6.97511">
        <ele>1060.95215</ele>
        <time>2012-01-07T13:54:16+01:00</time>
      </trkpt>
      <trkpt lat="43.73993" lon="6.97511">
        <ele>1060.47144</ele>
        <time>2012-01-07T13:54:27+01:00</time>
      </trkpt>
      <trkpt lat="43.73993" lon="6.9751">
        <ele>1060.95215</ele>
        <time>2012-01-07T13:54:37+01:00</time>
      </trkpt>
      <trkpt lat="43.73993" lon="6.97511">
        <ele>1061.43286</ele>
        <time>2012-01-07T13:54:44+01:00</time>
      </trkpt>
      <trkpt lat="43.73994" lon="6.97513">
        <ele>1062.39404</ele>
        <time>2012-01-07T13:54:51+01:00</time>
      </trkpt>
      <trkpt lat="43.73994" lon="6.97513">
        <ele>1062.87476</ele>
        <time>2012-01-07T13:55:10+01:00</time>
      </trkpt>
      <trkpt lat="43.73994" lon="6.97513">
        <ele>1062.87476</ele>
        <time>2012-01-07T13:55:19+01:00</time>
      </trkpt>
      <trkpt lat="43.73993" lon="6.97512">
        <ele>1064.79736</ele>
        <time>2012-01-07T13:55:47+01:00</time>
      </trkpt>
      <trkpt lat="43.73989" lon="6.97495">
        <ele>1061.91357</ele>
        <time>2012-01-07T13:55:52+01:00</time>
      </trkpt>
      <trkpt lat="43.73985" lon="6.97478">
        <ele>1058.54883</ele>
        <time>2012-01-07T13:55:57+01:00</time>
      </trkpt>
      <trkpt lat="43.73982" lon="6.97461">
        <ele>1054.70361</ele>
        <time>2012-01-07T13:56:02+01:00</time>
      </trkpt>
      <trkpt lat="43.73981" lon="6.97456">
        <ele>1054.22314</ele>
        <time>2012-01-07T13:56:03+01:00</time>
      </trkpt>
      <trkpt lat="43.73968" lon="6.97437">
        <ele>1049.89697</ele>
        <time>2012-01-07T13:56:08+01:00</time>
      </trkpt>
      <trkpt lat="43.73967" lon="6.97436">
        <ele>1049.41626</ele>
        <time>2012-01-07T13:56:12+01:00</time>
      </trkpt>
      <trkpt lat="43.7397" lon="6.97438">
        <ele>1049.41626</ele>
        <time>2012-01-07T13:56:18+01:00</time>
      </trkpt>
      <trkpt lat="43.7397" lon="6.97439">
        <ele>1049.89697</ele>
        <time>2012-01-07T13:56:29+01:00</time>
      </trkpt>
      <trkpt lat="43.73972" lon="6.97441">
        <ele>1051.33887</ele>
        <time>2012-01-07T13:56:39+01:00</time>
      </trkpt>
      <trkpt lat="43.73972" lon="6.97441">
        <ele>1050.85815</ele>
        <time>2012-01-07T13:56:49+01:00</time>
      </trkpt>
      <trkpt lat="43.73972" lon="6.97441">
        <ele>1050.85815</ele>
        <time>2012-01-07T13:57:07+01:00</time>
      </trkpt>
      <trkpt lat="43.73971" lon="6.97442">
        <ele>1050.37769</ele>
        <time>2012-01-07T13:57:18+01:00</time>
      </trkpt>
      <trkpt lat="43.73969" lon="6.97441">
        <ele>1049.41626</ele>
        <time>2012-01-07T13:57:34+01:00</time>
      </trkpt>
      <trkpt lat="43.73968" lon="6.97438">
        <ele>1050.85815</ele>
        <time>2012-01-07T13:57:44+01:00</time>
      </trkpt>
      <trkpt lat="43.73968" lon="6.97438">
        <ele>1052.78101</ele>
        <time>2012-01-07T13:57:54+01:00</time>
      </trkpt>
      <trkpt lat="43.73969" lon="6.97439">
        <ele>1051.81958</ele>
        <time>2012-01-07T13:58:07+01:00</time>
      </trkpt>
      <trkpt lat="43.73971" lon="6.97442">
        <ele>1048.93555</ele>
        <time>2012-01-07T13:58:27+01:00</time>
      </trkpt>
      <trkpt lat="43.7397" lon="6.97441">
        <ele>1050.37769</ele>
        <time>2012-01-07T13:58:42+01:00</time>
      </trkpt>
      <trkpt lat="43.73964" lon="6.97444">
        <ele>1053.74243</ele>
        <time>2012-01-07T13:59:00+01:00</time>
      </trkpt>
      <trkpt lat="43.73964" lon="6.97438">
        <ele>1054.22314</ele>
        <time>2012-01-07T13:59:16+01:00</time>
      </trkpt>
      <trkpt lat="43.73968" lon="6.97437">
        <ele>1052.78101</ele>
        <time>2012-01-07T13:59:30+01:00</time>
      </trkpt>
      <trkpt lat="43.73969" lon="6.97437">
        <ele>1052.78101</ele>
        <time>2012-01-07T13:59:38+01:00</time>
      </trkpt>
      <trkpt lat="43.73969" lon="6.97438">
        <ele>1052.30029</ele>
        <time>2012-01-07T13:59:43+01:00</time>
      </trkpt>
      <trkpt lat="43.73968" lon="6.97434">
        <ele>1053.26172</ele>
        <time>2012-01-07T13:59:54+01:00</time>
      </trkpt>
      <trkpt lat="43.73968" lon="6.97435">
        <ele>1050.85815</ele>
        <time>2012-01-07T14:00:12+01:00</time>
      </trkpt>
      <trkpt lat="43.73963" lon="6.97418">
        <ele>1047.97437</ele>
        <time>2012-01-07T14:00:17+01:00</time>
      </trkpt>
      <trkpt lat="43.73957" lon="6.97401">
        <ele>1045.09033</ele>
        <time>2012-01-07T14:00:21+01:00</time>
      </trkpt>
      <trkpt lat="43.7395" lon="6.97384">
        <ele>1042.68726</ele>
        <time>2012-01-07T14:00:26+01:00</time>
      </trkpt>
      <trkpt lat="43.73945" lon="6.97369">
        <ele>1039.32251</ele>
        <time>2012-01-07T14:00:32+01:00</time>
      </trkpt>
      <trkpt lat="43.73931" lon="6.97362">
        <ele>1036.91919</ele>
        <time>2012-01-07T14:00:37+01:00</time>
      </trkpt>
      <trkpt lat="43.73925" lon="6.97362">
        <ele>1036.91919</ele>
        <time>2012-01-07T14:00:39+01:00</time>
      </trkpt>
      <trkpt lat="43.73923" lon="6.97362">
        <ele>1037.3999</ele>
        <time>2012-01-07T14:00:45+01:00</time>
      </trkpt>
      <trkpt lat="43.73922" lon="6.97362">
        <ele>1036.43872</ele>
        <time>2012-01-07T14:00:50+01:00</time>
      </trkpt>
      <trkpt lat="43.73921" lon="6.97362">
        <ele>1036.43872</ele>
        <time>2012-01-07T14:00:57+01:00</time>
      </trkpt>
      <trkpt lat="43.73921" lon="6.97362">
        <ele>1037.3999</ele>
        <time>2012-01-07T14:01:08+01:00</time>
      </trkpt>
      <trkpt lat="43.7392" lon="6.9736">
        <ele>1038.36133</ele>
        <time>2012-01-07T14:01:14+01:00</time>
      </trkpt>
      <trkpt lat="43.73918" lon="6.97359">
        <ele>1038.36133</ele>
        <time>2012-01-07T14:01:21+01:00</time>
      </trkpt>
      <trkpt lat="43.73918" lon="6.97359">
        <ele>1039.32251</ele>
        <time>2012-01-07T14:01:27+01:00</time>
      </trkpt>
      <trkpt lat="43.73917" lon="6.9736">
        <ele>1041.24512</ele>
        <time>2012-01-07T14:01:36+01:00</time>
      </trkpt>
      <trkpt lat="43.73917" lon="6.9736">
        <ele>1041.72583</ele>
        <time>2012-01-07T14:01:44+01:00</time>
      </trkpt>
      <trkpt lat="43.73917" lon="6.9736">
        <ele>1040.7644</ele>
        <time>2012-01-07T14:01:50+01:00</time>
      </trkpt>
      <trkpt lat="43.73916" lon="6.97361">
        <ele>1040.7644</ele>
        <time>2012-01-07T14:01:58+01:00</time>
      </trkpt>
      <trkpt lat="43.73917" lon="6.97361">
        <ele>1041.72583</ele>
        <time>2012-01-07T14:02:04+01:00</time>
      </trkpt>
      <trkpt lat="43.73917" lon="6.97359">
        <ele>1041.24512</ele>
        <time>2012-01-07T14:02:25+01:00</time>
      </trkpt>
      <trkpt lat="43.73918" lon="6.9736">
        <ele>1042.20654</ele>
        <time>2012-01-07T14:02:43+01:00</time>
      </trkpt>
      <trkpt lat="43.73918" lon="6.97363">
        <ele>1044.60962</ele>
        <time>2012-01-07T14:02:54+01:00</time>
      </trkpt>
      <trkpt lat="43.73918" lon="6.97363">
        <ele>1046.53247</ele>
        <time>2012-01-07T14:03:02+01:00</time>
      </trkpt>
      <trkpt lat="43.73918" lon="6.97363">
        <ele>1046.53247</ele>
        <time>2012-01-07T14:03:07+01:00</time>
      </trkpt>
      <trkpt lat="43.73916" lon="6.97365">
        <ele>1048.45483</ele>
        <time>2012-01-07T14:03:22+01:00</time>
      </trkpt>
      <trkpt lat="43.73917" lon="6.97363">
        <ele>1046.05176</ele>
        <time>2012-01-07T14:03:33+01:00</time>
      </trkpt>
      <trkpt lat="43.73917" lon="6.9736">
        <ele>1044.12915</ele>
        <time>2012-01-07T14:03:45+01:00</time>
      </trkpt>
      <trkpt lat="43.73917" lon="6.9736">
        <ele>1044.12915</ele>
        <time>2012-01-07T14:03:52+01:00</time>
      </trkpt>
      <trkpt lat="43.73917" lon="6.9736">
        <ele>1044.60962</ele>
        <time>2012-01-07T14:03:58+01:00</time>
      </trkpt>
      <trkpt lat="43.73918" lon="6.97363">
        <ele>1040.28394</ele>
        <time>2012-01-07T14:04:10+01:00</time>
      </trkpt>
      <trkpt lat="43.73919" lon="6.97362">
        <ele>1037.3999</ele>
        <time>2012-01-07T14:04:21+01:00</time>
      </trkpt>
      <trkpt lat="43.73918" lon="6.97361">
        <ele>1036.91919</ele>
        <time>2012-01-07T14:04:27+01:00</time>
      </trkpt>
      <trkpt lat="43.73914" lon="6.97361">
        <ele>1037.88062</ele>
        <time>2012-01-07T14:04:33+01:00</time>
      </trkpt>
      <trkpt lat="43.73907" lon="6.97372">
        <ele>1038.84204</ele>
        <time>2012-01-07T14:04:41+01:00</time>
      </trkpt>
      <trkpt lat="43.73903" lon="6.97385">
        <ele>1037.88062</ele>
        <time>2012-01-07T14:04:46+01:00</time>
      </trkpt>
      <trkpt lat="43.73893" lon="6.97398">
        <ele>1036.43872</ele>
        <time>2012-01-07T14:04:51+01:00</time>
      </trkpt>
      <trkpt lat="43.73891" lon="6.974">
        <ele>1036.43872</ele>
        <time>2012-01-07T14:04:52+01:00</time>
      </trkpt>
      <trkpt lat="43.73885" lon="6.97393">
        <ele>1034.03516</ele>
        <time>2012-01-07T14:04:56+01:00</time>
      </trkpt>
      <trkpt lat="43.73872" lon="6.97384">
        <ele>1032.59326</ele>
        <time>2012-01-07T14:05:00+01:00</time>
      </trkpt>
      <trkpt lat="43.7385" lon="6.97381">
        <ele>1028.74805</ele>
        <time>2012-01-07T14:05:06+01:00</time>
      </trkpt>
      <trkpt lat="43.73844" lon="6.97386">
        <ele>1029.22852</ele>
        <time>2012-01-07T14:05:08+01:00</time>
      </trkpt>
      <trkpt lat="43.73842" lon="6.97385">
        <ele>1032.59326</ele>
        <time>2012-01-07T14:05:15+01:00</time>
      </trkpt>
      <trkpt lat="43.7384" lon="6.9739">
        <ele>1034.99658</ele>
        <time>2012-01-07T14:05:29+01:00</time>
      </trkpt>
      <trkpt lat="43.73837" lon="6.9739">
        <ele>1034.51587</ele>
        <time>2012-01-07T14:05:40+01:00</time>
      </trkpt>
      <trkpt lat="43.7383" lon="6.97399">
        <ele>1035.95776</ele>
        <time>2012-01-07T14:05:45+01:00</time>
      </trkpt>
      <trkpt lat="43.73816" lon="6.97416">
        <ele>1034.51587</ele>
        <time>2012-01-07T14:05:50+01:00</time>
      </trkpt>
      <trkpt lat="43.73793" lon="6.97429">
        <ele>1034.99658</ele>
        <time>2012-01-07T14:05:56+01:00</time>
      </trkpt>
      <trkpt lat="43.73781" lon="6.97435">
        <ele>1034.99658</ele>
        <time>2012-01-07T14:05:59+01:00</time>
      </trkpt>
      <trkpt lat="43.73772" lon="6.97435">
        <ele>1034.99658</ele>
        <time>2012-01-07T14:06:01+01:00</time>
      </trkpt>
      <trkpt lat="43.7375" lon="6.9744">
        <ele>1034.51587</ele>
        <time>2012-01-07T14:06:06+01:00</time>
      </trkpt>
      <trkpt lat="43.7374" lon="6.97444">
        <ele>1034.51587</ele>
        <time>2012-01-07T14:06:08+01:00</time>
      </trkpt>
      <trkpt lat="43.7372" lon="6.9745">
        <ele>1034.99658</ele>
        <time>2012-01-07T14:06:12+01:00</time>
      </trkpt>
      <trkpt lat="43.73692" lon="6.97455">
        <ele>1035.47705</ele>
        <time>2012-01-07T14:06:18+01:00</time>
      </trkpt>
      <trkpt lat="43.73675" lon="6.9746">
        <ele>1034.99658</ele>
        <time>2012-01-07T14:06:22+01:00</time>
      </trkpt>
      <trkpt lat="43.73665" lon="6.97463">
        <ele>1034.51587</ele>
        <time>2012-01-07T14:06:25+01:00</time>
      </trkpt>
      <trkpt lat="43.73642" lon="6.97469">
        <ele>1034.99658</ele>
        <time>2012-01-07T14:06:32+01:00</time>
      </trkpt>
      <trkpt lat="43.7363" lon="6.9747">
        <ele>1034.99658</ele>
        <time>2012-01-07T14:06:37+01:00</time>
      </trkpt>
      <trkpt lat="43.73627" lon="6.97471">
        <ele>1034.51587</ele>
        <time>2012-01-07T14:06:39+01:00</time>
      </trkpt>
      <trkpt lat="43.73615" lon="6.97467">
        <ele>1034.03516</ele>
        <time>2012-01-07T14:06:45+01:00</time>
      </trkpt>
      <trkpt lat="43.73607" lon="6.97465">
        <ele>1034.51587</ele>
        <time>2012-01-07T14:06:48+01:00</time>
      </trkpt>
      <trkpt lat="43.73592" lon="6.97458">
        <ele>1034.99658</ele>
        <time>2012-01-07T14:06:54+01:00</time>
      </trkpt>
      <trkpt lat="43.73578" lon="6.97455">
        <ele>1034.51587</ele>
        <time>2012-01-07T14:06:59+01:00</time>
      </trkpt>
      <trkpt lat="43.73574" lon="6.97453">
        <ele>1034.03516</ele>
        <time>2012-01-07T14:07:03+01:00</time>
      </trkpt>
      <trkpt lat="43.73568" lon="6.97448">
        <ele>1033.07373</ele>
        <time>2012-01-07T14:07:07+01:00</time>
      </trkpt>
      <trkpt lat="43.73555" lon="6.97434">
        <ele>1032.11255</ele>
        <time>2012-01-07T14:07:12+01:00</time>
      </trkpt>
      <trkpt lat="43.73544" lon="6.97418">
        <ele>1031.15137</ele>
        <time>2012-01-07T14:07:17+01:00</time>
      </trkpt>
      <trkpt lat="43.73536" lon="6.97395">
        <ele>1028.74805</ele>
        <time>2012-01-07T14:07:22+01:00</time>
      </trkpt>
      <trkpt lat="43.73525" lon="6.97362">
        <ele>1025.3833</ele>
        <time>2012-01-07T14:07:28+01:00</time>
      </trkpt>
      <trkpt lat="43.73504" lon="6.97348">
        <ele>1024.42212</ele>
        <time>2012-01-07T14:07:33+01:00</time>
      </trkpt>
      <trkpt lat="43.73496" lon="6.97345">
        <ele>1024.42212</ele>
        <time>2012-01-07T14:07:35+01:00</time>
      </trkpt>
      <trkpt lat="43.7349" lon="6.97341">
        <ele>1024.42212</ele>
        <time>2012-01-07T14:07:37+01:00</time>
      </trkpt>
      <trkpt lat="43.73484" lon="6.97339">
        <ele>1024.90283</ele>
        <time>2012-01-07T14:07:39+01:00</time>
      </trkpt>
      <trkpt lat="43.73464" lon="6.97331">
        <ele>1025.86401</ele>
        <time>2012-01-07T14:07:45+01:00</time>
      </trkpt>
      <trkpt lat="43.73449" lon="6.97326">
        <ele>1025.86401</ele>
        <time>2012-01-07T14:07:49+01:00</time>
      </trkpt>
      <trkpt lat="43.73433" lon="6.97318">
        <ele>1026.82544</ele>
        <time>2012-01-07T14:07:54+01:00</time>
      </trkpt>
      <trkpt lat="43.73431" lon="6.97317">
        <ele>1026.82544</ele>
        <time>2012-01-07T14:07:55+01:00</time>
      </trkpt>
      <trkpt lat="43.73426" lon="6.97315">
        <ele>1027.30615</ele>
        <time>2012-01-07T14:08:00+01:00</time>
      </trkpt>
      <trkpt lat="43.73426" lon="6.97315">
        <ele>1027.30615</ele>
        <time>2012-01-07T14:08:08+01:00</time>
      </trkpt>
      <trkpt lat="43.73424" lon="6.97314">
        <ele>1027.30615</ele>
        <time>2012-01-07T14:08:15+01:00</time>
      </trkpt>
      <trkpt lat="43.73423" lon="6.97313">
        <ele>1027.30615</ele>
        <time>2012-01-07T14:08:16+01:00</time>
      </trkpt>
      <trkpt lat="43.73405" lon="6.97305">
        <ele>1028.74805</ele>
        <time>2012-01-07T14:08:22+01:00</time>
      </trkpt>
      <trkpt lat="43.73395" lon="6.973">
        <ele>1028.74805</ele>
        <time>2012-01-07T14:08:25+01:00</time>
      </trkpt>
      <trkpt lat="43.73372" lon="6.97289">
        <ele>1028.74805</ele>
        <time>2012-01-07T14:08:32+01:00</time>
      </trkpt>
      <trkpt lat="43.73352" lon="6.97281">
        <ele>1028.26733</ele>
        <time>2012-01-07T14:08:37+01:00</time>
      </trkpt>
      <trkpt lat="43.73344" lon="6.97277">
        <ele>1027.78662</ele>
        <time>2012-01-07T14:08:39+01:00</time>
      </trkpt>
      <trkpt lat="43.73321" lon="6.97267">
        <ele>1028.26733</ele>
        <time>2012-01-07T14:08:45+01:00</time>
      </trkpt>
      <trkpt lat="43.73299" lon="6.97258">
        <ele>1030.67065</ele>
        <time>2012-01-07T14:08:54+01:00</time>
      </trkpt>
      <trkpt lat="43.73286" lon="6.97251">
        <ele>1032.59326</ele>
        <time>2012-01-07T14:09:00+01:00</time>
      </trkpt>
      <trkpt lat="43.73274" lon="6.97246">
        <ele>1033.07373</ele>
        <time>2012-01-07T14:09:06+01:00</time>
      </trkpt>
      <trkpt lat="43.7326" lon="6.9724">
        <ele>1034.03516</ele>
        <time>2012-01-07T14:09:12+01:00</time>
      </trkpt>
      <trkpt lat="43.73245" lon="6.97233">
        <ele>1035.47705</ele>
        <time>2012-01-07T14:09:18+01:00</time>
      </trkpt>
      <trkpt lat="43.7323" lon="6.97227">
        <ele>1036.91919</ele>
        <time>2012-01-07T14:09:24+01:00</time>
      </trkpt>
      <trkpt lat="43.73213" lon="6.9722">
        <ele>1037.3999</ele>
        <time>2012-01-07T14:09:31+01:00</time>
      </trkpt>
      <trkpt lat="43.73195" lon="6.97212">
        <ele>1036.91919</ele>
        <time>2012-01-07T14:09:38+01:00</time>
      </trkpt>
      <trkpt lat="43.73177" lon="6.97203">
        <ele>1035.47705</ele>
        <time>2012-01-07T14:09:43+01:00</time>
      </trkpt>
      <trkpt lat="43.73153" lon="6.97194">
        <ele>1034.99658</ele>
        <time>2012-01-07T14:09:49+01:00</time>
      </trkpt>
      <trkpt lat="43.73149" lon="6.97193">
        <ele>1034.51587</ele>
        <time>2012-01-07T14:09:50+01:00</time>
      </trkpt>
      <trkpt lat="43.73134" lon="6.97185">
        <ele>1034.03516</ele>
        <time>2012-01-07T14:09:54+01:00</time>
      </trkpt>
      <trkpt lat="43.73099" lon="6.97171">
        <ele>1033.07373</ele>
        <time>2012-01-07T14:10:02+01:00</time>
      </trkpt>
      <trkpt lat="43.73081" lon="6.97163">
        <ele>1034.51587</ele>
        <time>2012-01-07T14:10:08+01:00</time>
      </trkpt>
      <trkpt lat="43.73067" lon="6.97157">
        <ele>1034.51587</ele>
        <time>2012-01-07T14:10:13+01:00</time>
      </trkpt>
      <trkpt lat="43.73048" lon="6.97149">
        <ele>1035.47705</ele>
        <time>2012-01-07T14:10:20+01:00</time>
      </trkpt>
      <trkpt lat="43.73033" lon="6.97142">
        <ele>1035.95776</ele>
        <time>2012-01-07T14:10:26+01:00</time>
      </trkpt>
      <trkpt lat="43.73021" lon="6.97137">
        <ele>1036.43872</ele>
        <time>2012-01-07T14:10:33+01:00</time>
      </trkpt>
      <trkpt lat="43.73013" lon="6.97128">
        <ele>1035.47705</ele>
        <time>2012-01-07T14:10:38+01:00</time>
      </trkpt>
      <trkpt lat="43.73005" lon="6.97118">
        <ele>1034.99658</ele>
        <time>2012-01-07T14:10:44+01:00</time>
      </trkpt>
      <trkpt lat="43.73003" lon="6.97117">
        <ele>1034.51587</ele>
        <time>2012-01-07T14:10:48+01:00</time>
      </trkpt>
      <trkpt lat="43.73003" lon="6.97117">
        <ele>1034.99658</ele>
        <time>2012-01-07T14:10:54+01:00</time>
      </trkpt>
      <trkpt lat="43.73004" lon="6.97117">
        <ele>1034.51587</ele>
        <time>2012-01-07T14:11:03+01:00</time>
      </trkpt>
      <trkpt lat="43.73004" lon="6.97118">
        <ele>1034.51587</ele>
        <time>2012-01-07T14:11:07+01:00</time>
      </trkpt>
      <trkpt lat="43.73003" lon="6.97118">
        <ele>1034.99658</ele>
        <time>2012-01-07T14:11:16+01:00</time>
      </trkpt>
      <trkpt lat="43.73004" lon="6.97119">
        <ele>1034.03516</ele>
        <time>2012-01-07T14:11:29+01:00</time>
      </trkpt>
      <trkpt lat="43.73003" lon="6.97118">
        <ele>1034.03516</ele>
        <time>2012-01-07T14:11:31+01:00</time>
      </trkpt>
      <trkpt lat="43.72996" lon="6.97111">
        <ele>1033.55444</ele>
        <time>2012-01-07T14:11:37+01:00</time>
      </trkpt>
      <trkpt lat="43.72992" lon="6.97111">
        <ele>1032.59326</ele>
        <time>2012-01-07T14:11:43+01:00</time>
      </trkpt>
      <trkpt lat="43.72991" lon="6.9711">
        <ele>1031.63184</ele>
        <time>2012-01-07T14:11:56+01:00</time>
      </trkpt>
      <trkpt lat="43.72993" lon="6.97108">
        <ele>1030.67065</ele>
        <time>2012-01-07T14:12:28+01:00</time>
      </trkpt>
      <trkpt lat="43.72993" lon="6.97108">
        <ele>1030.18994</ele>
        <time>2012-01-07T14:12:39+01:00</time>
      </trkpt>
      <trkpt lat="43.72993" lon="6.97107">
        <ele>1029.22852</ele>
        <time>2012-01-07T14:12:45+01:00</time>
      </trkpt>
      <trkpt lat="43.72994" lon="6.97106">
        <ele>1029.22852</ele>
        <time>2012-01-07T14:12:55+01:00</time>
      </trkpt>
      <trkpt lat="43.72994" lon="6.97107">
        <ele>1030.18994</ele>
        <time>2012-01-07T14:13:01+01:00</time>
      </trkpt>
      <trkpt lat="43.72992" lon="6.97108">
        <ele>1031.15137</ele>
        <time>2012-01-07T14:13:06+01:00</time>
      </trkpt>
      <trkpt lat="43.72991" lon="6.97111">
        <ele>1031.15137</ele>
        <time>2012-01-07T14:13:19+01:00</time>
      </trkpt>
      <trkpt lat="43.72991" lon="6.9711">
        <ele>1030.18994</ele>
        <time>2012-01-07T14:13:25+01:00</time>
      </trkpt>
      <trkpt lat="43.72992" lon="6.97109">
        <ele>1030.18994</ele>
        <time>2012-01-07T14:13:29+01:00</time>
      </trkpt>
      <trkpt lat="43.72995" lon="6.97106">
        <ele>1030.18994</ele>
        <time>2012-01-07T14:13:35+01:00</time>
      </trkpt>
      <trkpt lat="43.72996" lon="6.97107">
        <ele>1030.18994</ele>
        <time>2012-01-07T14:13:40+01:00</time>
      </trkpt>
      <trkpt lat="43.72997" lon="6.97108">
        <ele>1030.67065</ele>
        <time>2012-01-07T14:13:45+01:00</time>
      </trkpt>
      <trkpt lat="43.72998" lon="6.97109">
        <ele>1031.15137</ele>
        <time>2012-01-07T14:13:53+01:00</time>
      </trkpt>
      <trkpt lat="43.72997" lon="6.97108">
        <ele>1031.15137</ele>
        <time>2012-01-07T14:13:54+01:00</time>
      </trkpt>
      <trkpt lat="43.72994" lon="6.97107">
        <ele>1031.15137</ele>
        <time>2012-01-07T14:13:56+01:00</time>
      </trkpt>
      <trkpt lat="43.7299" lon="6.97111">
        <ele>1030.18994</ele>
        <time>2012-01-07T14:14:00+01:00</time>
      </trkpt>
      <trkpt lat="43.7299" lon="6.97113">
        <ele>1029.70923</ele>
        <time>2012-01-07T14:14:01+01:00</time>
      </trkpt>
      <trkpt lat="43.7299" lon="6.97111">
        <ele>1029.70923</ele>
        <time>2012-01-07T14:14:07+01:00</time>
      </trkpt>
      <trkpt lat="43.72993" lon="6.97108">
        <ele>1029.70923</ele>
        <time>2012-01-07T14:14:12+01:00</time>
      </trkpt>
      <trkpt lat="43.72992" lon="6.97109">
        <ele>1030.18994</ele>
        <time>2012-01-07T14:14:19+01:00</time>
      </trkpt>
      <trkpt lat="43.72993" lon="6.97108">
        <ele>1030.18994</ele>
        <time>2012-01-07T14:14:26+01:00</time>
      </trkpt>
      <trkpt lat="43.72994" lon="6.97107">
        <ele>1030.67065</ele>
        <time>2012-01-07T14:14:27+01:00</time>
      </trkpt>
      <trkpt lat="43.72998" lon="6.97109">
        <ele>1030.67065</ele>
        <time>2012-01-07T14:14:30+01:00</time>
      </trkpt>
      <trkpt lat="43.72998" lon="6.97112">
        <ele>1031.63184</ele>
        <time>2012-01-07T14:14:36+01:00</time>
      </trkpt>
      <trkpt lat="43.72999" lon="6.97113">
        <ele>1031.63184</ele>
        <time>2012-01-07T14:14:39+01:00</time>
      </trkpt>
      <trkpt lat="43.72999" lon="6.97113">
        <ele>1032.11255</ele>
        <time>2012-01-07T14:14:46+01:00</time>
      </trkpt>
      <trkpt lat="43.72999" lon="6.97113">
        <ele>1033.55444</ele>
        <time>2012-01-07T14:14:52+01:00</time>
      </trkpt>
      <trkpt lat="43.72998" lon="6.97112">
        <ele>1033.55444</ele>
        <time>2012-01-07T14:14:59+01:00</time>
      </trkpt>
      <trkpt lat="43.72999" lon="6.97111">
        <ele>1033.07373</ele>
        <time>2012-01-07T14:15:05+01:00</time>
      </trkpt>
      <trkpt lat="43.72997" lon="6.9711">
        <ele>1033.07373</ele>
        <time>2012-01-07T14:15:07+01:00</time>
      </trkpt>
      <trkpt lat="43.7299" lon="6.97109">
        <ele>1032.11255</ele>
        <time>2012-01-07T14:15:11+01:00</time>
      </trkpt>
      <trkpt lat="43.7299" lon="6.97114">
        <ele>1031.15137</ele>
        <time>2012-01-07T14:15:13+01:00</time>
      </trkpt>
      <trkpt lat="43.72992" lon="6.97118">
        <ele>1030.67065</ele>
        <time>2012-01-07T14:15:15+01:00</time>
      </trkpt>
      <trkpt lat="43.72994" lon="6.97119">
        <ele>1029.70923</ele>
        <time>2012-01-07T14:15:18+01:00</time>
      </trkpt>
      <trkpt lat="43.72997" lon="6.97134">
        <ele>1027.30615</ele>
        <time>2012-01-07T14:15:23+01:00</time>
      </trkpt>
      <trkpt lat="43.72992" lon="6.97132">
        <ele>1025.3833</ele>
        <time>2012-01-07T14:15:27+01:00</time>
      </trkpt>
      <trkpt lat="43.72985" lon="6.97127">
        <ele>1023.46094</ele>
        <time>2012-01-07T14:15:31+01:00</time>
      </trkpt>
      <trkpt lat="43.72985" lon="6.97129">
        <ele>1023.46094</ele>
        <time>2012-01-07T14:15:32+01:00</time>
      </trkpt>
      <trkpt lat="43.72989" lon="6.97146">
        <ele>1020.5769</ele>
        <time>2012-01-07T14:15:36+01:00</time>
      </trkpt>
      <trkpt lat="43.72992" lon="6.97161">
        <ele>1018.17334</ele>
        <time>2012-01-07T14:15:40+01:00</time>
      </trkpt>
      <trkpt lat="43.72992" lon="6.97174">
        <ele>1014.80884</ele>
        <time>2012-01-07T14:15:45+01:00</time>
      </trkpt>
      <trkpt lat="43.72992" lon="6.97188">
        <ele>1011.92505</ele>
        <time>2012-01-07T14:15:48+01:00</time>
      </trkpt>
      <trkpt lat="43.7299" lon="6.9721">
        <ele>1008.5603</ele>
        <time>2012-01-07T14:15:52+01:00</time>
      </trkpt>
      <trkpt lat="43.72982" lon="6.97236">
        <ele>1003.75366</ele>
        <time>2012-01-07T14:15:57+01:00</time>
      </trkpt>
      <trkpt lat="43.7298" lon="6.97241">
        <ele>1003.27295</ele>
        <time>2012-01-07T14:15:58+01:00</time>
      </trkpt>
      <trkpt lat="43.72973" lon="6.97257">
        <ele>1001.35034</ele>
        <time>2012-01-07T14:16:01+01:00</time>
      </trkpt>
      <trkpt lat="43.72964" lon="6.97275">
        <ele>997.98584</ele>
        <time>2012-01-07T14:16:05+01:00</time>
      </trkpt>
      <trkpt lat="43.72961" lon="6.97285">
        <ele>996.063232</ele>
        <time>2012-01-07T14:16:07+01:00</time>
      </trkpt>
      <trkpt lat="43.72957" lon="6.97285">
        <ele>994.140625</ele>
        <time>2012-01-07T14:16:10+01:00</time>
      </trkpt>
      <trkpt lat="43.7296" lon="6.97266">
        <ele>991.737305</ele>
        <time>2012-01-07T14:16:14+01:00</time>
      </trkpt>
      <trkpt lat="43.7296" lon="6.97261">
        <ele>990.775879</ele>
        <time>2012-01-07T14:16:15+01:00</time>
      </trkpt>
      <trkpt lat="43.72957" lon="6.9726">
        <ele>989.333984</ele>
        <time>2012-01-07T14:16:19+01:00</time>
      </trkpt>
      <trkpt lat="43.72956" lon="6.97264">
        <ele>989.333984</ele>
        <time>2012-01-07T14:16:20+01:00</time>
      </trkpt>
      <trkpt lat="43.72942" lon="6.97294">
        <ele>985.969238</ele>
        <time>2012-01-07T14:16:26+01:00</time>
      </trkpt>
      <trkpt lat="43.72937" lon="6.97304">
        <ele>985.008057</ele>
        <time>2012-01-07T14:16:28+01:00</time>
      </trkpt>
      <trkpt lat="43.72933" lon="6.97301">
        <ele>984.046631</ele>
        <time>2012-01-07T14:16:32+01:00</time>
      </trkpt>
      <trkpt lat="43.72936" lon="6.9728">
        <ele>982.124023</ele>
        <time>2012-01-07T14:16:36+01:00</time>
      </trkpt>
      <trkpt lat="43.72942" lon="6.97247">
        <ele>977.317627</ele>
        <time>2012-01-07T14:16:42+01:00</time>
      </trkpt>
      <trkpt lat="43.72936" lon="6.9725">
        <ele>975.875488</ele>
        <time>2012-01-07T14:16:46+01:00</time>
      </trkpt>
      <trkpt lat="43.72931" lon="6.97267">
        <ele>974.914307</ele>
        <time>2012-01-07T14:16:49+01:00</time>
      </trkpt>
      <trkpt lat="43.72915" lon="6.973">
        <ele>972.510986</ele>
        <time>2012-01-07T14:16:55+01:00</time>
      </trkpt>
      <trkpt lat="43.72906" lon="6.97316">
        <ele>971.068848</ele>
        <time>2012-01-07T14:16:58+01:00</time>
      </trkpt>
      <trkpt lat="43.72885" lon="6.97348">
        <ele>967.704102</ele>
        <time>2012-01-07T14:17:04+01:00</time>
      </trkpt>
      <trkpt lat="43.72883" lon="6.97352">
        <ele>967.223633</ele>
        <time>2012-01-07T14:17:05+01:00</time>
      </trkpt>
      <trkpt lat="43.72881" lon="6.97345">
        <ele>964.3396</ele>
        <time>2012-01-07T14:17:09+01:00</time>
      </trkpt>
      <trkpt lat="43.72893" lon="6.97305">
        <ele>960.013672</ele>
        <time>2012-01-07T14:17:15+01:00</time>
      </trkpt>
      <trkpt lat="43.72895" lon="6.97285">
        <ele>957.129883</ele>
        <time>2012-01-07T14:17:18+01:00</time>
      </trkpt>
      <trkpt lat="43.72898" lon="6.97269">
        <ele>954.24585</ele>
        <time>2012-01-07T14:17:23+01:00</time>
      </trkpt>
      <trkpt lat="43.72901" lon="6.97263">
        <ele>952.322998</ele>
        <time>2012-01-07T14:17:28+01:00</time>
      </trkpt>
      <trkpt lat="43.72898" lon="6.97263">
        <ele>951.361816</ele>
        <time>2012-01-07T14:17:32+01:00</time>
      </trkpt>
      <trkpt lat="43.72886" lon="6.97281">
        <ele>949.439209</ele>
        <time>2012-01-07T14:17:37+01:00</time>
      </trkpt>
      <trkpt lat="43.72873" lon="6.97297">
        <ele>946.55542</ele>
        <time>2012-01-07T14:17:41+01:00</time>
      </trkpt>
      <trkpt lat="43.72867" lon="6.97304">
        <ele>945.593994</ele>
        <time>2012-01-07T14:17:43+01:00</time>
      </trkpt>
      <trkpt lat="43.72865" lon="6.973">
        <ele>943.671387</ele>
        <time>2012-01-07T14:17:47+01:00</time>
      </trkpt>
      <trkpt lat="43.72868" lon="6.97286">
        <ele>942.229492</ele>
        <time>2012-01-07T14:17:50+01:00</time>
      </trkpt>
      <trkpt lat="43.72875" lon="6.97258">
        <ele>936.941895</ele>
        <time>2012-01-07T14:17:55+01:00</time>
      </trkpt>
      <trkpt lat="43.72872" lon="6.97256">
        <ele>935.019531</ele>
        <time>2012-01-07T14:17:59+01:00</time>
      </trkpt>
      <trkpt lat="43.7286" lon="6.97282">
        <ele>932.135498</ele>
        <time>2012-01-07T14:18:04+01:00</time>
      </trkpt>
      <trkpt lat="43.72844" lon="6.97307">
        <ele>929.251465</ele>
        <time>2012-01-07T14:18:09+01:00</time>
      </trkpt>
      <trkpt lat="43.72836" lon="6.97321">
        <ele>927.80957</ele>
        <time>2012-01-07T14:18:11+01:00</time>
      </trkpt>
      <trkpt lat="43.72822" lon="6.97349">
        <ele>924.925781</ele>
        <time>2012-01-07T14:18:15+01:00</time>
      </trkpt>
      <trkpt lat="43.72808" lon="6.97369">
        <ele>922.522217</ele>
        <time>2012-01-07T14:18:18+01:00</time>
      </trkpt>
      <trkpt lat="43.72794" lon="6.97386">
        <ele>919.638428</ele>
        <time>2012-01-07T14:18:21+01:00</time>
      </trkpt>
      <trkpt lat="43.72783" lon="6.97412">
        <ele>917.235107</ele>
        <time>2012-01-07T14:18:25+01:00</time>
      </trkpt>
      <trkpt lat="43.72779" lon="6.97415">
        <ele>916.273682</ele>
        <time>2012-01-07T14:18:26+01:00</time>
      </trkpt>
      <trkpt lat="43.72759" lon="6.97428">
        <ele>913.389893</ele>
        <time>2012-01-07T14:18:31+01:00</time>
      </trkpt>
      <trkpt lat="43.72759" lon="6.97422">
        <ele>911.947998</ele>
        <time>2012-01-07T14:18:33+01:00</time>
      </trkpt>
      <trkpt lat="43.72761" lon="6.97417">
        <ele>910.505859</ele>
        <time>2012-01-07T14:18:35+01:00</time>
      </trkpt>
      <trkpt lat="43.7277" lon="6.974">
        <ele>908.102783</ele>
        <time>2012-01-07T14:18:39+01:00</time>
      </trkpt>
      <trkpt lat="43.72773" lon="6.97368">
        <ele>903.776611</ele>
        <time>2012-01-07T14:18:44+01:00</time>
      </trkpt>
      <trkpt lat="43.72774" lon="6.9736">
        <ele>903.295898</ele>
        <time>2012-01-07T14:18:45+01:00</time>
      </trkpt>
      <trkpt lat="43.72776" lon="6.97336">
        <ele>900.412109</ele>
        <time>2012-01-07T14:18:48+01:00</time>
      </trkpt>
      <trkpt lat="43.72779" lon="6.97309">
        <ele>897.528076</ele>
        <time>2012-01-07T14:18:51+01:00</time>
      </trkpt>
      <trkpt lat="43.72783" lon="6.97278">
        <ele>893.682861</ele>
        <time>2012-01-07T14:18:55+01:00</time>
      </trkpt>
      <trkpt lat="43.72782" lon="6.97264">
        <ele>890.318115</ele>
        <time>2012-01-07T14:18:59+01:00</time>
      </trkpt>
      <trkpt lat="43.72779" lon="6.9725">
        <ele>887.434082</ele>
        <time>2012-01-07T14:19:01+01:00</time>
      </trkpt>
      <trkpt lat="43.72765" lon="6.97229">
        <ele>884.06958</ele>
        <time>2012-01-07T14:19:05+01:00</time>
      </trkpt>
      <trkpt lat="43.72752" lon="6.97215">
        <ele>881.66626</ele>
        <time>2012-01-07T14:19:10+01:00</time>
      </trkpt>
      <trkpt lat="43.72748" lon="6.97186">
        <ele>878.301758</ele>
        <time>2012-01-07T14:19:14+01:00</time>
      </trkpt>
      <trkpt lat="43.72747" lon="6.97156">
        <ele>874.937012</ele>
        <time>2012-01-07T14:19:17+01:00</time>
      </trkpt>
      <trkpt lat="43.72746" lon="6.97105">
        <ele>871.572266</ele>
        <time>2012-01-07T14:19:22+01:00</time>
      </trkpt>
      <trkpt lat="43.72758" lon="6.97068">
        <ele>871.091797</ele>
        <time>2012-01-07T14:19:26+01:00</time>
      </trkpt>
      <trkpt lat="43.72761" lon="6.97027">
        <ele>868.207764</ele>
        <time>2012-01-07T14:19:30+01:00</time>
      </trkpt>
      <trkpt lat="43.72754" lon="6.97004">
        <ele>865.323975</ele>
        <time>2012-01-07T14:19:33+01:00</time>
      </trkpt>
      <trkpt lat="43.72749" lon="6.96999">
        <ele>864.843262</ele>
        <time>2012-01-07T14:19:34+01:00</time>
      </trkpt>
      <trkpt lat="43.72748" lon="6.96982">
        <ele>862.439941</ele>
        <time>2012-01-07T14:19:37+01:00</time>
      </trkpt>
      <trkpt lat="43.72756" lon="6.96956">
        <ele>860.998047</ele>
        <time>2012-01-07T14:19:41+01:00</time>
      </trkpt>
      <trkpt lat="43.72747" lon="6.96917">
        <ele>856.671875</ele>
        <time>2012-01-07T14:19:46+01:00</time>
      </trkpt>
      <trkpt lat="43.7274" lon="6.96912">
        <ele>855.710693</ele>
        <time>2012-01-07T14:19:47+01:00</time>
      </trkpt>
      <trkpt lat="43.72713" lon="6.96877">
        <ele>851.865479</ele>
        <time>2012-01-07T14:19:52+01:00</time>
      </trkpt>
      <trkpt lat="43.72711" lon="6.96845">
        <ele>848.500732</ele>
        <time>2012-01-07T14:19:57+01:00</time>
      </trkpt>
      <trkpt lat="43.72711" lon="6.96838">
        <ele>847.539551</ele>
        <time>2012-01-07T14:19:59+01:00</time>
      </trkpt>
      <trkpt lat="43.72706" lon="6.96819">
        <ele>846.097656</ele>
        <time>2012-01-07T14:20:05+01:00</time>
      </trkpt>
      <trkpt lat="43.72703" lon="6.96816">
        <ele>846.578369</ele>
        <time>2012-01-07T14:20:11+01:00</time>
      </trkpt>
      <trkpt lat="43.72703" lon="6.96816">
        <ele>846.578369</ele>
        <time>2012-01-07T14:20:16+01:00</time>
      </trkpt>
      <trkpt lat="43.72703" lon="6.96818">
        <ele>847.058838</ele>
        <time>2012-01-07T14:20:27+01:00</time>
      </trkpt>
      <trkpt lat="43.72703" lon="6.96817">
        <ele>847.539551</ele>
        <time>2012-01-07T14:20:38+01:00</time>
      </trkpt>
      <trkpt lat="43.72703" lon="6.96817">
        <ele>848.020264</ele>
        <time>2012-01-07T14:20:46+01:00</time>
      </trkpt>
      <trkpt lat="43.72704" lon="6.96818">
        <ele>847.539551</ele>
        <time>2012-01-07T14:20:57+01:00</time>
      </trkpt>
      <trkpt lat="43.72703" lon="6.96818">
        <ele>847.058838</ele>
        <time>2012-01-07T14:21:04+01:00</time>
      </trkpt>
      <trkpt lat="43.72702" lon="6.9682">
        <ele>847.058838</ele>
        <time>2012-01-07T14:21:12+01:00</time>
      </trkpt>
      <trkpt lat="43.72702" lon="6.96819">
        <ele>847.539551</ele>
        <time>2012-01-07T14:21:17+01:00</time>
      </trkpt>
      <trkpt lat="43.72702" lon="6.96817">
        <ele>846.097656</ele>
        <time>2012-01-07T14:21:23+01:00</time>
      </trkpt>
      <trkpt lat="43.72703" lon="6.96816">
        <ele>846.578369</ele>
        <time>2012-01-07T14:21:39+01:00</time>
      </trkpt>
      <trkpt lat="43.72701" lon="6.96817">
        <ele>846.097656</ele>
        <time>2012-01-07T14:21:43+01:00</time>
      </trkpt>
      <trkpt lat="43.72701" lon="6.96816">
        <ele>845.616943</ele>
        <time>2012-01-07T14:21:49+01:00</time>
      </trkpt>
      <trkpt lat="43.72701" lon="6.96816">
        <ele>843.213379</ele>
        <time>2012-01-07T14:22:10+01:00</time>
      </trkpt>
      <trkpt lat="43.72701" lon="6.96816">
        <ele>843.213379</ele>
        <time>2012-01-07T14:22:17+01:00</time>
      </trkpt>
      <trkpt lat="43.727" lon="6.96816">
        <ele>843.694092</ele>
        <time>2012-01-07T14:22:23+01:00</time>
      </trkpt>
      <trkpt lat="43.72701" lon="6.96816">
        <ele>843.694092</ele>
        <time>2012-01-07T14:22:31+01:00</time>
      </trkpt>
      <trkpt lat="43.72701" lon="6.96817">
        <ele>844.175049</ele>
        <time>2012-01-07T14:22:37+01:00</time>
      </trkpt>
      <trkpt lat="43.72702" lon="6.96817">
        <ele>844.175049</ele>
        <time>2012-01-07T14:22:44+01:00</time>
      </trkpt>
      <trkpt lat="43.72702" lon="6.96817">
        <ele>843.213379</ele>
        <time>2012-01-07T14:22:55+01:00</time>
      </trkpt>
      <trkpt lat="43.72702" lon="6.96816">
        <ele>843.694092</ele>
        <time>2012-01-07T14:23:05+01:00</time>
      </trkpt>
      <trkpt lat="43.72703" lon="6.96817">
        <ele>843.213379</ele>
        <time>2012-01-07T14:23:32+01:00</time>
      </trkpt>
      <trkpt lat="43.72702" lon="6.96816">
        <ele>843.213379</ele>
        <time>2012-01-07T14:23:39+01:00</time>
      </trkpt>
      <trkpt lat="43.72702" lon="6.96815">
        <ele>843.694092</ele>
        <time>2012-01-07T14:23:52+01:00</time>
      </trkpt>
      <trkpt lat="43.727" lon="6.96814">
        <ele>842.73291</ele>
        <time>2012-01-07T14:24:20+01:00</time>
      </trkpt>
      <trkpt lat="43.72701" lon="6.96813">
        <ele>844.655518</ele>
        <time>2012-01-07T14:24:35+01:00</time>
      </trkpt>
      <trkpt lat="43.72701" lon="6.96814">
        <ele>844.175049</ele>
        <time>2012-01-07T14:24:42+01:00</time>
      </trkpt>
      <trkpt lat="43.72701" lon="6.96815">
        <ele>844.175049</ele>
        <time>2012-01-07T14:24:48+01:00</time>
      </trkpt>
      <trkpt lat="43.72701" lon="6.96814">
        <ele>844.655518</ele>
        <time>2012-01-07T14:24:56+01:00</time>
      </trkpt>
      <trkpt lat="43.72701" lon="6.96814">
        <ele>844.655518</ele>
        <time>2012-01-07T14:25:06+01:00</time>
      </trkpt>
      <trkpt lat="43.72702" lon="6.96814">
        <ele>844.175049</ele>
        <time>2012-01-07T14:25:16+01:00</time>
      </trkpt>
      <trkpt lat="43.72702" lon="6.96815">
        <ele>843.694092</ele>
        <time>2012-01-07T14:25:24+01:00</time>
      </trkpt>
      <trkpt lat="43.72703" lon="6.96814">
        <ele>843.213379</ele>
        <time>2012-01-07T14:25:36+01:00</time>
      </trkpt>
      <trkpt lat="43.72704" lon="6.96814">
        <ele>843.213379</ele>
        <time>2012-01-07T14:25:52+01:00</time>
      </trkpt>
      <trkpt lat="43.72703" lon="6.96817">
        <ele>843.694092</ele>
        <time>2012-01-07T14:25:57+01:00</time>
      </trkpt>
      <trkpt lat="43.72701" lon="6.96817">
        <ele>844.175049</ele>
        <time>2012-01-07T14:26:01+01:00</time>
      </trkpt>
      <trkpt lat="43.72699" lon="6.96818">
        <ele>844.175049</ele>
        <time>2012-01-07T14:26:06+01:00</time>
      </trkpt>
      <trkpt lat="43.72695" lon="6.96818">
        <ele>844.175049</ele>
        <time>2012-01-07T14:26:10+01:00</time>
      </trkpt>
      <trkpt lat="43.72685" lon="6.96832">
        <ele>843.213379</ele>
        <time>2012-01-07T14:26:14+01:00</time>
      </trkpt>
      <trkpt lat="43.72669" lon="6.96841">
        <ele>842.252197</ele>
        <time>2012-01-07T14:26:17+01:00</time>
      </trkpt>
      <trkpt lat="43.72664" lon="6.96844">
        <ele>841.771484</ele>
        <time>2012-01-07T14:26:18+01:00</time>
      </trkpt>
      <trkpt lat="43.72638" lon="6.96862">
        <ele>838.406982</ele>
        <time>2012-01-07T14:26:24+01:00</time>
      </trkpt>
      <trkpt lat="43.72627" lon="6.96859">
        <ele>836.484375</ele>
        <time>2012-01-07T14:26:27+01:00</time>
      </trkpt>
      <trkpt lat="43.72606" lon="6.9684">
        <ele>832.63916</ele>
        <time>2012-01-07T14:26:31+01:00</time>
      </trkpt>
      <trkpt lat="43.72576" lon="6.96808">
        <ele>828.313232</ele>
        <time>2012-01-07T14:26:37+01:00</time>
      </trkpt>
      <trkpt lat="43.72549" lon="6.96786">
        <ele>823.987061</ele>
        <time>2012-01-07T14:26:42+01:00</time>
      </trkpt>
      <trkpt lat="43.7253" lon="6.96771">
        <ele>820.622559</ele>
        <time>2012-01-07T14:26:45+01:00</time>
      </trkpt>
      <trkpt lat="43.7251" lon="6.96752">
        <ele>817.738525</ele>
        <time>2012-01-07T14:26:48+01:00</time>
      </trkpt>
      <trkpt lat="43.725" lon="6.96749">
        <ele>815.816162</ele>
        <time>2012-01-07T14:26:51+01:00</time>
      </trkpt>
      <trkpt lat="43.72501" lon="6.96764">
        <ele>812.932129</ele>
        <time>2012-01-07T14:26:54+01:00</time>
      </trkpt>
      <trkpt lat="43.72494" lon="6.96764">
        <ele>810.528564</ele>
        <time>2012-01-07T14:26:57+01:00</time>
      </trkpt>
      <trkpt lat="43.72487" lon="6.96748">
        <ele>809.08667</ele>
        <time>2012-01-07T14:27:00+01:00</time>
      </trkpt>
      <trkpt lat="43.72486" lon="6.96741">
        <ele>808.605957</ele>
        <time>2012-01-07T14:27:01+01:00</time>
      </trkpt>
      <trkpt lat="43.72483" lon="6.96721">
        <ele>806.68335</ele>
        <time>2012-01-07T14:27:04+01:00</time>
      </trkpt>
      <trkpt lat="43.72471" lon="6.96709">
        <ele>802.838135</ele>
        <time>2012-01-07T14:27:08+01:00</time>
      </trkpt>
      <trkpt lat="43.7246" lon="6.96693">
        <ele>799.954346</ele>
        <time>2012-01-07T14:27:11+01:00</time>
      </trkpt>
      <trkpt lat="43.72443" lon="6.96677">
        <ele>796.589844</ele>
        <time>2012-01-07T14:27:14+01:00</time>
      </trkpt>
      <trkpt lat="43.72434" lon="6.96653">
        <ele>794.186279</ele>
        <time>2012-01-07T14:27:17+01:00</time>
      </trkpt>
      <trkpt lat="43.72426" lon="6.96616">
        <ele>790.341064</ele>
        <time>2012-01-07T14:27:21+01:00</time>
      </trkpt>
      <trkpt lat="43.72415" lon="6.96606">
        <ele>787.937744</ele>
        <time>2012-01-07T14:27:24+01:00</time>
      </trkpt>
      <trkpt lat="43.724" lon="6.96605">
        <ele>784.573242</ele>
        <time>2012-01-07T14:27:28+01:00</time>
      </trkpt>
      <trkpt lat="43.72395" lon="6.96606">
        <ele>784.573242</ele>
        <time>2012-01-07T14:27:29+01:00</time>
      </trkpt>
      <trkpt lat="43.72382" lon="6.96618">
        <ele>781.689209</ele>
        <time>2012-01-07T14:27:34+01:00</time>
      </trkpt>
      <trkpt lat="43.7238" lon="6.96629">
        <ele>779.766357</ele>
        <time>2012-01-07T14:27:36+01:00</time>
      </trkpt>
      <trkpt lat="43.72378" lon="6.96649">
        <ele>778.324463</ele>
        <time>2012-01-07T14:27:39+01:00</time>
      </trkpt>
      <trkpt lat="43.72375" lon="6.96661">
        <ele>777.363281</ele>
        <time>2012-01-07T14:27:41+01:00</time>
      </trkpt>
      <trkpt lat="43.72372" lon="6.96671">
        <ele>777.363281</ele>
        <time>2012-01-07T14:27:43+01:00</time>
      </trkpt>
      <trkpt lat="43.72364" lon="6.96689">
        <ele>776.401855</ele>
        <time>2012-01-07T14:27:47+01:00</time>
      </trkpt>
      <trkpt lat="43.72358" lon="6.96706">
        <ele>776.401855</ele>
        <time>2012-01-07T14:27:53+01:00</time>
      </trkpt>
      <trkpt lat="43.72343" lon="6.96711">
        <ele>775.921143</ele>
        <time>2012-01-07T14:27:59+01:00</time>
      </trkpt>
      <trkpt lat="43.72331" lon="6.96709">
        <ele>775.44043</ele>
        <time>2012-01-07T14:28:04+01:00</time>
      </trkpt>
      <trkpt lat="43.72319" lon="6.96707">
        <ele>774.959961</ele>
        <time>2012-01-07T14:28:08+01:00</time>
      </trkpt>
      <trkpt lat="43.72301" lon="6.9671">
        <ele>775.921143</ele>
        <time>2012-01-07T14:28:14+01:00</time>
      </trkpt>
      <trkpt lat="43.72282" lon="6.96716">
        <ele>776.882568</ele>
        <time>2012-01-07T14:28:20+01:00</time>
      </trkpt>
      <trkpt lat="43.72261" lon="6.96721">
        <ele>776.401855</ele>
        <time>2012-01-07T14:28:26+01:00</time>
      </trkpt>
      <trkpt lat="43.72257" lon="6.96723">
        <ele>775.921143</ele>
        <time>2012-01-07T14:28:27+01:00</time>
      </trkpt>
      <trkpt lat="43.72253" lon="6.9674">
        <ele>773.998535</ele>
        <time>2012-01-07T14:28:31+01:00</time>
      </trkpt>
      <trkpt lat="43.72252" lon="6.96769">
        <ele>771.114746</ele>
        <time>2012-01-07T14:28:36+01:00</time>
      </trkpt>
      <trkpt lat="43.72251" lon="6.96788">
        <ele>769.192139</ele>
        <time>2012-01-07T14:28:40+01:00</time>
      </trkpt>
      <trkpt lat="43.7225" lon="6.96789">
        <ele>771.114746</ele>
        <time>2012-01-07T14:28:56+01:00</time>
      </trkpt>
      <trkpt lat="43.72251" lon="6.96792">
        <ele>771.595215</ele>
        <time>2012-01-07T14:29:09+01:00</time>
      </trkpt>
      <trkpt lat="43.72251" lon="6.96789">
        <ele>771.114746</ele>
        <time>2012-01-07T14:29:14+01:00</time>
      </trkpt>
      <trkpt lat="43.72252" lon="6.96789">
        <ele>772.075928</ele>
        <time>2012-01-07T14:29:40+01:00</time>
      </trkpt>
      <trkpt lat="43.72252" lon="6.96789">
        <ele>770.634033</ele>
        <time>2012-01-07T14:29:52+01:00</time>
      </trkpt>
      <trkpt lat="43.72252" lon="6.9679">
        <ele>770.15332</ele>
        <time>2012-01-07T14:30:10+01:00</time>
      </trkpt>
      <trkpt lat="43.72252" lon="6.96789">
        <ele>769.192139</ele>
        <time>2012-01-07T14:30:26+01:00</time>
      </trkpt>
      <trkpt lat="43.72252" lon="6.96789">
        <ele>769.192139</ele>
        <time>2012-01-07T14:30:32+01:00</time>
      </trkpt>
      <trkpt lat="43.72252" lon="6.96789">
        <ele>769.672852</ele>
        <time>2012-01-07T14:30:48+01:00</time>
      </trkpt>
      <trkpt lat="43.72251" lon="6.96789">
        <ele>769.672852</ele>
        <time>2012-01-07T14:30:58+01:00</time>
      </trkpt>
      <trkpt lat="43.72252" lon="6.96788">
        <ele>769.672852</ele>
        <time>2012-01-07T14:31:07+01:00</time>
      </trkpt>
      <trkpt lat="43.72251" lon="6.96789">
        <ele>770.15332</ele>
        <time>2012-01-07T14:31:18+01:00</time>
      </trkpt>
      <trkpt lat="43.72252" lon="6.96788">
        <ele>769.192139</ele>
        <time>2012-01-07T14:31:29+01:00</time>
      </trkpt>
      <trkpt lat="43.72253" lon="6.96788">
        <ele>770.634033</ele>
        <time>2012-01-07T14:31:38+01:00</time>
      </trkpt>
      <trkpt lat="43.72252" lon="6.96788">
        <ele>772.075928</ele>
        <time>2012-01-07T14:31:51+01:00</time>
      </trkpt>
      <trkpt lat="43.72252" lon="6.96788">
        <ele>772.556641</ele>
        <time>2012-01-07T14:31:58+01:00</time>
      </trkpt>
      <trkpt lat="43.72252" lon="6.96788">
        <ele>772.556641</ele>
        <time>2012-01-07T14:32:17+01:00</time>
      </trkpt>
      <trkpt lat="43.72252" lon="6.96789">
        <ele>773.037354</ele>
        <time>2012-01-07T14:32:26+01:00</time>
      </trkpt>
      <trkpt lat="43.72252" lon="6.96788">
        <ele>773.037354</ele>
        <time>2012-01-07T14:32:34+01:00</time>
      </trkpt>
      <trkpt lat="43.72252" lon="6.96788">
        <ele>773.037354</ele>
        <time>2012-01-07T14:32:53+01:00</time>
      </trkpt>
      <trkpt lat="43.72252" lon="6.96788">
        <ele>772.075928</ele>
        <time>2012-01-07T14:33:08+01:00</time>
      </trkpt>
      <trkpt lat="43.72252" lon="6.96788">
        <ele>772.075928</ele>
        <time>2012-01-07T14:33:15+01:00</time>
      </trkpt>
      <trkpt lat="43.72251" lon="6.96788">
        <ele>772.075928</ele>
        <time>2012-01-07T14:33:30+01:00</time>
      </trkpt>
      <trkpt lat="43.7225" lon="6.96788">
        <ele>773.518066</ele>
        <time>2012-01-07T14:33:42+01:00</time>
      </trkpt>
      <trkpt lat="43.72251" lon="6.96789">
        <ele>772.556641</ele>
        <time>2012-01-07T14:34:11+01:00</time>
      </trkpt>
      <trkpt lat="43.72252" lon="6.96789">
        <ele>772.556641</ele>
        <time>2012-01-07T14:34:25+01:00</time>
      </trkpt>
      <trkpt lat="43.72252" lon="6.96788">
        <ele>772.556641</ele>
        <time>2012-01-07T14:34:40+01:00</time>
      </trkpt>
      <trkpt lat="43.72252" lon="6.96788">
        <ele>771.595215</ele>
        <time>2012-01-07T14:34:45+01:00</time>
      </trkpt>
      <trkpt lat="43.72253" lon="6.96788">
        <ele>773.518066</ele>
        <time>2012-01-07T14:35:08+01:00</time>
      </trkpt>
      <trkpt lat="43.72253" lon="6.96788">
        <ele>773.037354</ele>
        <time>2012-01-07T14:35:24+01:00</time>
      </trkpt>
      <trkpt lat="43.72248" lon="6.96762">
        <ele>772.556641</ele>
        <time>2012-01-07T14:35:30+01:00</time>
      </trkpt>
      <trkpt lat="43.7224" lon="6.96713">
        <ele>771.114746</ele>
        <time>2012-01-07T14:35:37+01:00</time>
      </trkpt>
      <trkpt lat="43.72231" lon="6.96674">
        <ele>770.15332</ele>
        <time>2012-01-07T14:35:43+01:00</time>
      </trkpt>
      <trkpt lat="43.72232" lon="6.96635">
        <ele>766.788818</ele>
        <time>2012-01-07T14:35:48+01:00</time>
      </trkpt>
      <trkpt lat="43.72239" lon="6.96602">
        <ele>763.904541</ele>
        <time>2012-01-07T14:35:51+01:00</time>
      </trkpt>
      <trkpt lat="43.72232" lon="6.96562">
        <ele>761.982178</ele>
        <time>2012-01-07T14:35:54+01:00</time>
      </trkpt>
      <trkpt lat="43.7222" lon="6.96514">
        <ele>760.540039</ele>
        <time>2012-01-07T14:35:58+01:00</time>
      </trkpt>
      <trkpt lat="43.72206" lon="6.96492">
        <ele>760.059326</ele>
        <time>2012-01-07T14:36:02+01:00</time>
      </trkpt>
      <trkpt lat="43.72189" lon="6.96488">
        <ele>760.059326</ele>
        <time>2012-01-07T14:36:06+01:00</time>
      </trkpt>
      <trkpt lat="43.72177" lon="6.96494">
        <ele>761.020752</ele>
        <time>2012-01-07T14:36:09+01:00</time>
      </trkpt>
      <trkpt lat="43.7217" lon="6.96501">
        <ele>761.501465</ele>
        <time>2012-01-07T14:36:11+01:00</time>
      </trkpt>
      <trkpt lat="43.7216" lon="6.96511">
        <ele>761.982178</ele>
        <time>2012-01-07T14:36:14+01:00</time>
      </trkpt>
      <trkpt lat="43.72139" lon="6.9653">
        <ele>763.904541</ele>
        <time>2012-01-07T14:36:22+01:00</time>
      </trkpt>
      <trkpt lat="43.72116" lon="6.96544">
        <ele>763.904541</ele>
        <time>2012-01-07T14:36:29+01:00</time>
      </trkpt>
      <trkpt lat="43.72092" lon="6.9655">
        <ele>763.904541</ele>
        <time>2012-01-07T14:36:35+01:00</time>
      </trkpt>
      <trkpt lat="43.72088" lon="6.96552">
        <ele>763.904541</ele>
        <time>2012-01-07T14:36:36+01:00</time>
      </trkpt>
      <trkpt lat="43.7207" lon="6.96547">
        <ele>762.462646</ele>
        <time>2012-01-07T14:36:40+01:00</time>
      </trkpt>
      <trkpt lat="43.72062" lon="6.96525">
        <ele>760.540039</ele>
        <time>2012-01-07T14:36:43+01:00</time>
      </trkpt>
      <trkpt lat="43.7206" lon="6.96507">
        <ele>759.098145</ele>
        <time>2012-01-07T14:36:45+01:00</time>
      </trkpt>
      <trkpt lat="43.72057" lon="6.96441">
        <ele>756.214111</ele>
        <time>2012-01-07T14:36:52+01:00</time>
      </trkpt>
      <trkpt lat="43.72053" lon="6.96415">
        <ele>755.25293</ele>
        <time>2012-01-07T14:36:55+01:00</time>
      </trkpt>
      <trkpt lat="43.72042" lon="6.96372">
        <ele>757.175537</ele>
        <time>2012-01-07T14:37:01+01:00</time>
      </trkpt>
      <trkpt lat="43.7204" lon="6.96368">
        <ele>756.694824</ele>
        <time>2012-01-07T14:37:02+01:00</time>
      </trkpt>
      <trkpt lat="43.72036" lon="6.96359">
        <ele>757.175537</ele>
        <time>2012-01-07T14:37:05+01:00</time>
      </trkpt>
      <trkpt lat="43.72032" lon="6.96337">
        <ele>758.136963</ele>
        <time>2012-01-07T14:37:13+01:00</time>
      </trkpt>
      <trkpt lat="43.72031" lon="6.96317">
        <ele>759.098145</ele>
        <time>2012-01-07T14:37:20+01:00</time>
      </trkpt>
      <trkpt lat="43.7203" lon="6.96302">
        <ele>760.059326</ele>
        <time>2012-01-07T14:37:25+01:00</time>
      </trkpt>
      <trkpt lat="43.72028" lon="6.96289">
        <ele>761.020752</ele>
        <time>2012-01-07T14:37:30+01:00</time>
      </trkpt>
      <trkpt lat="43.7202" lon="6.96268">
        <ele>762.462646</ele>
        <time>2012-01-07T14:37:38+01:00</time>
      </trkpt>
      <trkpt lat="43.72015" lon="6.96253">
        <ele>763.424072</ele>
        <time>2012-01-07T14:37:44+01:00</time>
      </trkpt>
      <trkpt lat="43.72012" lon="6.96242">
        <ele>763.424072</ele>
        <time>2012-01-07T14:37:49+01:00</time>
      </trkpt>
      <trkpt lat="43.72012" lon="6.96224">
        <ele>764.385498</ele>
        <time>2012-01-07T14:37:56+01:00</time>
      </trkpt>
      <trkpt lat="43.72011" lon="6.96209">
        <ele>764.385498</ele>
        <time>2012-01-07T14:38:01+01:00</time>
      </trkpt>
      <trkpt lat="43.72009" lon="6.96201">
        <ele>764.866211</ele>
        <time>2012-01-07T14:38:04+01:00</time>
      </trkpt>
      <trkpt lat="43.72" lon="6.96197">
        <ele>764.385498</ele>
        <time>2012-01-07T14:38:10+01:00</time>
      </trkpt>
      <trkpt lat="43.71994" lon="6.96194">
        <ele>765.346924</ele>
        <time>2012-01-07T14:38:16+01:00</time>
      </trkpt>
      <trkpt lat="43.71982" lon="6.96189">
        <ele>764.385498</ele>
        <time>2012-01-07T14:38:23+01:00</time>
      </trkpt>
      <trkpt lat="43.71965" lon="6.96174">
        <ele>762.943359</ele>
        <time>2012-01-07T14:38:27+01:00</time>
      </trkpt>
      <trkpt lat="43.71947" lon="6.96171">
        <ele>761.982178</ele>
        <time>2012-01-07T14:38:30+01:00</time>
      </trkpt>
      <trkpt lat="43.71936" lon="6.96174">
        <ele>761.982178</ele>
        <time>2012-01-07T14:38:32+01:00</time>
      </trkpt>
      <trkpt lat="43.71899" lon="6.96184">
        <ele>763.904541</ele>
        <time>2012-01-07T14:38:39+01:00</time>
      </trkpt>
      <trkpt lat="43.7189" lon="6.96185">
        <ele>764.385498</ele>
        <time>2012-01-07T14:38:41+01:00</time>
      </trkpt>
      <trkpt lat="43.7188" lon="6.96188">
        <ele>765.346924</ele>
        <time>2012-01-07T14:38:44+01:00</time>
      </trkpt>
      <trkpt lat="43.7186" lon="6.96193">
        <ele>765.827637</ele>
        <time>2012-01-07T14:38:50+01:00</time>
      </trkpt>
      <trkpt lat="43.71855" lon="6.96197">
        <ele>766.308105</ele>
        <time>2012-01-07T14:38:52+01:00</time>
      </trkpt>
      <trkpt lat="43.7184" lon="6.96218">
        <ele>766.788818</ele>
        <time>2012-01-07T14:38:58+01:00</time>
      </trkpt>
      <trkpt lat="43.7182" lon="6.96242">
        <ele>766.788818</ele>
        <time>2012-01-07T14:39:05+01:00</time>
      </trkpt>
      <trkpt lat="43.71809" lon="6.96261">
        <ele>766.308105</ele>
        <time>2012-01-07T14:39:09+01:00</time>
      </trkpt>
      <trkpt lat="43.71802" lon="6.96291">
        <ele>766.308105</ele>
        <time>2012-01-07T14:39:15+01:00</time>
      </trkpt>
      <trkpt lat="43.71798" lon="6.96319">
        <ele>766.788818</ele>
        <time>2012-01-07T14:39:22+01:00</time>
      </trkpt>
      <trkpt lat="43.71792" lon="6.96348">
        <ele>767.75</ele>
        <time>2012-01-07T14:39:30+01:00</time>
      </trkpt>
      <trkpt lat="43.71786" lon="6.96372">
        <ele>769.192139</ele>
        <time>2012-01-07T14:39:38+01:00</time>
      </trkpt>
      <trkpt lat="43.71779" lon="6.96392">
        <ele>770.15332</ele>
        <time>2012-01-07T14:39:45+01:00</time>
      </trkpt>
      <trkpt lat="43.71768" lon="6.96413">
        <ele>771.595215</ele>
        <time>2012-01-07T14:39:53+01:00</time>
      </trkpt>
      <trkpt lat="43.71754" lon="6.96432">
        <ele>773.998535</ele>
        <time>2012-01-07T14:40:01+01:00</time>
      </trkpt>
      <trkpt lat="43.71736" lon="6.96449">
        <ele>775.921143</ele>
        <time>2012-01-07T14:40:09+01:00</time>
      </trkpt>
      <trkpt lat="43.71721" lon="6.96462">
        <ele>777.84375</ele>
        <time>2012-01-07T14:40:16+01:00</time>
      </trkpt>
      <trkpt lat="43.71709" lon="6.96477">
        <ele>778.324463</ele>
        <time>2012-01-07T14:40:22+01:00</time>
      </trkpt>
      <trkpt lat="43.71701" lon="6.96497">
        <ele>778.324463</ele>
        <time>2012-01-07T14:40:28+01:00</time>
      </trkpt>
      <trkpt lat="43.71689" lon="6.96519">
        <ele>778.324463</ele>
        <time>2012-01-07T14:40:35+01:00</time>
      </trkpt>
      <trkpt lat="43.7167" lon="6.96536">
        <ele>776.882568</ele>
        <time>2012-01-07T14:40:41+01:00</time>
      </trkpt>
      <trkpt lat="43.71647" lon="6.96557">
        <ele>775.44043</ele>
        <time>2012-01-07T14:40:46+01:00</time>
      </trkpt>
      <trkpt lat="43.71635" lon="6.96575">
        <ele>775.44043</ele>
        <time>2012-01-07T14:40:49+01:00</time>
      </trkpt>
      <trkpt lat="43.71617" lon="6.96611">
        <ele>774.959961</ele>
        <time>2012-01-07T14:40:56+01:00</time>
      </trkpt>
      <trkpt lat="43.71604" lon="6.96639">
        <ele>776.882568</ele>
        <time>2012-01-07T14:41:02+01:00</time>
      </trkpt>
      <trkpt lat="43.71594" lon="6.9666">
        <ele>777.84375</ele>
        <time>2012-01-07T14:41:08+01:00</time>
      </trkpt>
      <trkpt lat="43.71588" lon="6.96675">
        <ele>778.324463</ele>
        <time>2012-01-07T14:41:13+01:00</time>
      </trkpt>
      <trkpt lat="43.71581" lon="6.96693">
        <ele>779.285645</ele>
        <time>2012-01-07T14:41:19+01:00</time>
      </trkpt>
      <trkpt lat="43.71572" lon="6.96715">
        <ele>780.728027</ele>
        <time>2012-01-07T14:41:27+01:00</time>
      </trkpt>
      <trkpt lat="43.71561" lon="6.96734">
        <ele>782.169922</ele>
        <time>2012-01-07T14:41:34+01:00</time>
      </trkpt>
      <trkpt lat="43.71544" lon="6.96748">
        <ele>784.092529</ele>
        <time>2012-01-07T14:41:42+01:00</time>
      </trkpt>
      <trkpt lat="43.71526" lon="6.96754">
        <ele>785.053955</ele>
        <time>2012-01-07T14:41:48+01:00</time>
      </trkpt>
      <trkpt lat="43.71505" lon="6.96756">
        <ele>786.015137</ele>
        <time>2012-01-07T14:41:55+01:00</time>
      </trkpt>
      <trkpt lat="43.71488" lon="6.96744">
        <ele>786.015137</ele>
        <time>2012-01-07T14:42:02+01:00</time>
      </trkpt>
      <trkpt lat="43.71477" lon="6.96723">
        <ele>785.534424</ele>
        <time>2012-01-07T14:42:08+01:00</time>
      </trkpt>
      <trkpt lat="43.71468" lon="6.96701">
        <ele>785.534424</ele>
        <time>2012-01-07T14:42:14+01:00</time>
      </trkpt>
      <trkpt lat="43.71455" lon="6.96672">
        <ele>785.534424</ele>
        <time>2012-01-07T14:42:22+01:00</time>
      </trkpt>
      <trkpt lat="43.7145" lon="6.9664">
        <ele>786.015137</ele>
        <time>2012-01-07T14:42:29+01:00</time>
      </trkpt>
      <trkpt lat="43.7145" lon="6.96607">
        <ele>785.534424</ele>
        <time>2012-01-07T14:42:36+01:00</time>
      </trkpt>
      <trkpt lat="43.71446" lon="6.9658">
        <ele>785.053955</ele>
        <time>2012-01-07T14:42:41+01:00</time>
      </trkpt>
      <trkpt lat="43.71436" lon="6.96543">
        <ele>785.534424</ele>
        <time>2012-01-07T14:42:48+01:00</time>
      </trkpt>
      <trkpt lat="43.71434" lon="6.96533">
        <ele>786.015137</ele>
        <time>2012-01-07T14:42:50+01:00</time>
      </trkpt>
      <trkpt lat="43.71433" lon="6.96522">
        <ele>786.015137</ele>
        <time>2012-01-07T14:42:52+01:00</time>
      </trkpt>
      <trkpt lat="43.71433" lon="6.96511">
        <ele>786.49585</ele>
        <time>2012-01-07T14:42:54+01:00</time>
      </trkpt>
      <trkpt lat="43.71437" lon="6.96461">
        <ele>785.534424</ele>
        <time>2012-01-07T14:43:03+01:00</time>
      </trkpt>
      <trkpt lat="43.71435" lon="6.96439">
        <ele>785.053955</ele>
        <time>2012-01-07T14:43:07+01:00</time>
      </trkpt>
      <trkpt lat="43.71427" lon="6.96418">
        <ele>786.015137</ele>
        <time>2012-01-07T14:43:11+01:00</time>
      </trkpt>
      <trkpt lat="43.71401" lon="6.96376">
        <ele>787.457031</ele>
        <time>2012-01-07T14:43:20+01:00</time>
      </trkpt>
      <trkpt lat="43.71381" lon="6.96341">
        <ele>787.937744</ele>
        <time>2012-01-07T14:43:27+01:00</time>
      </trkpt>
      <trkpt lat="43.71371" lon="6.96327">
        <ele>787.937744</ele>
        <time>2012-01-07T14:43:30+01:00</time>
      </trkpt>
      <trkpt lat="43.71363" lon="6.96319">
        <ele>788.418457</ele>
        <time>2012-01-07T14:43:32+01:00</time>
      </trkpt>
      <trkpt lat="43.7133" lon="6.96305">
        <ele>787.937744</ele>
        <time>2012-01-07T14:43:40+01:00</time>
      </trkpt>
      <trkpt lat="43.71321" lon="6.963">
        <ele>787.457031</ele>
        <time>2012-01-07T14:43:42+01:00</time>
      </trkpt>
      <trkpt lat="43.71301" lon="6.96277">
        <ele>787.457031</ele>
        <time>2012-01-07T14:43:48+01:00</time>
      </trkpt>
      <trkpt lat="43.71287" lon="6.96273">
        <ele>787.457031</ele>
        <time>2012-01-07T14:43:51+01:00</time>
      </trkpt>
      <trkpt lat="43.71282" lon="6.96275">
        <ele>787.937744</ele>
        <time>2012-01-07T14:43:52+01:00</time>
      </trkpt>
      <trkpt lat="43.71273" lon="6.96278">
        <ele>788.418457</ele>
        <time>2012-01-07T14:43:54+01:00</time>
      </trkpt>
      <trkpt lat="43.71235" lon="6.96283">
        <ele>788.418457</ele>
        <time>2012-01-07T14:44:02+01:00</time>
      </trkpt>
      <trkpt lat="43.7123" lon="6.96285">
        <ele>788.89917</ele>
        <time>2012-01-07T14:44:03+01:00</time>
      </trkpt>
      <trkpt lat="43.71217" lon="6.96289">
        <ele>788.89917</ele>
        <time>2012-01-07T14:44:06+01:00</time>
      </trkpt>
      <trkpt lat="43.71192" lon="6.96284">
        <ele>787.937744</ele>
        <time>2012-01-07T14:44:12+01:00</time>
      </trkpt>
      <trkpt lat="43.71188" lon="6.96281">
        <ele>787.457031</ele>
        <time>2012-01-07T14:44:13+01:00</time>
      </trkpt>
      <trkpt lat="43.71177" lon="6.96266">
        <ele>786.49585</ele>
        <time>2012-01-07T14:44:17+01:00</time>
      </trkpt>
      <trkpt lat="43.71166" lon="6.9626">
        <ele>786.015137</ele>
        <time>2012-01-07T14:44:22+01:00</time>
      </trkpt>
      <trkpt lat="43.71164" lon="6.96262">
        <ele>785.534424</ele>
        <time>2012-01-07T14:44:28+01:00</time>
      </trkpt>
      <trkpt lat="43.71164" lon="6.96261">
        <ele>785.534424</ele>
        <time>2012-01-07T14:44:34+01:00</time>
      </trkpt>
      <trkpt lat="43.71163" lon="6.96264">
        <ele>785.534424</ele>
        <time>2012-01-07T14:44:38+01:00</time>
      </trkpt>
      <trkpt lat="43.71165" lon="6.96263">
        <ele>783.131104</ele>
        <time>2012-01-07T14:44:52+01:00</time>
      </trkpt>
      <trkpt lat="43.71164" lon="6.96263">
        <ele>782.650635</ele>
        <time>2012-01-07T14:44:58+01:00</time>
      </trkpt>
      <trkpt lat="43.71164" lon="6.96263">
        <ele>783.131104</ele>
        <time>2012-01-07T14:45:07+01:00</time>
      </trkpt>
      <trkpt lat="43.71163" lon="6.96264">
        <ele>783.611816</ele>
        <time>2012-01-07T14:45:22+01:00</time>
      </trkpt>
      <trkpt lat="43.71163" lon="6.96264">
        <ele>781.20874</ele>
        <time>2012-01-07T14:45:37+01:00</time>
      </trkpt>
      <trkpt lat="43.71164" lon="6.96262">
        <ele>780.247314</ele>
        <time>2012-01-07T14:45:41+01:00</time>
      </trkpt>
      <trkpt lat="43.71164" lon="6.96261">
        <ele>783.611816</ele>
        <time>2012-01-07T14:45:51+01:00</time>
      </trkpt>
      <trkpt lat="43.71164" lon="6.96262">
        <ele>785.534424</ele>
        <time>2012-01-07T14:45:59+01:00</time>
      </trkpt>
      <trkpt lat="43.71163" lon="6.96262">
        <ele>785.534424</ele>
        <time>2012-01-07T14:46:08+01:00</time>
      </trkpt>
      <trkpt lat="43.71161" lon="6.96263">
        <ele>786.015137</ele>
        <time>2012-01-07T14:46:11+01:00</time>
      </trkpt>
      <trkpt lat="43.7115" lon="6.96265">
        <ele>784.573242</ele>
        <time>2012-01-07T14:46:15+01:00</time>
      </trkpt>
      <trkpt lat="43.71147" lon="6.96268">
        <ele>784.573242</ele>
        <time>2012-01-07T14:46:17+01:00</time>
      </trkpt>
      <trkpt lat="43.7114" lon="6.96283">
        <ele>783.611816</ele>
        <time>2012-01-07T14:46:22+01:00</time>
      </trkpt>
      <trkpt lat="43.71139" lon="6.96286">
        <ele>782.650635</ele>
        <time>2012-01-07T14:46:29+01:00</time>
      </trkpt>
      <trkpt lat="43.71142" lon="6.96288">
        <ele>782.169922</ele>
        <time>2012-01-07T14:46:35+01:00</time>
      </trkpt>
      <trkpt lat="43.71142" lon="6.96293">
        <ele>781.689209</ele>
        <time>2012-01-07T14:46:40+01:00</time>
      </trkpt>
      <trkpt lat="43.71142" lon="6.96297">
        <ele>781.689209</ele>
        <time>2012-01-07T14:46:46+01:00</time>
      </trkpt>
      <trkpt lat="43.71141" lon="6.96301">
        <ele>780.247314</ele>
        <time>2012-01-07T14:46:51+01:00</time>
      </trkpt>
      <trkpt lat="43.71139" lon="6.96308">
        <ele>780.247314</ele>
        <time>2012-01-07T14:46:57+01:00</time>
      </trkpt>
      <trkpt lat="43.7114" lon="6.9631">
        <ele>779.766357</ele>
        <time>2012-01-07T14:47:03+01:00</time>
      </trkpt>
      <trkpt lat="43.71139" lon="6.96314">
        <ele>778.805176</ele>
        <time>2012-01-07T14:47:07+01:00</time>
      </trkpt>
      <trkpt lat="43.71138" lon="6.96318">
        <ele>777.84375</ele>
        <time>2012-01-07T14:47:12+01:00</time>
      </trkpt>
      <trkpt lat="43.71133" lon="6.96322">
        <ele>777.363281</ele>
        <time>2012-01-07T14:47:17+01:00</time>
      </trkpt>
      <trkpt lat="43.71133" lon="6.96322">
        <ele>776.882568</ele>
        <time>2012-01-07T14:47:34+01:00</time>
      </trkpt>
      <trkpt lat="43.71132" lon="6.96321">
        <ele>777.84375</ele>
        <time>2012-01-07T14:47:50+01:00</time>
      </trkpt>
      <trkpt lat="43.71124" lon="6.96322">
        <ele>776.882568</ele>
        <time>2012-01-07T14:47:54+01:00</time>
      </trkpt>
      <trkpt lat="43.71106" lon="6.96328">
        <ele>774.959961</ele>
        <time>2012-01-07T14:48:01+01:00</time>
      </trkpt>
      <trkpt lat="43.71094" lon="6.96329">
        <ele>775.921143</ele>
        <time>2012-01-07T14:48:06+01:00</time>
      </trkpt>
      <trkpt lat="43.71091" lon="6.96327">
        <ele>775.921143</ele>
        <time>2012-01-07T14:48:08+01:00</time>
      </trkpt>
      <trkpt lat="43.71084" lon="6.9632">
        <ele>776.882568</ele>
        <time>2012-01-07T14:48:12+01:00</time>
      </trkpt>
      <trkpt lat="43.71078" lon="6.96319">
        <ele>777.363281</ele>
        <time>2012-01-07T14:48:17+01:00</time>
      </trkpt>
      <trkpt lat="43.71076" lon="6.96322">
        <ele>777.363281</ele>
        <time>2012-01-07T14:48:22+01:00</time>
      </trkpt>
      <trkpt lat="43.71072" lon="6.96326">
        <ele>777.363281</ele>
        <time>2012-01-07T14:48:25+01:00</time>
      </trkpt>
      <trkpt lat="43.71063" lon="6.96329">
        <ele>776.401855</ele>
        <time>2012-01-07T14:48:30+01:00</time>
      </trkpt>
      <trkpt lat="43.71047" lon="6.96344">
        <ele>775.44043</ele>
        <time>2012-01-07T14:48:37+01:00</time>
      </trkpt>
      <trkpt lat="43.71042" lon="6.96344">
        <ele>774.479248</ele>
        <time>2012-01-07T14:48:41+01:00</time>
      </trkpt>
      <trkpt lat="43.71044" lon="6.96343">
        <ele>770.634033</ele>
        <time>2012-01-07T14:49:02+01:00</time>
      </trkpt>
      <trkpt lat="43.71044" lon="6.96339">
        <ele>767.269531</ele>
        <time>2012-01-07T14:49:25+01:00</time>
      </trkpt>
      <trkpt lat="43.7104" lon="6.96319">
        <ele>767.75</ele>
        <time>2012-01-07T14:49:31+01:00</time>
      </trkpt>
      <trkpt lat="43.71038" lon="6.96313">
        <ele>767.75</ele>
        <time>2012-01-07T14:49:33+01:00</time>
      </trkpt>
      <trkpt lat="43.71029" lon="6.963">
        <ele>768.711426</ele>
        <time>2012-01-07T14:49:40+01:00</time>
      </trkpt>
      <trkpt lat="43.71027" lon="6.96285">
        <ele>770.634033</ele>
        <time>2012-01-07T14:49:47+01:00</time>
      </trkpt>
      <trkpt lat="43.71022" lon="6.96274">
        <ele>773.518066</ele>
        <time>2012-01-07T14:49:53+01:00</time>
      </trkpt>
      <trkpt lat="43.71018" lon="6.96266">
        <ele>775.921143</ele>
        <time>2012-01-07T14:49:59+01:00</time>
      </trkpt>
      <trkpt lat="43.71014" lon="6.96261">
        <ele>776.401855</ele>
        <time>2012-01-07T14:50:02+01:00</time>
      </trkpt>
      <trkpt lat="43.71017" lon="6.96242">
        <ele>778.805176</ele>
        <time>2012-01-07T14:50:10+01:00</time>
      </trkpt>
      <trkpt lat="43.71019" lon="6.96226">
        <ele>780.728027</ele>
        <time>2012-01-07T14:50:17+01:00</time>
      </trkpt>
      <trkpt lat="43.71014" lon="6.96207">
        <ele>780.247314</ele>
        <time>2012-01-07T14:50:24+01:00</time>
      </trkpt>
      <trkpt lat="43.71011" lon="6.96186">
        <ele>783.131104</ele>
        <time>2012-01-07T14:50:31+01:00</time>
      </trkpt>
      <trkpt lat="43.71005" lon="6.96175">
        <ele>784.573242</ele>
        <time>2012-01-07T14:50:36+01:00</time>
      </trkpt>
      <trkpt lat="43.71001" lon="6.96171">
        <ele>785.053955</ele>
        <time>2012-01-07T14:50:39+01:00</time>
      </trkpt>
      <trkpt lat="43.70998" lon="6.96156">
        <ele>787.937744</ele>
        <time>2012-01-07T14:50:46+01:00</time>
      </trkpt>
      <trkpt lat="43.70997" lon="6.96155">
        <ele>787.937744</ele>
        <time>2012-01-07T14:50:47+01:00</time>
      </trkpt>
      <trkpt lat="43.7099" lon="6.9615">
        <ele>789.379639</ele>
        <time>2012-01-07T14:50:52+01:00</time>
      </trkpt>
      <trkpt lat="43.70981" lon="6.96144">
        <ele>790.341064</ele>
        <time>2012-01-07T14:50:59+01:00</time>
      </trkpt>
      <trkpt lat="43.70979" lon="6.96138">
        <ele>791.302246</ele>
        <time>2012-01-07T14:51:02+01:00</time>
      </trkpt>
      <trkpt lat="43.70972" lon="6.96126">
        <ele>792.744385</ele>
        <time>2012-01-07T14:51:10+01:00</time>
      </trkpt>
      <trkpt lat="43.70967" lon="6.96116">
        <ele>793.224854</ele>
        <time>2012-01-07T14:51:16+01:00</time>
      </trkpt>
      <trkpt lat="43.7096" lon="6.96106">
        <ele>794.666748</ele>
        <time>2012-01-07T14:51:23+01:00</time>
      </trkpt>
      <trkpt lat="43.70952" lon="6.96097">
        <ele>794.666748</ele>
        <time>2012-01-07T14:51:30+01:00</time>
      </trkpt>
      <trkpt lat="43.7095" lon="6.96092">
        <ele>795.147461</ele>
        <time>2012-01-07T14:51:33+01:00</time>
      </trkpt>
      <trkpt lat="43.70949" lon="6.96082">
        <ele>795.628174</ele>
        <time>2012-01-07T14:51:39+01:00</time>
      </trkpt>
      <trkpt lat="43.70948" lon="6.96081">
        <ele>796.109131</ele>
        <time>2012-01-07T14:51:47+01:00</time>
      </trkpt>
      <trkpt lat="43.70947" lon="6.96081">
        <ele>797.070312</ele>
        <time>2012-01-07T14:51:53+01:00</time>
      </trkpt>
      <trkpt lat="43.70945" lon="6.96078">
        <ele>798.512207</ele>
        <time>2012-01-07T14:52:11+01:00</time>
      </trkpt>
      <trkpt lat="43.70944" lon="6.96076">
        <ele>801.39624</ele>
        <time>2012-01-07T14:52:24+01:00</time>
      </trkpt>
      <trkpt lat="43.70946" lon="6.96075">
        <ele>800.915527</ele>
        <time>2012-01-07T14:52:32+01:00</time>
      </trkpt>
      <trkpt lat="43.70944" lon="6.96064">
        <ele>801.39624</ele>
        <time>2012-01-07T14:52:37+01:00</time>
      </trkpt>
      <trkpt lat="43.70944" lon="6.96039">
        <ele>802.357422</ele>
        <time>2012-01-07T14:52:44+01:00</time>
      </trkpt>
      <trkpt lat="43.70943" lon="6.96032">
        <ele>802.838135</ele>
        <time>2012-01-07T14:52:46+01:00</time>
      </trkpt>
      <trkpt lat="43.70948" lon="6.96016">
        <ele>802.357422</ele>
        <time>2012-01-07T14:52:51+01:00</time>
      </trkpt>
      <trkpt lat="43.70951" lon="6.95998">
        <ele>802.357422</ele>
        <time>2012-01-07T14:52:56+01:00</time>
      </trkpt>
      <trkpt lat="43.70945" lon="6.95984">
        <ele>803.318848</ele>
        <time>2012-01-07T14:53:00+01:00</time>
      </trkpt>
      <trkpt lat="43.70935" lon="6.95965">
        <ele>803.799561</ele>
        <time>2012-01-07T14:53:06+01:00</time>
      </trkpt>
      <trkpt lat="43.70918" lon="6.9595">
        <ele>804.280273</ele>
        <time>2012-01-07T14:53:11+01:00</time>
      </trkpt>
      <trkpt lat="43.70904" lon="6.9594">
        <ele>803.318848</ele>
        <time>2012-01-07T14:53:15+01:00</time>
      </trkpt>
      <trkpt lat="43.70885" lon="6.95917">
        <ele>804.280273</ele>
        <time>2012-01-07T14:53:22+01:00</time>
      </trkpt>
      <trkpt lat="43.70869" lon="6.95896">
        <ele>807.164062</ele>
        <time>2012-01-07T14:53:29+01:00</time>
      </trkpt>
      <trkpt lat="43.70852" lon="6.95874">
        <ele>810.047852</ele>
        <time>2012-01-07T14:53:36+01:00</time>
      </trkpt>
      <trkpt lat="43.70838" lon="6.95856">
        <ele>811.009277</ele>
        <time>2012-01-07T14:53:42+01:00</time>
      </trkpt>
      <trkpt lat="43.7082" lon="6.95845">
        <ele>811.48999</ele>
        <time>2012-01-07T14:53:48+01:00</time>
      </trkpt>
      <trkpt lat="43.708" lon="6.95832">
        <ele>811.009277</ele>
        <time>2012-01-07T14:53:55+01:00</time>
      </trkpt>
      <trkpt lat="43.70789" lon="6.95828">
        <ele>810.047852</ele>
        <time>2012-01-07T14:54:00+01:00</time>
      </trkpt>
      <trkpt lat="43.70782" lon="6.95821">
        <ele>809.08667</ele>
        <time>2012-01-07T14:54:05+01:00</time>
      </trkpt>
      <trkpt lat="43.70772" lon="6.95813">
        <ele>809.567383</ele>
        <time>2012-01-07T14:54:10+01:00</time>
      </trkpt>
      <trkpt lat="43.70767" lon="6.95817">
        <ele>810.047852</ele>
        <time>2012-01-07T14:54:14+01:00</time>
      </trkpt>
      <trkpt lat="43.70768" lon="6.95819">
        <ele>810.047852</ele>
        <time>2012-01-07T14:54:15+01:00</time>
      </trkpt>
      <trkpt lat="43.70772" lon="6.95828">
        <ele>809.08667</ele>
        <time>2012-01-07T14:54:20+01:00</time>
      </trkpt>
      <trkpt lat="43.70771" lon="6.95837">
        <ele>807.164062</ele>
        <time>2012-01-07T14:54:24+01:00</time>
      </trkpt>
      <trkpt lat="43.70771" lon="6.95841">
        <ele>806.68335</ele>
        <time>2012-01-07T14:54:25+01:00</time>
      </trkpt>
      <trkpt lat="43.7077" lon="6.95846">
        <ele>807.644775</ele>
        <time>2012-01-07T14:54:33+01:00</time>
      </trkpt>
      <trkpt lat="43.70769" lon="6.9585">
        <ele>807.644775</ele>
        <time>2012-01-07T14:54:42+01:00</time>
      </trkpt>
      <trkpt lat="43.7077" lon="6.95851">
        <ele>805.722168</ele>
        <time>2012-01-07T14:54:56+01:00</time>
      </trkpt>
      <trkpt lat="43.70768" lon="6.95853">
        <ele>806.202637</ele>
        <time>2012-01-07T14:55:04+01:00</time>
      </trkpt>
      <trkpt lat="43.70762" lon="6.95857">
        <ele>806.202637</ele>
        <time>2012-01-07T14:55:09+01:00</time>
      </trkpt>
      <trkpt lat="43.70748" lon="6.95858">
        <ele>805.241455</ele>
        <time>2012-01-07T14:55:14+01:00</time>
      </trkpt>
      <trkpt lat="43.70737" lon="6.95863">
        <ele>804.280273</ele>
        <time>2012-01-07T14:55:17+01:00</time>
      </trkpt>
      <trkpt lat="43.70726" lon="6.95884">
        <ele>802.838135</ele>
        <time>2012-01-07T14:55:21+01:00</time>
      </trkpt>
      <trkpt lat="43.70711" lon="6.95893">
        <ele>801.876953</ele>
        <time>2012-01-07T14:55:25+01:00</time>
      </trkpt>
      <trkpt lat="43.70693" lon="6.95905">
        <ele>798.99292</ele>
        <time>2012-01-07T14:55:30+01:00</time>
      </trkpt>
      <trkpt lat="43.70683" lon="6.95916">
        <ele>796.589844</ele>
        <time>2012-01-07T14:55:34+01:00</time>
      </trkpt>
      <trkpt lat="43.70681" lon="6.95919">
        <ele>795.628174</ele>
        <time>2012-01-07T14:55:35+01:00</time>
      </trkpt>
      <trkpt lat="43.70667" lon="6.95934">
        <ele>793.224854</ele>
        <time>2012-01-07T14:55:40+01:00</time>
      </trkpt>
      <trkpt lat="43.70644" lon="6.95942">
        <ele>789.860352</ele>
        <time>2012-01-07T14:55:45+01:00</time>
      </trkpt>
      <trkpt lat="43.7064" lon="6.95946">
        <ele>789.379639</ele>
        <time>2012-01-07T14:55:46+01:00</time>
      </trkpt>
      <trkpt lat="43.70631" lon="6.95967">
        <ele>787.937744</ele>
        <time>2012-01-07T14:55:51+01:00</time>
      </trkpt>
      <trkpt lat="43.70631" lon="6.95971">
        <ele>788.418457</ele>
        <time>2012-01-07T14:55:53+01:00</time>
      </trkpt>
      <trkpt lat="43.70631" lon="6.95971">
        <ele>788.418457</ele>
        <time>2012-01-07T14:56:00+01:00</time>
      </trkpt>
      <trkpt lat="43.70632" lon="6.95971">
        <ele>788.418457</ele>
        <time>2012-01-07T14:56:06+01:00</time>
      </trkpt>
      <trkpt lat="43.70633" lon="6.9597">
        <ele>787.457031</ele>
        <time>2012-01-07T14:56:17+01:00</time>
      </trkpt>
      <trkpt lat="43.70635" lon="6.95976">
        <ele>786.976318</ele>
        <time>2012-01-07T14:56:25+01:00</time>
      </trkpt>
      <trkpt lat="43.7064" lon="6.95995">
        <ele>786.49585</ele>
        <time>2012-01-07T14:56:29+01:00</time>
      </trkpt>
      <trkpt lat="43.70646" lon="6.96023">
        <ele>786.49585</ele>
        <time>2012-01-07T14:56:33+01:00</time>
      </trkpt>
      <trkpt lat="43.70647" lon="6.9603">
        <ele>786.49585</ele>
        <time>2012-01-07T14:56:34+01:00</time>
      </trkpt>
      <trkpt lat="43.70656" lon="6.96072">
        <ele>785.053955</ele>
        <time>2012-01-07T14:56:40+01:00</time>
      </trkpt>
      <trkpt lat="43.70658" lon="6.96079">
        <ele>784.573242</ele>
        <time>2012-01-07T14:56:41+01:00</time>
      </trkpt>
      <trkpt lat="43.70663" lon="6.96093">
        <ele>784.092529</ele>
        <time>2012-01-07T14:56:43+01:00</time>
      </trkpt>
      <trkpt lat="43.70678" lon="6.96111">
        <ele>785.053955</ele>
        <time>2012-01-07T14:56:47+01:00</time>
      </trkpt>
      <trkpt lat="43.70682" lon="6.96122">
        <ele>785.534424</ele>
        <time>2012-01-07T14:56:49+01:00</time>
      </trkpt>
      <trkpt lat="43.70686" lon="6.96134">
        <ele>785.053955</ele>
        <time>2012-01-07T14:56:51+01:00</time>
      </trkpt>
      <trkpt lat="43.70691" lon="6.96145">
        <ele>785.053955</ele>
        <time>2012-01-07T14:56:53+01:00</time>
      </trkpt>
      <trkpt lat="43.70703" lon="6.96176">
        <ele>783.611816</ele>
        <time>2012-01-07T14:56:58+01:00</time>
      </trkpt>
      <trkpt lat="43.7071" lon="6.96191">
        <ele>782.169922</ele>
        <time>2012-01-07T14:57:01+01:00</time>
      </trkpt>
      <trkpt lat="43.70705" lon="6.96208">
        <ele>780.728027</ele>
        <time>2012-01-07T14:57:04+01:00</time>
      </trkpt>
      <trkpt lat="43.70709" lon="6.96226">
        <ele>779.285645</ele>
        <time>2012-01-07T14:57:07+01:00</time>
      </trkpt>
      <trkpt lat="43.70714" lon="6.96248">
        <ele>778.805176</ele>
        <time>2012-01-07T14:57:10+01:00</time>
      </trkpt>
      <trkpt lat="43.70722" lon="6.96265">
        <ele>778.805176</ele>
        <time>2012-01-07T14:57:13+01:00</time>
      </trkpt>
      <trkpt lat="43.70725" lon="6.96272">
        <ele>778.805176</ele>
        <time>2012-01-07T14:57:14+01:00</time>
      </trkpt>
      <trkpt lat="43.70727" lon="6.96284">
        <ele>778.805176</ele>
        <time>2012-01-07T14:57:16+01:00</time>
      </trkpt>
      <trkpt lat="43.70731" lon="6.96322">
        <ele>776.882568</ele>
        <time>2012-01-07T14:57:22+01:00</time>
      </trkpt>
      <trkpt lat="43.70724" lon="6.96346">
        <ele>775.921143</ele>
        <time>2012-01-07T14:57:25+01:00</time>
      </trkpt>
      <trkpt lat="43.70714" lon="6.96367">
        <ele>774.479248</ele>
        <time>2012-01-07T14:57:28+01:00</time>
      </trkpt>
      <trkpt lat="43.70708" lon="6.96393">
        <ele>773.037354</ele>
        <time>2012-01-07T14:57:31+01:00</time>
      </trkpt>
      <trkpt lat="43.7071" lon="6.96428">
        <ele>770.634033</ele>
        <time>2012-01-07T14:57:36+01:00</time>
      </trkpt>
      <trkpt lat="43.70712" lon="6.96448">
        <ele>768.711426</ele>
        <time>2012-01-07T14:57:39+01:00</time>
      </trkpt>
      <trkpt lat="43.7071" lon="6.96463">
        <ele>767.75</ele>
        <time>2012-01-07T14:57:41+01:00</time>
      </trkpt>
      <trkpt lat="43.70713" lon="6.96483">
        <ele>765.827637</ele>
        <time>2012-01-07T14:57:44+01:00</time>
      </trkpt>
      <trkpt lat="43.70717" lon="6.96487">
        <ele>765.827637</ele>
        <time>2012-01-07T14:57:45+01:00</time>
      </trkpt>
      <trkpt lat="43.70731" lon="6.96506">
        <ele>763.424072</ele>
        <time>2012-01-07T14:57:49+01:00</time>
      </trkpt>
      <trkpt lat="43.70747" lon="6.96526">
        <ele>761.020752</ele>
        <time>2012-01-07T14:57:53+01:00</time>
      </trkpt>
      <trkpt lat="43.70747" lon="6.96539">
        <ele>761.020752</ele>
        <time>2012-01-07T14:57:56+01:00</time>
      </trkpt>
      <trkpt lat="43.70746" lon="6.96543">
        <ele>761.501465</ele>
        <time>2012-01-07T14:57:57+01:00</time>
      </trkpt>
      <trkpt lat="43.70744" lon="6.9655">
        <ele>761.982178</ele>
        <time>2012-01-07T14:58:00+01:00</time>
      </trkpt>
      <trkpt lat="43.70746" lon="6.96553">
        <ele>763.424072</ele>
        <time>2012-01-07T14:58:06+01:00</time>
      </trkpt>
      <trkpt lat="43.70744" lon="6.96555">
        <ele>765.346924</ele>
        <time>2012-01-07T14:58:18+01:00</time>
      </trkpt>
      <trkpt lat="43.70744" lon="6.96552">
        <ele>771.595215</ele>
        <time>2012-01-07T14:58:49+01:00</time>
      </trkpt>
      <trkpt lat="43.70743" lon="6.96554">
        <ele>770.634033</ele>
        <time>2012-01-07T14:58:58+01:00</time>
      </trkpt>
      <trkpt lat="43.70742" lon="6.96554">
        <ele>770.15332</ele>
        <time>2012-01-07T14:59:04+01:00</time>
      </trkpt>
      <trkpt lat="43.70742" lon="6.96555">
        <ele>770.15332</ele>
        <time>2012-01-07T14:59:05+01:00</time>
      </trkpt>
      <trkpt lat="43.70745" lon="6.96569">
        <ele>770.15332</ele>
        <time>2012-01-07T14:59:13+01:00</time>
      </trkpt>
      <trkpt lat="43.70749" lon="6.96585">
        <ele>769.192139</ele>
        <time>2012-01-07T14:59:18+01:00</time>
      </trkpt>
      <trkpt lat="43.7075" lon="6.96599">
        <ele>769.192139</ele>
        <time>2012-01-07T14:59:23+01:00</time>
      </trkpt>
      <trkpt lat="43.70757" lon="6.96617">
        <ele>768.711426</ele>
        <time>2012-01-07T14:59:27+01:00</time>
      </trkpt>
      <trkpt lat="43.7077" lon="6.96637">
        <ele>767.269531</ele>
        <time>2012-01-07T14:59:31+01:00</time>
      </trkpt>
      <trkpt lat="43.70773" lon="6.96643">
        <ele>766.788818</ele>
        <time>2012-01-07T14:59:32+01:00</time>
      </trkpt>
      <trkpt lat="43.7078" lon="6.96659">
        <ele>764.866211</ele>
        <time>2012-01-07T14:59:36+01:00</time>
      </trkpt>
      <trkpt lat="43.70781" lon="6.9666">
        <ele>764.385498</ele>
        <time>2012-01-07T14:59:41+01:00</time>
      </trkpt>
      <trkpt lat="43.70781" lon="6.9666">
        <ele>763.904541</ele>
        <time>2012-01-07T14:59:48+01:00</time>
      </trkpt>
      <trkpt lat="43.70782" lon="6.9666">
        <ele>766.308105</ele>
        <time>2012-01-07T14:59:54+01:00</time>
      </trkpt>
      <trkpt lat="43.70782" lon="6.9666">
        <ele>767.269531</ele>
        <time>2012-01-07T14:59:58+01:00</time>
      </trkpt>
      <trkpt lat="43.70782" lon="6.96661">
        <ele>767.269531</ele>
        <time>2012-01-07T15:00:04+01:00</time>
      </trkpt>
      <trkpt lat="43.70786" lon="6.96663">
        <ele>764.866211</ele>
        <time>2012-01-07T15:00:10+01:00</time>
      </trkpt>
      <trkpt lat="43.70786" lon="6.96664">
        <ele>764.866211</ele>
        <time>2012-01-07T15:00:17+01:00</time>
      </trkpt>
      <trkpt lat="43.70786" lon="6.96664">
        <ele>763.904541</ele>
        <time>2012-01-07T15:00:23+01:00</time>
      </trkpt>
      <trkpt lat="43.70786" lon="6.96664">
        <ele>763.904541</ele>
        <time>2012-01-07T15:00:25+01:00</time>
      </trkpt>
      <trkpt lat="43.7079" lon="6.96671">
        <ele>762.462646</ele>
        <time>2012-01-07T15:00:28+01:00</time>
      </trkpt>
      <trkpt lat="43.7079" lon="6.96672">
        <ele>761.982178</ele>
        <time>2012-01-07T15:00:35+01:00</time>
      </trkpt>
      <trkpt lat="43.70791" lon="6.96673">
        <ele>762.943359</ele>
        <time>2012-01-07T15:00:42+01:00</time>
      </trkpt>
      <trkpt lat="43.70791" lon="6.96673">
        <ele>762.943359</ele>
        <time>2012-01-07T15:00:43+01:00</time>
      </trkpt>
      <trkpt lat="43.708" lon="6.96686">
        <ele>760.059326</ele>
        <time>2012-01-07T15:00:47+01:00</time>
      </trkpt>
      <trkpt lat="43.708" lon="6.96691">
        <ele>759.578857</ele>
        <time>2012-01-07T15:00:48+01:00</time>
      </trkpt>
      <trkpt lat="43.70808" lon="6.96719">
        <ele>753.330322</ele>
        <time>2012-01-07T15:00:53+01:00</time>
      </trkpt>
      <trkpt lat="43.70811" lon="6.96725">
        <ele>752.368896</ele>
        <time>2012-01-07T15:00:54+01:00</time>
      </trkpt>
      <trkpt lat="43.70823" lon="6.96745">
        <ele>747.081543</ele>
        <time>2012-01-07T15:00:58+01:00</time>
      </trkpt>
      <trkpt lat="43.7084" lon="6.96766">
        <ele>740.833008</ele>
        <time>2012-01-07T15:01:03+01:00</time>
      </trkpt>
      <trkpt lat="43.70858" lon="6.96779">
        <ele>736.507324</ele>
        <time>2012-01-07T15:01:07+01:00</time>
      </trkpt>
      <trkpt lat="43.70879" lon="6.96779">
        <ele>731.700439</ele>
        <time>2012-01-07T15:01:11+01:00</time>
      </trkpt>
      <trkpt lat="43.70901" lon="6.96789">
        <ele>727.374756</ele>
        <time>2012-01-07T15:01:16+01:00</time>
      </trkpt>
      <trkpt lat="43.70906" lon="6.96811">
        <ele>723.529541</ele>
        <time>2012-01-07T15:01:19+01:00</time>
      </trkpt>
      <trkpt lat="43.70916" lon="6.96837">
        <ele>719.684326</ele>
        <time>2012-01-07T15:01:23+01:00</time>
      </trkpt>
      <trkpt lat="43.70923" lon="6.96861">
        <ele>716.31958</ele>
        <time>2012-01-07T15:01:27+01:00</time>
      </trkpt>
      <trkpt lat="43.70923" lon="6.96886">
        <ele>713.916016</ele>
        <time>2012-01-07T15:01:31+01:00</time>
      </trkpt>
      <trkpt lat="43.70923" lon="6.9689">
        <ele>713.916016</ele>
        <time>2012-01-07T15:01:32+01:00</time>
      </trkpt>
      <trkpt lat="43.70923" lon="6.96901">
        <ele>712.474121</ele>
        <time>2012-01-07T15:01:34+01:00</time>
      </trkpt>
      <trkpt lat="43.70925" lon="6.96911">
        <ele>711.512939</ele>
        <time>2012-01-07T15:01:38+01:00</time>
      </trkpt>
      <trkpt lat="43.70925" lon="6.96912">
        <ele>711.512939</ele>
        <time>2012-01-07T15:01:42+01:00</time>
      </trkpt>
      <trkpt lat="43.70932" lon="6.96923">
        <ele>710.070801</ele>
        <time>2012-01-07T15:01:47+01:00</time>
      </trkpt>
      <trkpt lat="43.70933" lon="6.96923">
        <ele>710.070801</ele>
        <time>2012-01-07T15:01:48+01:00</time>
      </trkpt>
      <trkpt lat="43.70935" lon="6.96923">
        <ele>709.590332</ele>
        <time>2012-01-07T15:02:02+01:00</time>
      </trkpt>
      <trkpt lat="43.70937" lon="6.96926">
        <ele>709.109619</ele>
        <time>2012-01-07T15:02:04+01:00</time>
      </trkpt>
      <trkpt lat="43.70951" lon="6.9695">
        <ele>703.82251</ele>
        <time>2012-01-07T15:02:10+01:00</time>
      </trkpt>
      <trkpt lat="43.7096" lon="6.96959">
        <ele>700.458008</ele>
        <time>2012-01-07T15:02:14+01:00</time>
      </trkpt>
      <trkpt lat="43.70961" lon="6.96966">
        <ele>699.015625</ele>
        <time>2012-01-07T15:02:16+01:00</time>
      </trkpt>
      <trkpt lat="43.70959" lon="6.9697">
        <ele>699.977051</ele>
        <time>2012-01-07T15:02:32+01:00</time>
      </trkpt>
      <trkpt lat="43.70958" lon="6.9697">
        <ele>699.496338</ele>
        <time>2012-01-07T15:02:47+01:00</time>
      </trkpt>
      <trkpt lat="43.70958" lon="6.96972">
        <ele>699.496338</ele>
        <time>2012-01-07T15:02:52+01:00</time>
      </trkpt>
      <trkpt lat="43.70958" lon="6.96972">
        <ele>699.496338</ele>
        <time>2012-01-07T15:03:10+01:00</time>
      </trkpt>
      <trkpt lat="43.70958" lon="6.96971">
        <ele>700.458008</ele>
        <time>2012-01-07T15:03:24+01:00</time>
      </trkpt>
      <trkpt lat="43.70958" lon="6.9697">
        <ele>700.458008</ele>
        <time>2012-01-07T15:03:39+01:00</time>
      </trkpt>
      <trkpt lat="43.70959" lon="6.9697">
        <ele>700.458008</ele>
        <time>2012-01-07T15:04:07+01:00</time>
      </trkpt>
      <trkpt lat="43.70959" lon="6.9697">
        <ele>701.899902</ele>
        <time>2012-01-07T15:04:17+01:00</time>
      </trkpt>
      <trkpt lat="43.70958" lon="6.96969">
        <ele>704.303223</ele>
        <time>2012-01-07T15:04:37+01:00</time>
      </trkpt>
      <trkpt lat="43.70959" lon="6.96974">
        <ele>703.82251</ele>
        <time>2012-01-07T15:04:47+01:00</time>
      </trkpt>
      <trkpt lat="43.70956" lon="6.96995">
        <ele>700.938477</ele>
        <time>2012-01-07T15:04:53+01:00</time>
      </trkpt>
      <trkpt lat="43.70949" lon="6.97025">
        <ele>697.57373</ele>
        <time>2012-01-07T15:04:58+01:00</time>
      </trkpt>
      <trkpt lat="43.70931" lon="6.97067">
        <ele>695.17041</ele>
        <time>2012-01-07T15:05:04+01:00</time>
      </trkpt>
      <trkpt lat="43.70911" lon="6.97116">
        <ele>691.805908</ele>
        <time>2012-01-07T15:05:11+01:00</time>
      </trkpt>
      <trkpt lat="43.70899" lon="6.97142">
        <ele>688.922119</ele>
        <time>2012-01-07T15:05:15+01:00</time>
      </trkpt>
      <trkpt lat="43.70893" lon="6.97158">
        <ele>687.47998</ele>
        <time>2012-01-07T15:05:17+01:00</time>
      </trkpt>
      <trkpt lat="43.70878" lon="6.972">
        <ele>685.076904</ele>
        <time>2012-01-07T15:05:22+01:00</time>
      </trkpt>
      <trkpt lat="43.70865" lon="6.97215">
        <ele>683.634521</ele>
        <time>2012-01-07T15:05:24+01:00</time>
      </trkpt>
      <trkpt lat="43.70828" lon="6.97255">
        <ele>677.38623</ele>
        <time>2012-01-07T15:05:30+01:00</time>
      </trkpt>
      <trkpt lat="43.70822" lon="6.97262">
        <ele>676.905518</ele>
        <time>2012-01-07T15:05:31+01:00</time>
      </trkpt>
      <trkpt lat="43.70797" lon="6.97314">
        <ele>671.618164</ele>
        <time>2012-01-07T15:05:36+01:00</time>
      </trkpt>
      <trkpt lat="43.70793" lon="6.97333">
        <ele>669.215088</ele>
        <time>2012-01-07T15:05:38+01:00</time>
      </trkpt>
      <trkpt lat="43.70783" lon="6.97358">
        <ele>666.330811</ele>
        <time>2012-01-07T15:05:43+01:00</time>
      </trkpt>
      <trkpt lat="43.70781" lon="6.97363">
        <ele>665.850342</ele>
        <time>2012-01-07T15:05:44+01:00</time>
      </trkpt>
      <trkpt lat="43.70775" lon="6.97382">
        <ele>665.850342</ele>
        <time>2012-01-07T15:05:48+01:00</time>
      </trkpt>
      <trkpt lat="43.70777" lon="6.97401">
        <ele>665.369629</ele>
        <time>2012-01-07T15:05:53+01:00</time>
      </trkpt>
      <trkpt lat="43.70779" lon="6.97414">
        <ele>664.888916</ele>
        <time>2012-01-07T15:05:58+01:00</time>
      </trkpt>
      <trkpt lat="43.70776" lon="6.9743">
        <ele>664.408203</ele>
        <time>2012-01-07T15:06:03+01:00</time>
      </trkpt>
      <trkpt lat="43.7077" lon="6.97438">
        <ele>663.92749</ele>
        <time>2012-01-07T15:06:07+01:00</time>
      </trkpt>
      <trkpt lat="43.70764" lon="6.97441">
        <ele>663.447021</ele>
        <time>2012-01-07T15:06:10+01:00</time>
      </trkpt>
      <trkpt lat="43.70763" lon="6.97445">
        <ele>662.966309</ele>
        <time>2012-01-07T15:06:16+01:00</time>
      </trkpt>
      <trkpt lat="43.70763" lon="6.97446">
        <ele>662.966309</ele>
        <time>2012-01-07T15:06:20+01:00</time>
      </trkpt>
      <trkpt lat="43.70754" lon="6.97461">
        <ele>661.524414</ele>
        <time>2012-01-07T15:06:25+01:00</time>
      </trkpt>
      <trkpt lat="43.70738" lon="6.97484">
        <ele>659.601807</ele>
        <time>2012-01-07T15:06:29+01:00</time>
      </trkpt>
      <trkpt lat="43.70734" lon="6.97491">
        <ele>658.640381</ele>
        <time>2012-01-07T15:06:30+01:00</time>
      </trkpt>
      <trkpt lat="43.70699" lon="6.97518">
        <ele>655.275879</ele>
        <time>2012-01-07T15:06:35+01:00</time>
      </trkpt>
      <trkpt lat="43.70676" lon="6.97532">
        <ele>653.353271</ele>
        <time>2012-01-07T15:06:38+01:00</time>
      </trkpt>
      <trkpt lat="43.70646" lon="6.97545">
        <ele>650.949707</ele>
        <time>2012-01-07T15:06:42+01:00</time>
      </trkpt>
      <trkpt lat="43.70635" lon="6.97556">
        <ele>650.469238</ele>
        <time>2012-01-07T15:06:44+01:00</time>
      </trkpt>
      <trkpt lat="43.70613" lon="6.97563">
        <ele>649.507812</ele>
        <time>2012-01-07T15:06:48+01:00</time>
      </trkpt>
      <trkpt lat="43.70599" lon="6.97561">
        <ele>648.065918</ele>
        <time>2012-01-07T15:06:52+01:00</time>
      </trkpt>
      <trkpt lat="43.70593" lon="6.97549">
        <ele>646.143311</ele>
        <time>2012-01-07T15:06:56+01:00</time>
      </trkpt>
      <trkpt lat="43.70587" lon="6.97534">
        <ele>644.220703</ele>
        <time>2012-01-07T15:07:00+01:00</time>
      </trkpt>
      <trkpt lat="43.70592" lon="6.97523">
        <ele>641.817383</ele>
        <time>2012-01-07T15:07:04+01:00</time>
      </trkpt>
      <trkpt lat="43.70589" lon="6.97514">
        <ele>639.894775</ele>
        <time>2012-01-07T15:07:07+01:00</time>
      </trkpt>
      <trkpt lat="43.70589" lon="6.97513">
        <ele>640.855957</ele>
        <time>2012-01-07T15:07:10+01:00</time>
      </trkpt>
      <trkpt lat="43.70588" lon="6.97511">
        <ele>644.701172</ele>
        <time>2012-01-07T15:07:21+01:00</time>
      </trkpt>
      <trkpt lat="43.70585" lon="6.97508">
        <ele>643.73999</ele>
        <time>2012-01-07T15:07:26+01:00</time>
      </trkpt>
      <trkpt lat="43.70585" lon="6.97506">
        <ele>646.143311</ele>
        <time>2012-01-07T15:07:33+01:00</time>
      </trkpt>
      <trkpt lat="43.70583" lon="6.97496">
        <ele>645.181885</ele>
        <time>2012-01-07T15:07:36+01:00</time>
      </trkpt>
      <trkpt lat="43.70577" lon="6.97483">
        <ele>642.778809</ele>
        <time>2012-01-07T15:07:40+01:00</time>
      </trkpt>
      <trkpt lat="43.70574" lon="6.97472">
        <ele>640.855957</ele>
        <time>2012-01-07T15:07:42+01:00</time>
      </trkpt>
      <trkpt lat="43.70564" lon="6.97468">
        <ele>637.010742</ele>
        <time>2012-01-07T15:07:46+01:00</time>
      </trkpt>
      <trkpt lat="43.70561" lon="6.97469">
        <ele>636.530273</ele>
        <time>2012-01-07T15:07:47+01:00</time>
      </trkpt>
      <trkpt lat="43.70545" lon="6.97471">
        <ele>633.165283</ele>
        <time>2012-01-07T15:07:52+01:00</time>
      </trkpt>
      <trkpt lat="43.70534" lon="6.97467">
        <ele>630.281494</ele>
        <time>2012-01-07T15:07:56+01:00</time>
      </trkpt>
      <trkpt lat="43.70531" lon="6.97464">
        <ele>628.8396</ele>
        <time>2012-01-07T15:08:00+01:00</time>
      </trkpt>
      <trkpt lat="43.7053" lon="6.97464">
        <ele>627.397705</ele>
        <time>2012-01-07T15:08:07+01:00</time>
      </trkpt>
      <trkpt lat="43.70528" lon="6.9746">
        <ele>626.436279</ele>
        <time>2012-01-07T15:08:12+01:00</time>
      </trkpt>
      <trkpt lat="43.70527" lon="6.97461">
        <ele>625.955566</ele>
        <time>2012-01-07T15:08:25+01:00</time>
      </trkpt>
      <trkpt lat="43.70524" lon="6.97462">
        <ele>625.955566</ele>
        <time>2012-01-07T15:08:35+01:00</time>
      </trkpt>
      <trkpt lat="43.70523" lon="6.97461">
        <ele>625.955566</ele>
        <time>2012-01-07T15:08:36+01:00</time>
      </trkpt>
      <trkpt lat="43.70511" lon="6.97462">
        <ele>623.55249</ele>
        <time>2012-01-07T15:08:41+01:00</time>
      </trkpt>
      <trkpt lat="43.70496" lon="6.97462">
        <ele>621.14917</ele>
        <time>2012-01-07T15:08:45+01:00</time>
      </trkpt>
      <trkpt lat="43.70483" lon="6.97455">
        <ele>618.264893</ele>
        <time>2012-01-07T15:08:50+01:00</time>
      </trkpt>
      <trkpt lat="43.70474" lon="6.9746">
        <ele>615.861816</ele>
        <time>2012-01-07T15:08:53+01:00</time>
      </trkpt>
      <trkpt lat="43.70466" lon="6.97462">
        <ele>613.938965</ele>
        <time>2012-01-07T15:08:56+01:00</time>
      </trkpt>
      <trkpt lat="43.70455" lon="6.97453">
        <ele>612.977783</ele>
        <time>2012-01-07T15:09:01+01:00</time>
      </trkpt>
      <trkpt lat="43.70453" lon="6.97452">
        <ele>612.49707</ele>
        <time>2012-01-07T15:09:03+01:00</time>
      </trkpt>
      <trkpt lat="43.70451" lon="6.97451">
        <ele>612.016602</ele>
        <time>2012-01-07T15:09:05+01:00</time>
      </trkpt>
      <trkpt lat="43.70458" lon="6.97442">
        <ele>611.535889</ele>
        <time>2012-01-07T15:09:11+01:00</time>
      </trkpt>
      <trkpt lat="43.7046" lon="6.97439">
        <ele>611.055176</ele>
        <time>2012-01-07T15:09:12+01:00</time>
      </trkpt>
      <trkpt lat="43.70455" lon="6.97432">
        <ele>608.651855</ele>
        <time>2012-01-07T15:09:17+01:00</time>
      </trkpt>
      <trkpt lat="43.70451" lon="6.97429">
        <ele>608.171387</ele>
        <time>2012-01-07T15:09:19+01:00</time>
      </trkpt>
      <trkpt lat="43.7045" lon="6.97424">
        <ele>606.729248</ele>
        <time>2012-01-07T15:09:23+01:00</time>
      </trkpt>
      <trkpt lat="43.70451" lon="6.97413">
        <ele>606.248535</ele>
        <time>2012-01-07T15:09:27+01:00</time>
      </trkpt>
      <trkpt lat="43.70444" lon="6.97408">
        <ele>606.248535</ele>
        <time>2012-01-07T15:09:31+01:00</time>
      </trkpt>
      <trkpt lat="43.70443" lon="6.97407">
        <ele>608.171387</ele>
        <time>2012-01-07T15:09:39+01:00</time>
      </trkpt>
      <trkpt lat="43.70442" lon="6.97407">
        <ele>608.171387</ele>
        <time>2012-01-07T15:09:46+01:00</time>
      </trkpt>
      <trkpt lat="43.70441" lon="6.97407">
        <ele>609.132568</ele>
        <time>2012-01-07T15:09:56+01:00</time>
      </trkpt>
      <trkpt lat="43.70441" lon="6.97407">
        <ele>608.651855</ele>
        <time>2012-01-07T15:10:07+01:00</time>
      </trkpt>
      <trkpt lat="43.70439" lon="6.97409">
        <ele>608.171387</ele>
        <time>2012-01-07T15:10:34+01:00</time>
      </trkpt>
      <trkpt lat="43.70436" lon="6.97411">
        <ele>609.132568</ele>
        <time>2012-01-07T15:10:45+01:00</time>
      </trkpt>
      <trkpt lat="43.70433" lon="6.97412">
        <ele>608.651855</ele>
        <time>2012-01-07T15:10:50+01:00</time>
      </trkpt>
      <trkpt lat="43.70428" lon="6.97413">
        <ele>608.171387</ele>
        <time>2012-01-07T15:10:56+01:00</time>
      </trkpt>
      <trkpt lat="43.70424" lon="6.97412">
        <ele>609.613281</ele>
        <time>2012-01-07T15:11:24+01:00</time>
      </trkpt>
      <trkpt lat="43.70419" lon="6.97413">
        <ele>608.171387</ele>
        <time>2012-01-07T15:11:30+01:00</time>
      </trkpt>
      <trkpt lat="43.70419" lon="6.9741">
        <ele>606.248535</ele>
        <time>2012-01-07T15:11:35+01:00</time>
      </trkpt>
      <trkpt lat="43.70418" lon="6.97407">
        <ele>604.806641</ele>
        <time>2012-01-07T15:11:41+01:00</time>
      </trkpt>
      <trkpt lat="43.70418" lon="6.97411">
        <ele>605.287354</ele>
        <time>2012-01-07T15:11:49+01:00</time>
      </trkpt>
      <trkpt lat="43.70418" lon="6.97413">
        <ele>606.729248</ele>
        <time>2012-01-07T15:11:55+01:00</time>
      </trkpt>
      <trkpt lat="43.70417" lon="6.9741">
        <ele>606.248535</ele>
        <time>2012-01-07T15:11:59+01:00</time>
      </trkpt>
      <trkpt lat="43.70416" lon="6.97408">
        <ele>605.287354</ele>
        <time>2012-01-07T15:12:05+01:00</time>
      </trkpt>
      <trkpt lat="43.70416" lon="6.97409">
        <ele>604.326172</ele>
        <time>2012-01-07T15:12:18+01:00</time>
      </trkpt>
      <trkpt lat="43.70414" lon="6.97409">
        <ele>603.845215</ele>
        <time>2012-01-07T15:12:24+01:00</time>
      </trkpt>
      <trkpt lat="43.70412" lon="6.97407">
        <ele>603.364502</ele>
        <time>2012-01-07T15:12:29+01:00</time>
      </trkpt>
      <trkpt lat="43.70412" lon="6.97406">
        <ele>602.883789</ele>
        <time>2012-01-07T15:12:30+01:00</time>
      </trkpt>
      <trkpt lat="43.70401" lon="6.97399">
        <ele>601.922607</ele>
        <time>2012-01-07T15:12:36+01:00</time>
      </trkpt>
      <trkpt lat="43.70392" lon="6.97395">
        <ele>601.441895</ele>
        <time>2012-01-07T15:12:39+01:00</time>
      </trkpt>
      <trkpt lat="43.70383" lon="6.97396">
        <ele>600.961182</ele>
        <time>2012-01-07T15:12:44+01:00</time>
      </trkpt>
      <trkpt lat="43.70378" lon="6.97394">
        <ele>600.480713</ele>
        <time>2012-01-07T15:12:50+01:00</time>
      </trkpt>
      <trkpt lat="43.70377" lon="6.97397">
        <ele>601.441895</ele>
        <time>2012-01-07T15:12:56+01:00</time>
      </trkpt>
      <trkpt lat="43.70374" lon="6.97402">
        <ele>599.519287</ele>
        <time>2012-01-07T15:13:01+01:00</time>
      </trkpt>
      <trkpt lat="43.70373" lon="6.97401">
        <ele>599.519287</ele>
        <time>2012-01-07T15:13:07+01:00</time>
      </trkpt>
      <trkpt lat="43.70375" lon="6.97399">
        <ele>599.038574</ele>
        <time>2012-01-07T15:13:12+01:00</time>
      </trkpt>
      <trkpt lat="43.70376" lon="6.97398">
        <ele>597.59668</ele>
        <time>2012-01-07T15:13:18+01:00</time>
      </trkpt>
      <trkpt lat="43.70375" lon="6.97399">
        <ele>597.115967</ele>
        <time>2012-01-07T15:13:26+01:00</time>
      </trkpt>
      <trkpt lat="43.70373" lon="6.97402">
        <ele>595.674072</ele>
        <time>2012-01-07T15:13:31+01:00</time>
      </trkpt>
      <trkpt lat="43.70373" lon="6.97401">
        <ele>596.154785</ele>
        <time>2012-01-07T15:13:36+01:00</time>
      </trkpt>
      <trkpt lat="43.7037" lon="6.97403">
        <ele>597.115967</ele>
        <time>2012-01-07T15:13:42+01:00</time>
      </trkpt>
      <trkpt lat="43.7036" lon="6.97411">
        <ele>595.674072</ele>
        <time>2012-01-07T15:13:47+01:00</time>
      </trkpt>
      <trkpt lat="43.70353" lon="6.97416">
        <ele>594.232178</ele>
        <time>2012-01-07T15:13:51+01:00</time>
      </trkpt>
      <trkpt lat="43.70346" lon="6.97427">
        <ele>592.790283</ele>
        <time>2012-01-07T15:13:57+01:00</time>
      </trkpt>
      <trkpt lat="43.70341" lon="6.97431">
        <ele>592.30957</ele>
        <time>2012-01-07T15:14:00+01:00</time>
      </trkpt>
      <trkpt lat="43.70341" lon="6.97431">
        <ele>592.790283</ele>
        <time>2012-01-07T15:14:06+01:00</time>
      </trkpt>
      <trkpt lat="43.70342" lon="6.97431">
        <ele>593.270752</ele>
        <time>2012-01-07T15:14:16+01:00</time>
      </trkpt>
      <trkpt lat="43.7034" lon="6.97431">
        <ele>592.790283</ele>
        <time>2012-01-07T15:14:30+01:00</time>
      </trkpt>
      <trkpt lat="43.70334" lon="6.97432">
        <ele>591.348145</ele>
        <time>2012-01-07T15:14:36+01:00</time>
      </trkpt>
      <trkpt lat="43.7033" lon="6.97432">
        <ele>590.386963</ele>
        <time>2012-01-07T15:14:42+01:00</time>
      </trkpt>
      <trkpt lat="43.70331" lon="6.97429">
        <ele>589.425537</ele>
        <time>2012-01-07T15:15:06+01:00</time>
      </trkpt>
      <trkpt lat="43.70332" lon="6.97429">
        <ele>591.348145</ele>
        <time>2012-01-07T15:15:26+01:00</time>
      </trkpt>
      <trkpt lat="43.70332" lon="6.97428">
        <ele>590.386963</ele>
        <time>2012-01-07T15:15:47+01:00</time>
      </trkpt>
      <trkpt lat="43.70316" lon="6.97418">
        <ele>590.386963</ele>
        <time>2012-01-07T15:15:53+01:00</time>
      </trkpt>
      <trkpt lat="43.7029" lon="6.97409">
        <ele>588.464355</ele>
        <time>2012-01-07T15:15:59+01:00</time>
      </trkpt>
      <trkpt lat="43.70285" lon="6.97407">
        <ele>587.983398</ele>
        <time>2012-01-07T15:16:00+01:00</time>
      </trkpt>
      <trkpt lat="43.70272" lon="6.97379">
        <ele>584.138184</ele>
        <time>2012-01-07T15:16:04+01:00</time>
      </trkpt>
      <trkpt lat="43.70272" lon="6.97369">
        <ele>583.176758</ele>
        <time>2012-01-07T15:16:05+01:00</time>
      </trkpt>
      <trkpt lat="43.70275" lon="6.973">
        <ele>576.447754</ele>
        <time>2012-01-07T15:16:11+01:00</time>
      </trkpt>
      <trkpt lat="43.70276" lon="6.97273">
        <ele>572.602539</ele>
        <time>2012-01-07T15:16:14+01:00</time>
      </trkpt>
      <trkpt lat="43.7027" lon="6.97256">
        <ele>567.795654</ele>
        <time>2012-01-07T15:16:19+01:00</time>
      </trkpt>
      <trkpt lat="43.70269" lon="6.97245">
        <ele>565.392578</ele>
        <time>2012-01-07T15:16:25+01:00</time>
      </trkpt>
      <trkpt lat="43.70269" lon="6.97237">
        <ele>563.950439</ele>
        <time>2012-01-07T15:16:30+01:00</time>
      </trkpt>
      <trkpt lat="43.70269" lon="6.97216">
        <ele>560.585938</ele>
        <time>2012-01-07T15:16:37+01:00</time>
      </trkpt>
      <trkpt lat="43.70264" lon="6.97189">
        <ele>557.221436</ele>
        <time>2012-01-07T15:16:41+01:00</time>
      </trkpt>
      <trkpt lat="43.7026" lon="6.97173">
        <ele>556.26001</ele>
        <time>2012-01-07T15:16:43+01:00</time>
      </trkpt>
      <trkpt lat="43.70255" lon="6.97159">
        <ele>555.298584</ele>
        <time>2012-01-07T15:16:47+01:00</time>
      </trkpt>
      <trkpt lat="43.70254" lon="6.97162">
        <ele>555.298584</ele>
        <time>2012-01-07T15:16:49+01:00</time>
      </trkpt>
      <trkpt lat="43.70251" lon="6.97185">
        <ele>552.414551</ele>
        <time>2012-01-07T15:16:54+01:00</time>
      </trkpt>
      <trkpt lat="43.70244" lon="6.97215">
        <ele>548.088867</ele>
        <time>2012-01-07T15:16:57+01:00</time>
      </trkpt>
      <trkpt lat="43.70237" lon="6.97266">
        <ele>543.762817</ele>
        <time>2012-01-07T15:17:02+01:00</time>
      </trkpt>
      <trkpt lat="43.70235" lon="6.9728">
        <ele>542.801514</ele>
        <time>2012-01-07T15:17:04+01:00</time>
      </trkpt>
      <trkpt lat="43.7023" lon="6.97288">
        <ele>540.878906</ele>
        <time>2012-01-07T15:17:08+01:00</time>
      </trkpt>
      <trkpt lat="43.7023" lon="6.97278">
        <ele>539.43689</ele>
        <time>2012-01-07T15:17:14+01:00</time>
      </trkpt>
      <trkpt lat="43.70231" lon="6.97275">
        <ele>538.956299</ele>
        <time>2012-01-07T15:17:15+01:00</time>
      </trkpt>
      <trkpt lat="43.70232" lon="6.97252">
        <ele>535.591553</ele>
        <time>2012-01-07T15:17:20+01:00</time>
      </trkpt>
      <trkpt lat="43.70233" lon="6.97221">
        <ele>531.746338</ele>
        <time>2012-01-07T15:17:24+01:00</time>
      </trkpt>
      <trkpt lat="43.70228" lon="6.97196">
        <ele>528.862549</ele>
        <time>2012-01-07T15:17:27+01:00</time>
      </trkpt>
      <trkpt lat="43.70226" lon="6.97179">
        <ele>526.459106</ele>
        <time>2012-01-07T15:17:29+01:00</time>
      </trkpt>
      <trkpt lat="43.70218" lon="6.97174">
        <ele>525.017212</ele>
        <time>2012-01-07T15:17:33+01:00</time>
      </trkpt>
      <trkpt lat="43.70218" lon="6.97186">
        <ele>524.055786</ele>
        <time>2012-01-07T15:17:36+01:00</time>
      </trkpt>
      <trkpt lat="43.70219" lon="6.97204">
        <ele>523.094604</ele>
        <time>2012-01-07T15:17:40+01:00</time>
      </trkpt>
      <trkpt lat="43.70218" lon="6.97217">
        <ele>523.094604</ele>
        <time>2012-01-07T15:17:42+01:00</time>
      </trkpt>
      <trkpt lat="43.70212" lon="6.97257">
        <ele>521.171997</ele>
        <time>2012-01-07T15:17:47+01:00</time>
      </trkpt>
      <trkpt lat="43.7021" lon="6.97266">
        <ele>520.691284</ele>
        <time>2012-01-07T15:17:48+01:00</time>
      </trkpt>
      <trkpt lat="43.70202" lon="6.97291">
        <ele>518.768555</ele>
        <time>2012-01-07T15:17:51+01:00</time>
      </trkpt>
      <trkpt lat="43.7018" lon="6.97329">
        <ele>512.52002</ele>
        <time>2012-01-07T15:17:56+01:00</time>
      </trkpt>
      <trkpt lat="43.70161" lon="6.9736">
        <ele>505.790894</ele>
        <time>2012-01-07T15:18:01+01:00</time>
      </trkpt>
      <trkpt lat="43.70159" lon="6.97367">
        <ele>504.348877</ele>
        <time>2012-01-07T15:18:02+01:00</time>
      </trkpt>
      <trkpt lat="43.70156" lon="6.97381">
        <ele>502.426147</ele>
        <time>2012-01-07T15:18:04+01:00</time>
      </trkpt>
      <trkpt lat="43.70155" lon="6.97383">
        <ele>500.984131</ele>
        <time>2012-01-07T15:18:11+01:00</time>
      </trkpt>
      <trkpt lat="43.70154" lon="6.97382">
        <ele>500.984131</ele>
        <time>2012-01-07T15:18:20+01:00</time>
      </trkpt>
      <trkpt lat="43.70153" lon="6.97383">
        <ele>501.464844</ele>
        <time>2012-01-07T15:18:26+01:00</time>
      </trkpt>
      <trkpt lat="43.70151" lon="6.97387">
        <ele>505.790894</ele>
        <time>2012-01-07T15:18:40+01:00</time>
      </trkpt>
      <trkpt lat="43.7015" lon="6.97385">
        <ele>506.271484</ele>
        <time>2012-01-07T15:18:52+01:00</time>
      </trkpt>
      <trkpt lat="43.7015" lon="6.97384">
        <ele>504.829468</ele>
        <time>2012-01-07T15:19:03+01:00</time>
      </trkpt>
      <trkpt lat="43.70152" lon="6.9738">
        <ele>508.674683</ele>
        <time>2012-01-07T15:19:26+01:00</time>
      </trkpt>
      <trkpt lat="43.7015" lon="6.9738">
        <ele>507.232788</ele>
        <time>2012-01-07T15:19:30+01:00</time>
      </trkpt>
      <trkpt lat="43.70148" lon="6.97382">
        <ele>506.752075</ele>
        <time>2012-01-07T15:19:31+01:00</time>
      </trkpt>
      <trkpt lat="43.70142" lon="6.97402">
        <ele>503.868164</ele>
        <time>2012-01-07T15:19:35+01:00</time>
      </trkpt>
      <trkpt lat="43.70139" lon="6.9743">
        <ele>499.542236</ele>
        <time>2012-01-07T15:19:39+01:00</time>
      </trkpt>
      <trkpt lat="43.70138" lon="6.97437">
        <ele>499.061523</ele>
        <time>2012-01-07T15:19:40+01:00</time>
      </trkpt>
      <trkpt lat="43.70124" lon="6.97454">
        <ele>493.774292</ele>
        <time>2012-01-07T15:19:44+01:00</time>
      </trkpt>
      <trkpt lat="43.70121" lon="6.97459">
        <ele>492.812988</ele>
        <time>2012-01-07T15:19:45+01:00</time>
      </trkpt>
      <trkpt lat="43.7011" lon="6.97474">
        <ele>488.00647</ele>
        <time>2012-01-07T15:19:48+01:00</time>
      </trkpt>
      <trkpt lat="43.70101" lon="6.97493">
        <ele>482.238525</ele>
        <time>2012-01-07T15:19:53+01:00</time>
      </trkpt>
      <trkpt lat="43.70098" lon="6.97494">
        <ele>476.951294</ele>
        <time>2012-01-07T15:19:56+01:00</time>
      </trkpt>
      <trkpt lat="43.7009" lon="6.97475">
        <ele>470.221924</ele>
        <time>2012-01-07T15:20:00+01:00</time>
      </trkpt>
      <trkpt lat="43.70078" lon="6.97464">
        <ele>465.896118</ele>
        <time>2012-01-07T15:20:05+01:00</time>
      </trkpt>
      <trkpt lat="43.70073" lon="6.97471">
        <ele>464.934814</ele>
        <time>2012-01-07T15:20:07+01:00</time>
      </trkpt>
      <trkpt lat="43.70063" lon="6.97487">
        <ele>462.050781</ele>
        <time>2012-01-07T15:20:10+01:00</time>
      </trkpt>
      <trkpt lat="43.70059" lon="6.97511">
        <ele>458.686157</ele>
        <time>2012-01-07T15:20:14+01:00</time>
      </trkpt>
      <trkpt lat="43.70058" lon="6.97532">
        <ele>456.282959</ele>
        <time>2012-01-07T15:20:17+01:00</time>
      </trkpt>
      <trkpt lat="43.70052" lon="6.97547">
        <ele>454.84082</ele>
        <time>2012-01-07T15:20:19+01:00</time>
      </trkpt>
      <trkpt lat="43.70047" lon="6.97562">
        <ele>452.437622</ele>
        <time>2012-01-07T15:20:21+01:00</time>
      </trkpt>
      <trkpt lat="43.7004" lon="6.9758">
        <ele>450.034424</ele>
        <time>2012-01-07T15:20:24+01:00</time>
      </trkpt>
      <trkpt lat="43.70035" lon="6.97618">
        <ele>442.824463</ele>
        <time>2012-01-07T15:20:31+01:00</time>
      </trkpt>
      <trkpt lat="43.70034" lon="6.97622">
        <ele>441.863159</ele>
        <time>2012-01-07T15:20:32+01:00</time>
      </trkpt>
      <trkpt lat="43.70028" lon="6.97643">
        <ele>438.017822</ele>
        <time>2012-01-07T15:20:37+01:00</time>
      </trkpt>
      <trkpt lat="43.7003" lon="6.97663">
        <ele>433.211304</ele>
        <time>2012-01-07T15:20:41+01:00</time>
      </trkpt>
      <trkpt lat="43.70034" lon="6.97684">
        <ele>430.327271</ele>
        <time>2012-01-07T15:20:44+01:00</time>
      </trkpt>
      <trkpt lat="43.70036" lon="6.97722">
        <ele>430.327271</ele>
        <time>2012-01-07T15:20:49+01:00</time>
      </trkpt>
      <trkpt lat="43.70037" lon="6.97722">
        <ele>429.846558</ele>
        <time>2012-01-07T15:20:53+01:00</time>
      </trkpt>
      <trkpt lat="43.70036" lon="6.97723">
        <ele>430.807983</ele>
        <time>2012-01-07T15:21:03+01:00</time>
      </trkpt>
      <trkpt lat="43.70039" lon="6.97727">
        <ele>431.288574</ele>
        <time>2012-01-07T15:22:10+01:00</time>
      </trkpt>
      <trkpt lat="43.70042" lon="6.97737">
        <ele>430.327271</ele>
        <time>2012-01-07T15:22:15+01:00</time>
      </trkpt>
      <trkpt lat="43.70043" lon="6.97756">
        <ele>428.404663</ele>
        <time>2012-01-07T15:22:19+01:00</time>
      </trkpt>
      <trkpt lat="43.7004" lon="6.97776">
        <ele>425.520752</ele>
        <time>2012-01-07T15:22:23+01:00</time>
      </trkpt>
      <trkpt lat="43.70027" lon="6.97787">
        <ele>420.714111</ele>
        <time>2012-01-07T15:22:27+01:00</time>
      </trkpt>
      <trkpt lat="43.70026" lon="6.97792">
        <ele>419.272217</ele>
        <time>2012-01-07T15:22:28+01:00</time>
      </trkpt>
      <trkpt lat="43.70024" lon="6.97851">
        <ele>413.02356</ele>
        <time>2012-01-07T15:22:33+01:00</time>
      </trkpt>
      <trkpt lat="43.70021" lon="6.9788">
        <ele>409.659058</ele>
        <time>2012-01-07T15:22:35+01:00</time>
      </trkpt>
      <trkpt lat="43.70022" lon="6.97973">
        <ele>399.084351</ele>
        <time>2012-01-07T15:22:41+01:00</time>
      </trkpt>
      <trkpt lat="43.70026" lon="6.98034">
        <ele>391.874512</ele>
        <time>2012-01-07T15:22:45+01:00</time>
      </trkpt>
      <trkpt lat="43.70026" lon="6.98085">
        <ele>386.587402</ele>
        <time>2012-01-07T15:22:49+01:00</time>
      </trkpt>
      <trkpt lat="43.70024" lon="6.98098">
        <ele>385.145386</ele>
        <time>2012-01-07T15:22:50+01:00</time>
      </trkpt>
      <trkpt lat="43.70009" lon="6.98125">
        <ele>380.819458</ele>
        <time>2012-01-07T15:22:53+01:00</time>
      </trkpt>
      <trkpt lat="43.69995" lon="6.98137">
        <ele>378.416138</ele>
        <time>2012-01-07T15:22:55+01:00</time>
      </trkpt>
      <trkpt lat="43.69982" lon="6.98166">
        <ele>376.012817</ele>
        <time>2012-01-07T15:22:59+01:00</time>
      </trkpt>
      <trkpt lat="43.69972" lon="6.98182">
        <ele>373.609497</ele>
        <time>2012-01-07T15:23:01+01:00</time>
      </trkpt>
      <trkpt lat="43.69962" lon="6.98202">
        <ele>369.764282</ele>
        <time>2012-01-07T15:23:04+01:00</time>
      </trkpt>
      <trkpt lat="43.69944" lon="6.98213">
        <ele>363.515747</ele>
        <time>2012-01-07T15:23:08+01:00</time>
      </trkpt>
      <trkpt lat="43.69929" lon="6.98221">
        <ele>361.59314</ele>
        <time>2012-01-07T15:23:14+01:00</time>
      </trkpt>
      <trkpt lat="43.6993" lon="6.9822">
        <ele>360.631714</ele>
        <time>2012-01-07T15:23:22+01:00</time>
      </trkpt>
      <trkpt lat="43.69928" lon="6.98227">
        <ele>360.151123</ele>
        <time>2012-01-07T15:23:28+01:00</time>
      </trkpt>
      <trkpt lat="43.69923" lon="6.98242">
        <ele>358.708984</ele>
        <time>2012-01-07T15:23:32+01:00</time>
      </trkpt>
      <trkpt lat="43.69922" lon="6.98244">
        <ele>358.228394</ele>
        <time>2012-01-07T15:23:33+01:00</time>
      </trkpt>
      <trkpt lat="43.69921" lon="6.98247">
        <ele>358.228394</ele>
        <time>2012-01-07T15:23:39+01:00</time>
      </trkpt>
      <trkpt lat="43.6992" lon="6.98249">
        <ele>358.708984</ele>
        <time>2012-01-07T15:23:44+01:00</time>
      </trkpt>
      <trkpt lat="43.69909" lon="6.98271">
        <ele>356.305786</ele>
        <time>2012-01-07T15:23:48+01:00</time>
      </trkpt>
      <trkpt lat="43.69906" lon="6.98288">
        <ele>354.383179</ele>
        <time>2012-01-07T15:23:50+01:00</time>
      </trkpt>
      <trkpt lat="43.69904" lon="6.98311">
        <ele>351.979858</ele>
        <time>2012-01-07T15:23:52+01:00</time>
      </trkpt>
      <trkpt lat="43.69905" lon="6.98348">
        <ele>349.095825</ele>
        <time>2012-01-07T15:23:55+01:00</time>
      </trkpt>
      <trkpt lat="43.69895" lon="6.98388">
        <ele>346.692627</ele>
        <time>2012-01-07T15:23:59+01:00</time>
      </trkpt>
      <trkpt lat="43.69883" lon="6.98415">
        <ele>344.77002</ele>
        <time>2012-01-07T15:24:02+01:00</time>
      </trkpt>
      <trkpt lat="43.69884" lon="6.98437">
        <ele>342.366699</ele>
        <time>2012-01-07T15:24:06+01:00</time>
      </trkpt>
      <trkpt lat="43.69891" lon="6.98448">
        <ele>341.405273</ele>
        <time>2012-01-07T15:24:09+01:00</time>
      </trkpt>
      <trkpt lat="43.69906" lon="6.98471">
        <ele>339.002075</ele>
        <time>2012-01-07T15:24:15+01:00</time>
      </trkpt>
      <trkpt lat="43.69927" lon="6.98505">
        <ele>337.079468</ele>
        <time>2012-01-07T15:24:23+01:00</time>
      </trkpt>
      <trkpt lat="43.69951" lon="6.98543">
        <ele>334.676147</ele>
        <time>2012-01-07T15:24:30+01:00</time>
      </trkpt>
      <trkpt lat="43.69971" lon="6.98585">
        <ele>331.311523</ele>
        <time>2012-01-07T15:24:36+01:00</time>
      </trkpt>
      <trkpt lat="43.69978" lon="6.98619">
        <ele>328.427612</ele>
        <time>2012-01-07T15:24:40+01:00</time>
      </trkpt>
      <trkpt lat="43.69978" lon="6.98641">
        <ele>326.985596</ele>
        <time>2012-01-07T15:24:45+01:00</time>
      </trkpt>
      <trkpt lat="43.69982" lon="6.98649">
        <ele>326.985596</ele>
        <time>2012-01-07T15:24:47+01:00</time>
      </trkpt>
      <trkpt lat="43.70006" lon="6.98693">
        <ele>326.504883</ele>
        <time>2012-01-07T15:24:57+01:00</time>
      </trkpt>
      <trkpt lat="43.70023" lon="6.98727">
        <ele>327.946777</ele>
        <time>2012-01-07T15:25:05+01:00</time>
      </trkpt>
      <trkpt lat="43.70038" lon="6.98752">
        <ele>327.466187</ele>
        <time>2012-01-07T15:25:11+01:00</time>
      </trkpt>
      <trkpt lat="43.7006" lon="6.98777">
        <ele>326.985596</ele>
        <time>2012-01-07T15:25:18+01:00</time>
      </trkpt>
      <trkpt lat="43.70075" lon="6.98803">
        <ele>328.427612</ele>
        <time>2012-01-07T15:25:24+01:00</time>
      </trkpt>
      <trkpt lat="43.70091" lon="6.98834">
        <ele>328.908325</ele>
        <time>2012-01-07T15:25:31+01:00</time>
      </trkpt>
      <trkpt lat="43.70108" lon="6.9886">
        <ele>330.35022</ele>
        <time>2012-01-07T15:25:38+01:00</time>
      </trkpt>
      <trkpt lat="43.7012" lon="6.9889">
        <ele>333.714722</ele>
        <time>2012-01-07T15:25:45+01:00</time>
      </trkpt>
      <trkpt lat="43.70127" lon="6.98909">
        <ele>334.676147</ele>
        <time>2012-01-07T15:25:50+01:00</time>
      </trkpt>
      <trkpt lat="43.70129" lon="6.98913">
        <ele>335.156738</ele>
        <time>2012-01-07T15:25:52+01:00</time>
      </trkpt>
      <trkpt lat="43.70139" lon="6.98919">
        <ele>335.156738</ele>
        <time>2012-01-07T15:25:58+01:00</time>
      </trkpt>
      <trkpt lat="43.70143" lon="6.98919">
        <ele>334.676147</ele>
        <time>2012-01-07T15:25:59+01:00</time>
      </trkpt>
      <trkpt lat="43.70152" lon="6.98918">
        <ele>334.195435</ele>
        <time>2012-01-07T15:26:04+01:00</time>
      </trkpt>
      <trkpt lat="43.70151" lon="6.98918">
        <ele>334.195435</ele>
        <time>2012-01-07T15:26:09+01:00</time>
      </trkpt>
    </trkseg>
  </trk>
</gpx>